<?xml version="1.0" encoding="UTF-8" standalone="no" ?>
<gpx xmlns="http://www.topografix.com/GPX/1/1" xmlns:xsi="http://www.w3.org/2001/XMLSchema-instance" xsi:schemaLocation="http://www.topografix.com/GPX/1/1 http://www.topografix.com/GPX/1/1/gpx.xsd" version="1.1" creator="VisuGPX - https://www.visugpx.com">
  <metadata>
    <name>77F10/26 Fontainebleau Rocher canon par Felix IBP 60</name>
    <desc><![CDATA[[img]https://blogger.googleusercontent.com/img/b/R29vZ2xl/AVvXsEgtxJOGU48crAHxM9XYTfJGVDofllJPoKWzKNFy1wpVypHy4YmHDpPH9xwotriO_Hys3IbzmX5bRrEhK_soXYVgpCI1b1FTXKfj24mCXbUaW4NFqiP5foC7Yv_Er2OgPF222X9Ku5GiqWFoGHTkfXRj5NjHgajEKI-QnEJXNqXH2Pkuc1XIg3_MG2NiRhjG/w400-h266/Blanc%20avec%20Pastel%20Rayures%20Bordure%20Badge%20(4).jpg[/img] 


[img]https://blogger.googleusercontent.com/img/b/R29vZ2xl/AVvXsEhyvuHuSjCnJfzIoSGZR2uCGIVkETMBEY4tFocprqxvjqS91HNZcaXlRpQzvJTLXcG69GcyqERVukDYAYUlZ4i4PZMq9Nrf_b5owv9W_8xhBuQOUsL64U_sh9zV80VVq4ZDnpcr5oWwLTn4oQbyd4nNY26KvX4TT9epzNKumAL2kIdi3BiTugT3H0aE-aLv/s100/Sans%20titre%20(100%20x%20100%20px).jpg[/img]   [b]Rando Club Yerrois[/b]

[img]https://blogger.googleusercontent.com/img/b/R29vZ2xl/AVvXsEisi-VCznprvDLvJTlGk5ZHUUj5yKrsElOgMzt8ZYerzNaNt4s6I63SEOjiyhOhZ79ZCPxjkCWOeBZVT0IfKD9x5cefBKGtWs0HffsRVNBZ_GzPYFVErrhJ-zni0IwzT6lZB9LelozK_h3Vxf6ZGan-fO04zJXTJPzvOFFMGQuZ7ozZxAYlTT7U7G062SCB/s320/Animateur%20%282%29.jpg[/img] [b]Mercredi 11 Février 2026 [/b]
[img]https://blogger.googleusercontent.com/img/b/R29vZ2xl/AVvXsEgLiyi8DByeS3i7Ou4F9krchrsaam-BzjGlHuK7eNSe_7AJuLd5jUWTQdCggn9odJ9fmjqMOcucBLci-qUgj1g1NM2wK2aLvYXOnm5phdzMlYBBt9xKSrCUORYm5b1pQyRO8GdcDjNbzq7w_zn3stIXah3Zbr1uuDsp1qCuGszvlALy0GSl-R6VNyb297QF/s320/Animateur%20%285%29.jpg[/img] Felix
[img]https://blogger.googleusercontent.com/img/b/R29vZ2xl/AVvXsEgFqA__k0dEq3JY-oznl3CprwE9o8zv7MAf5L8hc080yDG3kiv1D5FW-w06fRognG7kP0fdaGHobn_7-vKxwfvoxhwcqfGchPXaAEWfgWBcDKe6xRMWTNRkL596gfBSxFIJO-7t1BSkByGALZv5QZsPR94pLR2Gixc-2pFqXQeknAzgonGgv-FUlZC1J3PM/s320/Animateur%20%284%29.jpg[/img] 9
[img]https://blogger.googleusercontent.com/img/b/R29vZ2xl/AVvXsEiXyNFSKONmIWva9q1OH5UrSlMDxrajCo4dLvQm5jbx-Wk-TheBAsAlZzBIggtXvQD4URVcl_BcGknoH3rsQ1es5f4PGTS0SH_1J2X9smZxjZVQ2JF4I1HHYQOKhcYGEgPUjnAJ55BKZqaTvPA7QJWC_lBmyjkZlIZOUuWkK-LFZ3bbYrc7ENwf-G9FSZjz/s320/Animateur%20%283%29.jpg[/img] A venir
[img]https://blogger.googleusercontent.com/img/b/R29vZ2xl/AVvXsEgmMB2iO1IrKTPCURMAGlOXHHqZrJzcayxqNmlmZUYYT0B2bsq7h22qi5EijjD5RSxyPAO5FcoAt4ldWsl9XvECTiMhXUrQxxPmDOaF4H908DjVHWwIO1Os9VMPQW4TZxnYr7U9Gob0z8JNN3PzizQQ68olan5S5Eoel0d-U1qpBzvTxqScxKYbj30a-lyY/s300/Animateur%20%286%29.jpg[/img] 


[b]Avertissement[/b] Toutes les randonnées répertoriées dans la randothèque du [b]R[/b]ando [b]C[/b]lub [b]Y[/b]errois ont été tracées par l'un de nos animateurs, puis reconnues et enfin effectuées avec un groupe. Pour votre sécurité, regardez toujours la date à laquelle la sortie a été effectuée - Nous tachons de mentionner des conditions météos particulières ou les difficultés éventuelles. N'oubliez jamais les consignes supplémentaires de sécurité
]]></desc>
  </metadata>
  <trk>
    <name><![CDATA[SityTrail - canon]]></name>
    <trkseg>
      <trkpt lat="48.4637" lon="2.66564">
        <ele>94</ele>
        <time>2026-02-11T08:25:40.398+00:00</time>
      </trkpt>
      <trkpt lat="48.46369" lon="2.66564">
        <ele>94</ele>
        <time>2026-02-11T08:25:41.166+00:00</time>
      </trkpt>
      <trkpt lat="48.46368" lon="2.66564">
        <ele>94</ele>
        <time>2026-02-11T08:25:45.228+00:00</time>
      </trkpt>
      <trkpt lat="48.46362" lon="2.66566">
        <ele>94</ele>
        <time>2026-02-11T08:25:49.352+00:00</time>
      </trkpt>
      <trkpt lat="48.46356" lon="2.66565">
        <ele>94</ele>
        <time>2026-02-11T08:25:54.007+00:00</time>
      </trkpt>
      <trkpt lat="48.46357" lon="2.66564">
        <ele>94</ele>
        <time>2026-02-11T08:26:46.966+00:00</time>
      </trkpt>
      <trkpt lat="48.46354" lon="2.66561">
        <ele>94</ele>
        <time>2026-02-11T08:26:51.027+00:00</time>
      </trkpt>
      <trkpt lat="48.46353" lon="2.66554">
        <ele>94</ele>
        <time>2026-02-11T08:26:55.193+00:00</time>
      </trkpt>
      <trkpt lat="48.46354" lon="2.66546">
        <ele>94</ele>
        <time>2026-02-11T08:26:59.849+00:00</time>
      </trkpt>
      <trkpt lat="48.46355" lon="2.66541">
        <ele>95</ele>
        <time>2026-02-11T08:27:04.336+00:00</time>
      </trkpt>
      <trkpt lat="48.46355" lon="2.66533">
        <ele>95</ele>
        <time>2026-02-11T08:28:43.334+00:00</time>
      </trkpt>
      <trkpt lat="48.46355" lon="2.66533">
        <ele>95</ele>
        <time>2026-02-11T08:28:56.335+00:00</time>
      </trkpt>
      <trkpt lat="48.46355" lon="2.66533">
        <ele>95</ele>
        <time>2026-02-11T08:29:01.335+00:00</time>
      </trkpt>
      <trkpt lat="48.46355" lon="2.6653">
        <ele>95</ele>
        <time>2026-02-11T08:29:06.335+00:00</time>
      </trkpt>
      <trkpt lat="48.46355" lon="2.6653">
        <ele>95</ele>
        <time>2026-02-11T08:29:27.334+00:00</time>
      </trkpt>
      <trkpt lat="48.46356" lon="2.66533">
        <ele>95</ele>
        <time>2026-02-11T08:33:07.889+00:00</time>
      </trkpt>
      <trkpt lat="48.46358" lon="2.66523">
        <ele>95</ele>
        <time>2026-02-11T08:33:12.129+00:00</time>
      </trkpt>
      <trkpt lat="48.46355" lon="2.66515">
        <ele>95</ele>
        <time>2026-02-11T08:33:16.651+00:00</time>
      </trkpt>
      <trkpt lat="48.46353" lon="2.66509">
        <ele>97</ele>
        <time>2026-02-11T08:33:20.967+00:00</time>
      </trkpt>
      <trkpt lat="48.46351" lon="2.66504">
        <ele>97</ele>
        <time>2026-02-11T08:33:24.986+00:00</time>
      </trkpt>
      <trkpt lat="48.4635" lon="2.66497">
        <ele>97</ele>
        <time>2026-02-11T08:33:29.609+00:00</time>
      </trkpt>
      <trkpt lat="48.46348" lon="2.66491">
        <ele>97</ele>
        <time>2026-02-11T08:33:34.029+00:00</time>
      </trkpt>
      <trkpt lat="48.46347" lon="2.66484">
        <ele>100</ele>
        <time>2026-02-11T08:33:38.251+00:00</time>
      </trkpt>
      <trkpt lat="48.46346" lon="2.66478">
        <ele>99</ele>
        <time>2026-02-11T08:33:42.329+00:00</time>
      </trkpt>
      <trkpt lat="48.46343" lon="2.66473">
        <ele>99</ele>
        <time>2026-02-11T08:33:46.352+00:00</time>
      </trkpt>
      <trkpt lat="48.4634" lon="2.66467">
        <ele>99</ele>
        <time>2026-02-11T08:33:50.664+00:00</time>
      </trkpt>
      <trkpt lat="48.4634" lon="2.66461">
        <ele>99</ele>
        <time>2026-02-11T08:33:54.870+00:00</time>
      </trkpt>
      <trkpt lat="48.46338" lon="2.66455">
        <ele>100</ele>
        <time>2026-02-11T08:33:58.948+00:00</time>
      </trkpt>
      <trkpt lat="48.46336" lon="2.6645">
        <ele>100</ele>
        <time>2026-02-11T08:34:03.086+00:00</time>
      </trkpt>
      <trkpt lat="48.46332" lon="2.66444">
        <ele>100</ele>
        <time>2026-02-11T08:34:07.626+00:00</time>
      </trkpt>
      <trkpt lat="48.46331" lon="2.66436">
        <ele>100</ele>
        <time>2026-02-11T08:34:11.907+00:00</time>
      </trkpt>
      <trkpt lat="48.46327" lon="2.6643">
        <ele>100</ele>
        <time>2026-02-11T08:34:16.044+00:00</time>
      </trkpt>
      <trkpt lat="48.46324" lon="2.66421">
        <ele>100</ele>
        <time>2026-02-11T08:34:21.069+00:00</time>
      </trkpt>
      <trkpt lat="48.46324" lon="2.66413">
        <ele>100</ele>
        <time>2026-02-11T08:34:25.564+00:00</time>
      </trkpt>
      <trkpt lat="48.4632" lon="2.66407">
        <ele>100</ele>
        <time>2026-02-11T08:34:29.908+00:00</time>
      </trkpt>
      <trkpt lat="48.46316" lon="2.66403">
        <ele>100</ele>
        <time>2026-02-11T08:34:34.010+00:00</time>
      </trkpt>
      <trkpt lat="48.46314" lon="2.66398">
        <ele>100</ele>
        <time>2026-02-11T08:34:38.208+00:00</time>
      </trkpt>
      <trkpt lat="48.46318" lon="2.66394">
        <ele>100</ele>
        <time>2026-02-11T08:34:42.251+00:00</time>
      </trkpt>
      <trkpt lat="48.46322" lon="2.6639">
        <ele>99</ele>
        <time>2026-02-11T08:34:46.329+00:00</time>
      </trkpt>
      <trkpt lat="48.46325" lon="2.66386">
        <ele>99</ele>
        <time>2026-02-11T08:34:50.335+00:00</time>
      </trkpt>
      <trkpt lat="48.46329" lon="2.6638">
        <ele>99</ele>
        <time>2026-02-11T08:34:54.570+00:00</time>
      </trkpt>
      <trkpt lat="48.46333" lon="2.66375">
        <ele>99</ele>
        <time>2026-02-11T08:34:58.810+00:00</time>
      </trkpt>
      <trkpt lat="48.46334" lon="2.66368">
        <ele>98</ele>
        <time>2026-02-11T08:35:03.332+00:00</time>
      </trkpt>
      <trkpt lat="48.46331" lon="2.66359">
        <ele>98</ele>
        <time>2026-02-11T08:35:07.870+00:00</time>
      </trkpt>
      <trkpt lat="48.46328" lon="2.66353">
        <ele>98</ele>
        <time>2026-02-11T08:35:12.272+00:00</time>
      </trkpt>
      <trkpt lat="48.46324" lon="2.66348">
        <ele>98</ele>
        <time>2026-02-11T08:35:17.334+00:00</time>
      </trkpt>
      <trkpt lat="48.46323" lon="2.66341">
        <ele>96</ele>
        <time>2026-02-11T08:35:21.408+00:00</time>
      </trkpt>
      <trkpt lat="48.46322" lon="2.66333">
        <ele>96</ele>
        <time>2026-02-11T08:35:25.947+00:00</time>
      </trkpt>
      <trkpt lat="48.46321" lon="2.66327">
        <ele>96</ele>
        <time>2026-02-11T08:35:30.068+00:00</time>
      </trkpt>
      <trkpt lat="48.46317" lon="2.66324">
        <ele>98</ele>
        <time>2026-02-11T08:35:34.529+00:00</time>
      </trkpt>
      <trkpt lat="48.46314" lon="2.66319">
        <ele>96</ele>
        <time>2026-02-11T08:35:38.797+00:00</time>
      </trkpt>
      <trkpt lat="48.46309" lon="2.66316">
        <ele>96</ele>
        <time>2026-02-11T08:35:43.335+00:00</time>
      </trkpt>
      <trkpt lat="48.4631" lon="2.66311">
        <ele>96</ele>
        <time>2026-02-11T08:35:47.909+00:00</time>
      </trkpt>
      <trkpt lat="48.46312" lon="2.66308">
        <ele>96</ele>
        <time>2026-02-11T08:35:51.938+00:00</time>
      </trkpt>
      <trkpt lat="48.46311" lon="2.66303">
        <ele>96</ele>
        <time>2026-02-11T08:35:56.192+00:00</time>
      </trkpt>
      <trkpt lat="48.46304" lon="2.66305">
        <ele>96</ele>
        <time>2026-02-11T08:36:00.911+00:00</time>
      </trkpt>
      <trkpt lat="48.46301" lon="2.66299">
        <ele>96</ele>
        <time>2026-02-11T08:36:05.335+00:00</time>
      </trkpt>
      <trkpt lat="48.463" lon="2.66291">
        <ele>94</ele>
        <time>2026-02-11T08:36:10.030+00:00</time>
      </trkpt>
      <trkpt lat="48.46299" lon="2.66282">
        <ele>94</ele>
        <time>2026-02-11T08:36:14.491+00:00</time>
      </trkpt>
      <trkpt lat="48.463" lon="2.66274">
        <ele>94</ele>
        <time>2026-02-11T08:36:19.234+00:00</time>
      </trkpt>
      <trkpt lat="48.46297" lon="2.66269">
        <ele>94</ele>
        <time>2026-02-11T08:36:23.335+00:00</time>
      </trkpt>
      <trkpt lat="48.46296" lon="2.66266">
        <ele>94</ele>
        <time>2026-02-11T08:36:28.335+00:00</time>
      </trkpt>
      <trkpt lat="48.46295" lon="2.66264">
        <ele>94</ele>
        <time>2026-02-11T08:36:33.187+00:00</time>
      </trkpt>
      <trkpt lat="48.46288" lon="2.66258">
        <ele>96</ele>
        <time>2026-02-11T08:36:38.173+00:00</time>
      </trkpt>
      <trkpt lat="48.46289" lon="2.66252">
        <ele>96</ele>
        <time>2026-02-11T08:36:42.208+00:00</time>
      </trkpt>
      <trkpt lat="48.46293" lon="2.66248">
        <ele>94</ele>
        <time>2026-02-11T08:36:46.328+00:00</time>
      </trkpt>
      <trkpt lat="48.46294" lon="2.6624">
        <ele>94</ele>
        <time>2026-02-11T08:36:50.815+00:00</time>
      </trkpt>
      <trkpt lat="48.46291" lon="2.66234">
        <ele>96</ele>
        <time>2026-02-11T08:36:54.991+00:00</time>
      </trkpt>
      <trkpt lat="48.46286" lon="2.66229">
        <ele>96</ele>
        <time>2026-02-11T08:36:59.359+00:00</time>
      </trkpt>
      <trkpt lat="48.46286" lon="2.66221">
        <ele>96</ele>
        <time>2026-02-11T08:37:03.628+00:00</time>
      </trkpt>
      <trkpt lat="48.46282" lon="2.66216">
        <ele>96</ele>
        <time>2026-02-11T08:37:07.689+00:00</time>
      </trkpt>
      <trkpt lat="48.46277" lon="2.66213">
        <ele>96</ele>
        <time>2026-02-11T08:37:12.150+00:00</time>
      </trkpt>
      <trkpt lat="48.46273" lon="2.66215">
        <ele>96</ele>
        <time>2026-02-11T08:37:16.334+00:00</time>
      </trkpt>
      <trkpt lat="48.4627" lon="2.6621">
        <ele>96</ele>
        <time>2026-02-11T08:37:20.630+00:00</time>
      </trkpt>
      <trkpt lat="48.46268" lon="2.66202">
        <ele>96</ele>
        <time>2026-02-11T08:37:25.334+00:00</time>
      </trkpt>
      <trkpt lat="48.46267" lon="2.662">
        <ele>96</ele>
        <time>2026-02-11T08:37:29.335+00:00</time>
      </trkpt>
      <trkpt lat="48.46267" lon="2.66199">
        <ele>96</ele>
        <time>2026-02-11T08:37:34.713+00:00</time>
      </trkpt>
      <trkpt lat="48.46265" lon="2.66197">
        <ele>96</ele>
        <time>2026-02-11T08:37:38.804+00:00</time>
      </trkpt>
      <trkpt lat="48.46265" lon="2.66197">
        <ele>96</ele>
        <time>2026-02-11T08:37:40.334+00:00</time>
      </trkpt>
      <trkpt lat="48.46265" lon="2.66195">
        <ele>96</ele>
        <time>2026-02-11T08:37:49.743+00:00</time>
      </trkpt>
      <trkpt lat="48.46271" lon="2.66189">
        <ele>96</ele>
        <time>2026-02-11T08:37:54.249+00:00</time>
      </trkpt>
      <trkpt lat="48.4627" lon="2.66179">
        <ele>97</ele>
        <time>2026-02-11T08:37:59.026+00:00</time>
      </trkpt>
      <trkpt lat="48.46272" lon="2.66172">
        <ele>97</ele>
        <time>2026-02-11T08:38:03.335+00:00</time>
      </trkpt>
      <trkpt lat="48.46274" lon="2.66173">
        <ele>97</ele>
        <time>2026-02-11T08:38:12.335+00:00</time>
      </trkpt>
      <trkpt lat="48.46275" lon="2.66171">
        <ele>97</ele>
        <time>2026-02-11T08:38:16.335+00:00</time>
      </trkpt>
      <trkpt lat="48.46278" lon="2.66166">
        <ele>97</ele>
        <time>2026-02-11T08:38:20.530+00:00</time>
      </trkpt>
      <trkpt lat="48.46284" lon="2.66159">
        <ele>97</ele>
        <time>2026-02-11T08:38:24.807+00:00</time>
      </trkpt>
      <trkpt lat="48.46292" lon="2.66149">
        <ele>98</ele>
        <time>2026-02-11T08:38:43.559+00:00</time>
      </trkpt>
      <trkpt lat="48.46289" lon="2.66149">
        <ele>98</ele>
        <time>2026-02-11T08:38:48.349+00:00</time>
      </trkpt>
      <trkpt lat="48.46285" lon="2.66144">
        <ele>98</ele>
        <time>2026-02-11T08:38:53.045+00:00</time>
      </trkpt>
      <trkpt lat="48.46286" lon="2.66134">
        <ele>98</ele>
        <time>2026-02-11T08:38:57.304+00:00</time>
      </trkpt>
      <trkpt lat="48.46291" lon="2.66128">
        <ele>98</ele>
        <time>2026-02-11T08:39:01.529+00:00</time>
      </trkpt>
      <trkpt lat="48.4629" lon="2.66119">
        <ele>99</ele>
        <time>2026-02-11T08:39:05.825+00:00</time>
      </trkpt>
      <trkpt lat="48.46286" lon="2.66113">
        <ele>99</ele>
        <time>2026-02-11T08:39:10.335+00:00</time>
      </trkpt>
      <trkpt lat="48.46286" lon="2.66113">
        <ele>99</ele>
        <time>2026-02-11T08:39:15.335+00:00</time>
      </trkpt>
      <trkpt lat="48.46285" lon="2.66112">
        <ele>99</ele>
        <time>2026-02-11T08:39:19.851+00:00</time>
      </trkpt>
      <trkpt lat="48.4628" lon="2.66106">
        <ele>99</ele>
        <time>2026-02-11T08:39:24.346+00:00</time>
      </trkpt>
      <trkpt lat="48.46276" lon="2.66102">
        <ele>99</ele>
        <time>2026-02-11T08:39:29.286+00:00</time>
      </trkpt>
      <trkpt lat="48.46275" lon="2.66108">
        <ele>99</ele>
        <time>2026-02-11T08:39:33.335+00:00</time>
      </trkpt>
      <trkpt lat="48.46274" lon="2.66117">
        <ele>99</ele>
        <time>2026-02-11T08:39:37.335+00:00</time>
      </trkpt>
      <trkpt lat="48.46268" lon="2.66122">
        <ele>99</ele>
        <time>2026-02-11T08:39:42.101+00:00</time>
      </trkpt>
      <trkpt lat="48.46264" lon="2.66124">
        <ele>99</ele>
        <time>2026-02-11T08:39:46.206+00:00</time>
      </trkpt>
      <trkpt lat="48.4626" lon="2.66126">
        <ele>98</ele>
        <time>2026-02-11T08:39:50.335+00:00</time>
      </trkpt>
      <trkpt lat="48.46255" lon="2.6613">
        <ele>98</ele>
        <time>2026-02-11T08:39:55.004+00:00</time>
      </trkpt>
      <trkpt lat="48.46252" lon="2.66132">
        <ele>98</ele>
        <time>2026-02-11T08:39:59.334+00:00</time>
      </trkpt>
      <trkpt lat="48.46251" lon="2.66132">
        <ele>98</ele>
        <time>2026-02-11T08:40:32.263+00:00</time>
      </trkpt>
      <trkpt lat="48.46247" lon="2.66134">
        <ele>98</ele>
        <time>2026-02-11T08:40:36.864+00:00</time>
      </trkpt>
      <trkpt lat="48.46247" lon="2.66131">
        <ele>98</ele>
        <time>2026-02-11T08:40:45.242+00:00</time>
      </trkpt>
      <trkpt lat="48.46242" lon="2.66133">
        <ele>98</ele>
        <time>2026-02-11T08:40:49.231+00:00</time>
      </trkpt>
      <trkpt lat="48.46238" lon="2.66133">
        <ele>98</ele>
        <time>2026-02-11T08:40:53.507+00:00</time>
      </trkpt>
      <trkpt lat="48.46235" lon="2.66128">
        <ele>97</ele>
        <time>2026-02-11T08:40:57.570+00:00</time>
      </trkpt>
      <trkpt lat="48.4623" lon="2.66125">
        <ele>97</ele>
        <time>2026-02-11T08:41:02.123+00:00</time>
      </trkpt>
      <trkpt lat="48.46226" lon="2.66123">
        <ele>97</ele>
        <time>2026-02-11T08:41:06.288+00:00</time>
      </trkpt>
      <trkpt lat="48.46223" lon="2.6612">
        <ele>97</ele>
        <time>2026-02-11T08:41:10.333+00:00</time>
      </trkpt>
      <trkpt lat="48.4622" lon="2.66113">
        <ele>97</ele>
        <time>2026-02-11T08:41:15.287+00:00</time>
      </trkpt>
      <trkpt lat="48.46216" lon="2.66105">
        <ele>97</ele>
        <time>2026-02-11T08:41:19.828+00:00</time>
      </trkpt>
      <trkpt lat="48.46212" lon="2.66097">
        <ele>98</ele>
        <time>2026-02-11T08:41:24.334+00:00</time>
      </trkpt>
      <trkpt lat="48.46205" lon="2.66091">
        <ele>98</ele>
        <time>2026-02-11T08:41:28.947+00:00</time>
      </trkpt>
      <trkpt lat="48.46202" lon="2.66081">
        <ele>98</ele>
        <time>2026-02-11T08:41:37.182+00:00</time>
      </trkpt>
      <trkpt lat="48.46203" lon="2.66077">
        <ele>98</ele>
        <time>2026-02-11T08:41:41.751+00:00</time>
      </trkpt>
      <trkpt lat="48.46202" lon="2.66076">
        <ele>98</ele>
        <time>2026-02-11T08:41:46.333+00:00</time>
      </trkpt>
      <trkpt lat="48.46203" lon="2.66075">
        <ele>98</ele>
        <time>2026-02-11T08:41:50.334+00:00</time>
      </trkpt>
      <trkpt lat="48.46198" lon="2.66069">
        <ele>99</ele>
        <time>2026-02-11T08:41:54.928+00:00</time>
      </trkpt>
      <trkpt lat="48.46195" lon="2.66063">
        <ele>99</ele>
        <time>2026-02-11T08:41:59.224+00:00</time>
      </trkpt>
      <trkpt lat="48.4619" lon="2.66058">
        <ele>99</ele>
        <time>2026-02-11T08:42:03.499+00:00</time>
      </trkpt>
      <trkpt lat="48.46186" lon="2.6605">
        <ele>99</ele>
        <time>2026-02-11T08:42:07.638+00:00</time>
      </trkpt>
      <trkpt lat="48.46183" lon="2.66043">
        <ele>99</ele>
        <time>2026-02-11T08:42:12.177+00:00</time>
      </trkpt>
      <trkpt lat="48.46181" lon="2.66036">
        <ele>99</ele>
        <time>2026-02-11T08:42:16.340+00:00</time>
      </trkpt>
      <trkpt lat="48.46178" lon="2.66028">
        <ele>100</ele>
        <time>2026-02-11T08:42:21.179+00:00</time>
      </trkpt>
      <trkpt lat="48.46175" lon="2.66022">
        <ele>100</ele>
        <time>2026-02-11T08:42:25.334+00:00</time>
      </trkpt>
      <trkpt lat="48.46173" lon="2.66014">
        <ele>100</ele>
        <time>2026-02-11T08:42:29.882+00:00</time>
      </trkpt>
      <trkpt lat="48.46168" lon="2.66011">
        <ele>100</ele>
        <time>2026-02-11T08:42:34.123+00:00</time>
      </trkpt>
      <trkpt lat="48.46169" lon="2.66003">
        <ele>100</ele>
        <time>2026-02-11T08:42:39.080+00:00</time>
      </trkpt>
      <trkpt lat="48.46169" lon="2.65998">
        <ele>100</ele>
        <time>2026-02-11T08:42:43.334+00:00</time>
      </trkpt>
      <trkpt lat="48.46171" lon="2.65993">
        <ele>100</ele>
        <time>2026-02-11T08:42:48.334+00:00</time>
      </trkpt>
      <trkpt lat="48.46172" lon="2.65989">
        <ele>100</ele>
        <time>2026-02-11T08:42:52.578+00:00</time>
      </trkpt>
      <trkpt lat="48.46172" lon="2.6598">
        <ele>101</ele>
        <time>2026-02-11T08:42:57.337+00:00</time>
      </trkpt>
      <trkpt lat="48.46167" lon="2.65975">
        <ele>101</ele>
        <time>2026-02-11T08:43:02.260+00:00</time>
      </trkpt>
      <trkpt lat="48.46162" lon="2.65978">
        <ele>101</ele>
        <time>2026-02-11T08:43:06.334+00:00</time>
      </trkpt>
      <trkpt lat="48.46158" lon="2.65983">
        <ele>101</ele>
        <time>2026-02-11T08:43:15.333+00:00</time>
      </trkpt>
      <trkpt lat="48.46155" lon="2.65981">
        <ele>101</ele>
        <time>2026-02-11T08:43:19.906+00:00</time>
      </trkpt>
      <trkpt lat="48.46151" lon="2.65982">
        <ele>104</ele>
        <time>2026-02-11T08:43:24.334+00:00</time>
      </trkpt>
      <trkpt lat="48.46151" lon="2.65976">
        <ele>104</ele>
        <time>2026-02-11T08:43:28.838+00:00</time>
      </trkpt>
      <trkpt lat="48.46154" lon="2.65966">
        <ele>101</ele>
        <time>2026-02-11T08:43:33.334+00:00</time>
      </trkpt>
      <trkpt lat="48.46154" lon="2.65959">
        <ele>101</ele>
        <time>2026-02-11T08:43:37.334+00:00</time>
      </trkpt>
      <trkpt lat="48.46152" lon="2.65953">
        <ele>104</ele>
        <time>2026-02-11T08:43:41.617+00:00</time>
      </trkpt>
      <trkpt lat="48.46152" lon="2.65946">
        <ele>104</ele>
        <time>2026-02-11T08:43:45.704+00:00</time>
      </trkpt>
      <trkpt lat="48.4615" lon="2.65942">
        <ele>104</ele>
        <time>2026-02-11T08:43:49.885+00:00</time>
      </trkpt>
      <trkpt lat="48.46146" lon="2.65941">
        <ele>104</ele>
        <time>2026-02-11T08:43:54.082+00:00</time>
      </trkpt>
      <trkpt lat="48.46144" lon="2.65936">
        <ele>104</ele>
        <time>2026-02-11T08:43:58.723+00:00</time>
      </trkpt>
      <trkpt lat="48.4614" lon="2.65932">
        <ele>104</ele>
        <time>2026-02-11T08:44:03.184+00:00</time>
      </trkpt>
      <trkpt lat="48.46135" lon="2.65931">
        <ele>105</ele>
        <time>2026-02-11T08:44:08.039+00:00</time>
      </trkpt>
      <trkpt lat="48.46133" lon="2.65935">
        <ele>104</ele>
        <time>2026-02-11T08:44:26.333+00:00</time>
      </trkpt>
      <trkpt lat="48.46132" lon="2.65935">
        <ele>104</ele>
        <time>2026-02-11T08:44:30.891+00:00</time>
      </trkpt>
      <trkpt lat="48.46131" lon="2.65936">
        <ele>104</ele>
        <time>2026-02-11T08:44:35.280+00:00</time>
      </trkpt>
      <trkpt lat="48.46128" lon="2.65933">
        <ele>104</ele>
        <time>2026-02-11T08:44:39.300+00:00</time>
      </trkpt>
      <trkpt lat="48.46122" lon="2.65933">
        <ele>108</ele>
        <time>2026-02-11T08:44:43.479+00:00</time>
      </trkpt>
      <trkpt lat="48.46116" lon="2.65935">
        <ele>108</ele>
        <time>2026-02-11T08:44:48.334+00:00</time>
      </trkpt>
      <trkpt lat="48.46115" lon="2.65928">
        <ele>108</ele>
        <time>2026-02-11T08:44:53.334+00:00</time>
      </trkpt>
      <trkpt lat="48.46116" lon="2.65924">
        <ele>108</ele>
        <time>2026-02-11T08:44:57.724+00:00</time>
      </trkpt>
      <trkpt lat="48.46113" lon="2.65919">
        <ele>108</ele>
        <time>2026-02-11T08:45:01.840+00:00</time>
      </trkpt>
      <trkpt lat="48.46111" lon="2.65915">
        <ele>108</ele>
        <time>2026-02-11T08:45:06.324+00:00</time>
      </trkpt>
      <trkpt lat="48.46112" lon="2.65907">
        <ele>108</ele>
        <time>2026-02-11T08:45:10.683+00:00</time>
      </trkpt>
      <trkpt lat="48.46115" lon="2.65902">
        <ele>107</ele>
        <time>2026-02-11T08:45:15.025+00:00</time>
      </trkpt>
      <trkpt lat="48.46118" lon="2.65901">
        <ele>107</ele>
        <time>2026-02-11T08:45:19.334+00:00</time>
      </trkpt>
      <trkpt lat="48.46119" lon="2.65899">
        <ele>107</ele>
        <time>2026-02-11T08:45:23.641+00:00</time>
      </trkpt>
      <trkpt lat="48.46119" lon="2.65897">
        <ele>107</ele>
        <time>2026-02-11T08:45:28.043+00:00</time>
      </trkpt>
      <trkpt lat="48.46118" lon="2.65895">
        <ele>107</ele>
        <time>2026-02-11T08:45:32.299+00:00</time>
      </trkpt>
      <trkpt lat="48.46112" lon="2.65888">
        <ele>107</ele>
        <time>2026-02-11T08:45:37+00:00</time>
      </trkpt>
      <trkpt lat="48.46101" lon="2.65882">
        <ele>107</ele>
        <time>2026-02-11T08:45:50.103+00:00</time>
      </trkpt>
      <trkpt lat="48.46101" lon="2.65879">
        <ele>107</ele>
        <time>2026-02-11T08:45:54.320+00:00</time>
      </trkpt>
      <trkpt lat="48.46103" lon="2.65876">
        <ele>107</ele>
        <time>2026-02-11T08:45:58.839+00:00</time>
      </trkpt>
      <trkpt lat="48.46105" lon="2.65872">
        <ele>107</ele>
        <time>2026-02-11T08:46:03.283+00:00</time>
      </trkpt>
      <trkpt lat="48.46101" lon="2.65869">
        <ele>107</ele>
        <time>2026-02-11T08:46:07.343+00:00</time>
      </trkpt>
      <trkpt lat="48.46096" lon="2.6587">
        <ele>108</ele>
        <time>2026-02-11T08:46:11.643+00:00</time>
      </trkpt>
      <trkpt lat="48.46092" lon="2.65871">
        <ele>108</ele>
        <time>2026-02-11T08:46:16.334+00:00</time>
      </trkpt>
      <trkpt lat="48.46092" lon="2.65866">
        <ele>108</ele>
        <time>2026-02-11T08:46:20.333+00:00</time>
      </trkpt>
      <trkpt lat="48.46097" lon="2.65862">
        <ele>108</ele>
        <time>2026-02-11T08:46:25.104+00:00</time>
      </trkpt>
      <trkpt lat="48.461" lon="2.65858">
        <ele>107</ele>
        <time>2026-02-11T08:46:29.334+00:00</time>
      </trkpt>
      <trkpt lat="48.46104" lon="2.65856">
        <ele>107</ele>
        <time>2026-02-11T08:46:33.481+00:00</time>
      </trkpt>
      <trkpt lat="48.46107" lon="2.65851">
        <ele>107</ele>
        <time>2026-02-11T08:46:37.883+00:00</time>
      </trkpt>
      <trkpt lat="48.46112" lon="2.65847">
        <ele>107</ele>
        <time>2026-02-11T08:46:41.977+00:00</time>
      </trkpt>
      <trkpt lat="48.46114" lon="2.65841">
        <ele>107</ele>
        <time>2026-02-11T08:46:46.200+00:00</time>
      </trkpt>
      <trkpt lat="48.46117" lon="2.65834">
        <ele>107</ele>
        <time>2026-02-11T08:46:50.334+00:00</time>
      </trkpt>
      <trkpt lat="48.46119" lon="2.65826">
        <ele>107</ele>
        <time>2026-02-11T08:46:55.162+00:00</time>
      </trkpt>
      <trkpt lat="48.46121" lon="2.65818">
        <ele>106</ele>
        <time>2026-02-11T08:46:59.333+00:00</time>
      </trkpt>
      <trkpt lat="48.46118" lon="2.65811">
        <ele>106</ele>
        <time>2026-02-11T08:47:03.679+00:00</time>
      </trkpt>
      <trkpt lat="48.46118" lon="2.65804">
        <ele>106</ele>
        <time>2026-02-11T08:47:08.098+00:00</time>
      </trkpt>
      <trkpt lat="48.4612" lon="2.65797">
        <ele>106</ele>
        <time>2026-02-11T08:47:12.334+00:00</time>
      </trkpt>
      <trkpt lat="48.46121" lon="2.65792">
        <ele>106</ele>
        <time>2026-02-11T08:47:16.604+00:00</time>
      </trkpt>
      <trkpt lat="48.46124" lon="2.65786">
        <ele>106</ele>
        <time>2026-02-11T08:47:21.278+00:00</time>
      </trkpt>
      <trkpt lat="48.46126" lon="2.65781">
        <ele>103</ele>
        <time>2026-02-11T08:47:25.722+00:00</time>
      </trkpt>
      <trkpt lat="48.46126" lon="2.65775">
        <ele>103</ele>
        <time>2026-02-11T08:47:30.124+00:00</time>
      </trkpt>
      <trkpt lat="48.46123" lon="2.65768">
        <ele>106</ele>
        <time>2026-02-11T08:47:34.184+00:00</time>
      </trkpt>
      <trkpt lat="48.46116" lon="2.65766">
        <ele>106</ele>
        <time>2026-02-11T08:47:38.664+00:00</time>
      </trkpt>
      <trkpt lat="48.46111" lon="2.65765">
        <ele>106</ele>
        <time>2026-02-11T08:47:42.697+00:00</time>
      </trkpt>
      <trkpt lat="48.46106" lon="2.65766">
        <ele>106</ele>
        <time>2026-02-11T08:47:46.895+00:00</time>
      </trkpt>
      <trkpt lat="48.46102" lon="2.6576">
        <ele>106</ele>
        <time>2026-02-11T08:47:51.040+00:00</time>
      </trkpt>
      <trkpt lat="48.46099" lon="2.65754">
        <ele>106</ele>
        <time>2026-02-11T08:47:55.605+00:00</time>
      </trkpt>
      <trkpt lat="48.46098" lon="2.65748">
        <ele>106</ele>
        <time>2026-02-11T08:47:59.937+00:00</time>
      </trkpt>
      <trkpt lat="48.46098" lon="2.65745">
        <ele>106</ele>
        <time>2026-02-11T08:48:04.333+00:00</time>
      </trkpt>
      <trkpt lat="48.46098" lon="2.65741">
        <ele>106</ele>
        <time>2026-02-11T08:48:08.817+00:00</time>
      </trkpt>
      <trkpt lat="48.46097" lon="2.65737">
        <ele>106</ele>
        <time>2026-02-11T08:48:13.159+00:00</time>
      </trkpt>
      <trkpt lat="48.46095" lon="2.65734">
        <ele>110</ele>
        <time>2026-02-11T08:48:17.160+00:00</time>
      </trkpt>
      <trkpt lat="48.46091" lon="2.65735">
        <ele>110</ele>
        <time>2026-02-11T08:48:21.920+00:00</time>
      </trkpt>
      <trkpt lat="48.4609" lon="2.65731">
        <ele>110</ele>
        <time>2026-02-11T08:48:26.333+00:00</time>
      </trkpt>
      <trkpt lat="48.46087" lon="2.65726">
        <ele>110</ele>
        <time>2026-02-11T08:48:30.940+00:00</time>
      </trkpt>
      <trkpt lat="48.46085" lon="2.65724">
        <ele>110</ele>
        <time>2026-02-11T08:48:34.981+00:00</time>
      </trkpt>
      <trkpt lat="48.46082" lon="2.65723">
        <ele>110</ele>
        <time>2026-02-11T08:48:39.143+00:00</time>
      </trkpt>
      <trkpt lat="48.46081" lon="2.65722">
        <ele>110</ele>
        <time>2026-02-11T08:48:43.325+00:00</time>
      </trkpt>
      <trkpt lat="48.46077" lon="2.65719">
        <ele>110</ele>
        <time>2026-02-11T08:48:47.845+00:00</time>
      </trkpt>
      <trkpt lat="48.46075" lon="2.65713">
        <ele>110</ele>
        <time>2026-02-11T08:48:52.161+00:00</time>
      </trkpt>
      <trkpt lat="48.46072" lon="2.65708">
        <ele>111</ele>
        <time>2026-02-11T08:48:56.341+00:00</time>
      </trkpt>
      <trkpt lat="48.4607" lon="2.65704">
        <ele>111</ele>
        <time>2026-02-11T08:49:01.334+00:00</time>
      </trkpt>
      <trkpt lat="48.4607" lon="2.65702">
        <ele>111</ele>
        <time>2026-02-11T08:49:05.819+00:00</time>
      </trkpt>
      <trkpt lat="48.46074" lon="2.65695">
        <ele>111</ele>
        <time>2026-02-11T08:49:10.334+00:00</time>
      </trkpt>
      <trkpt lat="48.46077" lon="2.65688">
        <ele>111</ele>
        <time>2026-02-11T08:49:14.905+00:00</time>
      </trkpt>
      <trkpt lat="48.46079" lon="2.65683">
        <ele>111</ele>
        <time>2026-02-11T08:49:19.023+00:00</time>
      </trkpt>
      <trkpt lat="48.46081" lon="2.65685">
        <ele>111</ele>
        <time>2026-02-11T08:49:23.503+00:00</time>
      </trkpt>
      <trkpt lat="48.46085" lon="2.65689">
        <ele>111</ele>
        <time>2026-02-11T08:49:27.845+00:00</time>
      </trkpt>
      <trkpt lat="48.46089" lon="2.65693">
        <ele>111</ele>
        <time>2026-02-11T08:49:31.981+00:00</time>
      </trkpt>
      <trkpt lat="48.46095" lon="2.65695">
        <ele>111</ele>
        <time>2026-02-11T08:49:36.333+00:00</time>
      </trkpt>
      <trkpt lat="48.461" lon="2.65697">
        <ele>110</ele>
        <time>2026-02-11T08:49:40.334+00:00</time>
      </trkpt>
      <trkpt lat="48.46107" lon="2.65699">
        <ele>110</ele>
        <time>2026-02-11T08:49:44.862+00:00</time>
      </trkpt>
      <trkpt lat="48.46113" lon="2.65702">
        <ele>110</ele>
        <time>2026-02-11T08:49:49.334+00:00</time>
      </trkpt>
      <trkpt lat="48.46118" lon="2.65708">
        <ele>108</ele>
        <time>2026-02-11T08:49:53.819+00:00</time>
      </trkpt>
      <trkpt lat="48.46124" lon="2.65711">
        <ele>108</ele>
        <time>2026-02-11T08:49:58.362+00:00</time>
      </trkpt>
      <trkpt lat="48.4613" lon="2.65708">
        <ele>107</ele>
        <time>2026-02-11T08:50:02.563+00:00</time>
      </trkpt>
      <trkpt lat="48.4613" lon="2.65697">
        <ele>107</ele>
        <time>2026-02-11T08:50:06.820+00:00</time>
      </trkpt>
      <trkpt lat="48.46127" lon="2.65687">
        <ele>107</ele>
        <time>2026-02-11T08:50:11.227+00:00</time>
      </trkpt>
      <trkpt lat="48.46127" lon="2.65678">
        <ele>110</ele>
        <time>2026-02-11T08:50:15.334+00:00</time>
      </trkpt>
      <trkpt lat="48.46126" lon="2.65672">
        <ele>110</ele>
        <time>2026-02-11T08:50:19.538+00:00</time>
      </trkpt>
      <trkpt lat="48.46126" lon="2.65666">
        <ele>110</ele>
        <time>2026-02-11T08:50:23.803+00:00</time>
      </trkpt>
      <trkpt lat="48.46124" lon="2.6566">
        <ele>111</ele>
        <time>2026-02-11T08:50:27.925+00:00</time>
      </trkpt>
      <trkpt lat="48.46121" lon="2.65657">
        <ele>111</ele>
        <time>2026-02-11T08:50:31.942+00:00</time>
      </trkpt>
      <trkpt lat="48.46118" lon="2.6565">
        <ele>113</ele>
        <time>2026-02-11T08:50:36.301+00:00</time>
      </trkpt>
      <trkpt lat="48.4612" lon="2.65647">
        <ele>113</ele>
        <time>2026-02-11T08:50:41.103+00:00</time>
      </trkpt>
      <trkpt lat="48.46123" lon="2.65648">
        <ele>113</ele>
        <time>2026-02-11T08:50:45.141+00:00</time>
      </trkpt>
      <trkpt lat="48.46126" lon="2.65647">
        <ele>113</ele>
        <time>2026-02-11T08:50:49.334+00:00</time>
      </trkpt>
      <trkpt lat="48.4613" lon="2.65645">
        <ele>113</ele>
        <time>2026-02-11T08:50:53.794+00:00</time>
      </trkpt>
      <trkpt lat="48.46132" lon="2.65639">
        <ele>113</ele>
        <time>2026-02-11T08:50:58.334+00:00</time>
      </trkpt>
      <trkpt lat="48.46134" lon="2.65632">
        <ele>113</ele>
        <time>2026-02-11T08:51:03.223+00:00</time>
      </trkpt>
      <trkpt lat="48.46136" lon="2.65626">
        <ele>113</ele>
        <time>2026-02-11T08:51:07.284+00:00</time>
      </trkpt>
      <trkpt lat="48.46136" lon="2.65622">
        <ele>115</ele>
        <time>2026-02-11T08:51:11.333+00:00</time>
      </trkpt>
      <trkpt lat="48.46137" lon="2.65619">
        <ele>115</ele>
        <time>2026-02-11T08:51:16.334+00:00</time>
      </trkpt>
      <trkpt lat="48.46135" lon="2.65614">
        <ele>115</ele>
        <time>2026-02-11T08:51:21.334+00:00</time>
      </trkpt>
      <trkpt lat="48.46133" lon="2.65608">
        <ele>115</ele>
        <time>2026-02-11T08:51:25.334+00:00</time>
      </trkpt>
      <trkpt lat="48.46134" lon="2.65605">
        <ele>115</ele>
        <time>2026-02-11T08:51:29.862+00:00</time>
      </trkpt>
      <trkpt lat="48.46135" lon="2.65603">
        <ele>115</ele>
        <time>2026-02-11T08:51:34.085+00:00</time>
      </trkpt>
      <trkpt lat="48.46137" lon="2.65599">
        <ele>115</ele>
        <time>2026-02-11T08:51:38.333+00:00</time>
      </trkpt>
      <trkpt lat="48.46138" lon="2.65595">
        <ele>117</ele>
        <time>2026-02-11T08:51:43.334+00:00</time>
      </trkpt>
      <trkpt lat="48.46141" lon="2.6559">
        <ele>117</ele>
        <time>2026-02-11T08:51:48.042+00:00</time>
      </trkpt>
      <trkpt lat="48.46144" lon="2.6559">
        <ele>117</ele>
        <time>2026-02-11T08:51:52.058+00:00</time>
      </trkpt>
      <trkpt lat="48.46148" lon="2.65592">
        <ele>117</ele>
        <time>2026-02-11T08:51:56.222+00:00</time>
      </trkpt>
      <trkpt lat="48.46152" lon="2.65592">
        <ele>117</ele>
        <time>2026-02-11T08:52:01.178+00:00</time>
      </trkpt>
      <trkpt lat="48.46155" lon="2.65595">
        <ele>116</ele>
        <time>2026-02-11T08:52:05.639+00:00</time>
      </trkpt>
      <trkpt lat="48.46159" lon="2.65596">
        <ele>116</ele>
        <time>2026-02-11T08:52:09.683+00:00</time>
      </trkpt>
      <trkpt lat="48.46163" lon="2.65596">
        <ele>116</ele>
        <time>2026-02-11T08:52:13.906+00:00</time>
      </trkpt>
      <trkpt lat="48.46169" lon="2.65584">
        <ele>116</ele>
        <time>2026-02-11T08:53:51.334+00:00</time>
      </trkpt>
      <trkpt lat="48.46168" lon="2.65583">
        <ele>116</ele>
        <time>2026-02-11T08:54:00.334+00:00</time>
      </trkpt>
      <trkpt lat="48.46168" lon="2.65583">
        <ele>116</ele>
        <time>2026-02-11T08:54:19.334+00:00</time>
      </trkpt>
      <trkpt lat="48.46168" lon="2.65583">
        <ele>116</ele>
        <time>2026-02-11T08:54:32.334+00:00</time>
      </trkpt>
      <trkpt lat="48.4617" lon="2.65577">
        <ele>116</ele>
        <time>2026-02-11T08:54:36.334+00:00</time>
      </trkpt>
      <trkpt lat="48.46172" lon="2.65574">
        <ele>116</ele>
        <time>2026-02-11T08:54:40.681+00:00</time>
      </trkpt>
      <trkpt lat="48.46175" lon="2.65569">
        <ele>118</ele>
        <time>2026-02-11T08:54:45.299+00:00</time>
      </trkpt>
      <trkpt lat="48.46174" lon="2.65562">
        <ele>118</ele>
        <time>2026-02-11T08:54:49.788+00:00</time>
      </trkpt>
      <trkpt lat="48.46176" lon="2.65557">
        <ele>118</ele>
        <time>2026-02-11T08:54:53.859+00:00</time>
      </trkpt>
      <trkpt lat="48.4618" lon="2.65556">
        <ele>118</ele>
        <time>2026-02-11T08:54:57.981+00:00</time>
      </trkpt>
      <trkpt lat="48.46185" lon="2.65552">
        <ele>113</ele>
        <time>2026-02-11T08:55:02.477+00:00</time>
      </trkpt>
      <trkpt lat="48.46186" lon="2.65545">
        <ele>113</ele>
        <time>2026-02-11T08:55:07.323+00:00</time>
      </trkpt>
      <trkpt lat="48.46183" lon="2.65538">
        <ele>114</ele>
        <time>2026-02-11T08:55:11.338+00:00</time>
      </trkpt>
      <trkpt lat="48.46176" lon="2.65537">
        <ele>119</ele>
        <time>2026-02-11T08:55:15.920+00:00</time>
      </trkpt>
      <trkpt lat="48.46172" lon="2.65537">
        <ele>119</ele>
        <time>2026-02-11T08:55:20.322+00:00</time>
      </trkpt>
      <trkpt lat="48.46168" lon="2.65541">
        <ele>119</ele>
        <time>2026-02-11T08:55:24.920+00:00</time>
      </trkpt>
      <trkpt lat="48.46164" lon="2.65541">
        <ele>119</ele>
        <time>2026-02-11T08:55:29.083+00:00</time>
      </trkpt>
      <trkpt lat="48.46161" lon="2.65534">
        <ele>119</ele>
        <time>2026-02-11T08:55:33.578+00:00</time>
      </trkpt>
      <trkpt lat="48.4616" lon="2.65526">
        <ele>119</ele>
        <time>2026-02-11T08:55:37.681+00:00</time>
      </trkpt>
      <trkpt lat="48.46163" lon="2.65521">
        <ele>119</ele>
        <time>2026-02-11T08:55:41.863+00:00</time>
      </trkpt>
      <trkpt lat="48.46167" lon="2.65518">
        <ele>119</ele>
        <time>2026-02-11T08:55:46.333+00:00</time>
      </trkpt>
      <trkpt lat="48.4617" lon="2.65513">
        <ele>119</ele>
        <time>2026-02-11T08:55:50.623+00:00</time>
      </trkpt>
      <trkpt lat="48.46172" lon="2.65507">
        <ele>119</ele>
        <time>2026-02-11T08:55:55.017+00:00</time>
      </trkpt>
      <trkpt lat="48.46173" lon="2.65502">
        <ele>119</ele>
        <time>2026-02-11T08:55:59.281+00:00</time>
      </trkpt>
      <trkpt lat="48.46179" lon="2.65502">
        <ele>119</ele>
        <time>2026-02-11T08:56:03.334+00:00</time>
      </trkpt>
      <trkpt lat="48.46184" lon="2.65497">
        <ele>115</ele>
        <time>2026-02-11T08:56:08.333+00:00</time>
      </trkpt>
      <trkpt lat="48.46188" lon="2.65493">
        <ele>115</ele>
        <time>2026-02-11T08:56:13.024+00:00</time>
      </trkpt>
      <trkpt lat="48.46191" lon="2.65489">
        <ele>115</ele>
        <time>2026-02-11T08:56:17.323+00:00</time>
      </trkpt>
      <trkpt lat="48.46195" lon="2.65487">
        <ele>115</ele>
        <time>2026-02-11T08:56:21.802+00:00</time>
      </trkpt>
      <trkpt lat="48.46196" lon="2.65479">
        <ele>117</ele>
        <time>2026-02-11T08:56:26.178+00:00</time>
      </trkpt>
      <trkpt lat="48.46191" lon="2.65475">
        <ele>117</ele>
        <time>2026-02-11T08:56:30.283+00:00</time>
      </trkpt>
      <trkpt lat="48.46188" lon="2.65467">
        <ele>117</ele>
        <time>2026-02-11T08:56:34.640+00:00</time>
      </trkpt>
      <trkpt lat="48.46186" lon="2.65458">
        <ele>119</ele>
        <time>2026-02-11T08:56:38.984+00:00</time>
      </trkpt>
      <trkpt lat="48.46183" lon="2.65452">
        <ele>119</ele>
        <time>2026-02-11T08:56:43.334+00:00</time>
      </trkpt>
      <trkpt lat="48.4618" lon="2.65447">
        <ele>119</ele>
        <time>2026-02-11T08:56:47.840+00:00</time>
      </trkpt>
      <trkpt lat="48.46176" lon="2.65442">
        <ele>119</ele>
        <time>2026-02-11T08:56:52.302+00:00</time>
      </trkpt>
      <trkpt lat="48.46174" lon="2.65436">
        <ele>119</ele>
        <time>2026-02-11T08:56:56.419+00:00</time>
      </trkpt>
      <trkpt lat="48.46174" lon="2.65427">
        <ele>119</ele>
        <time>2026-02-11T08:57:01.238+00:00</time>
      </trkpt>
      <trkpt lat="48.4617" lon="2.65419">
        <ele>119</ele>
        <time>2026-02-11T08:57:05.658+00:00</time>
      </trkpt>
      <trkpt lat="48.46168" lon="2.65411">
        <ele>119</ele>
        <time>2026-02-11T08:57:09.718+00:00</time>
      </trkpt>
      <trkpt lat="48.46171" lon="2.65404">
        <ele>119</ele>
        <time>2026-02-11T08:57:13.797+00:00</time>
      </trkpt>
      <trkpt lat="48.46172" lon="2.65397">
        <ele>119</ele>
        <time>2026-02-11T08:57:18.079+00:00</time>
      </trkpt>
      <trkpt lat="48.46172" lon="2.65388">
        <ele>119</ele>
        <time>2026-02-11T08:57:22.599+00:00</time>
      </trkpt>
      <trkpt lat="48.46171" lon="2.65379">
        <ele>119</ele>
        <time>2026-02-11T08:57:27.334+00:00</time>
      </trkpt>
      <trkpt lat="48.4617" lon="2.65371">
        <ele>118</ele>
        <time>2026-02-11T08:57:31.702+00:00</time>
      </trkpt>
      <trkpt lat="48.46173" lon="2.65368">
        <ele>118</ele>
        <time>2026-02-11T08:57:36.078+00:00</time>
      </trkpt>
      <trkpt lat="48.46176" lon="2.65364">
        <ele>118</ele>
        <time>2026-02-11T08:57:40.198+00:00</time>
      </trkpt>
      <trkpt lat="48.46178" lon="2.65359">
        <ele>118</ele>
        <time>2026-02-11T08:57:44.333+00:00</time>
      </trkpt>
      <trkpt lat="48.46181" lon="2.65354">
        <ele>121</ele>
        <time>2026-02-11T08:57:49.319+00:00</time>
      </trkpt>
      <trkpt lat="48.46183" lon="2.65348">
        <ele>121</ele>
        <time>2026-02-11T08:57:53.334+00:00</time>
      </trkpt>
      <trkpt lat="48.46181" lon="2.65342">
        <ele>120</ele>
        <time>2026-02-11T08:57:57.638+00:00</time>
      </trkpt>
      <trkpt lat="48.46177" lon="2.65339">
        <ele>117</ele>
        <time>2026-02-11T08:58:01.878+00:00</time>
      </trkpt>
      <trkpt lat="48.46178" lon="2.65333">
        <ele>117</ele>
        <time>2026-02-11T08:58:05.902+00:00</time>
      </trkpt>
      <trkpt lat="48.46177" lon="2.65326">
        <ele>117</ele>
        <time>2026-02-11T08:58:10.057+00:00</time>
      </trkpt>
      <trkpt lat="48.46176" lon="2.6532">
        <ele>117</ele>
        <time>2026-02-11T08:58:14.339+00:00</time>
      </trkpt>
      <trkpt lat="48.46177" lon="2.65312">
        <ele>115</ele>
        <time>2026-02-11T08:58:18.578+00:00</time>
      </trkpt>
      <trkpt lat="48.4618" lon="2.65305">
        <ele>115</ele>
        <time>2026-02-11T08:58:22.818+00:00</time>
      </trkpt>
      <trkpt lat="48.46184" lon="2.65299">
        <ele>119</ele>
        <time>2026-02-11T08:58:26.879+00:00</time>
      </trkpt>
      <trkpt lat="48.46188" lon="2.65295">
        <ele>119</ele>
        <time>2026-02-11T08:58:30.922+00:00</time>
      </trkpt>
      <trkpt lat="48.46192" lon="2.6529">
        <ele>118</ele>
        <time>2026-02-11T08:58:35.333+00:00</time>
      </trkpt>
      <trkpt lat="48.46194" lon="2.6529">
        <ele>118</ele>
        <time>2026-02-11T08:58:36.699+00:00</time>
      </trkpt>
      <trkpt lat="48.46199" lon="2.65279">
        <ele>118</ele>
        <time>2026-02-11T08:58:45.825+00:00</time>
      </trkpt>
      <trkpt lat="48.46198" lon="2.65272">
        <ele>118</ele>
        <time>2026-02-11T08:58:50.167+00:00</time>
      </trkpt>
      <trkpt lat="48.46201" lon="2.65267">
        <ele>118</ele>
        <time>2026-02-11T08:58:54.334+00:00</time>
      </trkpt>
      <trkpt lat="48.46205" lon="2.65266">
        <ele>118</ele>
        <time>2026-02-11T08:58:58.334+00:00</time>
      </trkpt>
      <trkpt lat="48.4621" lon="2.65261">
        <ele>120</ele>
        <time>2026-02-11T08:59:02.742+00:00</time>
      </trkpt>
      <trkpt lat="48.46213" lon="2.65255">
        <ele>120</ele>
        <time>2026-02-11T08:59:06.805+00:00</time>
      </trkpt>
      <trkpt lat="48.46216" lon="2.65249">
        <ele>120</ele>
        <time>2026-02-11T08:59:11.338+00:00</time>
      </trkpt>
      <trkpt lat="48.46217" lon="2.65242">
        <ele>120</ele>
        <time>2026-02-11T08:59:15.332+00:00</time>
      </trkpt>
      <trkpt lat="48.46221" lon="2.65236">
        <ele>120</ele>
        <time>2026-02-11T08:59:20+00:00</time>
      </trkpt>
      <trkpt lat="48.46225" lon="2.65236">
        <ele>120</ele>
        <time>2026-02-11T08:59:24.342+00:00</time>
      </trkpt>
      <trkpt lat="48.46229" lon="2.65234">
        <ele>118</ele>
        <time>2026-02-11T08:59:29.257+00:00</time>
      </trkpt>
      <trkpt lat="48.46233" lon="2.65235">
        <ele>118</ele>
        <time>2026-02-11T08:59:33.600+00:00</time>
      </trkpt>
      <trkpt lat="48.46239" lon="2.65235">
        <ele>119</ele>
        <time>2026-02-11T08:59:38.002+00:00</time>
      </trkpt>
      <trkpt lat="48.46244" lon="2.6523">
        <ele>119</ele>
        <time>2026-02-11T08:59:42.332+00:00</time>
      </trkpt>
      <trkpt lat="48.4625" lon="2.65229">
        <ele>119</ele>
        <time>2026-02-11T08:59:46.918+00:00</time>
      </trkpt>
      <trkpt lat="48.46255" lon="2.65231">
        <ele>119</ele>
        <time>2026-02-11T08:59:51.006+00:00</time>
      </trkpt>
      <trkpt lat="48.46261" lon="2.65232">
        <ele>119</ele>
        <time>2026-02-11T08:59:55.333+00:00</time>
      </trkpt>
      <trkpt lat="48.46266" lon="2.6523">
        <ele>118</ele>
        <time>2026-02-11T08:59:59.638+00:00</time>
      </trkpt>
      <trkpt lat="48.46272" lon="2.65229">
        <ele>118</ele>
        <time>2026-02-11T09:00:04.177+00:00</time>
      </trkpt>
      <trkpt lat="48.46277" lon="2.65225">
        <ele>118</ele>
        <time>2026-02-11T09:00:08.792+00:00</time>
      </trkpt>
      <trkpt lat="48.46282" lon="2.65224">
        <ele>118</ele>
        <time>2026-02-11T09:00:13.022+00:00</time>
      </trkpt>
      <trkpt lat="48.46286" lon="2.65227">
        <ele>118</ele>
        <time>2026-02-11T09:00:17.178+00:00</time>
      </trkpt>
      <trkpt lat="48.4629" lon="2.65227">
        <ele>118</ele>
        <time>2026-02-11T09:00:21.860+00:00</time>
      </trkpt>
      <trkpt lat="48.46293" lon="2.65221">
        <ele>112</ele>
        <time>2026-02-11T09:00:26.326+00:00</time>
      </trkpt>
      <trkpt lat="48.46291" lon="2.65212">
        <ele>118</ele>
        <time>2026-02-11T09:00:31.333+00:00</time>
      </trkpt>
      <trkpt lat="48.46291" lon="2.65212">
        <ele>118</ele>
        <time>2026-02-11T09:00:33.333+00:00</time>
      </trkpt>
      <trkpt lat="48.4629" lon="2.6521">
        <ele>118</ele>
        <time>2026-02-11T09:00:42.737+00:00</time>
      </trkpt>
      <trkpt lat="48.46288" lon="2.65208">
        <ele>116</ele>
        <time>2026-02-11T09:00:47.332+00:00</time>
      </trkpt>
      <trkpt lat="48.46282" lon="2.65209">
        <ele>118</ele>
        <time>2026-02-11T09:00:52.333+00:00</time>
      </trkpt>
      <trkpt lat="48.46279" lon="2.652">
        <ele>116</ele>
        <time>2026-02-11T09:00:56.333+00:00</time>
      </trkpt>
      <trkpt lat="48.46283" lon="2.65197">
        <ele>116</ele>
        <time>2026-02-11T09:01:00.798+00:00</time>
      </trkpt>
      <trkpt lat="48.46288" lon="2.652">
        <ele>116</ele>
        <time>2026-02-11T09:01:04.859+00:00</time>
      </trkpt>
      <trkpt lat="48.4629" lon="2.65201">
        <ele>116</ele>
        <time>2026-02-11T09:01:09.333+00:00</time>
      </trkpt>
      <trkpt lat="48.46293" lon="2.65201">
        <ele>111</ele>
        <time>2026-02-11T09:01:14.015+00:00</time>
      </trkpt>
      <trkpt lat="48.46295" lon="2.65195">
        <ele>111</ele>
        <time>2026-02-11T09:01:18.312+00:00</time>
      </trkpt>
      <trkpt lat="48.46298" lon="2.65186">
        <ele>111</ele>
        <time>2026-02-11T09:01:22.970+00:00</time>
      </trkpt>
      <trkpt lat="48.46298" lon="2.65184">
        <ele>111</ele>
        <time>2026-02-11T09:01:27.333+00:00</time>
      </trkpt>
      <trkpt lat="48.46298" lon="2.65178">
        <ele>110</ele>
        <time>2026-02-11T09:01:32.073+00:00</time>
      </trkpt>
      <trkpt lat="48.46298" lon="2.65177">
        <ele>110</ele>
        <time>2026-02-11T09:01:36.245+00:00</time>
      </trkpt>
      <trkpt lat="48.46299" lon="2.65172">
        <ele>110</ele>
        <time>2026-02-11T09:01:40.629+00:00</time>
      </trkpt>
      <trkpt lat="48.46296" lon="2.65165">
        <ele>110</ele>
        <time>2026-02-11T09:01:44.956+00:00</time>
      </trkpt>
      <trkpt lat="48.4629" lon="2.65156">
        <ele>113</ele>
        <time>2026-02-11T09:02:02.333+00:00</time>
      </trkpt>
      <trkpt lat="48.46295" lon="2.65155">
        <ele>110</ele>
        <time>2026-02-11T09:02:07.274+00:00</time>
      </trkpt>
      <trkpt lat="48.46298" lon="2.65149">
        <ele>109</ele>
        <time>2026-02-11T09:02:11.333+00:00</time>
      </trkpt>
      <trkpt lat="48.46296" lon="2.65141">
        <ele>109</ele>
        <time>2026-02-11T09:02:15.802+00:00</time>
      </trkpt>
      <trkpt lat="48.46292" lon="2.65132">
        <ele>109</ele>
        <time>2026-02-11T09:02:20.332+00:00</time>
      </trkpt>
      <trkpt lat="48.46286" lon="2.6513">
        <ele>111</ele>
        <time>2026-02-11T09:02:24.333+00:00</time>
      </trkpt>
      <trkpt lat="48.46279" lon="2.65126">
        <ele>111</ele>
        <time>2026-02-11T09:02:29.129+00:00</time>
      </trkpt>
      <trkpt lat="48.46274" lon="2.65121">
        <ele>108</ele>
        <time>2026-02-11T09:02:33.296+00:00</time>
      </trkpt>
      <trkpt lat="48.46269" lon="2.65116">
        <ele>108</ele>
        <time>2026-02-11T09:02:37.796+00:00</time>
      </trkpt>
      <trkpt lat="48.46263" lon="2.6511">
        <ele>108</ele>
        <time>2026-02-11T09:02:42.292+00:00</time>
      </trkpt>
      <trkpt lat="48.46259" lon="2.65108">
        <ele>108</ele>
        <time>2026-02-11T09:02:46.352+00:00</time>
      </trkpt>
      <trkpt lat="48.46254" lon="2.65104">
        <ele>108</ele>
        <time>2026-02-11T09:02:51.308+00:00</time>
      </trkpt>
      <trkpt lat="48.4625" lon="2.65099">
        <ele>108</ele>
        <time>2026-02-11T09:02:55.727+00:00</time>
      </trkpt>
      <trkpt lat="48.46246" lon="2.65095">
        <ele>106</ele>
        <time>2026-02-11T09:03:00.069+00:00</time>
      </trkpt>
      <trkpt lat="48.46242" lon="2.65092">
        <ele>106</ele>
        <time>2026-02-11T09:03:04.333+00:00</time>
      </trkpt>
      <trkpt lat="48.46238" lon="2.6509">
        <ele>106</ele>
        <time>2026-02-11T09:03:08.333+00:00</time>
      </trkpt>
      <trkpt lat="48.46235" lon="2.65087">
        <ele>106</ele>
        <time>2026-02-11T09:03:13.333+00:00</time>
      </trkpt>
      <trkpt lat="48.46231" lon="2.65088">
        <ele>106</ele>
        <time>2026-02-11T09:03:17.333+00:00</time>
      </trkpt>
      <trkpt lat="48.46226" lon="2.65087">
        <ele>106</ele>
        <time>2026-02-11T09:03:21.373+00:00</time>
      </trkpt>
      <trkpt lat="48.46221" lon="2.65085">
        <ele>106</ele>
        <time>2026-02-11T09:03:25.834+00:00</time>
      </trkpt>
      <trkpt lat="48.46214" lon="2.65084">
        <ele>106</ele>
        <time>2026-02-11T09:03:30.331+00:00</time>
      </trkpt>
      <trkpt lat="48.46209" lon="2.65085">
        <ele>106</ele>
        <time>2026-02-11T09:03:34.333+00:00</time>
      </trkpt>
      <trkpt lat="48.46202" lon="2.65082">
        <ele>106</ele>
        <time>2026-02-11T09:03:38.972+00:00</time>
      </trkpt>
      <trkpt lat="48.46196" lon="2.65081">
        <ele>106</ele>
        <time>2026-02-11T09:03:43.188+00:00</time>
      </trkpt>
      <trkpt lat="48.46189" lon="2.65083">
        <ele>106</ele>
        <time>2026-02-11T09:03:47.591+00:00</time>
      </trkpt>
      <trkpt lat="48.46183" lon="2.65084">
        <ele>106</ele>
        <time>2026-02-11T09:03:51.889+00:00</time>
      </trkpt>
      <trkpt lat="48.46177" lon="2.65083">
        <ele>104</ele>
        <time>2026-02-11T09:03:56.333+00:00</time>
      </trkpt>
      <trkpt lat="48.4617" lon="2.65081">
        <ele>104</ele>
        <time>2026-02-11T09:04:00.633+00:00</time>
      </trkpt>
      <trkpt lat="48.46164" lon="2.65076">
        <ele>104</ele>
        <time>2026-02-11T09:04:04.992+00:00</time>
      </trkpt>
      <trkpt lat="48.46158" lon="2.65073">
        <ele>104</ele>
        <time>2026-02-11T09:04:09.333+00:00</time>
      </trkpt>
      <trkpt lat="48.46152" lon="2.6507">
        <ele>102</ele>
        <time>2026-02-11T09:04:14.171+00:00</time>
      </trkpt>
      <trkpt lat="48.46148" lon="2.65066">
        <ele>102</ele>
        <time>2026-02-11T09:04:18.332+00:00</time>
      </trkpt>
      <trkpt lat="48.46142" lon="2.65064">
        <ele>102</ele>
        <time>2026-02-11T09:04:22.787+00:00</time>
      </trkpt>
      <trkpt lat="48.46131" lon="2.65074">
        <ele>102</ele>
        <time>2026-02-11T09:04:40.333+00:00</time>
      </trkpt>
      <trkpt lat="48.46134" lon="2.65086">
        <ele>102</ele>
        <time>2026-02-11T09:04:45.250+00:00</time>
      </trkpt>
      <trkpt lat="48.46133" lon="2.65096">
        <ele>102</ele>
        <time>2026-02-11T09:04:49.795+00:00</time>
      </trkpt>
      <trkpt lat="48.46132" lon="2.65103">
        <ele>102</ele>
        <time>2026-02-11T09:04:53.815+00:00</time>
      </trkpt>
      <trkpt lat="48.46131" lon="2.6511">
        <ele>102</ele>
        <time>2026-02-11T09:04:58.215+00:00</time>
      </trkpt>
      <trkpt lat="48.4613" lon="2.65117">
        <ele>102</ele>
        <time>2026-02-11T09:05:02.332+00:00</time>
      </trkpt>
      <trkpt lat="48.46125" lon="2.6512">
        <ele>102</ele>
        <time>2026-02-11T09:05:06.873+00:00</time>
      </trkpt>
      <trkpt lat="48.4612" lon="2.65121">
        <ele>102</ele>
        <time>2026-02-11T09:05:10.994+00:00</time>
      </trkpt>
      <trkpt lat="48.46115" lon="2.65125">
        <ele>102</ele>
        <time>2026-02-11T09:05:15.310+00:00</time>
      </trkpt>
      <trkpt lat="48.4611" lon="2.65132">
        <ele>104</ele>
        <time>2026-02-11T09:05:19.712+00:00</time>
      </trkpt>
      <trkpt lat="48.46106" lon="2.65136">
        <ele>104</ele>
        <time>2026-02-11T09:05:24.131+00:00</time>
      </trkpt>
      <trkpt lat="48.46101" lon="2.65141">
        <ele>104</ele>
        <time>2026-02-11T09:05:28.472+00:00</time>
      </trkpt>
      <trkpt lat="48.46096" lon="2.65147">
        <ele>104</ele>
        <time>2026-02-11T09:05:32.789+00:00</time>
      </trkpt>
      <trkpt lat="48.46092" lon="2.65152">
        <ele>104</ele>
        <time>2026-02-11T09:05:36.969+00:00</time>
      </trkpt>
      <trkpt lat="48.46088" lon="2.65158">
        <ele>105</ele>
        <time>2026-02-11T09:05:41.373+00:00</time>
      </trkpt>
      <trkpt lat="48.46084" lon="2.65165">
        <ele>105</ele>
        <time>2026-02-11T09:05:45.800+00:00</time>
      </trkpt>
      <trkpt lat="48.46079" lon="2.65171">
        <ele>105</ele>
        <time>2026-02-11T09:05:50.358+00:00</time>
      </trkpt>
      <trkpt lat="48.46072" lon="2.65174">
        <ele>105</ele>
        <time>2026-02-11T09:05:54.333+00:00</time>
      </trkpt>
      <trkpt lat="48.46066" lon="2.65175">
        <ele>105</ele>
        <time>2026-02-11T09:05:58.474+00:00</time>
      </trkpt>
      <trkpt lat="48.46061" lon="2.65179">
        <ele>105</ele>
        <time>2026-02-11T09:06:02.790+00:00</time>
      </trkpt>
      <trkpt lat="48.46056" lon="2.65182">
        <ele>105</ele>
        <time>2026-02-11T09:06:07.116+00:00</time>
      </trkpt>
      <trkpt lat="48.4605" lon="2.65184">
        <ele>105</ele>
        <time>2026-02-11T09:06:11.750+00:00</time>
      </trkpt>
      <trkpt lat="48.46047" lon="2.65192">
        <ele>105</ele>
        <time>2026-02-11T09:06:16.293+00:00</time>
      </trkpt>
      <trkpt lat="48.46042" lon="2.65196">
        <ele>105</ele>
        <time>2026-02-11T09:06:20.593+00:00</time>
      </trkpt>
      <trkpt lat="48.46038" lon="2.652">
        <ele>106</ele>
        <time>2026-02-11T09:06:25.072+00:00</time>
      </trkpt>
      <trkpt lat="48.46033" lon="2.65204">
        <ele>106</ele>
        <time>2026-02-11T09:06:30.009+00:00</time>
      </trkpt>
      <trkpt lat="48.46029" lon="2.65206">
        <ele>106</ele>
        <time>2026-02-11T09:06:34.011+00:00</time>
      </trkpt>
      <trkpt lat="48.46025" lon="2.65209">
        <ele>106</ele>
        <time>2026-02-11T09:06:38.251+00:00</time>
      </trkpt>
      <trkpt lat="48.46022" lon="2.65217">
        <ele>106</ele>
        <time>2026-02-11T09:06:42.575+00:00</time>
      </trkpt>
      <trkpt lat="48.4602" lon="2.65223">
        <ele>106</ele>
        <time>2026-02-11T09:06:46.627+00:00</time>
      </trkpt>
      <trkpt lat="48.46018" lon="2.65231">
        <ele>106</ele>
        <time>2026-02-11T09:06:51.293+00:00</time>
      </trkpt>
      <trkpt lat="48.46016" lon="2.65238">
        <ele>107</ele>
        <time>2026-02-11T09:06:55.332+00:00</time>
      </trkpt>
      <trkpt lat="48.46014" lon="2.65245">
        <ele>111</ele>
        <time>2026-02-11T09:06:59.508+00:00</time>
      </trkpt>
      <trkpt lat="48.4601" lon="2.65252">
        <ele>111</ele>
        <time>2026-02-11T09:07:03.807+00:00</time>
      </trkpt>
      <trkpt lat="48.46006" lon="2.65256">
        <ele>111</ele>
        <time>2026-02-11T09:07:08.072+00:00</time>
      </trkpt>
      <trkpt lat="48.46005" lon="2.65265">
        <ele>114</ele>
        <time>2026-02-11T09:07:12.730+00:00</time>
      </trkpt>
      <trkpt lat="48.46005" lon="2.65272">
        <ele>114</ele>
        <time>2026-02-11T09:07:17.174+00:00</time>
      </trkpt>
      <trkpt lat="48.46003" lon="2.6528">
        <ele>114</ele>
        <time>2026-02-11T09:07:21.652+00:00</time>
      </trkpt>
      <trkpt lat="48.46001" lon="2.65288">
        <ele>114</ele>
        <time>2026-02-11T09:07:26.233+00:00</time>
      </trkpt>
      <trkpt lat="48.46002" lon="2.65297">
        <ele>117</ele>
        <time>2026-02-11T09:07:30.874+00:00</time>
      </trkpt>
      <trkpt lat="48.46002" lon="2.65304">
        <ele>117</ele>
        <time>2026-02-11T09:07:35.130+00:00</time>
      </trkpt>
      <trkpt lat="48.46003" lon="2.65311">
        <ele>117</ele>
        <time>2026-02-11T09:07:39.212+00:00</time>
      </trkpt>
      <trkpt lat="48.45998" lon="2.65314">
        <ele>117</ele>
        <time>2026-02-11T09:07:43.333+00:00</time>
      </trkpt>
      <trkpt lat="48.45993" lon="2.65312">
        <ele>117</ele>
        <time>2026-02-11T09:07:48.151+00:00</time>
      </trkpt>
      <trkpt lat="48.45989" lon="2.65308">
        <ele>117</ele>
        <time>2026-02-11T09:07:52.195+00:00</time>
      </trkpt>
      <trkpt lat="48.45986" lon="2.65304">
        <ele>117</ele>
        <time>2026-02-11T09:07:56.647+00:00</time>
      </trkpt>
      <trkpt lat="48.45983" lon="2.65302">
        <ele>123</ele>
        <time>2026-02-11T09:08:01.014+00:00</time>
      </trkpt>
      <trkpt lat="48.4598" lon="2.653">
        <ele>123</ele>
        <time>2026-02-11T09:08:05.332+00:00</time>
      </trkpt>
      <trkpt lat="48.45976" lon="2.65298">
        <ele>123</ele>
        <time>2026-02-11T09:08:09.860+00:00</time>
      </trkpt>
      <trkpt lat="48.45972" lon="2.65301">
        <ele>123</ele>
        <time>2026-02-11T09:08:14.333+00:00</time>
      </trkpt>
      <trkpt lat="48.45968" lon="2.65303">
        <ele>123</ele>
        <time>2026-02-11T09:08:19.064+00:00</time>
      </trkpt>
      <trkpt lat="48.45969" lon="2.65311">
        <ele>123</ele>
        <time>2026-02-11T09:08:23.333+00:00</time>
      </trkpt>
      <trkpt lat="48.45973" lon="2.65317">
        <ele>123</ele>
        <time>2026-02-11T09:08:27.884+00:00</time>
      </trkpt>
      <trkpt lat="48.45977" lon="2.65322">
        <ele>127</ele>
        <time>2026-02-11T09:08:32.350+00:00</time>
      </trkpt>
      <trkpt lat="48.45979" lon="2.65328">
        <ele>127</ele>
        <time>2026-02-11T09:08:36.807+00:00</time>
      </trkpt>
      <trkpt lat="48.4598" lon="2.65336">
        <ele>127</ele>
        <time>2026-02-11T09:08:41.333+00:00</time>
      </trkpt>
      <trkpt lat="48.4598" lon="2.65343">
        <ele>127</ele>
        <time>2026-02-11T09:08:46.088+00:00</time>
      </trkpt>
      <trkpt lat="48.45979" lon="2.65349">
        <ele>129</ele>
        <time>2026-02-11T09:08:50.333+00:00</time>
      </trkpt>
      <trkpt lat="48.45979" lon="2.65354">
        <ele>129</ele>
        <time>2026-02-11T09:08:54.600+00:00</time>
      </trkpt>
      <trkpt lat="48.45978" lon="2.65357">
        <ele>129</ele>
        <time>2026-02-11T09:08:58.627+00:00</time>
      </trkpt>
      <trkpt lat="48.45977" lon="2.65361">
        <ele>129</ele>
        <time>2026-02-11T09:09:03.004+00:00</time>
      </trkpt>
      <trkpt lat="48.45978" lon="2.65366">
        <ele>129</ele>
        <time>2026-02-11T09:09:07.019+00:00</time>
      </trkpt>
      <trkpt lat="48.45979" lon="2.65371">
        <ele>129</ele>
        <time>2026-02-11T09:09:11.333+00:00</time>
      </trkpt>
      <trkpt lat="48.45979" lon="2.65376">
        <ele>130</ele>
        <time>2026-02-11T09:09:15.333+00:00</time>
      </trkpt>
      <trkpt lat="48.45978" lon="2.65383">
        <ele>130</ele>
        <time>2026-02-11T09:09:19.764+00:00</time>
      </trkpt>
      <trkpt lat="48.45975" lon="2.65387">
        <ele>130</ele>
        <time>2026-02-11T09:09:23.943+00:00</time>
      </trkpt>
      <trkpt lat="48.4597" lon="2.65398">
        <ele>130</ele>
        <time>2026-02-11T09:12:40.333+00:00</time>
      </trkpt>
      <trkpt lat="48.45969" lon="2.654">
        <ele>130</ele>
        <time>2026-02-11T09:12:44.780+00:00</time>
      </trkpt>
      <trkpt lat="48.4597" lon="2.6541">
        <ele>130</ele>
        <time>2026-02-11T09:12:49.027+00:00</time>
      </trkpt>
      <trkpt lat="48.45968" lon="2.65421">
        <ele>130</ele>
        <time>2026-02-11T09:12:53.328+00:00</time>
      </trkpt>
      <trkpt lat="48.4597" lon="2.65428">
        <ele>130</ele>
        <time>2026-02-11T09:12:58.333+00:00</time>
      </trkpt>
      <trkpt lat="48.45972" lon="2.65431">
        <ele>131</ele>
        <time>2026-02-11T09:13:03.085+00:00</time>
      </trkpt>
      <trkpt lat="48.45971" lon="2.6544">
        <ele>131</ele>
        <time>2026-02-11T09:13:07.264+00:00</time>
      </trkpt>
      <trkpt lat="48.4597" lon="2.65447">
        <ele>131</ele>
        <time>2026-02-11T09:13:11.333+00:00</time>
      </trkpt>
      <trkpt lat="48.45968" lon="2.65453">
        <ele>131</ele>
        <time>2026-02-11T09:13:15.922+00:00</time>
      </trkpt>
      <trkpt lat="48.45965" lon="2.6546">
        <ele>130</ele>
        <time>2026-02-11T09:13:20.264+00:00</time>
      </trkpt>
      <trkpt lat="48.45963" lon="2.65468">
        <ele>130</ele>
        <time>2026-02-11T09:13:24.310+00:00</time>
      </trkpt>
      <trkpt lat="48.45962" lon="2.65476">
        <ele>130</ele>
        <time>2026-02-11T09:13:28.801+00:00</time>
      </trkpt>
      <trkpt lat="48.45959" lon="2.65482">
        <ele>130</ele>
        <time>2026-02-11T09:13:32.861+00:00</time>
      </trkpt>
      <trkpt lat="48.45958" lon="2.65489">
        <ele>133</ele>
        <time>2026-02-11T09:13:37.178+00:00</time>
      </trkpt>
      <trkpt lat="48.45956" lon="2.65496">
        <ele>133</ele>
        <time>2026-02-11T09:13:41.333+00:00</time>
      </trkpt>
      <trkpt lat="48.45953" lon="2.65503">
        <ele>133</ele>
        <time>2026-02-11T09:13:45.562+00:00</time>
      </trkpt>
      <trkpt lat="48.45951" lon="2.6551">
        <ele>133</ele>
        <time>2026-02-11T09:13:49.981+00:00</time>
      </trkpt>
      <trkpt lat="48.4595" lon="2.65519">
        <ele>133</ele>
        <time>2026-02-11T09:13:54.333+00:00</time>
      </trkpt>
      <trkpt lat="48.45948" lon="2.65528">
        <ele>133</ele>
        <time>2026-02-11T09:13:58.723+00:00</time>
      </trkpt>
      <trkpt lat="48.45944" lon="2.65534">
        <ele>133</ele>
        <time>2026-02-11T09:14:03.082+00:00</time>
      </trkpt>
      <trkpt lat="48.4594" lon="2.6554">
        <ele>133</ele>
        <time>2026-02-11T09:14:07.333+00:00</time>
      </trkpt>
      <trkpt lat="48.45939" lon="2.6555">
        <ele>131</ele>
        <time>2026-02-11T09:14:12.123+00:00</time>
      </trkpt>
      <trkpt lat="48.45937" lon="2.65557">
        <ele>131</ele>
        <time>2026-02-11T09:14:16.333+00:00</time>
      </trkpt>
      <trkpt lat="48.45935" lon="2.65567">
        <ele>131</ele>
        <time>2026-02-11T09:14:20.943+00:00</time>
      </trkpt>
      <trkpt lat="48.45934" lon="2.65575">
        <ele>128</ele>
        <time>2026-02-11T09:14:25.333+00:00</time>
      </trkpt>
      <trkpt lat="48.45932" lon="2.65583">
        <ele>128</ele>
        <time>2026-02-11T09:14:29.509+00:00</time>
      </trkpt>
      <trkpt lat="48.45932" lon="2.65592">
        <ele>128</ele>
        <time>2026-02-11T09:14:34.207+00:00</time>
      </trkpt>
      <trkpt lat="48.45927" lon="2.65598">
        <ele>128</ele>
        <time>2026-02-11T09:14:38.333+00:00</time>
      </trkpt>
      <trkpt lat="48.45924" lon="2.65607">
        <ele>128</ele>
        <time>2026-02-11T09:14:43.188+00:00</time>
      </trkpt>
      <trkpt lat="48.45923" lon="2.65615">
        <ele>128</ele>
        <time>2026-02-11T09:14:47.346+00:00</time>
      </trkpt>
      <trkpt lat="48.4592" lon="2.65622">
        <ele>128</ele>
        <time>2026-02-11T09:14:51.333+00:00</time>
      </trkpt>
      <trkpt lat="48.45918" lon="2.6563">
        <ele>128</ele>
        <time>2026-02-11T09:14:55.450+00:00</time>
      </trkpt>
      <trkpt lat="48.45917" lon="2.65639">
        <ele>128</ele>
        <time>2026-02-11T09:15:00.014+00:00</time>
      </trkpt>
      <trkpt lat="48.45915" lon="2.65646">
        <ele>128</ele>
        <time>2026-02-11T09:15:04.332+00:00</time>
      </trkpt>
      <trkpt lat="48.45914" lon="2.65655">
        <ele>128</ele>
        <time>2026-02-11T09:15:08.908+00:00</time>
      </trkpt>
      <trkpt lat="48.45911" lon="2.65663">
        <ele>128</ele>
        <time>2026-02-11T09:15:13.130+00:00</time>
      </trkpt>
      <trkpt lat="48.45907" lon="2.65669">
        <ele>128</ele>
        <time>2026-02-11T09:15:17.327+00:00</time>
      </trkpt>
      <trkpt lat="48.45902" lon="2.65673">
        <ele>131</ele>
        <time>2026-02-11T09:15:21.950+00:00</time>
      </trkpt>
      <trkpt lat="48.45899" lon="2.65678">
        <ele>131</ele>
        <time>2026-02-11T09:15:25.950+00:00</time>
      </trkpt>
      <trkpt lat="48.45897" lon="2.65685">
        <ele>132</ele>
        <time>2026-02-11T09:15:30.146+00:00</time>
      </trkpt>
      <trkpt lat="48.45892" lon="2.65688">
        <ele>132</ele>
        <time>2026-02-11T09:15:34.333+00:00</time>
      </trkpt>
      <trkpt lat="48.45888" lon="2.65692">
        <ele>132</ele>
        <time>2026-02-11T09:15:38.591+00:00</time>
      </trkpt>
      <trkpt lat="48.45884" lon="2.65695">
        <ele>132</ele>
        <time>2026-02-11T09:15:43.333+00:00</time>
      </trkpt>
      <trkpt lat="48.4588" lon="2.65699">
        <ele>132</ele>
        <time>2026-02-11T09:15:47.807+00:00</time>
      </trkpt>
      <trkpt lat="48.45877" lon="2.65706">
        <ele>132</ele>
        <time>2026-02-11T09:15:52.243+00:00</time>
      </trkpt>
      <trkpt lat="48.45876" lon="2.65714">
        <ele>130</ele>
        <time>2026-02-11T09:15:56.600+00:00</time>
      </trkpt>
      <trkpt lat="48.45876" lon="2.65723">
        <ele>130</ele>
        <time>2026-02-11T09:16:00.848+00:00</time>
      </trkpt>
      <trkpt lat="48.45874" lon="2.65732">
        <ele>131</ele>
        <time>2026-02-11T09:16:04.925+00:00</time>
      </trkpt>
      <trkpt lat="48.45872" lon="2.6574">
        <ele>129</ele>
        <time>2026-02-11T09:16:09.333+00:00</time>
      </trkpt>
      <trkpt lat="48.4587" lon="2.65748">
        <ele>129</ele>
        <time>2026-02-11T09:16:13.549+00:00</time>
      </trkpt>
      <trkpt lat="48.45868" lon="2.65756">
        <ele>129</ele>
        <time>2026-02-11T09:16:17.907+00:00</time>
      </trkpt>
      <trkpt lat="48.45864" lon="2.65761">
        <ele>129</ele>
        <time>2026-02-11T09:16:22.061+00:00</time>
      </trkpt>
      <trkpt lat="48.45864" lon="2.65769">
        <ele>126</ele>
        <time>2026-02-11T09:16:26.180+00:00</time>
      </trkpt>
      <trkpt lat="48.45861" lon="2.65778">
        <ele>126</ele>
        <time>2026-02-11T09:16:31.104+00:00</time>
      </trkpt>
      <trkpt lat="48.45858" lon="2.65784">
        <ele>126</ele>
        <time>2026-02-11T09:16:35.333+00:00</time>
      </trkpt>
      <trkpt lat="48.45855" lon="2.65791">
        <ele>126</ele>
        <time>2026-02-11T09:16:39.588+00:00</time>
      </trkpt>
      <trkpt lat="48.45852" lon="2.65798">
        <ele>124</ele>
        <time>2026-02-11T09:16:43.981+00:00</time>
      </trkpt>
      <trkpt lat="48.45848" lon="2.65803">
        <ele>124</ele>
        <time>2026-02-11T09:16:48.100+00:00</time>
      </trkpt>
      <trkpt lat="48.45846" lon="2.6581">
        <ele>126</ele>
        <time>2026-02-11T09:16:52.263+00:00</time>
      </trkpt>
      <trkpt lat="48.45842" lon="2.65817">
        <ele>126</ele>
        <time>2026-02-11T09:16:56.826+00:00</time>
      </trkpt>
      <trkpt lat="48.45836" lon="2.65822">
        <ele>124</ele>
        <time>2026-02-11T09:17:01.287+00:00</time>
      </trkpt>
      <trkpt lat="48.4583" lon="2.65821">
        <ele>124</ele>
        <time>2026-02-11T09:17:05.662+00:00</time>
      </trkpt>
      <trkpt lat="48.45826" lon="2.65818">
        <ele>126</ele>
        <time>2026-02-11T09:17:09.884+00:00</time>
      </trkpt>
      <trkpt lat="48.45822" lon="2.65813">
        <ele>126</ele>
        <time>2026-02-11T09:17:14.141+00:00</time>
      </trkpt>
      <trkpt lat="48.45817" lon="2.65809">
        <ele>127</ele>
        <time>2026-02-11T09:17:18.167+00:00</time>
      </trkpt>
      <trkpt lat="48.45814" lon="2.65803">
        <ele>127</ele>
        <time>2026-02-11T09:17:22.333+00:00</time>
      </trkpt>
      <trkpt lat="48.45812" lon="2.65798">
        <ele>127</ele>
        <time>2026-02-11T09:17:26.333+00:00</time>
      </trkpt>
      <trkpt lat="48.45809" lon="2.65792">
        <ele>127</ele>
        <time>2026-02-11T09:17:30.372+00:00</time>
      </trkpt>
      <trkpt lat="48.45806" lon="2.65786">
        <ele>129</ele>
        <time>2026-02-11T09:17:35.182+00:00</time>
      </trkpt>
      <trkpt lat="48.45805" lon="2.65783">
        <ele>129</ele>
        <time>2026-02-11T09:18:13.332+00:00</time>
      </trkpt>
      <trkpt lat="48.45805" lon="2.65783">
        <ele>129</ele>
        <time>2026-02-11T09:18:20.307+00:00</time>
      </trkpt>
      <trkpt lat="48.45801" lon="2.65784">
        <ele>129</ele>
        <time>2026-02-11T09:18:24.333+00:00</time>
      </trkpt>
      <trkpt lat="48.45794" lon="2.65785">
        <ele>129</ele>
        <time>2026-02-11T09:18:28.529+00:00</time>
      </trkpt>
      <trkpt lat="48.45789" lon="2.65791">
        <ele>128</ele>
        <time>2026-02-11T09:18:32.801+00:00</time>
      </trkpt>
      <trkpt lat="48.45783" lon="2.65796">
        <ele>127</ele>
        <time>2026-02-11T09:18:37.228+00:00</time>
      </trkpt>
      <trkpt lat="48.45778" lon="2.65795">
        <ele>127</ele>
        <time>2026-02-11T09:18:41.350+00:00</time>
      </trkpt>
      <trkpt lat="48.45772" lon="2.65793">
        <ele>127</ele>
        <time>2026-02-11T09:18:45.902+00:00</time>
      </trkpt>
      <trkpt lat="48.45768" lon="2.65791">
        <ele>128</ele>
        <time>2026-02-11T09:18:50.227+00:00</time>
      </trkpt>
      <trkpt lat="48.45765" lon="2.65788">
        <ele>128</ele>
        <time>2026-02-11T09:18:54.333+00:00</time>
      </trkpt>
      <trkpt lat="48.45761" lon="2.65788">
        <ele>128</ele>
        <time>2026-02-11T09:18:58.943+00:00</time>
      </trkpt>
      <trkpt lat="48.45756" lon="2.6579">
        <ele>128</ele>
        <time>2026-02-11T09:19:03.021+00:00</time>
      </trkpt>
      <trkpt lat="48.45753" lon="2.65783">
        <ele>128</ele>
        <time>2026-02-11T09:19:08.104+00:00</time>
      </trkpt>
      <trkpt lat="48.45752" lon="2.65777">
        <ele>128</ele>
        <time>2026-02-11T09:19:12.151+00:00</time>
      </trkpt>
      <trkpt lat="48.45752" lon="2.65771">
        <ele>128</ele>
        <time>2026-02-11T09:19:16.355+00:00</time>
      </trkpt>
      <trkpt lat="48.45751" lon="2.65765">
        <ele>128</ele>
        <time>2026-02-11T09:19:20.552+00:00</time>
      </trkpt>
      <trkpt lat="48.45749" lon="2.65761">
        <ele>128</ele>
        <time>2026-02-11T09:19:24.987+00:00</time>
      </trkpt>
      <trkpt lat="48.45746" lon="2.65755">
        <ele>128</ele>
        <time>2026-02-11T09:19:29.670+00:00</time>
      </trkpt>
      <trkpt lat="48.45742" lon="2.6575">
        <ele>128</ele>
        <time>2026-02-11T09:19:34.332+00:00</time>
      </trkpt>
      <trkpt lat="48.45739" lon="2.65744">
        <ele>128</ele>
        <time>2026-02-11T09:19:38.502+00:00</time>
      </trkpt>
      <trkpt lat="48.45735" lon="2.65742">
        <ele>129</ele>
        <time>2026-02-11T09:19:43.241+00:00</time>
      </trkpt>
      <trkpt lat="48.45733" lon="2.65735">
        <ele>130</ele>
        <time>2026-02-11T09:19:47.333+00:00</time>
      </trkpt>
      <trkpt lat="48.45733" lon="2.65736">
        <ele>130</ele>
        <time>2026-02-11T09:19:52.333+00:00</time>
      </trkpt>
      <trkpt lat="48.45733" lon="2.65735">
        <ele>130</ele>
        <time>2026-02-11T09:19:57.237+00:00</time>
      </trkpt>
      <trkpt lat="48.45728" lon="2.6573">
        <ele>130</ele>
        <time>2026-02-11T09:20:01.262+00:00</time>
      </trkpt>
      <trkpt lat="48.45722" lon="2.65725">
        <ele>130</ele>
        <time>2026-02-11T09:20:05.418+00:00</time>
      </trkpt>
      <trkpt lat="48.45718" lon="2.65721">
        <ele>130</ele>
        <time>2026-02-11T09:20:09.741+00:00</time>
      </trkpt>
      <trkpt lat="48.45714" lon="2.65718">
        <ele>130</ele>
        <time>2026-02-11T09:20:14.262+00:00</time>
      </trkpt>
      <trkpt lat="48.45711" lon="2.65714">
        <ele>130</ele>
        <time>2026-02-11T09:20:18.518+00:00</time>
      </trkpt>
      <trkpt lat="48.45707" lon="2.6571">
        <ele>130</ele>
        <time>2026-02-11T09:20:22.621+00:00</time>
      </trkpt>
      <trkpt lat="48.45703" lon="2.65706">
        <ele>131</ele>
        <time>2026-02-11T09:20:27.204+00:00</time>
      </trkpt>
      <trkpt lat="48.45699" lon="2.65702">
        <ele>131</ele>
        <time>2026-02-11T09:20:31.238+00:00</time>
      </trkpt>
      <trkpt lat="48.45695" lon="2.65697">
        <ele>131</ele>
        <time>2026-02-11T09:20:35.620+00:00</time>
      </trkpt>
      <trkpt lat="48.4569" lon="2.65692">
        <ele>131</ele>
        <time>2026-02-11T09:20:40.081+00:00</time>
      </trkpt>
      <trkpt lat="48.45685" lon="2.65687">
        <ele>131</ele>
        <time>2026-02-11T09:20:44.482+00:00</time>
      </trkpt>
      <trkpt lat="48.4568" lon="2.65682">
        <ele>131</ele>
        <time>2026-02-11T09:20:48.978+00:00</time>
      </trkpt>
      <trkpt lat="48.45675" lon="2.65677">
        <ele>131</ele>
        <time>2026-02-11T09:20:53.600+00:00</time>
      </trkpt>
      <trkpt lat="48.45671" lon="2.65673">
        <ele>131</ele>
        <time>2026-02-11T09:20:57.618+00:00</time>
      </trkpt>
      <trkpt lat="48.45667" lon="2.65668">
        <ele>131</ele>
        <time>2026-02-11T09:21:01.738+00:00</time>
      </trkpt>
      <trkpt lat="48.45662" lon="2.65664">
        <ele>131</ele>
        <time>2026-02-11T09:21:05.780+00:00</time>
      </trkpt>
      <trkpt lat="48.45658" lon="2.65659">
        <ele>131</ele>
        <time>2026-02-11T09:21:10.040+00:00</time>
      </trkpt>
      <trkpt lat="48.45653" lon="2.65654">
        <ele>131</ele>
        <time>2026-02-11T09:21:14.280+00:00</time>
      </trkpt>
      <trkpt lat="48.45649" lon="2.65649">
        <ele>132</ele>
        <time>2026-02-11T09:21:18.333+00:00</time>
      </trkpt>
      <trkpt lat="48.45644" lon="2.65645">
        <ele>132</ele>
        <time>2026-02-11T09:21:22.503+00:00</time>
      </trkpt>
      <trkpt lat="48.45639" lon="2.65641">
        <ele>132</ele>
        <time>2026-02-11T09:21:26.818+00:00</time>
      </trkpt>
      <trkpt lat="48.45634" lon="2.65635">
        <ele>132</ele>
        <time>2026-02-11T09:21:31.333+00:00</time>
      </trkpt>
      <trkpt lat="48.4563" lon="2.6563">
        <ele>132</ele>
        <time>2026-02-11T09:21:35.759+00:00</time>
      </trkpt>
      <trkpt lat="48.45626" lon="2.65625">
        <ele>133</ele>
        <time>2026-02-11T09:21:40.100+00:00</time>
      </trkpt>
      <trkpt lat="48.45621" lon="2.6562">
        <ele>133</ele>
        <time>2026-02-11T09:21:44.500+00:00</time>
      </trkpt>
      <trkpt lat="48.45615" lon="2.65615">
        <ele>133</ele>
        <time>2026-02-11T09:21:49.091+00:00</time>
      </trkpt>
      <trkpt lat="48.45611" lon="2.65609">
        <ele>133</ele>
        <time>2026-02-11T09:21:53.332+00:00</time>
      </trkpt>
      <trkpt lat="48.45607" lon="2.65604">
        <ele>133</ele>
        <time>2026-02-11T09:21:57.518+00:00</time>
      </trkpt>
      <trkpt lat="48.45603" lon="2.65601">
        <ele>133</ele>
        <time>2026-02-11T09:22:01.962+00:00</time>
      </trkpt>
      <trkpt lat="48.45599" lon="2.65598">
        <ele>133</ele>
        <time>2026-02-11T09:22:06.333+00:00</time>
      </trkpt>
      <trkpt lat="48.45594" lon="2.65592">
        <ele>133</ele>
        <time>2026-02-11T09:22:10.942+00:00</time>
      </trkpt>
      <trkpt lat="48.45589" lon="2.65585">
        <ele>133</ele>
        <time>2026-02-11T09:22:15.259+00:00</time>
      </trkpt>
      <trkpt lat="48.45584" lon="2.65579">
        <ele>133</ele>
        <time>2026-02-11T09:22:19.642+00:00</time>
      </trkpt>
      <trkpt lat="48.45579" lon="2.65573">
        <ele>133</ele>
        <time>2026-02-11T09:22:24.061+00:00</time>
      </trkpt>
      <trkpt lat="48.45574" lon="2.65569">
        <ele>133</ele>
        <time>2026-02-11T09:22:28.599+00:00</time>
      </trkpt>
      <trkpt lat="48.45569" lon="2.65563">
        <ele>133</ele>
        <time>2026-02-11T09:22:33.198+00:00</time>
      </trkpt>
      <trkpt lat="48.45564" lon="2.65559">
        <ele>133</ele>
        <time>2026-02-11T09:22:37.718+00:00</time>
      </trkpt>
      <trkpt lat="48.45559" lon="2.65555">
        <ele>133</ele>
        <time>2026-02-11T09:22:42.221+00:00</time>
      </trkpt>
      <trkpt lat="48.45555" lon="2.6555">
        <ele>133</ele>
        <time>2026-02-11T09:22:46.562+00:00</time>
      </trkpt>
      <trkpt lat="48.4555" lon="2.65545">
        <ele>133</ele>
        <time>2026-02-11T09:22:50.921+00:00</time>
      </trkpt>
      <trkpt lat="48.45546" lon="2.65541">
        <ele>134</ele>
        <time>2026-02-11T09:22:55.058+00:00</time>
      </trkpt>
      <trkpt lat="48.45541" lon="2.65537">
        <ele>135</ele>
        <time>2026-02-11T09:22:59.117+00:00</time>
      </trkpt>
      <trkpt lat="48.45538" lon="2.65528">
        <ele>135</ele>
        <time>2026-02-11T09:23:03.622+00:00</time>
      </trkpt>
      <trkpt lat="48.45535" lon="2.6552">
        <ele>135</ele>
        <time>2026-02-11T09:23:08.083+00:00</time>
      </trkpt>
      <trkpt lat="48.45533" lon="2.65511">
        <ele>135</ele>
        <time>2026-02-11T09:23:12.638+00:00</time>
      </trkpt>
      <trkpt lat="48.45531" lon="2.65504">
        <ele>135</ele>
        <time>2026-02-11T09:23:16.672+00:00</time>
      </trkpt>
      <trkpt lat="48.45528" lon="2.65497">
        <ele>135</ele>
        <time>2026-02-11T09:23:21.192+00:00</time>
      </trkpt>
      <trkpt lat="48.45525" lon="2.6549">
        <ele>135</ele>
        <time>2026-02-11T09:23:25.551+00:00</time>
      </trkpt>
      <trkpt lat="48.45522" lon="2.65482">
        <ele>136</ele>
        <time>2026-02-11T09:23:29.978+00:00</time>
      </trkpt>
      <trkpt lat="48.45521" lon="2.65474">
        <ele>136</ele>
        <time>2026-02-11T09:23:34.332+00:00</time>
      </trkpt>
      <trkpt lat="48.45518" lon="2.65466">
        <ele>136</ele>
        <time>2026-02-11T09:23:38.774+00:00</time>
      </trkpt>
      <trkpt lat="48.45516" lon="2.65457">
        <ele>138</ele>
        <time>2026-02-11T09:23:43.259+00:00</time>
      </trkpt>
      <trkpt lat="48.45514" lon="2.65451">
        <ele>138</ele>
        <time>2026-02-11T09:23:47.592+00:00</time>
      </trkpt>
      <trkpt lat="48.45512" lon="2.65444">
        <ele>139</ele>
        <time>2026-02-11T09:23:52.038+00:00</time>
      </trkpt>
      <trkpt lat="48.45511" lon="2.65436">
        <ele>139</ele>
        <time>2026-02-11T09:23:56.332+00:00</time>
      </trkpt>
      <trkpt lat="48.45508" lon="2.65428">
        <ele>140</ele>
        <time>2026-02-11T09:24:00.898+00:00</time>
      </trkpt>
      <trkpt lat="48.45506" lon="2.6542">
        <ele>140</ele>
        <time>2026-02-11T09:24:05.332+00:00</time>
      </trkpt>
      <trkpt lat="48.45504" lon="2.65413">
        <ele>140</ele>
        <time>2026-02-11T09:24:09.795+00:00</time>
      </trkpt>
      <trkpt lat="48.45502" lon="2.65405">
        <ele>140</ele>
        <time>2026-02-11T09:24:14.213+00:00</time>
      </trkpt>
      <trkpt lat="48.455" lon="2.65396">
        <ele>140</ele>
        <time>2026-02-11T09:24:19.121+00:00</time>
      </trkpt>
      <trkpt lat="48.45498" lon="2.65387">
        <ele>140</ele>
        <time>2026-02-11T09:24:23.520+00:00</time>
      </trkpt>
      <trkpt lat="48.45498" lon="2.65378">
        <ele>140</ele>
        <time>2026-02-11T09:24:27.895+00:00</time>
      </trkpt>
      <trkpt lat="48.45497" lon="2.6537">
        <ele>140</ele>
        <time>2026-02-11T09:24:32.360+00:00</time>
      </trkpt>
      <trkpt lat="48.45496" lon="2.65362">
        <ele>140</ele>
        <time>2026-02-11T09:24:36.775+00:00</time>
      </trkpt>
      <trkpt lat="48.45494" lon="2.65353">
        <ele>140</ele>
        <time>2026-02-11T09:24:41.332+00:00</time>
      </trkpt>
      <trkpt lat="48.45493" lon="2.65344">
        <ele>140</ele>
        <time>2026-02-11T09:24:45.671+00:00</time>
      </trkpt>
      <trkpt lat="48.45492" lon="2.65336">
        <ele>140</ele>
        <time>2026-02-11T09:24:50.057+00:00</time>
      </trkpt>
      <trkpt lat="48.45492" lon="2.65326">
        <ele>140</ele>
        <time>2026-02-11T09:24:54.370+00:00</time>
      </trkpt>
      <trkpt lat="48.45489" lon="2.65315">
        <ele>140</ele>
        <time>2026-02-11T09:24:58.934+00:00</time>
      </trkpt>
      <trkpt lat="48.45487" lon="2.65306">
        <ele>140</ele>
        <time>2026-02-11T09:25:03.333+00:00</time>
      </trkpt>
      <trkpt lat="48.45486" lon="2.65298">
        <ele>140</ele>
        <time>2026-02-11T09:25:07.837+00:00</time>
      </trkpt>
      <trkpt lat="48.45485" lon="2.6529">
        <ele>140</ele>
        <time>2026-02-11T09:25:12.277+00:00</time>
      </trkpt>
      <trkpt lat="48.45485" lon="2.65281">
        <ele>140</ele>
        <time>2026-02-11T09:25:16.617+00:00</time>
      </trkpt>
      <trkpt lat="48.45483" lon="2.65273">
        <ele>140</ele>
        <time>2026-02-11T09:25:21.333+00:00</time>
      </trkpt>
      <trkpt lat="48.45482" lon="2.65266">
        <ele>140</ele>
        <time>2026-02-11T09:25:25.332+00:00</time>
      </trkpt>
      <trkpt lat="48.45481" lon="2.65259">
        <ele>141</ele>
        <time>2026-02-11T09:25:29.531+00:00</time>
      </trkpt>
      <trkpt lat="48.4548" lon="2.6525">
        <ele>141</ele>
        <time>2026-02-11T09:25:33.755+00:00</time>
      </trkpt>
      <trkpt lat="48.4548" lon="2.65241">
        <ele>141</ele>
        <time>2026-02-11T09:25:38.333+00:00</time>
      </trkpt>
      <trkpt lat="48.45479" lon="2.65233">
        <ele>143</ele>
        <time>2026-02-11T09:25:42.557+00:00</time>
      </trkpt>
      <trkpt lat="48.45479" lon="2.65224">
        <ele>143</ele>
        <time>2026-02-11T09:25:47.174+00:00</time>
      </trkpt>
      <trkpt lat="48.45478" lon="2.65216">
        <ele>143</ele>
        <time>2026-02-11T09:25:51.333+00:00</time>
      </trkpt>
      <trkpt lat="48.45477" lon="2.65206">
        <ele>144</ele>
        <time>2026-02-11T09:25:56.241+00:00</time>
      </trkpt>
      <trkpt lat="48.45476" lon="2.65196">
        <ele>144</ele>
        <time>2026-02-11T09:26:00.333+00:00</time>
      </trkpt>
      <trkpt lat="48.45475" lon="2.65187">
        <ele>144</ele>
        <time>2026-02-11T09:26:04.973+00:00</time>
      </trkpt>
      <trkpt lat="48.45472" lon="2.65178">
        <ele>146</ele>
        <time>2026-02-11T09:26:09.179+00:00</time>
      </trkpt>
      <trkpt lat="48.4547" lon="2.6517">
        <ele>146</ele>
        <time>2026-02-11T09:26:13.332+00:00</time>
      </trkpt>
      <trkpt lat="48.45469" lon="2.65161">
        <ele>146</ele>
        <time>2026-02-11T09:26:17.959+00:00</time>
      </trkpt>
      <trkpt lat="48.45469" lon="2.65153">
        <ele>146</ele>
        <time>2026-02-11T09:26:22.332+00:00</time>
      </trkpt>
      <trkpt lat="48.45468" lon="2.65145">
        <ele>147</ele>
        <time>2026-02-11T09:26:26.333+00:00</time>
      </trkpt>
      <trkpt lat="48.45467" lon="2.65135">
        <ele>147</ele>
        <time>2026-02-11T09:26:31.297+00:00</time>
      </trkpt>
      <trkpt lat="48.45466" lon="2.65127">
        <ele>147</ele>
        <time>2026-02-11T09:26:35.333+00:00</time>
      </trkpt>
      <trkpt lat="48.45465" lon="2.65118">
        <ele>147</ele>
        <time>2026-02-11T09:26:40.177+00:00</time>
      </trkpt>
      <trkpt lat="48.45464" lon="2.6511">
        <ele>147</ele>
        <time>2026-02-11T09:26:44.657+00:00</time>
      </trkpt>
      <trkpt lat="48.45462" lon="2.65102">
        <ele>147</ele>
        <time>2026-02-11T09:26:48.852+00:00</time>
      </trkpt>
      <trkpt lat="48.4546" lon="2.65094">
        <ele>147</ele>
        <time>2026-02-11T09:26:53.279+00:00</time>
      </trkpt>
      <trkpt lat="48.45459" lon="2.65085">
        <ele>147</ele>
        <time>2026-02-11T09:26:57.714+00:00</time>
      </trkpt>
      <trkpt lat="48.45459" lon="2.65078">
        <ele>147</ele>
        <time>2026-02-11T09:27:02.058+00:00</time>
      </trkpt>
      <trkpt lat="48.45459" lon="2.65069">
        <ele>146</ele>
        <time>2026-02-11T09:27:06.338+00:00</time>
      </trkpt>
      <trkpt lat="48.45456" lon="2.6506">
        <ele>148</ele>
        <time>2026-02-11T09:27:10.535+00:00</time>
      </trkpt>
      <trkpt lat="48.45454" lon="2.65052">
        <ele>148</ele>
        <time>2026-02-11T09:27:14.997+00:00</time>
      </trkpt>
      <trkpt lat="48.45453" lon="2.65043">
        <ele>148</ele>
        <time>2026-02-11T09:27:19.333+00:00</time>
      </trkpt>
      <trkpt lat="48.45451" lon="2.65034">
        <ele>148</ele>
        <time>2026-02-11T09:27:23.739+00:00</time>
      </trkpt>
      <trkpt lat="48.45449" lon="2.65027">
        <ele>148</ele>
        <time>2026-02-11T09:27:28.097+00:00</time>
      </trkpt>
      <trkpt lat="48.45445" lon="2.6502">
        <ele>148</ele>
        <time>2026-02-11T09:27:32.332+00:00</time>
      </trkpt>
      <trkpt lat="48.45439" lon="2.65017">
        <ele>148</ele>
        <time>2026-02-11T09:27:37.332+00:00</time>
      </trkpt>
      <trkpt lat="48.45434" lon="2.65013">
        <ele>148</ele>
        <time>2026-02-11T09:27:41.830+00:00</time>
      </trkpt>
      <trkpt lat="48.45429" lon="2.6501">
        <ele>150</ele>
        <time>2026-02-11T09:27:46.292+00:00</time>
      </trkpt>
      <trkpt lat="48.45423" lon="2.65008">
        <ele>150</ele>
        <time>2026-02-11T09:27:50.332+00:00</time>
      </trkpt>
      <trkpt lat="48.45418" lon="2.65005">
        <ele>150</ele>
        <time>2026-02-11T09:27:54.333+00:00</time>
      </trkpt>
      <trkpt lat="48.45413" lon="2.65">
        <ele>150</ele>
        <time>2026-02-11T09:27:58.738+00:00</time>
      </trkpt>
      <trkpt lat="48.45408" lon="2.64996">
        <ele>150</ele>
        <time>2026-02-11T09:28:03.113+00:00</time>
      </trkpt>
      <trkpt lat="48.45402" lon="2.64991">
        <ele>150</ele>
        <time>2026-02-11T09:28:07.754+00:00</time>
      </trkpt>
      <trkpt lat="48.45397" lon="2.64985">
        <ele>151</ele>
        <time>2026-02-11T09:28:12.197+00:00</time>
      </trkpt>
      <trkpt lat="48.45391" lon="2.64979">
        <ele>151</ele>
        <time>2026-02-11T09:28:16.659+00:00</time>
      </trkpt>
      <trkpt lat="48.45386" lon="2.64975">
        <ele>151</ele>
        <time>2026-02-11T09:28:21.034+00:00</time>
      </trkpt>
      <trkpt lat="48.4538" lon="2.64972">
        <ele>151</ele>
        <time>2026-02-11T09:28:25.481+00:00</time>
      </trkpt>
      <trkpt lat="48.45375" lon="2.64968">
        <ele>150</ele>
        <time>2026-02-11T09:28:29.898+00:00</time>
      </trkpt>
      <trkpt lat="48.4537" lon="2.64965">
        <ele>150</ele>
        <time>2026-02-11T09:28:34.316+00:00</time>
      </trkpt>
      <trkpt lat="48.45364" lon="2.64961">
        <ele>150</ele>
        <time>2026-02-11T09:28:38.838+00:00</time>
      </trkpt>
      <trkpt lat="48.45359" lon="2.64958">
        <ele>151</ele>
        <time>2026-02-11T09:28:43.076+00:00</time>
      </trkpt>
      <trkpt lat="48.45354" lon="2.64953">
        <ele>151</ele>
        <time>2026-02-11T09:28:47.554+00:00</time>
      </trkpt>
      <trkpt lat="48.45348" lon="2.64948">
        <ele>151</ele>
        <time>2026-02-11T09:28:51.839+00:00</time>
      </trkpt>
      <trkpt lat="48.45343" lon="2.64943">
        <ele>151</ele>
        <time>2026-02-11T09:28:56.151+00:00</time>
      </trkpt>
      <trkpt lat="48.45338" lon="2.64939">
        <ele>151</ele>
        <time>2026-02-11T09:29:00.460+00:00</time>
      </trkpt>
      <trkpt lat="48.45332" lon="2.64935">
        <ele>151</ele>
        <time>2026-02-11T09:29:04.831+00:00</time>
      </trkpt>
      <trkpt lat="48.45327" lon="2.64931">
        <ele>151</ele>
        <time>2026-02-11T09:29:09.134+00:00</time>
      </trkpt>
      <trkpt lat="48.45322" lon="2.64927">
        <ele>152</ele>
        <time>2026-02-11T09:29:13.611+00:00</time>
      </trkpt>
      <trkpt lat="48.45317" lon="2.6492">
        <ele>151</ele>
        <time>2026-02-11T09:29:17.878+00:00</time>
      </trkpt>
      <trkpt lat="48.45313" lon="2.64914">
        <ele>151</ele>
        <time>2026-02-11T09:29:22.158+00:00</time>
      </trkpt>
      <trkpt lat="48.45306" lon="2.64913">
        <ele>151</ele>
        <time>2026-02-11T09:29:27.173+00:00</time>
      </trkpt>
      <trkpt lat="48.45301" lon="2.64909">
        <ele>151</ele>
        <time>2026-02-11T09:29:31.678+00:00</time>
      </trkpt>
      <trkpt lat="48.45295" lon="2.64905">
        <ele>151</ele>
        <time>2026-02-11T09:29:35.959+00:00</time>
      </trkpt>
      <trkpt lat="48.45291" lon="2.64902">
        <ele>153</ele>
        <time>2026-02-11T09:29:40.333+00:00</time>
      </trkpt>
      <trkpt lat="48.45286" lon="2.64897">
        <ele>153</ele>
        <time>2026-02-11T09:29:44.678+00:00</time>
      </trkpt>
      <trkpt lat="48.45281" lon="2.64893">
        <ele>153</ele>
        <time>2026-02-11T09:29:49.138+00:00</time>
      </trkpt>
      <trkpt lat="48.45276" lon="2.64889">
        <ele>153</ele>
        <time>2026-02-11T09:29:53.438+00:00</time>
      </trkpt>
      <trkpt lat="48.4527" lon="2.64885">
        <ele>153</ele>
        <time>2026-02-11T09:29:57.975+00:00</time>
      </trkpt>
      <trkpt lat="48.45266" lon="2.64882">
        <ele>153</ele>
        <time>2026-02-11T09:30:02.333+00:00</time>
      </trkpt>
      <trkpt lat="48.45261" lon="2.64878">
        <ele>153</ele>
        <time>2026-02-11T09:30:06.497+00:00</time>
      </trkpt>
      <trkpt lat="48.45256" lon="2.64874">
        <ele>154</ele>
        <time>2026-02-11T09:30:10.838+00:00</time>
      </trkpt>
      <trkpt lat="48.45251" lon="2.64872">
        <ele>154</ele>
        <time>2026-02-11T09:30:15.258+00:00</time>
      </trkpt>
      <trkpt lat="48.45245" lon="2.6487">
        <ele>154</ele>
        <time>2026-02-11T09:30:19.675+00:00</time>
      </trkpt>
      <trkpt lat="48.4524" lon="2.64865">
        <ele>154</ele>
        <time>2026-02-11T09:30:24.118+00:00</time>
      </trkpt>
      <trkpt lat="48.45235" lon="2.64861">
        <ele>153</ele>
        <time>2026-02-11T09:30:28.478+00:00</time>
      </trkpt>
      <trkpt lat="48.4523" lon="2.64856">
        <ele>153</ele>
        <time>2026-02-11T09:30:32.937+00:00</time>
      </trkpt>
      <trkpt lat="48.45224" lon="2.64851">
        <ele>153</ele>
        <time>2026-02-11T09:30:37.298+00:00</time>
      </trkpt>
      <trkpt lat="48.45219" lon="2.64848">
        <ele>153</ele>
        <time>2026-02-11T09:30:41.735+00:00</time>
      </trkpt>
      <trkpt lat="48.45214" lon="2.64845">
        <ele>153</ele>
        <time>2026-02-11T09:30:46.177+00:00</time>
      </trkpt>
      <trkpt lat="48.45209" lon="2.6484">
        <ele>153</ele>
        <time>2026-02-11T09:30:50.637+00:00</time>
      </trkpt>
      <trkpt lat="48.45204" lon="2.64835">
        <ele>152</ele>
        <time>2026-02-11T09:30:55.073+00:00</time>
      </trkpt>
      <trkpt lat="48.45199" lon="2.64831">
        <ele>152</ele>
        <time>2026-02-11T09:30:59.414+00:00</time>
      </trkpt>
      <trkpt lat="48.45194" lon="2.64827">
        <ele>152</ele>
        <time>2026-02-11T09:31:03.758+00:00</time>
      </trkpt>
      <trkpt lat="48.45188" lon="2.64824">
        <ele>152</ele>
        <time>2026-02-11T09:31:08.114+00:00</time>
      </trkpt>
      <trkpt lat="48.45183" lon="2.64819">
        <ele>152</ele>
        <time>2026-02-11T09:31:12.771+00:00</time>
      </trkpt>
      <trkpt lat="48.45172" lon="2.64816">
        <ele>150</ele>
        <time>2026-02-11T09:32:05.332+00:00</time>
      </trkpt>
      <trkpt lat="48.45171" lon="2.64816">
        <ele>150</ele>
        <time>2026-02-11T09:32:10.333+00:00</time>
      </trkpt>
      <trkpt lat="48.4517" lon="2.64816">
        <ele>150</ele>
        <time>2026-02-11T09:32:14.333+00:00</time>
      </trkpt>
      <trkpt lat="48.4517" lon="2.64816">
        <ele>150</ele>
        <time>2026-02-11T09:32:19.332+00:00</time>
      </trkpt>
      <trkpt lat="48.45169" lon="2.64816">
        <ele>150</ele>
        <time>2026-02-11T09:32:24.332+00:00</time>
      </trkpt>
      <trkpt lat="48.4517" lon="2.64815">
        <ele>150</ele>
        <time>2026-02-11T09:32:34.333+00:00</time>
      </trkpt>
      <trkpt lat="48.4517" lon="2.64812">
        <ele>150</ele>
        <time>2026-02-11T09:32:38.840+00:00</time>
      </trkpt>
      <trkpt lat="48.45167" lon="2.64807">
        <ele>150</ele>
        <time>2026-02-11T09:32:43.334+00:00</time>
      </trkpt>
      <trkpt lat="48.45164" lon="2.64808">
        <ele>150</ele>
        <time>2026-02-11T09:32:47.871+00:00</time>
      </trkpt>
      <trkpt lat="48.45159" lon="2.64803">
        <ele>150</ele>
        <time>2026-02-11T09:32:52.298+00:00</time>
      </trkpt>
      <trkpt lat="48.45156" lon="2.648">
        <ele>150</ele>
        <time>2026-02-11T09:32:56.571+00:00</time>
      </trkpt>
      <trkpt lat="48.45151" lon="2.64794">
        <ele>150</ele>
        <time>2026-02-11T09:33:01.077+00:00</time>
      </trkpt>
      <trkpt lat="48.45146" lon="2.6479">
        <ele>149</ele>
        <time>2026-02-11T09:33:05.391+00:00</time>
      </trkpt>
      <trkpt lat="48.45141" lon="2.64786">
        <ele>149</ele>
        <time>2026-02-11T09:33:10.196+00:00</time>
      </trkpt>
      <trkpt lat="48.45137" lon="2.64783">
        <ele>149</ele>
        <time>2026-02-11T09:33:14.331+00:00</time>
      </trkpt>
      <trkpt lat="48.45134" lon="2.6478">
        <ele>149</ele>
        <time>2026-02-11T09:33:18.333+00:00</time>
      </trkpt>
      <trkpt lat="48.45129" lon="2.64776">
        <ele>149</ele>
        <time>2026-02-11T09:33:22.718+00:00</time>
      </trkpt>
      <trkpt lat="48.45125" lon="2.64772">
        <ele>150</ele>
        <time>2026-02-11T09:33:26.897+00:00</time>
      </trkpt>
      <trkpt lat="48.4512" lon="2.64769">
        <ele>150</ele>
        <time>2026-02-11T09:33:31.059+00:00</time>
      </trkpt>
      <trkpt lat="48.45116" lon="2.64766">
        <ele>150</ele>
        <time>2026-02-11T09:33:35.137+00:00</time>
      </trkpt>
      <trkpt lat="48.45111" lon="2.64763">
        <ele>148</ele>
        <time>2026-02-11T09:33:39.631+00:00</time>
      </trkpt>
      <trkpt lat="48.45106" lon="2.64759">
        <ele>148</ele>
        <time>2026-02-11T09:33:44.178+00:00</time>
      </trkpt>
      <trkpt lat="48.45101" lon="2.64756">
        <ele>148</ele>
        <time>2026-02-11T09:33:48.196+00:00</time>
      </trkpt>
      <trkpt lat="48.45096" lon="2.64751">
        <ele>150</ele>
        <time>2026-02-11T09:33:52.333+00:00</time>
      </trkpt>
      <trkpt lat="48.45092" lon="2.64747">
        <ele>150</ele>
        <time>2026-02-11T09:33:56.598+00:00</time>
      </trkpt>
      <trkpt lat="48.45088" lon="2.64744">
        <ele>150</ele>
        <time>2026-02-11T09:34:00.616+00:00</time>
      </trkpt>
      <trkpt lat="48.45083" lon="2.6474">
        <ele>150</ele>
        <time>2026-02-11T09:34:05.059+00:00</time>
      </trkpt>
      <trkpt lat="48.45077" lon="2.64735">
        <ele>148</ele>
        <time>2026-02-11T09:34:09.332+00:00</time>
      </trkpt>
      <trkpt lat="48.45072" lon="2.64731">
        <ele>148</ele>
        <time>2026-02-11T09:34:13.839+00:00</time>
      </trkpt>
      <trkpt lat="48.45068" lon="2.64728">
        <ele>150</ele>
        <time>2026-02-11T09:34:18.239+00:00</time>
      </trkpt>
      <trkpt lat="48.45064" lon="2.64726">
        <ele>150</ele>
        <time>2026-02-11T09:34:22.299+00:00</time>
      </trkpt>
      <trkpt lat="48.45059" lon="2.64723">
        <ele>150</ele>
        <time>2026-02-11T09:34:26.369+00:00</time>
      </trkpt>
      <trkpt lat="48.45054" lon="2.6472">
        <ele>150</ele>
        <time>2026-02-11T09:34:31.059+00:00</time>
      </trkpt>
      <trkpt lat="48.4505" lon="2.64717">
        <ele>150</ele>
        <time>2026-02-11T09:34:35.332+00:00</time>
      </trkpt>
      <trkpt lat="48.45045" lon="2.64713">
        <ele>150</ele>
        <time>2026-02-11T09:34:39.898+00:00</time>
      </trkpt>
      <trkpt lat="48.4504" lon="2.64709">
        <ele>150</ele>
        <time>2026-02-11T09:34:44.059+00:00</time>
      </trkpt>
      <trkpt lat="48.45035" lon="2.64703">
        <ele>149</ele>
        <time>2026-02-11T09:34:48.332+00:00</time>
      </trkpt>
      <trkpt lat="48.45033" lon="2.64699">
        <ele>149</ele>
        <time>2026-02-11T09:34:52.957+00:00</time>
      </trkpt>
      <trkpt lat="48.45031" lon="2.64704">
        <ele>149</ele>
        <time>2026-02-11T09:34:58.058+00:00</time>
      </trkpt>
      <trkpt lat="48.45028" lon="2.64698">
        <ele>149</ele>
        <time>2026-02-11T09:35:02.254+00:00</time>
      </trkpt>
      <trkpt lat="48.45024" lon="2.64694">
        <ele>149</ele>
        <time>2026-02-11T09:35:06.340+00:00</time>
      </trkpt>
      <trkpt lat="48.4502" lon="2.64692">
        <ele>149</ele>
        <time>2026-02-11T09:35:11.040+00:00</time>
      </trkpt>
      <trkpt lat="48.45016" lon="2.64689">
        <ele>149</ele>
        <time>2026-02-11T09:35:15.091+00:00</time>
      </trkpt>
      <trkpt lat="48.45012" lon="2.64685">
        <ele>148</ele>
        <time>2026-02-11T09:35:19.333+00:00</time>
      </trkpt>
      <trkpt lat="48.45008" lon="2.64682">
        <ele>148</ele>
        <time>2026-02-11T09:35:23.733+00:00</time>
      </trkpt>
      <trkpt lat="48.45003" lon="2.64678">
        <ele>146</ele>
        <time>2026-02-11T09:35:27.852+00:00</time>
      </trkpt>
      <trkpt lat="48.44999" lon="2.64674">
        <ele>146</ele>
        <time>2026-02-11T09:35:31.998+00:00</time>
      </trkpt>
      <trkpt lat="48.44994" lon="2.64672">
        <ele>146</ele>
        <time>2026-02-11T09:35:36.155+00:00</time>
      </trkpt>
      <trkpt lat="48.4499" lon="2.64666">
        <ele>146</ele>
        <time>2026-02-11T09:35:40.255+00:00</time>
      </trkpt>
      <trkpt lat="48.44987" lon="2.64662">
        <ele>146</ele>
        <time>2026-02-11T09:35:44.332+00:00</time>
      </trkpt>
      <trkpt lat="48.4498" lon="2.64662">
        <ele>145</ele>
        <time>2026-02-11T09:38:10.931+00:00</time>
      </trkpt>
      <trkpt lat="48.44976" lon="2.64662">
        <ele>145</ele>
        <time>2026-02-11T09:38:15.259+00:00</time>
      </trkpt>
      <trkpt lat="48.44971" lon="2.6466">
        <ele>145</ele>
        <time>2026-02-11T09:38:19.300+00:00</time>
      </trkpt>
      <trkpt lat="48.44966" lon="2.64655">
        <ele>145</ele>
        <time>2026-02-11T09:38:23.855+00:00</time>
      </trkpt>
      <trkpt lat="48.44961" lon="2.64651">
        <ele>143</ele>
        <time>2026-02-11T09:38:27.857+00:00</time>
      </trkpt>
      <trkpt lat="48.44957" lon="2.64644">
        <ele>139</ele>
        <time>2026-02-11T09:38:32.332+00:00</time>
      </trkpt>
      <trkpt lat="48.44957" lon="2.64635">
        <ele>139</ele>
        <time>2026-02-11T09:38:37.332+00:00</time>
      </trkpt>
      <trkpt lat="48.4496" lon="2.64631">
        <ele>143</ele>
        <time>2026-02-11T09:38:41.333+00:00</time>
      </trkpt>
      <trkpt lat="48.44963" lon="2.64623">
        <ele>142</ele>
        <time>2026-02-11T09:38:45.871+00:00</time>
      </trkpt>
      <trkpt lat="48.44964" lon="2.64616">
        <ele>142</ele>
        <time>2026-02-11T09:38:49.932+00:00</time>
      </trkpt>
      <trkpt lat="48.44964" lon="2.64606">
        <ele>142</ele>
        <time>2026-02-11T09:38:54.052+00:00</time>
      </trkpt>
      <trkpt lat="48.44962" lon="2.64598">
        <ele>142</ele>
        <time>2026-02-11T09:38:58.097+00:00</time>
      </trkpt>
      <trkpt lat="48.44956" lon="2.64595">
        <ele>137</ele>
        <time>2026-02-11T09:39:02.332+00:00</time>
      </trkpt>
      <trkpt lat="48.44959" lon="2.64585">
        <ele>142</ele>
        <time>2026-02-11T09:39:06.720+00:00</time>
      </trkpt>
      <trkpt lat="48.44964" lon="2.64574">
        <ele>142</ele>
        <time>2026-02-11T09:39:11.159+00:00</time>
      </trkpt>
      <trkpt lat="48.44964" lon="2.64565">
        <ele>143</ele>
        <time>2026-02-11T09:39:15.601+00:00</time>
      </trkpt>
      <trkpt lat="48.44963" lon="2.64556">
        <ele>143</ele>
        <time>2026-02-11T09:39:19.899+00:00</time>
      </trkpt>
      <trkpt lat="48.44961" lon="2.64548">
        <ele>143</ele>
        <time>2026-02-11T09:39:24.275+00:00</time>
      </trkpt>
      <trkpt lat="48.44961" lon="2.64539">
        <ele>143</ele>
        <time>2026-02-11T09:39:28.515+00:00</time>
      </trkpt>
      <trkpt lat="48.44961" lon="2.64531">
        <ele>143</ele>
        <time>2026-02-11T09:39:32.712+00:00</time>
      </trkpt>
      <trkpt lat="48.44961" lon="2.64523">
        <ele>143</ele>
        <time>2026-02-11T09:39:36.874+00:00</time>
      </trkpt>
      <trkpt lat="48.4496" lon="2.64514">
        <ele>143</ele>
        <time>2026-02-11T09:39:41.055+00:00</time>
      </trkpt>
      <trkpt lat="48.4496" lon="2.64506">
        <ele>144</ele>
        <time>2026-02-11T09:39:45.333+00:00</time>
      </trkpt>
      <trkpt lat="48.44959" lon="2.64497">
        <ele>144</ele>
        <time>2026-02-11T09:39:49.830+00:00</time>
      </trkpt>
      <trkpt lat="48.44959" lon="2.64488">
        <ele>144</ele>
        <time>2026-02-11T09:39:54.333+00:00</time>
      </trkpt>
      <trkpt lat="48.4496" lon="2.64481">
        <ele>144</ele>
        <time>2026-02-11T09:39:58.332+00:00</time>
      </trkpt>
      <trkpt lat="48.44958" lon="2.64473">
        <ele>144</ele>
        <time>2026-02-11T09:40:02.877+00:00</time>
      </trkpt>
      <trkpt lat="48.44959" lon="2.64464">
        <ele>144</ele>
        <time>2026-02-11T09:40:07.219+00:00</time>
      </trkpt>
      <trkpt lat="48.44959" lon="2.64455">
        <ele>145</ele>
        <time>2026-02-11T09:40:11.517+00:00</time>
      </trkpt>
      <trkpt lat="48.4496" lon="2.64447">
        <ele>145</ele>
        <time>2026-02-11T09:40:15.919+00:00</time>
      </trkpt>
      <trkpt lat="48.44961" lon="2.64439">
        <ele>145</ele>
        <time>2026-02-11T09:40:20.158+00:00</time>
      </trkpt>
      <trkpt lat="48.44962" lon="2.6443">
        <ele>144</ele>
        <time>2026-02-11T09:40:24.333+00:00</time>
      </trkpt>
      <trkpt lat="48.44963" lon="2.64422">
        <ele>144</ele>
        <time>2026-02-11T09:40:28.800+00:00</time>
      </trkpt>
      <trkpt lat="48.44964" lon="2.64413">
        <ele>144</ele>
        <time>2026-02-11T09:40:33.074+00:00</time>
      </trkpt>
      <trkpt lat="48.44963" lon="2.64404">
        <ele>144</ele>
        <time>2026-02-11T09:40:37.459+00:00</time>
      </trkpt>
      <trkpt lat="48.4496" lon="2.64397">
        <ele>143</ele>
        <time>2026-02-11T09:40:41.831+00:00</time>
      </trkpt>
      <trkpt lat="48.44958" lon="2.64389">
        <ele>141</ele>
        <time>2026-02-11T09:40:46.160+00:00</time>
      </trkpt>
      <trkpt lat="48.44953" lon="2.64384">
        <ele>141</ele>
        <time>2026-02-11T09:40:50.493+00:00</time>
      </trkpt>
      <trkpt lat="48.44948" lon="2.64378">
        <ele>141</ele>
        <time>2026-02-11T09:40:54.776+00:00</time>
      </trkpt>
      <trkpt lat="48.44945" lon="2.6437">
        <ele>141</ele>
        <time>2026-02-11T09:40:59.117+00:00</time>
      </trkpt>
      <trkpt lat="48.44941" lon="2.64363">
        <ele>141</ele>
        <time>2026-02-11T09:41:03.331+00:00</time>
      </trkpt>
      <trkpt lat="48.44938" lon="2.64355">
        <ele>141</ele>
        <time>2026-02-11T09:41:07.614+00:00</time>
      </trkpt>
      <trkpt lat="48.44935" lon="2.64349">
        <ele>141</ele>
        <time>2026-02-11T09:41:12.135+00:00</time>
      </trkpt>
      <trkpt lat="48.44934" lon="2.64341">
        <ele>142</ele>
        <time>2026-02-11T09:41:16.912+00:00</time>
      </trkpt>
      <trkpt lat="48.44933" lon="2.64334">
        <ele>142</ele>
        <time>2026-02-11T09:41:21.332+00:00</time>
      </trkpt>
      <trkpt lat="48.44931" lon="2.64333">
        <ele>142</ele>
        <time>2026-02-11T09:41:25.896+00:00</time>
      </trkpt>
      <trkpt lat="48.44926" lon="2.64332">
        <ele>139</ele>
        <time>2026-02-11T09:41:30.332+00:00</time>
      </trkpt>
      <trkpt lat="48.44921" lon="2.6433">
        <ele>139</ele>
        <time>2026-02-11T09:41:34.877+00:00</time>
      </trkpt>
      <trkpt lat="48.44917" lon="2.64328">
        <ele>139</ele>
        <time>2026-02-11T09:41:38.820+00:00</time>
      </trkpt>
      <trkpt lat="48.44911" lon="2.64332">
        <ele>139</ele>
        <time>2026-02-11T09:41:43.237+00:00</time>
      </trkpt>
      <trkpt lat="48.44906" lon="2.64334">
        <ele>139</ele>
        <time>2026-02-11T09:41:47.333+00:00</time>
      </trkpt>
      <trkpt lat="48.44901" lon="2.64333">
        <ele>137</ele>
        <time>2026-02-11T09:41:51.657+00:00</time>
      </trkpt>
      <trkpt lat="48.44896" lon="2.64335">
        <ele>137</ele>
        <time>2026-02-11T09:41:55.999+00:00</time>
      </trkpt>
      <trkpt lat="48.44892" lon="2.64335">
        <ele>137</ele>
        <time>2026-02-11T09:42:00.726+00:00</time>
      </trkpt>
      <trkpt lat="48.44887" lon="2.64332">
        <ele>137</ele>
        <time>2026-02-11T09:42:05.332+00:00</time>
      </trkpt>
      <trkpt lat="48.44883" lon="2.64336">
        <ele>137</ele>
        <time>2026-02-11T09:42:10.092+00:00</time>
      </trkpt>
      <trkpt lat="48.44883" lon="2.64338">
        <ele>137</ele>
        <time>2026-02-11T09:42:14.332+00:00</time>
      </trkpt>
      <trkpt lat="48.44882" lon="2.64338">
        <ele>137</ele>
        <time>2026-02-11T09:42:19.340+00:00</time>
      </trkpt>
      <trkpt lat="48.4488" lon="2.6434">
        <ele>137</ele>
        <time>2026-02-11T09:42:33.333+00:00</time>
      </trkpt>
      <trkpt lat="48.4488" lon="2.64341">
        <ele>137</ele>
        <time>2026-02-11T09:42:38.332+00:00</time>
      </trkpt>
      <trkpt lat="48.44878" lon="2.64343">
        <ele>137</ele>
        <time>2026-02-11T09:42:42.714+00:00</time>
      </trkpt>
      <trkpt lat="48.44876" lon="2.64347">
        <ele>137</ele>
        <time>2026-02-11T09:42:47.072+00:00</time>
      </trkpt>
      <trkpt lat="48.44872" lon="2.64351">
        <ele>137</ele>
        <time>2026-02-11T09:42:51.332+00:00</time>
      </trkpt>
      <trkpt lat="48.4486" lon="2.64346">
        <ele>136</ele>
        <time>2026-02-11T09:45:52.333+00:00</time>
      </trkpt>
      <trkpt lat="48.4486" lon="2.64346">
        <ele>136</ele>
        <time>2026-02-11T09:45:59.332+00:00</time>
      </trkpt>
      <trkpt lat="48.4486" lon="2.64346">
        <ele>136</ele>
        <time>2026-02-11T09:46:04.333+00:00</time>
      </trkpt>
      <trkpt lat="48.4486" lon="2.64346">
        <ele>136</ele>
        <time>2026-02-11T09:46:09.333+00:00</time>
      </trkpt>
      <trkpt lat="48.4486" lon="2.64346">
        <ele>136</ele>
        <time>2026-02-11T09:46:19.333+00:00</time>
      </trkpt>
      <trkpt lat="48.44859" lon="2.64344">
        <ele>136</ele>
        <time>2026-02-11T09:47:39.332+00:00</time>
      </trkpt>
      <trkpt lat="48.44859" lon="2.64344">
        <ele>136</ele>
        <time>2026-02-11T09:47:46.331+00:00</time>
      </trkpt>
      <trkpt lat="48.44859" lon="2.64344">
        <ele>136</ele>
        <time>2026-02-11T09:47:55.332+00:00</time>
      </trkpt>
      <trkpt lat="48.44854" lon="2.64339">
        <ele>136</ele>
        <time>2026-02-11T09:48:00.332+00:00</time>
      </trkpt>
      <trkpt lat="48.4485" lon="2.64338">
        <ele>136</ele>
        <time>2026-02-11T09:48:05.332+00:00</time>
      </trkpt>
      <trkpt lat="48.44845" lon="2.64343">
        <ele>134</ele>
        <time>2026-02-11T09:48:09.331+00:00</time>
      </trkpt>
      <trkpt lat="48.44843" lon="2.64347">
        <ele>134</ele>
        <time>2026-02-11T09:48:13.632+00:00</time>
      </trkpt>
      <trkpt lat="48.4484" lon="2.64353">
        <ele>134</ele>
        <time>2026-02-11T09:48:18.332+00:00</time>
      </trkpt>
      <trkpt lat="48.44837" lon="2.64358">
        <ele>134</ele>
        <time>2026-02-11T09:48:22.539+00:00</time>
      </trkpt>
      <trkpt lat="48.44826" lon="2.64355">
        <ele>134</ele>
        <time>2026-02-11T09:48:43.653+00:00</time>
      </trkpt>
      <trkpt lat="48.44826" lon="2.64355">
        <ele>134</ele>
        <time>2026-02-11T09:48:48.319+00:00</time>
      </trkpt>
      <trkpt lat="48.44823" lon="2.64358">
        <ele>134</ele>
        <time>2026-02-11T09:48:52.934+00:00</time>
      </trkpt>
      <trkpt lat="48.44823" lon="2.64363">
        <ele>134</ele>
        <time>2026-02-11T09:48:57.338+00:00</time>
      </trkpt>
      <trkpt lat="48.4482" lon="2.64367">
        <ele>134</ele>
        <time>2026-02-11T09:49:01.332+00:00</time>
      </trkpt>
      <trkpt lat="48.44816" lon="2.64369">
        <ele>128</ele>
        <time>2026-02-11T09:49:05.637+00:00</time>
      </trkpt>
      <trkpt lat="48.44815" lon="2.64373">
        <ele>128</ele>
        <time>2026-02-11T09:49:09.731+00:00</time>
      </trkpt>
      <trkpt lat="48.44815" lon="2.64377">
        <ele>129</ele>
        <time>2026-02-11T09:49:14.238+00:00</time>
      </trkpt>
      <trkpt lat="48.44813" lon="2.64383">
        <ele>129</ele>
        <time>2026-02-11T09:49:18.331+00:00</time>
      </trkpt>
      <trkpt lat="48.44812" lon="2.64391">
        <ele>129</ele>
        <time>2026-02-11T09:49:46.332+00:00</time>
      </trkpt>
      <trkpt lat="48.44812" lon="2.64392">
        <ele>129</ele>
        <time>2026-02-11T09:49:51.331+00:00</time>
      </trkpt>
      <trkpt lat="48.44812" lon="2.64393">
        <ele>129</ele>
        <time>2026-02-11T09:49:56.332+00:00</time>
      </trkpt>
      <trkpt lat="48.4481" lon="2.64395">
        <ele>129</ele>
        <time>2026-02-11T09:50:00.892+00:00</time>
      </trkpt>
      <trkpt lat="48.44809" lon="2.64401">
        <ele>129</ele>
        <time>2026-02-11T09:50:05.012+00:00</time>
      </trkpt>
      <trkpt lat="48.44801" lon="2.64402">
        <ele>129</ele>
        <time>2026-02-11T09:50:31.331+00:00</time>
      </trkpt>
      <trkpt lat="48.44798" lon="2.64403">
        <ele>127</ele>
        <time>2026-02-11T09:50:36.075+00:00</time>
      </trkpt>
      <trkpt lat="48.44792" lon="2.64398">
        <ele>124</ele>
        <time>2026-02-11T09:50:40.152+00:00</time>
      </trkpt>
      <trkpt lat="48.44791" lon="2.64397">
        <ele>124</ele>
        <time>2026-02-11T09:50:44.332+00:00</time>
      </trkpt>
      <trkpt lat="48.4479" lon="2.64396">
        <ele>124</ele>
        <time>2026-02-11T09:50:49.331+00:00</time>
      </trkpt>
      <trkpt lat="48.44789" lon="2.64398">
        <ele>124</ele>
        <time>2026-02-11T09:51:11.632+00:00</time>
      </trkpt>
      <trkpt lat="48.44786" lon="2.64399">
        <ele>124</ele>
        <time>2026-02-11T09:51:16.138+00:00</time>
      </trkpt>
      <trkpt lat="48.44784" lon="2.64404">
        <ele>122</ele>
        <time>2026-02-11T09:51:20.332+00:00</time>
      </trkpt>
      <trkpt lat="48.44784" lon="2.64411">
        <ele>122</ele>
        <time>2026-02-11T09:51:24.332+00:00</time>
      </trkpt>
      <trkpt lat="48.44781" lon="2.64416">
        <ele>122</ele>
        <time>2026-02-11T09:51:28.899+00:00</time>
      </trkpt>
      <trkpt lat="48.4478" lon="2.64419">
        <ele>122</ele>
        <time>2026-02-11T09:51:33.331+00:00</time>
      </trkpt>
      <trkpt lat="48.44777" lon="2.64421">
        <ele>122</ele>
        <time>2026-02-11T09:51:37.934+00:00</time>
      </trkpt>
      <trkpt lat="48.44775" lon="2.64424">
        <ele>122</ele>
        <time>2026-02-11T09:51:42.114+00:00</time>
      </trkpt>
      <trkpt lat="48.44775" lon="2.64432">
        <ele>119</ele>
        <time>2026-02-11T09:51:46.332+00:00</time>
      </trkpt>
      <trkpt lat="48.44773" lon="2.64434">
        <ele>119</ele>
        <time>2026-02-11T09:51:57.660+00:00</time>
      </trkpt>
      <trkpt lat="48.44772" lon="2.64436">
        <ele>119</ele>
        <time>2026-02-11T09:52:02.018+00:00</time>
      </trkpt>
      <trkpt lat="48.44769" lon="2.64441">
        <ele>119</ele>
        <time>2026-02-11T09:52:06.332+00:00</time>
      </trkpt>
      <trkpt lat="48.44769" lon="2.64442">
        <ele>119</ele>
        <time>2026-02-11T09:52:10.331+00:00</time>
      </trkpt>
      <trkpt lat="48.44769" lon="2.64448">
        <ele>119</ele>
        <time>2026-02-11T09:52:15.078+00:00</time>
      </trkpt>
      <trkpt lat="48.44766" lon="2.64451">
        <ele>119</ele>
        <time>2026-02-11T09:52:19.232+00:00</time>
      </trkpt>
      <trkpt lat="48.44764" lon="2.64456">
        <ele>119</ele>
        <time>2026-02-11T09:52:23.992+00:00</time>
      </trkpt>
      <trkpt lat="48.44762" lon="2.64459">
        <ele>113</ele>
        <time>2026-02-11T09:52:28.332+00:00</time>
      </trkpt>
      <trkpt lat="48.44758" lon="2.64458">
        <ele>113</ele>
        <time>2026-02-11T09:52:32.830+00:00</time>
      </trkpt>
      <trkpt lat="48.44755" lon="2.64457">
        <ele>115</ele>
        <time>2026-02-11T09:52:37.332+00:00</time>
      </trkpt>
      <trkpt lat="48.44753" lon="2.64449">
        <ele>115</ele>
        <time>2026-02-11T09:52:46.332+00:00</time>
      </trkpt>
      <trkpt lat="48.4475" lon="2.6445">
        <ele>115</ele>
        <time>2026-02-11T09:52:51.258+00:00</time>
      </trkpt>
      <trkpt lat="48.44749" lon="2.64452">
        <ele>115</ele>
        <time>2026-02-11T09:52:55.332+00:00</time>
      </trkpt>
      <trkpt lat="48.44748" lon="2.64452">
        <ele>115</ele>
        <time>2026-02-11T09:52:59.959+00:00</time>
      </trkpt>
      <trkpt lat="48.44744" lon="2.64452">
        <ele>115</ele>
        <time>2026-02-11T09:53:04.157+00:00</time>
      </trkpt>
      <trkpt lat="48.4474" lon="2.6446">
        <ele>113</ele>
        <time>2026-02-11T09:53:18.331+00:00</time>
      </trkpt>
      <trkpt lat="48.44739" lon="2.6446">
        <ele>113</ele>
        <time>2026-02-11T09:53:23.331+00:00</time>
      </trkpt>
      <trkpt lat="48.44736" lon="2.6446">
        <ele>113</ele>
        <time>2026-02-11T09:53:28.332+00:00</time>
      </trkpt>
      <trkpt lat="48.44734" lon="2.64459">
        <ele>112</ele>
        <time>2026-02-11T09:53:33.332+00:00</time>
      </trkpt>
      <trkpt lat="48.44732" lon="2.6446">
        <ele>112</ele>
        <time>2026-02-11T09:53:38.238+00:00</time>
      </trkpt>
      <trkpt lat="48.44729" lon="2.6446">
        <ele>112</ele>
        <time>2026-02-11T09:53:42.360+00:00</time>
      </trkpt>
      <trkpt lat="48.44726" lon="2.6446">
        <ele>112</ele>
        <time>2026-02-11T09:53:46.332+00:00</time>
      </trkpt>
      <trkpt lat="48.44724" lon="2.64457">
        <ele>112</ele>
        <time>2026-02-11T09:53:50.760+00:00</time>
      </trkpt>
      <trkpt lat="48.44721" lon="2.64458">
        <ele>112</ele>
        <time>2026-02-11T09:53:54.824+00:00</time>
      </trkpt>
      <trkpt lat="48.44718" lon="2.6446">
        <ele>112</ele>
        <time>2026-02-11T09:53:58.985+00:00</time>
      </trkpt>
      <trkpt lat="48.44716" lon="2.64461">
        <ele>112</ele>
        <time>2026-02-11T09:54:03.284+00:00</time>
      </trkpt>
      <trkpt lat="48.44715" lon="2.64464">
        <ele>112</ele>
        <time>2026-02-11T09:54:07.337+00:00</time>
      </trkpt>
      <trkpt lat="48.44716" lon="2.64471">
        <ele>112</ele>
        <time>2026-02-11T09:54:11.959+00:00</time>
      </trkpt>
      <trkpt lat="48.44717" lon="2.64477">
        <ele>112</ele>
        <time>2026-02-11T09:54:16.331+00:00</time>
      </trkpt>
      <trkpt lat="48.44714" lon="2.64486">
        <ele>112</ele>
        <time>2026-02-11T09:54:32.331+00:00</time>
      </trkpt>
      <trkpt lat="48.44712" lon="2.64484">
        <ele>112</ele>
        <time>2026-02-11T09:54:36.821+00:00</time>
      </trkpt>
      <trkpt lat="48.44707" lon="2.64477">
        <ele>108</ele>
        <time>2026-02-11T09:54:40.998+00:00</time>
      </trkpt>
      <trkpt lat="48.44702" lon="2.6447">
        <ele>108</ele>
        <time>2026-02-11T09:54:45.299+00:00</time>
      </trkpt>
      <trkpt lat="48.44696" lon="2.64466">
        <ele>108</ele>
        <time>2026-02-11T09:54:49.683+00:00</time>
      </trkpt>
      <trkpt lat="48.44692" lon="2.64462">
        <ele>108</ele>
        <time>2026-02-11T09:54:54.299+00:00</time>
      </trkpt>
      <trkpt lat="48.44686" lon="2.6446">
        <ele>108</ele>
        <time>2026-02-11T09:54:58.580+00:00</time>
      </trkpt>
      <trkpt lat="48.4468" lon="2.64461">
        <ele>104</ele>
        <time>2026-02-11T09:55:02.762+00:00</time>
      </trkpt>
      <trkpt lat="48.44674" lon="2.64466">
        <ele>104</ele>
        <time>2026-02-11T09:55:07.222+00:00</time>
      </trkpt>
      <trkpt lat="48.44669" lon="2.64469">
        <ele>104</ele>
        <time>2026-02-11T09:55:11.881+00:00</time>
      </trkpt>
      <trkpt lat="48.44662" lon="2.64466">
        <ele>104</ele>
        <time>2026-02-11T09:55:16.332+00:00</time>
      </trkpt>
      <trkpt lat="48.44657" lon="2.64464">
        <ele>104</ele>
        <time>2026-02-11T09:55:20.608+00:00</time>
      </trkpt>
      <trkpt lat="48.44653" lon="2.64461">
        <ele>104</ele>
        <time>2026-02-11T09:55:24.822+00:00</time>
      </trkpt>
      <trkpt lat="48.44649" lon="2.64454">
        <ele>101</ele>
        <time>2026-02-11T09:55:29.266+00:00</time>
      </trkpt>
      <trkpt lat="48.44646" lon="2.64448">
        <ele>101</ele>
        <time>2026-02-11T09:55:33.481+00:00</time>
      </trkpt>
      <trkpt lat="48.44646" lon="2.6444">
        <ele>101</ele>
        <time>2026-02-11T09:55:37.687+00:00</time>
      </trkpt>
      <trkpt lat="48.44649" lon="2.64432">
        <ele>101</ele>
        <time>2026-02-11T09:55:41.814+00:00</time>
      </trkpt>
      <trkpt lat="48.44653" lon="2.64426">
        <ele>102</ele>
        <time>2026-02-11T09:55:45.928+00:00</time>
      </trkpt>
      <trkpt lat="48.44655" lon="2.64417">
        <ele>104</ele>
        <time>2026-02-11T09:55:50.108+00:00</time>
      </trkpt>
      <trkpt lat="48.44656" lon="2.64407">
        <ele>104</ele>
        <time>2026-02-11T09:55:54.305+00:00</time>
      </trkpt>
      <trkpt lat="48.44657" lon="2.64401">
        <ele>106</ele>
        <time>2026-02-11T09:55:58.407+00:00</time>
      </trkpt>
      <trkpt lat="48.44655" lon="2.64389">
        <ele>106</ele>
        <time>2026-02-11T09:56:02.562+00:00</time>
      </trkpt>
      <trkpt lat="48.4465" lon="2.6438">
        <ele>102</ele>
        <time>2026-02-11T09:56:06.845+00:00</time>
      </trkpt>
      <trkpt lat="48.44645" lon="2.64377">
        <ele>102</ele>
        <time>2026-02-11T09:56:10.922+00:00</time>
      </trkpt>
      <trkpt lat="48.44639" lon="2.64376">
        <ele>102</ele>
        <time>2026-02-11T09:56:14.984+00:00</time>
      </trkpt>
      <trkpt lat="48.44633" lon="2.64373">
        <ele>104</ele>
        <time>2026-02-11T09:56:19.182+00:00</time>
      </trkpt>
      <trkpt lat="48.44628" lon="2.6437">
        <ele>104</ele>
        <time>2026-02-11T09:56:23.332+00:00</time>
      </trkpt>
      <trkpt lat="48.44622" lon="2.64367">
        <ele>101</ele>
        <time>2026-02-11T09:56:27.566+00:00</time>
      </trkpt>
      <trkpt lat="48.44617" lon="2.64364">
        <ele>101</ele>
        <time>2026-02-11T09:56:31.780+00:00</time>
      </trkpt>
      <trkpt lat="48.44612" lon="2.64363">
        <ele>101</ele>
        <time>2026-02-11T09:56:35.841+00:00</time>
      </trkpt>
      <trkpt lat="48.44606" lon="2.64365">
        <ele>101</ele>
        <time>2026-02-11T09:56:40.048+00:00</time>
      </trkpt>
      <trkpt lat="48.44601" lon="2.64367">
        <ele>101</ele>
        <time>2026-02-11T09:56:44.332+00:00</time>
      </trkpt>
      <trkpt lat="48.44598" lon="2.64377">
        <ele>99</ele>
        <time>2026-02-11T09:56:49.227+00:00</time>
      </trkpt>
      <trkpt lat="48.44598" lon="2.64384">
        <ele>99</ele>
        <time>2026-02-11T09:56:52.886+00:00</time>
      </trkpt>
      <trkpt lat="48.44598" lon="2.64391">
        <ele>99</ele>
        <time>2026-02-11T09:56:58.332+00:00</time>
      </trkpt>
      <trkpt lat="48.44598" lon="2.64403">
        <ele>99</ele>
        <time>2026-02-11T09:57:07.243+00:00</time>
      </trkpt>
      <trkpt lat="48.44595" lon="2.64409">
        <ele>99</ele>
        <time>2026-02-11T09:57:11.332+00:00</time>
      </trkpt>
      <trkpt lat="48.4459" lon="2.64414">
        <ele>99</ele>
        <time>2026-02-11T09:57:16.125+00:00</time>
      </trkpt>
      <trkpt lat="48.44585" lon="2.64422">
        <ele>99</ele>
        <time>2026-02-11T09:57:20.280+00:00</time>
      </trkpt>
      <trkpt lat="48.4459" lon="2.64428">
        <ele>99</ele>
        <time>2026-02-11T09:57:24.332+00:00</time>
      </trkpt>
      <trkpt lat="48.44589" lon="2.64428">
        <ele>99</ele>
        <time>2026-02-11T09:57:25.343+00:00</time>
      </trkpt>
      <trkpt lat="48.44585" lon="2.64432">
        <ele>102</ele>
        <time>2026-02-11T09:57:34.331+00:00</time>
      </trkpt>
      <trkpt lat="48.44577" lon="2.64435">
        <ele>102</ele>
        <time>2026-02-11T09:57:38.891+00:00</time>
      </trkpt>
      <trkpt lat="48.44574" lon="2.64442">
        <ele>102</ele>
        <time>2026-02-11T09:57:43.072+00:00</time>
      </trkpt>
      <trkpt lat="48.44569" lon="2.64448">
        <ele>102</ele>
        <time>2026-02-11T09:57:47.727+00:00</time>
      </trkpt>
      <trkpt lat="48.44564" lon="2.64452">
        <ele>103</ele>
        <time>2026-02-11T09:57:52.332+00:00</time>
      </trkpt>
      <trkpt lat="48.44558" lon="2.64455">
        <ele>103</ele>
        <time>2026-02-11T09:57:57.331+00:00</time>
      </trkpt>
      <trkpt lat="48.4456" lon="2.64462">
        <ele>105</ele>
        <time>2026-02-11T09:58:01.331+00:00</time>
      </trkpt>
      <trkpt lat="48.4456" lon="2.64469">
        <ele>105</ele>
        <time>2026-02-11T09:58:06.190+00:00</time>
      </trkpt>
      <trkpt lat="48.4456" lon="2.64474">
        <ele>105</ele>
        <time>2026-02-11T09:58:10.342+00:00</time>
      </trkpt>
      <trkpt lat="48.44558" lon="2.64479">
        <ele>105</ele>
        <time>2026-02-11T09:58:15.331+00:00</time>
      </trkpt>
      <trkpt lat="48.44557" lon="2.64482">
        <ele>105</ele>
        <time>2026-02-11T09:58:19.709+00:00</time>
      </trkpt>
      <trkpt lat="48.44556" lon="2.64488">
        <ele>107</ele>
        <time>2026-02-11T09:58:24.082+00:00</time>
      </trkpt>
      <trkpt lat="48.44556" lon="2.645">
        <ele>107</ele>
        <time>2026-02-11T09:58:33.332+00:00</time>
      </trkpt>
      <trkpt lat="48.44552" lon="2.64499">
        <ele>107</ele>
        <time>2026-02-11T09:58:37.409+00:00</time>
      </trkpt>
      <trkpt lat="48.4455" lon="2.64499">
        <ele>107</ele>
        <time>2026-02-11T09:58:41.941+00:00</time>
      </trkpt>
      <trkpt lat="48.4455" lon="2.64503">
        <ele>107</ele>
        <time>2026-02-11T09:58:46.332+00:00</time>
      </trkpt>
      <trkpt lat="48.44549" lon="2.64508">
        <ele>107</ele>
        <time>2026-02-11T09:58:50.751+00:00</time>
      </trkpt>
      <trkpt lat="48.4455" lon="2.64514">
        <ele>109</ele>
        <time>2026-02-11T09:58:54.923+00:00</time>
      </trkpt>
      <trkpt lat="48.44547" lon="2.64519">
        <ele>109</ele>
        <time>2026-02-11T09:58:59.164+00:00</time>
      </trkpt>
      <trkpt lat="48.44542" lon="2.64519">
        <ele>109</ele>
        <time>2026-02-11T09:59:03.332+00:00</time>
      </trkpt>
      <trkpt lat="48.44541" lon="2.64525">
        <ele>104</ele>
        <time>2026-02-11T09:59:07.506+00:00</time>
      </trkpt>
      <trkpt lat="48.44541" lon="2.64532">
        <ele>104</ele>
        <time>2026-02-11T09:59:11.567+00:00</time>
      </trkpt>
      <trkpt lat="48.44544" lon="2.64539">
        <ele>109</ele>
        <time>2026-02-11T09:59:15.740+00:00</time>
      </trkpt>
      <trkpt lat="48.44549" lon="2.64545">
        <ele>113</ele>
        <time>2026-02-11T09:59:20.280+00:00</time>
      </trkpt>
      <trkpt lat="48.44553" lon="2.64548">
        <ele>113</ele>
        <time>2026-02-11T09:59:24.332+00:00</time>
      </trkpt>
      <trkpt lat="48.44558" lon="2.64551">
        <ele>113</ele>
        <time>2026-02-11T09:59:28.743+00:00</time>
      </trkpt>
      <trkpt lat="48.44558" lon="2.64558">
        <ele>113</ele>
        <time>2026-02-11T09:59:33.223+00:00</time>
      </trkpt>
      <trkpt lat="48.44557" lon="2.64562">
        <ele>113</ele>
        <time>2026-02-11T09:59:37.540+00:00</time>
      </trkpt>
      <trkpt lat="48.44554" lon="2.64569">
        <ele>113</ele>
        <time>2026-02-11T09:59:41.987+00:00</time>
      </trkpt>
      <trkpt lat="48.44549" lon="2.6458">
        <ele>116</ele>
        <time>2026-02-11T09:59:55.331+00:00</time>
      </trkpt>
      <trkpt lat="48.44548" lon="2.6458">
        <ele>116</ele>
        <time>2026-02-11T09:59:59.790+00:00</time>
      </trkpt>
      <trkpt lat="48.44545" lon="2.64573">
        <ele>116</ele>
        <time>2026-02-11T10:00:04.282+00:00</time>
      </trkpt>
      <trkpt lat="48.44544" lon="2.64581">
        <ele>116</ele>
        <time>2026-02-11T10:00:09.071+00:00</time>
      </trkpt>
      <trkpt lat="48.44541" lon="2.64582">
        <ele>109</ele>
        <time>2026-02-11T10:00:13.331+00:00</time>
      </trkpt>
      <trkpt lat="48.44533" lon="2.64588">
        <ele>109</ele>
        <time>2026-02-11T10:00:37.331+00:00</time>
      </trkpt>
      <trkpt lat="48.44532" lon="2.64587">
        <ele>109</ele>
        <time>2026-02-11T10:00:42.331+00:00</time>
      </trkpt>
      <trkpt lat="48.44532" lon="2.64587">
        <ele>109</ele>
        <time>2026-02-11T10:00:47.331+00:00</time>
      </trkpt>
      <trkpt lat="48.44531" lon="2.64586">
        <ele>109</ele>
        <time>2026-02-11T10:00:53.331+00:00</time>
      </trkpt>
      <trkpt lat="48.4453" lon="2.64584">
        <ele>109</ele>
        <time>2026-02-11T10:00:57.330+00:00</time>
      </trkpt>
      <trkpt lat="48.44526" lon="2.64585">
        <ele>109</ele>
        <time>2026-02-11T10:01:01.331+00:00</time>
      </trkpt>
      <trkpt lat="48.44523" lon="2.64589">
        <ele>109</ele>
        <time>2026-02-11T10:01:06.330+00:00</time>
      </trkpt>
      <trkpt lat="48.44524" lon="2.6459">
        <ele>109</ele>
        <time>2026-02-11T10:01:10.330+00:00</time>
      </trkpt>
      <trkpt lat="48.44523" lon="2.64594">
        <ele>109</ele>
        <time>2026-02-11T10:01:14.331+00:00</time>
      </trkpt>
      <trkpt lat="48.44524" lon="2.64603">
        <ele>113</ele>
        <time>2026-02-11T10:01:19.066+00:00</time>
      </trkpt>
      <trkpt lat="48.44524" lon="2.64609">
        <ele>113</ele>
        <time>2026-02-11T10:01:23.188+00:00</time>
      </trkpt>
      <trkpt lat="48.44523" lon="2.64614">
        <ele>113</ele>
        <time>2026-02-11T10:01:27.624+00:00</time>
      </trkpt>
      <trkpt lat="48.44524" lon="2.64619">
        <ele>113</ele>
        <time>2026-02-11T10:01:31.805+00:00</time>
      </trkpt>
      <trkpt lat="48.44525" lon="2.64626">
        <ele>115</ele>
        <time>2026-02-11T10:01:35.820+00:00</time>
      </trkpt>
      <trkpt lat="48.44531" lon="2.64642">
        <ele>115</ele>
        <time>2026-02-11T10:02:15.331+00:00</time>
      </trkpt>
      <trkpt lat="48.44532" lon="2.64641">
        <ele>115</ele>
        <time>2026-02-11T10:02:19.331+00:00</time>
      </trkpt>
      <trkpt lat="48.44537" lon="2.64637">
        <ele>115</ele>
        <time>2026-02-11T10:02:23.700+00:00</time>
      </trkpt>
      <trkpt lat="48.44541" lon="2.64642">
        <ele>115</ele>
        <time>2026-02-11T10:02:28.119+00:00</time>
      </trkpt>
      <trkpt lat="48.44543" lon="2.64644">
        <ele>120</ele>
        <time>2026-02-11T10:02:32.331+00:00</time>
      </trkpt>
      <trkpt lat="48.44537" lon="2.64664">
        <ele>117</ele>
        <time>2026-02-11T10:03:21.479+00:00</time>
      </trkpt>
      <trkpt lat="48.44535" lon="2.64668">
        <ele>117</ele>
        <time>2026-02-11T10:03:25.601+00:00</time>
      </trkpt>
      <trkpt lat="48.44534" lon="2.64669">
        <ele>117</ele>
        <time>2026-02-11T10:03:29.901+00:00</time>
      </trkpt>
      <trkpt lat="48.44534" lon="2.6467">
        <ele>117</ele>
        <time>2026-02-11T10:03:33.948+00:00</time>
      </trkpt>
      <trkpt lat="48.44531" lon="2.64671">
        <ele>117</ele>
        <time>2026-02-11T10:03:38.799+00:00</time>
      </trkpt>
      <trkpt lat="48.44521" lon="2.64676">
        <ele>117</ele>
        <time>2026-02-11T10:05:58.331+00:00</time>
      </trkpt>
      <trkpt lat="48.4452" lon="2.64677">
        <ele>117</ele>
        <time>2026-02-11T10:06:09.331+00:00</time>
      </trkpt>
      <trkpt lat="48.44521" lon="2.64679">
        <ele>117</ele>
        <time>2026-02-11T10:06:14.331+00:00</time>
      </trkpt>
      <trkpt lat="48.4452" lon="2.6468">
        <ele>117</ele>
        <time>2026-02-11T10:06:19.207+00:00</time>
      </trkpt>
      <trkpt lat="48.44521" lon="2.64687">
        <ele>120</ele>
        <time>2026-02-11T10:06:23.330+00:00</time>
      </trkpt>
      <trkpt lat="48.44521" lon="2.64688">
        <ele>120</ele>
        <time>2026-02-11T10:06:28.331+00:00</time>
      </trkpt>
      <trkpt lat="48.44523" lon="2.64694">
        <ele>120</ele>
        <time>2026-02-11T10:06:32.519+00:00</time>
      </trkpt>
      <trkpt lat="48.44523" lon="2.64703">
        <ele>120</ele>
        <time>2026-02-11T10:06:37.306+00:00</time>
      </trkpt>
      <trkpt lat="48.4452" lon="2.6471">
        <ele>122</ele>
        <time>2026-02-11T10:06:41.581+00:00</time>
      </trkpt>
      <trkpt lat="48.44519" lon="2.64719">
        <ele>122</ele>
        <time>2026-02-11T10:06:46.282+00:00</time>
      </trkpt>
      <trkpt lat="48.44515" lon="2.64726">
        <ele>122</ele>
        <time>2026-02-11T10:06:50.465+00:00</time>
      </trkpt>
      <trkpt lat="48.44511" lon="2.64729">
        <ele>114</ele>
        <time>2026-02-11T10:06:54.686+00:00</time>
      </trkpt>
      <trkpt lat="48.44511" lon="2.64738">
        <ele>114</ele>
        <time>2026-02-11T10:06:59.331+00:00</time>
      </trkpt>
      <trkpt lat="48.44513" lon="2.64746">
        <ele>114</ele>
        <time>2026-02-11T10:07:03.483+00:00</time>
      </trkpt>
      <trkpt lat="48.44513" lon="2.64754">
        <ele>114</ele>
        <time>2026-02-11T10:07:08.048+00:00</time>
      </trkpt>
      <trkpt lat="48.44512" lon="2.6476">
        <ele>114</ele>
        <time>2026-02-11T10:07:12.084+00:00</time>
      </trkpt>
      <trkpt lat="48.44512" lon="2.64768">
        <ele>113</ele>
        <time>2026-02-11T10:07:16.146+00:00</time>
      </trkpt>
      <trkpt lat="48.44512" lon="2.64775">
        <ele>113</ele>
        <time>2026-02-11T10:07:20.164+00:00</time>
      </trkpt>
      <trkpt lat="48.44513" lon="2.64782">
        <ele>113</ele>
        <time>2026-02-11T10:07:24.331+00:00</time>
      </trkpt>
      <trkpt lat="48.44518" lon="2.64788">
        <ele>122</ele>
        <time>2026-02-11T10:07:28.704+00:00</time>
      </trkpt>
      <trkpt lat="48.44519" lon="2.64796">
        <ele>123</ele>
        <time>2026-02-11T10:07:32.988+00:00</time>
      </trkpt>
      <trkpt lat="48.44514" lon="2.6483">
        <ele>115</ele>
        <time>2026-02-11T10:08:26.996+00:00</time>
      </trkpt>
      <trkpt lat="48.44514" lon="2.64834">
        <ele>124</ele>
        <time>2026-02-11T10:08:31.014+00:00</time>
      </trkpt>
      <trkpt lat="48.44513" lon="2.64843">
        <ele>115</ele>
        <time>2026-02-11T10:08:35.494+00:00</time>
      </trkpt>
      <trkpt lat="48.44512" lon="2.64851">
        <ele>116</ele>
        <time>2026-02-11T10:08:40.017+00:00</time>
      </trkpt>
      <trkpt lat="48.44513" lon="2.64858">
        <ele>116</ele>
        <time>2026-02-11T10:08:44.094+00:00</time>
      </trkpt>
      <trkpt lat="48.44516" lon="2.64861">
        <ele>125</ele>
        <time>2026-02-11T10:08:48.329+00:00</time>
      </trkpt>
      <trkpt lat="48.44519" lon="2.64868">
        <ele>125</ele>
        <time>2026-02-11T10:08:52.667+00:00</time>
      </trkpt>
      <trkpt lat="48.44522" lon="2.64873">
        <ele>125</ele>
        <time>2026-02-11T10:08:57.173+00:00</time>
      </trkpt>
      <trkpt lat="48.44525" lon="2.64878">
        <ele>123</ele>
        <time>2026-02-11T10:09:01.789+00:00</time>
      </trkpt>
      <trkpt lat="48.44525" lon="2.64884">
        <ele>123</ele>
        <time>2026-02-11T10:09:06.097+00:00</time>
      </trkpt>
      <trkpt lat="48.44524" lon="2.64892">
        <ele>123</ele>
        <time>2026-02-11T10:09:10.192+00:00</time>
      </trkpt>
      <trkpt lat="48.44523" lon="2.64901">
        <ele>123</ele>
        <time>2026-02-11T10:09:14.321+00:00</time>
      </trkpt>
      <trkpt lat="48.4452" lon="2.6491">
        <ele>121</ele>
        <time>2026-02-11T10:09:19.134+00:00</time>
      </trkpt>
      <trkpt lat="48.4452" lon="2.6492">
        <ele>121</ele>
        <time>2026-02-11T10:09:23.588+00:00</time>
      </trkpt>
      <trkpt lat="48.4452" lon="2.6493">
        <ele>121</ele>
        <time>2026-02-11T10:09:27.972+00:00</time>
      </trkpt>
      <trkpt lat="48.44522" lon="2.64937">
        <ele>119</ele>
        <time>2026-02-11T10:09:32.330+00:00</time>
      </trkpt>
      <trkpt lat="48.44527" lon="2.64942">
        <ele>119</ele>
        <time>2026-02-11T10:09:36.917+00:00</time>
      </trkpt>
      <trkpt lat="48.44531" lon="2.64947">
        <ele>119</ele>
        <time>2026-02-11T10:09:41.113+00:00</time>
      </trkpt>
      <trkpt lat="48.44532" lon="2.64952">
        <ele>119</ele>
        <time>2026-02-11T10:09:45.594+00:00</time>
      </trkpt>
      <trkpt lat="48.44538" lon="2.64953">
        <ele>119</ele>
        <time>2026-02-11T10:09:50.118+00:00</time>
      </trkpt>
      <trkpt lat="48.4454" lon="2.64954">
        <ele>119</ele>
        <time>2026-02-11T10:09:54.329+00:00</time>
      </trkpt>
      <trkpt lat="48.44551" lon="2.64963">
        <ele>121</ele>
        <time>2026-02-11T10:10:12.330+00:00</time>
      </trkpt>
      <trkpt lat="48.44551" lon="2.64964">
        <ele>121</ele>
        <time>2026-02-11T10:10:16.911+00:00</time>
      </trkpt>
      <trkpt lat="48.44552" lon="2.64966">
        <ele>121</ele>
        <time>2026-02-11T10:10:21.330+00:00</time>
      </trkpt>
      <trkpt lat="48.44553" lon="2.64967">
        <ele>121</ele>
        <time>2026-02-11T10:10:26.330+00:00</time>
      </trkpt>
      <trkpt lat="48.44553" lon="2.64967">
        <ele>121</ele>
        <time>2026-02-11T10:10:30.330+00:00</time>
      </trkpt>
      <trkpt lat="48.44554" lon="2.64967">
        <ele>121</ele>
        <time>2026-02-11T10:10:44.330+00:00</time>
      </trkpt>
      <trkpt lat="48.44555" lon="2.64967">
        <ele>121</ele>
        <time>2026-02-11T10:10:51.330+00:00</time>
      </trkpt>
      <trkpt lat="48.44555" lon="2.64968">
        <ele>121</ele>
        <time>2026-02-11T10:10:57.174+00:00</time>
      </trkpt>
      <trkpt lat="48.44558" lon="2.64975">
        <ele>121</ele>
        <time>2026-02-11T10:11:01.475+00:00</time>
      </trkpt>
      <trkpt lat="48.44559" lon="2.6498">
        <ele>121</ele>
        <time>2026-02-11T10:11:05.493+00:00</time>
      </trkpt>
      <trkpt lat="48.44561" lon="2.64987">
        <ele>119</ele>
        <time>2026-02-11T10:11:10.211+00:00</time>
      </trkpt>
      <trkpt lat="48.44567" lon="2.64991">
        <ele>119</ele>
        <time>2026-02-11T10:11:14.614+00:00</time>
      </trkpt>
      <trkpt lat="48.44571" lon="2.64996">
        <ele>123</ele>
        <time>2026-02-11T10:11:19.231+00:00</time>
      </trkpt>
      <trkpt lat="48.44572" lon="2.65003">
        <ele>123</ele>
        <time>2026-02-11T10:11:23.437+00:00</time>
      </trkpt>
      <trkpt lat="48.44572" lon="2.6501">
        <ele>123</ele>
        <time>2026-02-11T10:11:27.471+00:00</time>
      </trkpt>
      <trkpt lat="48.44575" lon="2.65016">
        <ele>123</ele>
        <time>2026-02-11T10:11:31.490+00:00</time>
      </trkpt>
      <trkpt lat="48.44577" lon="2.65022">
        <ele>123</ele>
        <time>2026-02-11T10:11:35.610+00:00</time>
      </trkpt>
      <trkpt lat="48.44581" lon="2.65028">
        <ele>123</ele>
        <time>2026-02-11T10:11:39.791+00:00</time>
      </trkpt>
      <trkpt lat="48.44586" lon="2.65034">
        <ele>123</ele>
        <time>2026-02-11T10:11:44.329+00:00</time>
      </trkpt>
      <trkpt lat="48.44586" lon="2.65043">
        <ele>122</ele>
        <time>2026-02-11T10:11:48.850+00:00</time>
      </trkpt>
      <trkpt lat="48.44584" lon="2.65049">
        <ele>122</ele>
        <time>2026-02-11T10:11:53.330+00:00</time>
      </trkpt>
      <trkpt lat="48.44585" lon="2.65056">
        <ele>122</ele>
        <time>2026-02-11T10:11:57.870+00:00</time>
      </trkpt>
      <trkpt lat="48.44584" lon="2.65062">
        <ele>122</ele>
        <time>2026-02-11T10:12:01.888+00:00</time>
      </trkpt>
      <trkpt lat="48.44584" lon="2.6507">
        <ele>123</ele>
        <time>2026-02-11T10:12:06.329+00:00</time>
      </trkpt>
      <trkpt lat="48.4458" lon="2.65077">
        <ele>123</ele>
        <time>2026-02-11T10:12:11.329+00:00</time>
      </trkpt>
      <trkpt lat="48.44577" lon="2.65084">
        <ele>123</ele>
        <time>2026-02-11T10:12:15.427+00:00</time>
      </trkpt>
      <trkpt lat="48.44574" lon="2.65089">
        <ele>123</ele>
        <time>2026-02-11T10:12:19.889+00:00</time>
      </trkpt>
      <trkpt lat="48.44574" lon="2.65097">
        <ele>123</ele>
        <time>2026-02-11T10:12:24.329+00:00</time>
      </trkpt>
      <trkpt lat="48.44569" lon="2.65104">
        <ele>120</ele>
        <time>2026-02-11T10:12:28.728+00:00</time>
      </trkpt>
      <trkpt lat="48.44569" lon="2.65114">
        <ele>120</ele>
        <time>2026-02-11T10:12:33.113+00:00</time>
      </trkpt>
      <trkpt lat="48.44567" lon="2.65118">
        <ele>120</ele>
        <time>2026-02-11T10:12:37.576+00:00</time>
      </trkpt>
      <trkpt lat="48.44567" lon="2.65125">
        <ele>123</ele>
        <time>2026-02-11T10:12:42.330+00:00</time>
      </trkpt>
      <trkpt lat="48.44565" lon="2.65131">
        <ele>123</ele>
        <time>2026-02-11T10:12:46.952+00:00</time>
      </trkpt>
      <trkpt lat="48.44565" lon="2.65137">
        <ele>123</ele>
        <time>2026-02-11T10:12:51.294+00:00</time>
      </trkpt>
      <trkpt lat="48.44563" lon="2.65142">
        <ele>123</ele>
        <time>2026-02-11T10:12:55.893+00:00</time>
      </trkpt>
      <trkpt lat="48.44564" lon="2.65146">
        <ele>123</ele>
        <time>2026-02-11T10:13:00.330+00:00</time>
      </trkpt>
      <trkpt lat="48.44565" lon="2.65152">
        <ele>123</ele>
        <time>2026-02-11T10:13:04.868+00:00</time>
      </trkpt>
      <trkpt lat="48.44565" lon="2.65157">
        <ele>124</ele>
        <time>2026-02-11T10:13:08.971+00:00</time>
      </trkpt>
      <trkpt lat="48.44563" lon="2.65159">
        <ele>124</ele>
        <time>2026-02-11T10:13:13.329+00:00</time>
      </trkpt>
      <trkpt lat="48.44564" lon="2.65163">
        <ele>124</ele>
        <time>2026-02-11T10:13:17.972+00:00</time>
      </trkpt>
      <trkpt lat="48.44569" lon="2.65162">
        <ele>124</ele>
        <time>2026-02-11T10:13:22.314+00:00</time>
      </trkpt>
      <trkpt lat="48.44573" lon="2.65165">
        <ele>128</ele>
        <time>2026-02-11T10:13:26.329+00:00</time>
      </trkpt>
      <trkpt lat="48.44575" lon="2.65167">
        <ele>128</ele>
        <time>2026-02-11T10:13:30.914+00:00</time>
      </trkpt>
      <trkpt lat="48.44574" lon="2.65174">
        <ele>128</ele>
        <time>2026-02-11T10:13:35.841+00:00</time>
      </trkpt>
      <trkpt lat="48.44571" lon="2.65175">
        <ele>128</ele>
        <time>2026-02-11T10:13:39.931+00:00</time>
      </trkpt>
      <trkpt lat="48.44565" lon="2.65174">
        <ele>124</ele>
        <time>2026-02-11T10:13:44.330+00:00</time>
      </trkpt>
      <trkpt lat="48.44564" lon="2.65181">
        <ele>124</ele>
        <time>2026-02-11T10:13:48.548+00:00</time>
      </trkpt>
      <trkpt lat="48.44564" lon="2.6519">
        <ele>124</ele>
        <time>2026-02-11T10:13:53.113+00:00</time>
      </trkpt>
      <trkpt lat="48.44563" lon="2.65197">
        <ele>124</ele>
        <time>2026-02-11T10:13:57.430+00:00</time>
      </trkpt>
      <trkpt lat="48.4456" lon="2.65204">
        <ele>124</ele>
        <time>2026-02-11T10:14:01.908+00:00</time>
      </trkpt>
      <trkpt lat="48.44557" lon="2.65208">
        <ele>124</ele>
        <time>2026-02-11T10:14:06.267+00:00</time>
      </trkpt>
      <trkpt lat="48.44556" lon="2.65213">
        <ele>122</ele>
        <time>2026-02-11T10:14:10.388+00:00</time>
      </trkpt>
      <trkpt lat="48.44556" lon="2.6522">
        <ele>122</ele>
        <time>2026-02-11T10:14:15.208+00:00</time>
      </trkpt>
      <trkpt lat="48.44551" lon="2.65223">
        <ele>122</ele>
        <time>2026-02-11T10:14:19.874+00:00</time>
      </trkpt>
      <trkpt lat="48.44547" lon="2.65223">
        <ele>122</ele>
        <time>2026-02-11T10:14:23.892+00:00</time>
      </trkpt>
      <trkpt lat="48.44543" lon="2.65225">
        <ele>122</ele>
        <time>2026-02-11T10:14:28.329+00:00</time>
      </trkpt>
      <trkpt lat="48.44543" lon="2.65227">
        <ele>122</ele>
        <time>2026-02-11T10:14:32.330+00:00</time>
      </trkpt>
      <trkpt lat="48.4454" lon="2.6523">
        <ele>115</ele>
        <time>2026-02-11T10:14:37.329+00:00</time>
      </trkpt>
      <trkpt lat="48.44538" lon="2.65238">
        <ele>113</ele>
        <time>2026-02-11T10:14:41.492+00:00</time>
      </trkpt>
      <trkpt lat="48.4454" lon="2.65246">
        <ele>113</ele>
        <time>2026-02-11T10:14:46.252+00:00</time>
      </trkpt>
      <trkpt lat="48.44539" lon="2.65249">
        <ele>113</ele>
        <time>2026-02-11T10:14:51.192+00:00</time>
      </trkpt>
      <trkpt lat="48.44535" lon="2.65246">
        <ele>113</ele>
        <time>2026-02-11T10:14:55.329+00:00</time>
      </trkpt>
      <trkpt lat="48.44532" lon="2.6524">
        <ele>113</ele>
        <time>2026-02-11T10:14:59.868+00:00</time>
      </trkpt>
      <trkpt lat="48.44529" lon="2.65239">
        <ele>113</ele>
        <time>2026-02-11T10:15:04.330+00:00</time>
      </trkpt>
      <trkpt lat="48.44531" lon="2.6523">
        <ele>115</ele>
        <time>2026-02-11T10:15:08.990+00:00</time>
      </trkpt>
      <trkpt lat="48.44528" lon="2.65228">
        <ele>115</ele>
        <time>2026-02-11T10:15:13.329+00:00</time>
      </trkpt>
      <trkpt lat="48.44525" lon="2.65227">
        <ele>115</ele>
        <time>2026-02-11T10:15:17.330+00:00</time>
      </trkpt>
      <trkpt lat="48.4452" lon="2.65226">
        <ele>115</ele>
        <time>2026-02-11T10:15:21.708+00:00</time>
      </trkpt>
      <trkpt lat="48.44516" lon="2.65223">
        <ele>115</ele>
        <time>2026-02-11T10:15:26.256+00:00</time>
      </trkpt>
      <trkpt lat="48.44514" lon="2.6523">
        <ele>115</ele>
        <time>2026-02-11T10:15:30.572+00:00</time>
      </trkpt>
      <trkpt lat="48.44511" lon="2.65232">
        <ele>111</ele>
        <time>2026-02-11T10:15:35.093+00:00</time>
      </trkpt>
      <trkpt lat="48.44507" lon="2.65233">
        <ele>111</ele>
        <time>2026-02-11T10:15:39.615+00:00</time>
      </trkpt>
      <trkpt lat="48.44503" lon="2.65231">
        <ele>111</ele>
        <time>2026-02-11T10:15:43.889+00:00</time>
      </trkpt>
      <trkpt lat="48.445" lon="2.65228">
        <ele>111</ele>
        <time>2026-02-11T10:15:48.069+00:00</time>
      </trkpt>
      <trkpt lat="48.44495" lon="2.65227">
        <ele>111</ele>
        <time>2026-02-11T10:15:52.668+00:00</time>
      </trkpt>
      <trkpt lat="48.44494" lon="2.65225">
        <ele>111</ele>
        <time>2026-02-11T10:15:56.695+00:00</time>
      </trkpt>
      <trkpt lat="48.44491" lon="2.65222">
        <ele>111</ele>
        <time>2026-02-11T10:16:01.130+00:00</time>
      </trkpt>
      <trkpt lat="48.44486" lon="2.65219">
        <ele>111</ele>
        <time>2026-02-11T10:16:05.532+00:00</time>
      </trkpt>
      <trkpt lat="48.44481" lon="2.6522">
        <ele>106</ele>
        <time>2026-02-11T10:16:10.130+00:00</time>
      </trkpt>
      <trkpt lat="48.44479" lon="2.6523">
        <ele>106</ele>
        <time>2026-02-11T10:16:14.695+00:00</time>
      </trkpt>
      <trkpt lat="48.44478" lon="2.65232">
        <ele>106</ele>
        <time>2026-02-11T10:16:19.330+00:00</time>
      </trkpt>
      <trkpt lat="48.44476" lon="2.65229">
        <ele>106</ele>
        <time>2026-02-11T10:16:23.430+00:00</time>
      </trkpt>
      <trkpt lat="48.44471" lon="2.65231">
        <ele>106</ele>
        <time>2026-02-11T10:16:28.077+00:00</time>
      </trkpt>
      <trkpt lat="48.44467" lon="2.65232">
        <ele>106</ele>
        <time>2026-02-11T10:16:32.294+00:00</time>
      </trkpt>
      <trkpt lat="48.44463" lon="2.65234">
        <ele>106</ele>
        <time>2026-02-11T10:16:36.688+00:00</time>
      </trkpt>
      <trkpt lat="48.44459" lon="2.65228">
        <ele>106</ele>
        <time>2026-02-11T10:16:41.329+00:00</time>
      </trkpt>
      <trkpt lat="48.44455" lon="2.65223">
        <ele>104</ele>
        <time>2026-02-11T10:16:45.927+00:00</time>
      </trkpt>
      <trkpt lat="48.44449" lon="2.65219">
        <ele>104</ele>
        <time>2026-02-11T10:16:50.653+00:00</time>
      </trkpt>
      <trkpt lat="48.44444" lon="2.65219">
        <ele>104</ele>
        <time>2026-02-11T10:16:55.294+00:00</time>
      </trkpt>
      <trkpt lat="48.44439" lon="2.65222">
        <ele>104</ele>
        <time>2026-02-11T10:16:59.331+00:00</time>
      </trkpt>
      <trkpt lat="48.44435" lon="2.65224">
        <ele>104</ele>
        <time>2026-02-11T10:17:03.329+00:00</time>
      </trkpt>
      <trkpt lat="48.44435" lon="2.65223">
        <ele>104</ele>
        <time>2026-02-11T10:17:08.330+00:00</time>
      </trkpt>
      <trkpt lat="48.44435" lon="2.65224">
        <ele>104</ele>
        <time>2026-02-11T10:17:25.329+00:00</time>
      </trkpt>
      <trkpt lat="48.44435" lon="2.65224">
        <ele>104</ele>
        <time>2026-02-11T10:17:30.330+00:00</time>
      </trkpt>
      <trkpt lat="48.44434" lon="2.65224">
        <ele>104</ele>
        <time>2026-02-11T10:17:35.271+00:00</time>
      </trkpt>
      <trkpt lat="48.44429" lon="2.65224">
        <ele>104</ele>
        <time>2026-02-11T10:17:39.330+00:00</time>
      </trkpt>
      <trkpt lat="48.44423" lon="2.65216">
        <ele>104</ele>
        <time>2026-02-11T10:17:44.329+00:00</time>
      </trkpt>
      <trkpt lat="48.44419" lon="2.65214">
        <ele>104</ele>
        <time>2026-02-11T10:17:48.852+00:00</time>
      </trkpt>
      <trkpt lat="48.44416" lon="2.65209">
        <ele>104</ele>
        <time>2026-02-11T10:17:53.330+00:00</time>
      </trkpt>
      <trkpt lat="48.44413" lon="2.65203">
        <ele>104</ele>
        <time>2026-02-11T10:17:57.734+00:00</time>
      </trkpt>
      <trkpt lat="48.44407" lon="2.65199">
        <ele>104</ele>
        <time>2026-02-11T10:18:02.330+00:00</time>
      </trkpt>
      <trkpt lat="48.44403" lon="2.65196">
        <ele>103</ele>
        <time>2026-02-11T10:18:06.595+00:00</time>
      </trkpt>
      <trkpt lat="48.44398" lon="2.65193">
        <ele>103</ele>
        <time>2026-02-11T10:18:11.034+00:00</time>
      </trkpt>
      <trkpt lat="48.44393" lon="2.6519">
        <ele>103</ele>
        <time>2026-02-11T10:18:15.333+00:00</time>
      </trkpt>
      <trkpt lat="48.44388" lon="2.65185">
        <ele>103</ele>
        <time>2026-02-11T10:18:19.829+00:00</time>
      </trkpt>
      <trkpt lat="48.44383" lon="2.65182">
        <ele>103</ele>
        <time>2026-02-11T10:18:23.932+00:00</time>
      </trkpt>
      <trkpt lat="48.44377" lon="2.65185">
        <ele>103</ele>
        <time>2026-02-11T10:18:28.011+00:00</time>
      </trkpt>
      <trkpt lat="48.44376" lon="2.65194">
        <ele>103</ele>
        <time>2026-02-11T10:18:32.191+00:00</time>
      </trkpt>
      <trkpt lat="48.44375" lon="2.65203">
        <ele>100</ele>
        <time>2026-02-11T10:18:36.330+00:00</time>
      </trkpt>
      <trkpt lat="48.44372" lon="2.65212">
        <ele>100</ele>
        <time>2026-02-11T10:18:41.233+00:00</time>
      </trkpt>
      <trkpt lat="48.44369" lon="2.65219">
        <ele>100</ele>
        <time>2026-02-11T10:18:45.330+00:00</time>
      </trkpt>
      <trkpt lat="48.44366" lon="2.65227">
        <ele>100</ele>
        <time>2026-02-11T10:18:49.895+00:00</time>
      </trkpt>
      <trkpt lat="48.44365" lon="2.65234">
        <ele>100</ele>
        <time>2026-02-11T10:18:53.954+00:00</time>
      </trkpt>
      <trkpt lat="48.44362" lon="2.65241">
        <ele>101</ele>
        <time>2026-02-11T10:18:58.238+00:00</time>
      </trkpt>
      <trkpt lat="48.44361" lon="2.65247">
        <ele>101</ele>
        <time>2026-02-11T10:19:02.330+00:00</time>
      </trkpt>
      <trkpt lat="48.44359" lon="2.65255">
        <ele>101</ele>
        <time>2026-02-11T10:19:06.991+00:00</time>
      </trkpt>
      <trkpt lat="48.44358" lon="2.65263">
        <ele>101</ele>
        <time>2026-02-11T10:19:11.330+00:00</time>
      </trkpt>
      <trkpt lat="48.44356" lon="2.65271">
        <ele>102</ele>
        <time>2026-02-11T10:19:15.632+00:00</time>
      </trkpt>
      <trkpt lat="48.44354" lon="2.65279">
        <ele>102</ele>
        <time>2026-02-11T10:19:20.110+00:00</time>
      </trkpt>
      <trkpt lat="48.44352" lon="2.65287">
        <ele>102</ele>
        <time>2026-02-11T10:19:24.571+00:00</time>
      </trkpt>
      <trkpt lat="48.44351" lon="2.65296">
        <ele>103</ele>
        <time>2026-02-11T10:19:28.931+00:00</time>
      </trkpt>
      <trkpt lat="48.44349" lon="2.65306">
        <ele>103</ele>
        <time>2026-02-11T10:19:33.273+00:00</time>
      </trkpt>
      <trkpt lat="48.44348" lon="2.65314">
        <ele>103</ele>
        <time>2026-02-11T10:19:37.557+00:00</time>
      </trkpt>
      <trkpt lat="48.44347" lon="2.65324">
        <ele>101</ele>
        <time>2026-02-11T10:19:41.890+00:00</time>
      </trkpt>
      <trkpt lat="48.44346" lon="2.65333">
        <ele>101</ele>
        <time>2026-02-11T10:19:46.309+00:00</time>
      </trkpt>
      <trkpt lat="48.44344" lon="2.65342">
        <ele>101</ele>
        <time>2026-02-11T10:19:50.608+00:00</time>
      </trkpt>
      <trkpt lat="48.44343" lon="2.65351">
        <ele>102</ele>
        <time>2026-02-11T10:19:54.994+00:00</time>
      </trkpt>
      <trkpt lat="48.44342" lon="2.65359">
        <ele>102</ele>
        <time>2026-02-11T10:19:59.054+00:00</time>
      </trkpt>
      <trkpt lat="48.44341" lon="2.65368">
        <ele>102</ele>
        <time>2026-02-11T10:20:03.194+00:00</time>
      </trkpt>
      <trkpt lat="48.44339" lon="2.65377">
        <ele>102</ele>
        <time>2026-02-11T10:20:07.730+00:00</time>
      </trkpt>
      <trkpt lat="48.44338" lon="2.65386">
        <ele>102</ele>
        <time>2026-02-11T10:20:11.953+00:00</time>
      </trkpt>
      <trkpt lat="48.44337" lon="2.65394">
        <ele>102</ele>
        <time>2026-02-11T10:20:16.270+00:00</time>
      </trkpt>
      <trkpt lat="48.44335" lon="2.65405">
        <ele>103</ele>
        <time>2026-02-11T10:20:20.837+00:00</time>
      </trkpt>
      <trkpt lat="48.44333" lon="2.65414">
        <ele>103</ele>
        <time>2026-02-11T10:20:25.133+00:00</time>
      </trkpt>
      <trkpt lat="48.4433" lon="2.65423">
        <ele>103</ele>
        <time>2026-02-11T10:20:29.492+00:00</time>
      </trkpt>
      <trkpt lat="48.44329" lon="2.65434">
        <ele>103</ele>
        <time>2026-02-11T10:20:34.048+00:00</time>
      </trkpt>
      <trkpt lat="48.44327" lon="2.65443">
        <ele>103</ele>
        <time>2026-02-11T10:20:38.433+00:00</time>
      </trkpt>
      <trkpt lat="48.44326" lon="2.65452">
        <ele>103</ele>
        <time>2026-02-11T10:20:42.835+00:00</time>
      </trkpt>
      <trkpt lat="48.44326" lon="2.65461">
        <ele>105</ele>
        <time>2026-02-11T10:20:47.331+00:00</time>
      </trkpt>
      <trkpt lat="48.44324" lon="2.65471">
        <ele>105</ele>
        <time>2026-02-11T10:20:51.733+00:00</time>
      </trkpt>
      <trkpt lat="48.44324" lon="2.65481">
        <ele>105</ele>
        <time>2026-02-11T10:20:56.170+00:00</time>
      </trkpt>
      <trkpt lat="48.44322" lon="2.65489">
        <ele>106</ele>
        <time>2026-02-11T10:21:00.691+00:00</time>
      </trkpt>
      <trkpt lat="48.44321" lon="2.65497">
        <ele>106</ele>
        <time>2026-02-11T10:21:04.930+00:00</time>
      </trkpt>
      <trkpt lat="48.4432" lon="2.65506">
        <ele>106</ele>
        <time>2026-02-11T10:21:09.391+00:00</time>
      </trkpt>
      <trkpt lat="48.44318" lon="2.65515">
        <ele>103</ele>
        <time>2026-02-11T10:21:13.973+00:00</time>
      </trkpt>
      <trkpt lat="48.44316" lon="2.65523">
        <ele>103</ele>
        <time>2026-02-11T10:21:18.170+00:00</time>
      </trkpt>
      <trkpt lat="48.44314" lon="2.65532">
        <ele>103</ele>
        <time>2026-02-11T10:21:22.674+00:00</time>
      </trkpt>
      <trkpt lat="48.44314" lon="2.65541">
        <ele>103</ele>
        <time>2026-02-11T10:21:27.212+00:00</time>
      </trkpt>
      <trkpt lat="48.44313" lon="2.65549">
        <ele>103</ele>
        <time>2026-02-11T10:21:31.614+00:00</time>
      </trkpt>
      <trkpt lat="48.44311" lon="2.65557">
        <ele>103</ele>
        <time>2026-02-11T10:21:36.094+00:00</time>
      </trkpt>
      <trkpt lat="48.44309" lon="2.65565">
        <ele>103</ele>
        <time>2026-02-11T10:21:40.512+00:00</time>
      </trkpt>
      <trkpt lat="48.44307" lon="2.65573">
        <ele>104</ele>
        <time>2026-02-11T10:21:44.914+00:00</time>
      </trkpt>
      <trkpt lat="48.44306" lon="2.65581">
        <ele>104</ele>
        <time>2026-02-11T10:21:49.171+00:00</time>
      </trkpt>
      <trkpt lat="48.44303" lon="2.65588">
        <ele>104</ele>
        <time>2026-02-11T10:21:53.328+00:00</time>
      </trkpt>
      <trkpt lat="48.44301" lon="2.65594">
        <ele>104</ele>
        <time>2026-02-11T10:21:58.155+00:00</time>
      </trkpt>
      <trkpt lat="48.44299" lon="2.65604">
        <ele>105</ele>
        <time>2026-02-11T10:22:03.173+00:00</time>
      </trkpt>
      <trkpt lat="48.44297" lon="2.65611">
        <ele>105</ele>
        <time>2026-02-11T10:22:07.710+00:00</time>
      </trkpt>
      <trkpt lat="48.44294" lon="2.65618">
        <ele>105</ele>
        <time>2026-02-11T10:22:12.153+00:00</time>
      </trkpt>
      <trkpt lat="48.44292" lon="2.65625">
        <ele>105</ele>
        <time>2026-02-11T10:22:16.454+00:00</time>
      </trkpt>
      <trkpt lat="48.44291" lon="2.65634">
        <ele>105</ele>
        <time>2026-02-11T10:22:20.915+00:00</time>
      </trkpt>
      <trkpt lat="48.44288" lon="2.65642">
        <ele>105</ele>
        <time>2026-02-11T10:22:25.329+00:00</time>
      </trkpt>
      <trkpt lat="48.44285" lon="2.65645">
        <ele>105</ele>
        <time>2026-02-11T10:22:29.864+00:00</time>
      </trkpt>
      <trkpt lat="48.44283" lon="2.65655">
        <ele>107</ele>
        <time>2026-02-11T10:22:34.219+00:00</time>
      </trkpt>
      <trkpt lat="48.4428" lon="2.65662">
        <ele>107</ele>
        <time>2026-02-11T10:22:38.680+00:00</time>
      </trkpt>
      <trkpt lat="48.44279" lon="2.6567">
        <ele>107</ele>
        <time>2026-02-11T10:22:43.101+00:00</time>
      </trkpt>
      <trkpt lat="48.44277" lon="2.65677">
        <ele>107</ele>
        <time>2026-02-11T10:22:47.519+00:00</time>
      </trkpt>
      <trkpt lat="48.44273" lon="2.65685">
        <ele>109</ele>
        <time>2026-02-11T10:22:51.851+00:00</time>
      </trkpt>
      <trkpt lat="48.44272" lon="2.65693">
        <ele>109</ele>
        <time>2026-02-11T10:22:56.027+00:00</time>
      </trkpt>
      <trkpt lat="48.4427" lon="2.65704">
        <ele>109</ele>
        <time>2026-02-11T10:23:00.329+00:00</time>
      </trkpt>
      <trkpt lat="48.44268" lon="2.6572">
        <ele>111</ele>
        <time>2026-02-11T10:23:14.329+00:00</time>
      </trkpt>
      <trkpt lat="48.44267" lon="2.65721">
        <ele>111</ele>
        <time>2026-02-11T10:23:18.472+00:00</time>
      </trkpt>
      <trkpt lat="48.44265" lon="2.6573">
        <ele>111</ele>
        <time>2026-02-11T10:23:22.849+00:00</time>
      </trkpt>
      <trkpt lat="48.44263" lon="2.65738">
        <ele>109</ele>
        <time>2026-02-11T10:23:27.030+00:00</time>
      </trkpt>
      <trkpt lat="48.44261" lon="2.65745">
        <ele>109</ele>
        <time>2026-02-11T10:23:31.149+00:00</time>
      </trkpt>
      <trkpt lat="48.4426" lon="2.65752">
        <ele>109</ele>
        <time>2026-02-11T10:23:35.715+00:00</time>
      </trkpt>
      <trkpt lat="48.44257" lon="2.65759">
        <ele>109</ele>
        <time>2026-02-11T10:23:39.837+00:00</time>
      </trkpt>
      <trkpt lat="48.44256" lon="2.65766">
        <ele>110</ele>
        <time>2026-02-11T10:23:44.329+00:00</time>
      </trkpt>
      <trkpt lat="48.44255" lon="2.65774">
        <ele>110</ele>
        <time>2026-02-11T10:23:48.569+00:00</time>
      </trkpt>
      <trkpt lat="48.44253" lon="2.65782">
        <ele>110</ele>
        <time>2026-02-11T10:23:53.150+00:00</time>
      </trkpt>
      <trkpt lat="48.44251" lon="2.65789">
        <ele>110</ele>
        <time>2026-02-11T10:23:57.195+00:00</time>
      </trkpt>
      <trkpt lat="48.44249" lon="2.65797">
        <ele>111</ele>
        <time>2026-02-11T10:24:01.315+00:00</time>
      </trkpt>
      <trkpt lat="48.44248" lon="2.65805">
        <ele>111</ele>
        <time>2026-02-11T10:24:05.333+00:00</time>
      </trkpt>
      <trkpt lat="48.44245" lon="2.65813">
        <ele>111</ele>
        <time>2026-02-11T10:24:10.009+00:00</time>
      </trkpt>
      <trkpt lat="48.44243" lon="2.65819">
        <ele>113</ele>
        <time>2026-02-11T10:24:14.068+00:00</time>
      </trkpt>
      <trkpt lat="48.44241" lon="2.65826">
        <ele>113</ele>
        <time>2026-02-11T10:24:18.095+00:00</time>
      </trkpt>
      <trkpt lat="48.44238" lon="2.65834">
        <ele>113</ele>
        <time>2026-02-11T10:24:22.524+00:00</time>
      </trkpt>
      <trkpt lat="48.44236" lon="2.65843">
        <ele>109</ele>
        <time>2026-02-11T10:24:26.992+00:00</time>
      </trkpt>
      <trkpt lat="48.44234" lon="2.65852">
        <ele>110</ele>
        <time>2026-02-11T10:24:31.309+00:00</time>
      </trkpt>
      <trkpt lat="48.44232" lon="2.6586">
        <ele>110</ele>
        <time>2026-02-11T10:24:35.711+00:00</time>
      </trkpt>
      <trkpt lat="48.44229" lon="2.65869">
        <ele>110</ele>
        <time>2026-02-11T10:24:40.328+00:00</time>
      </trkpt>
      <trkpt lat="48.44227" lon="2.65878">
        <ele>110</ele>
        <time>2026-02-11T10:24:44.514+00:00</time>
      </trkpt>
      <trkpt lat="48.44224" lon="2.65886">
        <ele>110</ele>
        <time>2026-02-11T10:24:48.968+00:00</time>
      </trkpt>
      <trkpt lat="48.4422" lon="2.65896">
        <ele>110</ele>
        <time>2026-02-11T10:24:53.932+00:00</time>
      </trkpt>
      <trkpt lat="48.44218" lon="2.65903">
        <ele>111</ele>
        <time>2026-02-11T10:24:58.329+00:00</time>
      </trkpt>
      <trkpt lat="48.44215" lon="2.6591">
        <ele>111</ele>
        <time>2026-02-11T10:25:02.575+00:00</time>
      </trkpt>
      <trkpt lat="48.44213" lon="2.65917">
        <ele>111</ele>
        <time>2026-02-11T10:25:06.593+00:00</time>
      </trkpt>
      <trkpt lat="48.44212" lon="2.65924">
        <ele>111</ele>
        <time>2026-02-11T10:25:10.687+00:00</time>
      </trkpt>
      <trkpt lat="48.44212" lon="2.65933">
        <ele>113</ele>
        <time>2026-02-11T10:25:15.328+00:00</time>
      </trkpt>
      <trkpt lat="48.44214" lon="2.65936">
        <ele>113</ele>
        <time>2026-02-11T10:25:20.329+00:00</time>
      </trkpt>
      <trkpt lat="48.44215" lon="2.65936">
        <ele>113</ele>
        <time>2026-02-11T10:25:24.995+00:00</time>
      </trkpt>
      <trkpt lat="48.44222" lon="2.65936">
        <ele>113</ele>
        <time>2026-02-11T10:25:29.329+00:00</time>
      </trkpt>
      <trkpt lat="48.44229" lon="2.65934">
        <ele>113</ele>
        <time>2026-02-11T10:25:34.071+00:00</time>
      </trkpt>
      <trkpt lat="48.44235" lon="2.65933">
        <ele>113</ele>
        <time>2026-02-11T10:25:38.269+00:00</time>
      </trkpt>
      <trkpt lat="48.44239" lon="2.65935">
        <ele>115</ele>
        <time>2026-02-11T10:25:42.329+00:00</time>
      </trkpt>
      <trkpt lat="48.44244" lon="2.65938">
        <ele>115</ele>
        <time>2026-02-11T10:25:46.995+00:00</time>
      </trkpt>
      <trkpt lat="48.44249" lon="2.65938">
        <ele>115</ele>
        <time>2026-02-11T10:25:51.328+00:00</time>
      </trkpt>
      <trkpt lat="48.44252" lon="2.65934">
        <ele>115</ele>
        <time>2026-02-11T10:25:56.251+00:00</time>
      </trkpt>
      <trkpt lat="48.44254" lon="2.65929">
        <ele>115</ele>
        <time>2026-02-11T10:26:00.388+00:00</time>
      </trkpt>
      <trkpt lat="48.44258" lon="2.65929">
        <ele>115</ele>
        <time>2026-02-11T10:26:04.475+00:00</time>
      </trkpt>
      <trkpt lat="48.44262" lon="2.65931">
        <ele>115</ele>
        <time>2026-02-11T10:26:08.953+00:00</time>
      </trkpt>
      <trkpt lat="48.44267" lon="2.65933">
        <ele>120</ele>
        <time>2026-02-11T10:26:12.989+00:00</time>
      </trkpt>
      <trkpt lat="48.44271" lon="2.65931">
        <ele>120</ele>
        <time>2026-02-11T10:26:17.015+00:00</time>
      </trkpt>
      <trkpt lat="48.44276" lon="2.65925">
        <ele>120</ele>
        <time>2026-02-11T10:26:21.332+00:00</time>
      </trkpt>
      <trkpt lat="48.4428" lon="2.65926">
        <ele>120</ele>
        <time>2026-02-11T10:26:25.329+00:00</time>
      </trkpt>
      <trkpt lat="48.44285" lon="2.65931">
        <ele>120</ele>
        <time>2026-02-11T10:26:29.329+00:00</time>
      </trkpt>
      <trkpt lat="48.44288" lon="2.65935">
        <ele>120</ele>
        <time>2026-02-11T10:26:33.889+00:00</time>
      </trkpt>
      <trkpt lat="48.44293" lon="2.65934">
        <ele>127</ele>
        <time>2026-02-11T10:26:38.328+00:00</time>
      </trkpt>
      <trkpt lat="48.44298" lon="2.65938">
        <ele>127</ele>
        <time>2026-02-11T10:26:42.712+00:00</time>
      </trkpt>
      <trkpt lat="48.44301" lon="2.65944">
        <ele>127</ele>
        <time>2026-02-11T10:26:47.035+00:00</time>
      </trkpt>
      <trkpt lat="48.44304" lon="2.65947">
        <ele>127</ele>
        <time>2026-02-11T10:26:51.770+00:00</time>
      </trkpt>
      <trkpt lat="48.44306" lon="2.65948">
        <ele>127</ele>
        <time>2026-02-11T10:26:56.275+00:00</time>
      </trkpt>
      <trkpt lat="48.44308" lon="2.65949">
        <ele>127</ele>
        <time>2026-02-11T10:27:00.829+00:00</time>
      </trkpt>
      <trkpt lat="48.44311" lon="2.65952">
        <ele>127</ele>
        <time>2026-02-11T10:27:05.095+00:00</time>
      </trkpt>
      <trkpt lat="48.44311" lon="2.65967">
        <ele>128</ele>
        <time>2026-02-11T10:27:22.933+00:00</time>
      </trkpt>
      <trkpt lat="48.44311" lon="2.65967">
        <ele>128</ele>
        <time>2026-02-11T10:27:27.276+00:00</time>
      </trkpt>
      <trkpt lat="48.44314" lon="2.65976">
        <ele>128</ele>
        <time>2026-02-11T10:27:31.490+00:00</time>
      </trkpt>
      <trkpt lat="48.44319" lon="2.65983">
        <ele>128</ele>
        <time>2026-02-11T10:27:36.028+00:00</time>
      </trkpt>
      <trkpt lat="48.44324" lon="2.65985">
        <ele>131</ele>
        <time>2026-02-11T10:27:40.114+00:00</time>
      </trkpt>
      <trkpt lat="48.44327" lon="2.65991">
        <ele>132</ele>
        <time>2026-02-11T10:27:53.132+00:00</time>
      </trkpt>
      <trkpt lat="48.44327" lon="2.65992">
        <ele>132</ele>
        <time>2026-02-11T10:27:57.329+00:00</time>
      </trkpt>
      <trkpt lat="48.44327" lon="2.65995">
        <ele>132</ele>
        <time>2026-02-11T10:28:02.329+00:00</time>
      </trkpt>
      <trkpt lat="48.44328" lon="2.65998">
        <ele>132</ele>
        <time>2026-02-11T10:28:06.328+00:00</time>
      </trkpt>
      <trkpt lat="48.44327" lon="2.66005">
        <ele>132</ele>
        <time>2026-02-11T10:28:10.807+00:00</time>
      </trkpt>
      <trkpt lat="48.44325" lon="2.65997">
        <ele>132</ele>
        <time>2026-02-11T10:30:42.328+00:00</time>
      </trkpt>
      <trkpt lat="48.44324" lon="2.65996">
        <ele>132</ele>
        <time>2026-02-11T10:30:48.329+00:00</time>
      </trkpt>
      <trkpt lat="48.44324" lon="2.65995">
        <ele>132</ele>
        <time>2026-02-11T10:30:52.328+00:00</time>
      </trkpt>
      <trkpt lat="48.44324" lon="2.65995">
        <ele>132</ele>
        <time>2026-02-11T10:30:56.329+00:00</time>
      </trkpt>
      <trkpt lat="48.44324" lon="2.65995">
        <ele>132</ele>
        <time>2026-02-11T10:31:02.328+00:00</time>
      </trkpt>
      <trkpt lat="48.44326" lon="2.65996">
        <ele>132</ele>
        <time>2026-02-11T10:36:46.037+00:00</time>
      </trkpt>
      <trkpt lat="48.44324" lon="2.65991">
        <ele>132</ele>
        <time>2026-02-11T10:36:50.329+00:00</time>
      </trkpt>
      <trkpt lat="48.44317" lon="2.65984">
        <ele>128</ele>
        <time>2026-02-11T10:36:54.951+00:00</time>
      </trkpt>
      <trkpt lat="48.44311" lon="2.65981">
        <ele>128</ele>
        <time>2026-02-11T10:36:58.952+00:00</time>
      </trkpt>
      <trkpt lat="48.4431" lon="2.65975">
        <ele>128</ele>
        <time>2026-02-11T10:37:03.089+00:00</time>
      </trkpt>
      <trkpt lat="48.44311" lon="2.65978">
        <ele>128</ele>
        <time>2026-02-11T10:37:43.329+00:00</time>
      </trkpt>
      <trkpt lat="48.44311" lon="2.65978">
        <ele>128</ele>
        <time>2026-02-11T10:37:48.048+00:00</time>
      </trkpt>
      <trkpt lat="48.44311" lon="2.65979">
        <ele>128</ele>
        <time>2026-02-11T10:37:52.329+00:00</time>
      </trkpt>
      <trkpt lat="48.44316" lon="2.65985">
        <ele>128</ele>
        <time>2026-02-11T10:37:56.791+00:00</time>
      </trkpt>
      <trkpt lat="48.44322" lon="2.65989">
        <ele>132</ele>
        <time>2026-02-11T10:38:01.329+00:00</time>
      </trkpt>
      <trkpt lat="48.44329" lon="2.65998">
        <ele>132</ele>
        <time>2026-02-11T10:38:45.322+00:00</time>
      </trkpt>
      <trkpt lat="48.4433" lon="2.65997">
        <ele>132</ele>
        <time>2026-02-11T10:38:49.878+00:00</time>
      </trkpt>
      <trkpt lat="48.44335" lon="2.6599">
        <ele>132</ele>
        <time>2026-02-11T10:38:54.160+00:00</time>
      </trkpt>
      <trkpt lat="48.44341" lon="2.65991">
        <ele>132</ele>
        <time>2026-02-11T10:38:58.563+00:00</time>
      </trkpt>
      <trkpt lat="48.44346" lon="2.66001">
        <ele>132</ele>
        <time>2026-02-11T10:39:02.819+00:00</time>
      </trkpt>
      <trkpt lat="48.44352" lon="2.66008">
        <ele>135</ele>
        <time>2026-02-11T10:39:07.327+00:00</time>
      </trkpt>
      <trkpt lat="48.44358" lon="2.66009">
        <ele>135</ele>
        <time>2026-02-11T10:39:11.479+00:00</time>
      </trkpt>
      <trkpt lat="48.44359" lon="2.66017">
        <ele>136</ele>
        <time>2026-02-11T10:39:15.642+00:00</time>
      </trkpt>
      <trkpt lat="48.44359" lon="2.66019">
        <ele>136</ele>
        <time>2026-02-11T10:39:20.328+00:00</time>
      </trkpt>
      <trkpt lat="48.44359" lon="2.66019">
        <ele>136</ele>
        <time>2026-02-11T10:39:25.180+00:00</time>
      </trkpt>
      <trkpt lat="48.44359" lon="2.66028">
        <ele>136</ele>
        <time>2026-02-11T10:39:29.199+00:00</time>
      </trkpt>
      <trkpt lat="48.44359" lon="2.66038">
        <ele>136</ele>
        <time>2026-02-11T10:39:33.438+00:00</time>
      </trkpt>
      <trkpt lat="48.4436" lon="2.66046">
        <ele>138</ele>
        <time>2026-02-11T10:39:37.978+00:00</time>
      </trkpt>
      <trkpt lat="48.44358" lon="2.66052">
        <ele>138</ele>
        <time>2026-02-11T10:39:42.064+00:00</time>
      </trkpt>
      <trkpt lat="48.44356" lon="2.66058">
        <ele>138</ele>
        <time>2026-02-11T10:39:46.722+00:00</time>
      </trkpt>
      <trkpt lat="48.44357" lon="2.66064">
        <ele>138</ele>
        <time>2026-02-11T10:39:50.945+00:00</time>
      </trkpt>
      <trkpt lat="48.44357" lon="2.66069">
        <ele>138</ele>
        <time>2026-02-11T10:39:55.082+00:00</time>
      </trkpt>
      <trkpt lat="48.44359" lon="2.66073">
        <ele>138</ele>
        <time>2026-02-11T10:39:59.663+00:00</time>
      </trkpt>
      <trkpt lat="48.44361" lon="2.66079">
        <ele>138</ele>
        <time>2026-02-11T10:40:04.099+00:00</time>
      </trkpt>
      <trkpt lat="48.44362" lon="2.66086">
        <ele>138</ele>
        <time>2026-02-11T10:40:08.160+00:00</time>
      </trkpt>
      <trkpt lat="48.4436" lon="2.66095">
        <ele>138</ele>
        <time>2026-02-11T10:40:12.327+00:00</time>
      </trkpt>
      <trkpt lat="48.44358" lon="2.66102">
        <ele>138</ele>
        <time>2026-02-11T10:40:16.327+00:00</time>
      </trkpt>
      <trkpt lat="48.44357" lon="2.66109">
        <ele>138</ele>
        <time>2026-02-11T10:40:20.940+00:00</time>
      </trkpt>
      <trkpt lat="48.44355" lon="2.66116">
        <ele>138</ele>
        <time>2026-02-11T10:40:25.328+00:00</time>
      </trkpt>
      <trkpt lat="48.44354" lon="2.66124">
        <ele>138</ele>
        <time>2026-02-11T10:40:29.761+00:00</time>
      </trkpt>
      <trkpt lat="48.44353" lon="2.66131">
        <ele>138</ele>
        <time>2026-02-11T10:40:34.351+00:00</time>
      </trkpt>
      <trkpt lat="48.44353" lon="2.66138">
        <ele>138</ele>
        <time>2026-02-11T10:40:38.804+00:00</time>
      </trkpt>
      <trkpt lat="48.44351" lon="2.66145">
        <ele>138</ele>
        <time>2026-02-11T10:40:43.002+00:00</time>
      </trkpt>
      <trkpt lat="48.4435" lon="2.66149">
        <ele>138</ele>
        <time>2026-02-11T10:40:47.328+00:00</time>
      </trkpt>
      <trkpt lat="48.44348" lon="2.66155">
        <ele>139</ele>
        <time>2026-02-11T10:40:51.943+00:00</time>
      </trkpt>
      <trkpt lat="48.44346" lon="2.66161">
        <ele>140</ele>
        <time>2026-02-11T10:40:56.242+00:00</time>
      </trkpt>
      <trkpt lat="48.44349" lon="2.66168">
        <ele>139</ele>
        <time>2026-02-11T10:41:01.003+00:00</time>
      </trkpt>
      <trkpt lat="48.44351" lon="2.66175">
        <ele>139</ele>
        <time>2026-02-11T10:41:05.159+00:00</time>
      </trkpt>
      <trkpt lat="48.44353" lon="2.66182">
        <ele>141</ele>
        <time>2026-02-11T10:41:10.142+00:00</time>
      </trkpt>
      <trkpt lat="48.44355" lon="2.66189">
        <ele>141</ele>
        <time>2026-02-11T10:41:14.183+00:00</time>
      </trkpt>
      <trkpt lat="48.44358" lon="2.66194">
        <ele>141</ele>
        <time>2026-02-11T10:41:18.501+00:00</time>
      </trkpt>
      <trkpt lat="48.44362" lon="2.662">
        <ele>141</ele>
        <time>2026-02-11T10:41:23.303+00:00</time>
      </trkpt>
      <trkpt lat="48.44365" lon="2.66208">
        <ele>141</ele>
        <time>2026-02-11T10:41:27.663+00:00</time>
      </trkpt>
      <trkpt lat="48.44368" lon="2.66217">
        <ele>143</ele>
        <time>2026-02-11T10:41:31.878+00:00</time>
      </trkpt>
      <trkpt lat="48.44369" lon="2.66227">
        <ele>143</ele>
        <time>2026-02-11T10:41:36.219+00:00</time>
      </trkpt>
      <trkpt lat="48.44372" lon="2.66235">
        <ele>143</ele>
        <time>2026-02-11T10:41:40.347+00:00</time>
      </trkpt>
      <trkpt lat="48.44374" lon="2.66242">
        <ele>143</ele>
        <time>2026-02-11T10:41:44.401+00:00</time>
      </trkpt>
      <trkpt lat="48.44376" lon="2.66251">
        <ele>142</ele>
        <time>2026-02-11T10:41:48.999+00:00</time>
      </trkpt>
      <trkpt lat="48.44379" lon="2.66258">
        <ele>142</ele>
        <time>2026-02-11T10:41:53.120+00:00</time>
      </trkpt>
      <trkpt lat="48.44383" lon="2.66265">
        <ele>141</ele>
        <time>2026-02-11T10:41:57.328+00:00</time>
      </trkpt>
      <trkpt lat="48.44387" lon="2.66271">
        <ele>141</ele>
        <time>2026-02-11T10:42:01.702+00:00</time>
      </trkpt>
      <trkpt lat="48.44391" lon="2.66277">
        <ele>141</ele>
        <time>2026-02-11T10:42:05.984+00:00</time>
      </trkpt>
      <trkpt lat="48.44396" lon="2.66279">
        <ele>141</ele>
        <time>2026-02-11T10:42:10.241+00:00</time>
      </trkpt>
      <trkpt lat="48.44401" lon="2.66282">
        <ele>141</ele>
        <time>2026-02-11T10:42:14.739+00:00</time>
      </trkpt>
      <trkpt lat="48.44404" lon="2.6629">
        <ele>142</ele>
        <time>2026-02-11T10:42:19.327+00:00</time>
      </trkpt>
      <trkpt lat="48.44407" lon="2.66297">
        <ele>141</ele>
        <time>2026-02-11T10:42:24.062+00:00</time>
      </trkpt>
      <trkpt lat="48.4441" lon="2.66303">
        <ele>141</ele>
        <time>2026-02-11T10:42:28.677+00:00</time>
      </trkpt>
      <trkpt lat="48.44412" lon="2.66309">
        <ele>141</ele>
        <time>2026-02-11T10:42:32.962+00:00</time>
      </trkpt>
      <trkpt lat="48.44413" lon="2.66316">
        <ele>141</ele>
        <time>2026-02-11T10:42:37.021+00:00</time>
      </trkpt>
      <trkpt lat="48.4441" lon="2.66324">
        <ele>141</ele>
        <time>2026-02-11T10:42:41.328+00:00</time>
      </trkpt>
      <trkpt lat="48.44407" lon="2.66331">
        <ele>141</ele>
        <time>2026-02-11T10:42:45.637+00:00</time>
      </trkpt>
      <trkpt lat="48.44404" lon="2.66339">
        <ele>141</ele>
        <time>2026-02-11T10:42:49.818+00:00</time>
      </trkpt>
      <trkpt lat="48.444" lon="2.66344">
        <ele>141</ele>
        <time>2026-02-11T10:42:54.125+00:00</time>
      </trkpt>
      <trkpt lat="48.44398" lon="2.66353">
        <ele>141</ele>
        <time>2026-02-11T10:42:59.065+00:00</time>
      </trkpt>
      <trkpt lat="48.44397" lon="2.66361">
        <ele>141</ele>
        <time>2026-02-11T10:43:03.577+00:00</time>
      </trkpt>
      <trkpt lat="48.44394" lon="2.66366">
        <ele>141</ele>
        <time>2026-02-11T10:43:07.328+00:00</time>
      </trkpt>
      <trkpt lat="48.44399" lon="2.66384">
        <ele>141</ele>
        <time>2026-02-11T10:43:16.979+00:00</time>
      </trkpt>
      <trkpt lat="48.444" lon="2.66394">
        <ele>141</ele>
        <time>2026-02-11T10:43:21.220+00:00</time>
      </trkpt>
      <trkpt lat="48.44399" lon="2.66403">
        <ele>141</ele>
        <time>2026-02-11T10:43:25.400+00:00</time>
      </trkpt>
      <trkpt lat="48.44398" lon="2.66415">
        <ele>141</ele>
        <time>2026-02-11T10:43:29.760+00:00</time>
      </trkpt>
      <trkpt lat="48.44396" lon="2.66426">
        <ele>141</ele>
        <time>2026-02-11T10:43:34.180+00:00</time>
      </trkpt>
      <trkpt lat="48.44395" lon="2.66435">
        <ele>142</ele>
        <time>2026-02-11T10:43:38.642+00:00</time>
      </trkpt>
      <trkpt lat="48.44395" lon="2.66442">
        <ele>142</ele>
        <time>2026-02-11T10:43:42.812+00:00</time>
      </trkpt>
      <trkpt lat="48.44394" lon="2.66451">
        <ele>142</ele>
        <time>2026-02-11T10:43:47.165+00:00</time>
      </trkpt>
      <trkpt lat="48.44394" lon="2.66459">
        <ele>143</ele>
        <time>2026-02-11T10:43:51.319+00:00</time>
      </trkpt>
      <trkpt lat="48.44394" lon="2.66469">
        <ele>143</ele>
        <time>2026-02-11T10:43:55.977+00:00</time>
      </trkpt>
      <trkpt lat="48.44394" lon="2.66477">
        <ele>143</ele>
        <time>2026-02-11T10:44:00.362+00:00</time>
      </trkpt>
      <trkpt lat="48.44396" lon="2.66485">
        <ele>143</ele>
        <time>2026-02-11T10:44:04.877+00:00</time>
      </trkpt>
      <trkpt lat="48.44402" lon="2.66486">
        <ele>144</ele>
        <time>2026-02-11T10:44:09.327+00:00</time>
      </trkpt>
      <trkpt lat="48.44405" lon="2.66493">
        <ele>144</ele>
        <time>2026-02-11T10:44:13.328+00:00</time>
      </trkpt>
      <trkpt lat="48.44404" lon="2.66502">
        <ele>144</ele>
        <time>2026-02-11T10:44:17.657+00:00</time>
      </trkpt>
      <trkpt lat="48.44403" lon="2.66511">
        <ele>144</ele>
        <time>2026-02-11T10:44:21.862+00:00</time>
      </trkpt>
      <trkpt lat="48.44402" lon="2.66519">
        <ele>144</ele>
        <time>2026-02-11T10:44:25.959+00:00</time>
      </trkpt>
      <trkpt lat="48.44401" lon="2.66529">
        <ele>144</ele>
        <time>2026-02-11T10:44:30.555+00:00</time>
      </trkpt>
      <trkpt lat="48.444" lon="2.66539">
        <ele>144</ele>
        <time>2026-02-11T10:44:34.855+00:00</time>
      </trkpt>
      <trkpt lat="48.44399" lon="2.66549">
        <ele>144</ele>
        <time>2026-02-11T10:44:39.096+00:00</time>
      </trkpt>
      <trkpt lat="48.44399" lon="2.66558">
        <ele>144</ele>
        <time>2026-02-11T10:44:43.318+00:00</time>
      </trkpt>
      <trkpt lat="48.44399" lon="2.66566">
        <ele>144</ele>
        <time>2026-02-11T10:44:47.541+00:00</time>
      </trkpt>
      <trkpt lat="48.44398" lon="2.66576">
        <ele>143</ele>
        <time>2026-02-11T10:44:51.781+00:00</time>
      </trkpt>
      <trkpt lat="48.44397" lon="2.66585">
        <ele>143</ele>
        <time>2026-02-11T10:44:56.098+00:00</time>
      </trkpt>
      <trkpt lat="48.44395" lon="2.66589">
        <ele>143</ele>
        <time>2026-02-11T10:45:00.218+00:00</time>
      </trkpt>
      <trkpt lat="48.44397" lon="2.666">
        <ele>144</ele>
        <time>2026-02-11T10:45:04.264+00:00</time>
      </trkpt>
      <trkpt lat="48.44397" lon="2.66609">
        <ele>144</ele>
        <time>2026-02-11T10:45:08.921+00:00</time>
      </trkpt>
      <trkpt lat="48.44397" lon="2.66618">
        <ele>144</ele>
        <time>2026-02-11T10:45:13.155+00:00</time>
      </trkpt>
      <trkpt lat="48.44396" lon="2.66626">
        <ele>144</ele>
        <time>2026-02-11T10:45:17.328+00:00</time>
      </trkpt>
      <trkpt lat="48.44395" lon="2.66636">
        <ele>144</ele>
        <time>2026-02-11T10:45:21.557+00:00</time>
      </trkpt>
      <trkpt lat="48.44396" lon="2.66643">
        <ele>144</ele>
        <time>2026-02-11T10:45:25.677+00:00</time>
      </trkpt>
      <trkpt lat="48.44395" lon="2.66651">
        <ele>144</ele>
        <time>2026-02-11T10:45:29.738+00:00</time>
      </trkpt>
      <trkpt lat="48.44394" lon="2.66661">
        <ele>144</ele>
        <time>2026-02-11T10:45:33.960+00:00</time>
      </trkpt>
      <trkpt lat="48.44394" lon="2.66672">
        <ele>144</ele>
        <time>2026-02-11T10:45:38.260+00:00</time>
      </trkpt>
      <trkpt lat="48.44393" lon="2.66681">
        <ele>144</ele>
        <time>2026-02-11T10:45:42.415+00:00</time>
      </trkpt>
      <trkpt lat="48.44393" lon="2.6669">
        <ele>144</ele>
        <time>2026-02-11T10:45:46.442+00:00</time>
      </trkpt>
      <trkpt lat="48.44392" lon="2.667">
        <ele>144</ele>
        <time>2026-02-11T10:45:51.143+00:00</time>
      </trkpt>
      <trkpt lat="48.44392" lon="2.66708">
        <ele>144</ele>
        <time>2026-02-11T10:45:55.460+00:00</time>
      </trkpt>
      <trkpt lat="48.44392" lon="2.66716">
        <ele>146</ele>
        <time>2026-02-11T10:45:59.700+00:00</time>
      </trkpt>
      <trkpt lat="48.4439" lon="2.66725">
        <ele>146</ele>
        <time>2026-02-11T10:46:03.880+00:00</time>
      </trkpt>
      <trkpt lat="48.44388" lon="2.66732">
        <ele>146</ele>
        <time>2026-02-11T10:46:08.036+00:00</time>
      </trkpt>
      <trkpt lat="48.44388" lon="2.66742">
        <ele>146</ele>
        <time>2026-02-11T10:46:12.420+00:00</time>
      </trkpt>
      <trkpt lat="48.44387" lon="2.66751">
        <ele>146</ele>
        <time>2026-02-11T10:46:16.695+00:00</time>
      </trkpt>
      <trkpt lat="48.44387" lon="2.6676">
        <ele>146</ele>
        <time>2026-02-11T10:46:20.917+00:00</time>
      </trkpt>
      <trkpt lat="48.44387" lon="2.6677">
        <ele>147</ele>
        <time>2026-02-11T10:46:25.057+00:00</time>
      </trkpt>
      <trkpt lat="48.44387" lon="2.66779">
        <ele>147</ele>
        <time>2026-02-11T10:46:29.117+00:00</time>
      </trkpt>
      <trkpt lat="48.44386" lon="2.66788">
        <ele>147</ele>
        <time>2026-02-11T10:46:33.328+00:00</time>
      </trkpt>
      <trkpt lat="48.44385" lon="2.66797">
        <ele>146</ele>
        <time>2026-02-11T10:46:37.639+00:00</time>
      </trkpt>
      <trkpt lat="48.44385" lon="2.66806">
        <ele>146</ele>
        <time>2026-02-11T10:46:42.137+00:00</time>
      </trkpt>
      <trkpt lat="48.44385" lon="2.66814">
        <ele>146</ele>
        <time>2026-02-11T10:46:46.538+00:00</time>
      </trkpt>
      <trkpt lat="48.44384" lon="2.66822">
        <ele>146</ele>
        <time>2026-02-11T10:46:50.680+00:00</time>
      </trkpt>
      <trkpt lat="48.44384" lon="2.66831">
        <ele>146</ele>
        <time>2026-02-11T10:46:55.197+00:00</time>
      </trkpt>
      <trkpt lat="48.44384" lon="2.66839">
        <ele>146</ele>
        <time>2026-02-11T10:46:59.798+00:00</time>
      </trkpt>
      <trkpt lat="48.44384" lon="2.66848">
        <ele>146</ele>
        <time>2026-02-11T10:47:04.216+00:00</time>
      </trkpt>
      <trkpt lat="48.44383" lon="2.66856">
        <ele>146</ele>
        <time>2026-02-11T10:47:08.720+00:00</time>
      </trkpt>
      <trkpt lat="48.44383" lon="2.66865">
        <ele>146</ele>
        <time>2026-02-11T10:47:13.139+00:00</time>
      </trkpt>
      <trkpt lat="48.44382" lon="2.66873">
        <ele>146</ele>
        <time>2026-02-11T10:47:17.481+00:00</time>
      </trkpt>
      <trkpt lat="48.44381" lon="2.66882">
        <ele>146</ele>
        <time>2026-02-11T10:47:21.876+00:00</time>
      </trkpt>
      <trkpt lat="48.44381" lon="2.6689">
        <ele>146</ele>
        <time>2026-02-11T10:47:26.038+00:00</time>
      </trkpt>
      <trkpt lat="48.4438" lon="2.66899">
        <ele>146</ele>
        <time>2026-02-11T10:47:30.517+00:00</time>
      </trkpt>
      <trkpt lat="48.4438" lon="2.66908">
        <ele>146</ele>
        <time>2026-02-11T10:47:34.800+00:00</time>
      </trkpt>
      <trkpt lat="48.4438" lon="2.66916">
        <ele>146</ele>
        <time>2026-02-11T10:47:39.100+00:00</time>
      </trkpt>
      <trkpt lat="48.44381" lon="2.66923">
        <ele>146</ele>
        <time>2026-02-11T10:47:43.220+00:00</time>
      </trkpt>
      <trkpt lat="48.44379" lon="2.6693">
        <ele>146</ele>
        <time>2026-02-11T10:47:47.239+00:00</time>
      </trkpt>
      <trkpt lat="48.44379" lon="2.66933">
        <ele>145</ele>
        <time>2026-02-11T10:47:51.328+00:00</time>
      </trkpt>
      <trkpt lat="48.44378" lon="2.66932">
        <ele>145</ele>
        <time>2026-02-11T10:47:55.582+00:00</time>
      </trkpt>
      <trkpt lat="48.44375" lon="2.6694">
        <ele>144</ele>
        <time>2026-02-11T10:47:59.780+00:00</time>
      </trkpt>
      <trkpt lat="48.44373" lon="2.66949">
        <ele>144</ele>
        <time>2026-02-11T10:48:04.199+00:00</time>
      </trkpt>
      <trkpt lat="48.44374" lon="2.66958">
        <ele>144</ele>
        <time>2026-02-11T10:48:09.328+00:00</time>
      </trkpt>
      <trkpt lat="48.44375" lon="2.66965">
        <ele>144</ele>
        <time>2026-02-11T10:48:13.457+00:00</time>
      </trkpt>
      <trkpt lat="48.44378" lon="2.66971">
        <ele>144</ele>
        <time>2026-02-11T10:48:17.875+00:00</time>
      </trkpt>
      <trkpt lat="48.44377" lon="2.66979">
        <ele>144</ele>
        <time>2026-02-11T10:48:22.082+00:00</time>
      </trkpt>
      <trkpt lat="48.44377" lon="2.66986">
        <ele>144</ele>
        <time>2026-02-11T10:48:26.099+00:00</time>
      </trkpt>
      <trkpt lat="48.44376" lon="2.6699">
        <ele>144</ele>
        <time>2026-02-11T10:48:30.328+00:00</time>
      </trkpt>
      <trkpt lat="48.44376" lon="2.66992">
        <ele>144</ele>
        <time>2026-02-11T10:48:35.058+00:00</time>
      </trkpt>
      <trkpt lat="48.44372" lon="2.66997">
        <ele>144</ele>
        <time>2026-02-11T10:48:39.117+00:00</time>
      </trkpt>
      <trkpt lat="48.44369" lon="2.67002">
        <ele>144</ele>
        <time>2026-02-11T10:48:43.443+00:00</time>
      </trkpt>
      <trkpt lat="48.44367" lon="2.6701">
        <ele>144</ele>
        <time>2026-02-11T10:48:47.922+00:00</time>
      </trkpt>
      <trkpt lat="48.44366" lon="2.67018">
        <ele>145</ele>
        <time>2026-02-11T10:48:52.760+00:00</time>
      </trkpt>
      <trkpt lat="48.44362" lon="2.67024">
        <ele>145</ele>
        <time>2026-02-11T10:48:56.939+00:00</time>
      </trkpt>
      <trkpt lat="48.44362" lon="2.67034">
        <ele>145</ele>
        <time>2026-02-11T10:49:01.359+00:00</time>
      </trkpt>
      <trkpt lat="48.44363" lon="2.67043">
        <ele>145</ele>
        <time>2026-02-11T10:49:05.880+00:00</time>
      </trkpt>
      <trkpt lat="48.44362" lon="2.6705">
        <ele>145</ele>
        <time>2026-02-11T10:49:10.180+00:00</time>
      </trkpt>
      <trkpt lat="48.44357" lon="2.67054">
        <ele>145</ele>
        <time>2026-02-11T10:49:14.582+00:00</time>
      </trkpt>
      <trkpt lat="48.44352" lon="2.67054">
        <ele>145</ele>
        <time>2026-02-11T10:49:18.822+00:00</time>
      </trkpt>
      <trkpt lat="48.44342" lon="2.67054">
        <ele>146</ele>
        <time>2026-02-11T10:49:28.123+00:00</time>
      </trkpt>
      <trkpt lat="48.44337" lon="2.67048">
        <ele>146</ele>
        <time>2026-02-11T10:49:32.666+00:00</time>
      </trkpt>
      <trkpt lat="48.44332" lon="2.67047">
        <ele>146</ele>
        <time>2026-02-11T10:49:37.328+00:00</time>
      </trkpt>
      <trkpt lat="48.44328" lon="2.67047">
        <ele>146</ele>
        <time>2026-02-11T10:49:41.662+00:00</time>
      </trkpt>
      <trkpt lat="48.44324" lon="2.67054">
        <ele>146</ele>
        <time>2026-02-11T10:49:45.679+00:00</time>
      </trkpt>
      <trkpt lat="48.4432" lon="2.6706">
        <ele>146</ele>
        <time>2026-02-11T10:49:49.963+00:00</time>
      </trkpt>
      <trkpt lat="48.44318" lon="2.67064">
        <ele>146</ele>
        <time>2026-02-11T10:49:54.203+00:00</time>
      </trkpt>
      <trkpt lat="48.44312" lon="2.67068">
        <ele>146</ele>
        <time>2026-02-11T10:49:58.624+00:00</time>
      </trkpt>
      <trkpt lat="48.44309" lon="2.67071">
        <ele>146</ele>
        <time>2026-02-11T10:50:03+00:00</time>
      </trkpt>
      <trkpt lat="48.44305" lon="2.67075">
        <ele>146</ele>
        <time>2026-02-11T10:50:07.760+00:00</time>
      </trkpt>
      <trkpt lat="48.44304" lon="2.67079">
        <ele>146</ele>
        <time>2026-02-11T10:50:12.328+00:00</time>
      </trkpt>
      <trkpt lat="48.44302" lon="2.67086">
        <ele>146</ele>
        <time>2026-02-11T10:50:16.838+00:00</time>
      </trkpt>
      <trkpt lat="48.44297" lon="2.67084">
        <ele>146</ele>
        <time>2026-02-11T10:50:21.327+00:00</time>
      </trkpt>
      <trkpt lat="48.44295" lon="2.67091">
        <ele>146</ele>
        <time>2026-02-11T10:50:26.155+00:00</time>
      </trkpt>
      <trkpt lat="48.44294" lon="2.67096">
        <ele>146</ele>
        <time>2026-02-11T10:50:30.327+00:00</time>
      </trkpt>
      <trkpt lat="48.44294" lon="2.67097">
        <ele>146</ele>
        <time>2026-02-11T10:50:36.327+00:00</time>
      </trkpt>
      <trkpt lat="48.44294" lon="2.67097">
        <ele>146</ele>
        <time>2026-02-11T10:50:41.328+00:00</time>
      </trkpt>
      <trkpt lat="48.44294" lon="2.67098">
        <ele>145</ele>
        <time>2026-02-11T10:51:04.328+00:00</time>
      </trkpt>
      <trkpt lat="48.44293" lon="2.67104">
        <ele>145</ele>
        <time>2026-02-11T10:51:09.328+00:00</time>
      </trkpt>
      <trkpt lat="48.44291" lon="2.67107">
        <ele>145</ele>
        <time>2026-02-11T10:51:13.719+00:00</time>
      </trkpt>
      <trkpt lat="48.4429" lon="2.67108">
        <ele>145</ele>
        <time>2026-02-11T10:51:18.035+00:00</time>
      </trkpt>
      <trkpt lat="48.44286" lon="2.67118">
        <ele>145</ele>
        <time>2026-02-11T10:51:22.339+00:00</time>
      </trkpt>
      <trkpt lat="48.44281" lon="2.67122">
        <ele>145</ele>
        <time>2026-02-11T10:51:26.327+00:00</time>
      </trkpt>
      <trkpt lat="48.44279" lon="2.67127">
        <ele>144</ele>
        <time>2026-02-11T10:51:30.817+00:00</time>
      </trkpt>
      <trkpt lat="48.44275" lon="2.67135">
        <ele>144</ele>
        <time>2026-02-11T10:51:35.158+00:00</time>
      </trkpt>
      <trkpt lat="48.44271" lon="2.67141">
        <ele>144</ele>
        <time>2026-02-11T10:51:40.038+00:00</time>
      </trkpt>
      <trkpt lat="48.44265" lon="2.67144">
        <ele>144</ele>
        <time>2026-02-11T10:51:44.327+00:00</time>
      </trkpt>
      <trkpt lat="48.4426" lon="2.67152">
        <ele>143</ele>
        <time>2026-02-11T10:51:48.698+00:00</time>
      </trkpt>
      <trkpt lat="48.44257" lon="2.67161">
        <ele>143</ele>
        <time>2026-02-11T10:51:52.821+00:00</time>
      </trkpt>
      <trkpt lat="48.44256" lon="2.6717">
        <ele>143</ele>
        <time>2026-02-11T10:51:56.772+00:00</time>
      </trkpt>
      <trkpt lat="48.44258" lon="2.67176">
        <ele>143</ele>
        <time>2026-02-11T10:52:01.326+00:00</time>
      </trkpt>
      <trkpt lat="48.44259" lon="2.67177">
        <ele>143</ele>
        <time>2026-02-11T10:52:05.327+00:00</time>
      </trkpt>
      <trkpt lat="48.44257" lon="2.67181">
        <ele>142</ele>
        <time>2026-02-11T10:52:09.719+00:00</time>
      </trkpt>
      <trkpt lat="48.44253" lon="2.67182">
        <ele>142</ele>
        <time>2026-02-11T10:52:13.840+00:00</time>
      </trkpt>
      <trkpt lat="48.44248" lon="2.67188">
        <ele>142</ele>
        <time>2026-02-11T10:52:18.244+00:00</time>
      </trkpt>
      <trkpt lat="48.4424" lon="2.6719">
        <ele>142</ele>
        <time>2026-02-11T10:52:22.663+00:00</time>
      </trkpt>
      <trkpt lat="48.44234" lon="2.67193">
        <ele>140</ele>
        <time>2026-02-11T10:52:26.861+00:00</time>
      </trkpt>
      <trkpt lat="48.44228" lon="2.67196">
        <ele>140</ele>
        <time>2026-02-11T10:52:31.326+00:00</time>
      </trkpt>
      <trkpt lat="48.44225" lon="2.67203">
        <ele>140</ele>
        <time>2026-02-11T10:52:35.940+00:00</time>
      </trkpt>
      <trkpt lat="48.44225" lon="2.6721">
        <ele>139</ele>
        <time>2026-02-11T10:52:40.001+00:00</time>
      </trkpt>
      <trkpt lat="48.44227" lon="2.67218">
        <ele>139</ele>
        <time>2026-02-11T10:52:44.327+00:00</time>
      </trkpt>
      <trkpt lat="48.44228" lon="2.67223">
        <ele>139</ele>
        <time>2026-02-11T10:52:48.581+00:00</time>
      </trkpt>
      <trkpt lat="48.44226" lon="2.6723">
        <ele>139</ele>
        <time>2026-02-11T10:52:52.828+00:00</time>
      </trkpt>
      <trkpt lat="48.44225" lon="2.67237">
        <ele>138</ele>
        <time>2026-02-11T10:52:57.062+00:00</time>
      </trkpt>
      <trkpt lat="48.44221" lon="2.67244">
        <ele>138</ele>
        <time>2026-02-11T10:53:02.018+00:00</time>
      </trkpt>
      <trkpt lat="48.44223" lon="2.67252">
        <ele>138</ele>
        <time>2026-02-11T10:53:06.326+00:00</time>
      </trkpt>
      <trkpt lat="48.44224" lon="2.67259">
        <ele>138</ele>
        <time>2026-02-11T10:53:10.781+00:00</time>
      </trkpt>
      <trkpt lat="48.44226" lon="2.67266">
        <ele>137</ele>
        <time>2026-02-11T10:53:15.098+00:00</time>
      </trkpt>
      <trkpt lat="48.44227" lon="2.67275">
        <ele>137</ele>
        <time>2026-02-11T10:53:19.825+00:00</time>
      </trkpt>
      <trkpt lat="48.44226" lon="2.67283">
        <ele>137</ele>
        <time>2026-02-11T10:53:24.327+00:00</time>
      </trkpt>
      <trkpt lat="48.44222" lon="2.6729">
        <ele>137</ele>
        <time>2026-02-11T10:53:28.901+00:00</time>
      </trkpt>
      <trkpt lat="48.4422" lon="2.67295">
        <ele>137</ele>
        <time>2026-02-11T10:53:33.441+00:00</time>
      </trkpt>
      <trkpt lat="48.44223" lon="2.67301">
        <ele>137</ele>
        <time>2026-02-11T10:53:37.978+00:00</time>
      </trkpt>
      <trkpt lat="48.4422" lon="2.67308">
        <ele>137</ele>
        <time>2026-02-11T10:53:42.338+00:00</time>
      </trkpt>
      <trkpt lat="48.44217" lon="2.67313">
        <ele>137</ele>
        <time>2026-02-11T10:53:46.877+00:00</time>
      </trkpt>
      <trkpt lat="48.44214" lon="2.67318">
        <ele>137</ele>
        <time>2026-02-11T10:53:51.023+00:00</time>
      </trkpt>
      <trkpt lat="48.4421" lon="2.67323">
        <ele>136</ele>
        <time>2026-02-11T10:53:55.621+00:00</time>
      </trkpt>
      <trkpt lat="48.44206" lon="2.67324">
        <ele>134</ele>
        <time>2026-02-11T10:53:59.683+00:00</time>
      </trkpt>
      <trkpt lat="48.44202" lon="2.67326">
        <ele>134</ele>
        <time>2026-02-11T10:54:03.820+00:00</time>
      </trkpt>
      <trkpt lat="48.44197" lon="2.67324">
        <ele>134</ele>
        <time>2026-02-11T10:54:08.198+00:00</time>
      </trkpt>
      <trkpt lat="48.44193" lon="2.67324">
        <ele>134</ele>
        <time>2026-02-11T10:54:12.327+00:00</time>
      </trkpt>
      <trkpt lat="48.4419" lon="2.67329">
        <ele>134</ele>
        <time>2026-02-11T10:54:16.677+00:00</time>
      </trkpt>
      <trkpt lat="48.44188" lon="2.67337">
        <ele>134</ele>
        <time>2026-02-11T10:54:21.240+00:00</time>
      </trkpt>
      <trkpt lat="48.44189" lon="2.67344">
        <ele>134</ele>
        <time>2026-02-11T10:54:25.327+00:00</time>
      </trkpt>
      <trkpt lat="48.44185" lon="2.67352">
        <ele>135</ele>
        <time>2026-02-11T10:54:29.781+00:00</time>
      </trkpt>
      <trkpt lat="48.44183" lon="2.67358">
        <ele>135</ele>
        <time>2026-02-11T10:54:33.842+00:00</time>
      </trkpt>
      <trkpt lat="48.44178" lon="2.67359">
        <ele>130</ele>
        <time>2026-02-11T10:54:38.326+00:00</time>
      </trkpt>
      <trkpt lat="48.44175" lon="2.67363">
        <ele>130</ele>
        <time>2026-02-11T10:54:42.758+00:00</time>
      </trkpt>
      <trkpt lat="48.44175" lon="2.67369">
        <ele>130</ele>
        <time>2026-02-11T10:54:47.327+00:00</time>
      </trkpt>
      <trkpt lat="48.44177" lon="2.67376">
        <ele>131</ele>
        <time>2026-02-11T10:54:51.877+00:00</time>
      </trkpt>
      <trkpt lat="48.44175" lon="2.67381">
        <ele>131</ele>
        <time>2026-02-11T10:54:56.326+00:00</time>
      </trkpt>
      <trkpt lat="48.44177" lon="2.67386">
        <ele>131</ele>
        <time>2026-02-11T10:55:00.327+00:00</time>
      </trkpt>
      <trkpt lat="48.44178" lon="2.67393">
        <ele>131</ele>
        <time>2026-02-11T10:55:04.741+00:00</time>
      </trkpt>
      <trkpt lat="48.44176" lon="2.67401">
        <ele>131</ele>
        <time>2026-02-11T10:55:09.326+00:00</time>
      </trkpt>
      <trkpt lat="48.44172" lon="2.67406">
        <ele>132</ele>
        <time>2026-02-11T10:55:14.327+00:00</time>
      </trkpt>
      <trkpt lat="48.44169" lon="2.67412">
        <ele>132</ele>
        <time>2026-02-11T10:55:18.827+00:00</time>
      </trkpt>
      <trkpt lat="48.44166" lon="2.67418">
        <ele>132</ele>
        <time>2026-02-11T10:55:22.921+00:00</time>
      </trkpt>
      <trkpt lat="48.44165" lon="2.67425">
        <ele>132</ele>
        <time>2026-02-11T10:55:27.538+00:00</time>
      </trkpt>
      <trkpt lat="48.44162" lon="2.67427">
        <ele>132</ele>
        <time>2026-02-11T10:55:32.327+00:00</time>
      </trkpt>
      <trkpt lat="48.44161" lon="2.67423">
        <ele>132</ele>
        <time>2026-02-11T10:55:40.327+00:00</time>
      </trkpt>
      <trkpt lat="48.44159" lon="2.67422">
        <ele>132</ele>
        <time>2026-02-11T10:55:49.022+00:00</time>
      </trkpt>
      <trkpt lat="48.44159" lon="2.67431">
        <ele>132</ele>
        <time>2026-02-11T10:55:53.783+00:00</time>
      </trkpt>
      <trkpt lat="48.44161" lon="2.67437">
        <ele>132</ele>
        <time>2026-02-11T10:55:57.878+00:00</time>
      </trkpt>
      <trkpt lat="48.4416" lon="2.67442">
        <ele>132</ele>
        <time>2026-02-11T10:56:02.327+00:00</time>
      </trkpt>
      <trkpt lat="48.44161" lon="2.67441">
        <ele>132</ele>
        <time>2026-02-11T10:56:07.327+00:00</time>
      </trkpt>
      <trkpt lat="48.44161" lon="2.67442">
        <ele>132</ele>
        <time>2026-02-11T10:56:14.813+00:00</time>
      </trkpt>
      <trkpt lat="48.44161" lon="2.67444">
        <ele>132</ele>
        <time>2026-02-11T10:56:19.326+00:00</time>
      </trkpt>
      <trkpt lat="48.4416" lon="2.67453">
        <ele>132</ele>
        <time>2026-02-11T10:56:23.600+00:00</time>
      </trkpt>
      <trkpt lat="48.44154" lon="2.67456">
        <ele>132</ele>
        <time>2026-02-11T10:56:28.157+00:00</time>
      </trkpt>
      <trkpt lat="48.44148" lon="2.67456">
        <ele>129</ele>
        <time>2026-02-11T10:56:45.679+00:00</time>
      </trkpt>
      <trkpt lat="48.44144" lon="2.67457">
        <ele>129</ele>
        <time>2026-02-11T10:56:50.327+00:00</time>
      </trkpt>
      <trkpt lat="48.44141" lon="2.6746">
        <ele>128</ele>
        <time>2026-02-11T10:56:54.327+00:00</time>
      </trkpt>
      <trkpt lat="48.44139" lon="2.67463">
        <ele>128</ele>
        <time>2026-02-11T10:56:58.425+00:00</time>
      </trkpt>
      <trkpt lat="48.44134" lon="2.67459">
        <ele>128</ele>
        <time>2026-02-11T10:57:03.326+00:00</time>
      </trkpt>
      <trkpt lat="48.44134" lon="2.67462">
        <ele>128</ele>
        <time>2026-02-11T10:57:07.326+00:00</time>
      </trkpt>
      <trkpt lat="48.44133" lon="2.67466">
        <ele>128</ele>
        <time>2026-02-11T10:57:11.580+00:00</time>
      </trkpt>
      <trkpt lat="48.4413" lon="2.67469">
        <ele>128</ele>
        <time>2026-02-11T10:57:15.959+00:00</time>
      </trkpt>
      <trkpt lat="48.44126" lon="2.67465">
        <ele>128</ele>
        <time>2026-02-11T10:57:20.283+00:00</time>
      </trkpt>
      <trkpt lat="48.44123" lon="2.67461">
        <ele>124</ele>
        <time>2026-02-11T10:57:24.326+00:00</time>
      </trkpt>
      <trkpt lat="48.44119" lon="2.67455">
        <ele>125</ele>
        <time>2026-02-11T10:57:28.984+00:00</time>
      </trkpt>
      <trkpt lat="48.44114" lon="2.67455">
        <ele>125</ele>
        <time>2026-02-11T10:57:34.257+00:00</time>
      </trkpt>
      <trkpt lat="48.44111" lon="2.67455">
        <ele>125</ele>
        <time>2026-02-11T10:57:38.327+00:00</time>
      </trkpt>
      <trkpt lat="48.44107" lon="2.67458">
        <ele>125</ele>
        <time>2026-02-11T10:57:42.326+00:00</time>
      </trkpt>
      <trkpt lat="48.44105" lon="2.67464">
        <ele>124</ele>
        <time>2026-02-11T10:57:46.660+00:00</time>
      </trkpt>
      <trkpt lat="48.44104" lon="2.67471">
        <ele>124</ele>
        <time>2026-02-11T10:57:51.063+00:00</time>
      </trkpt>
      <trkpt lat="48.44099" lon="2.67471">
        <ele>124</ele>
        <time>2026-02-11T10:57:55.326+00:00</time>
      </trkpt>
      <trkpt lat="48.44095" lon="2.67473">
        <ele>121</ele>
        <time>2026-02-11T10:57:59.781+00:00</time>
      </trkpt>
      <trkpt lat="48.44093" lon="2.6748">
        <ele>121</ele>
        <time>2026-02-11T10:58:03.902+00:00</time>
      </trkpt>
      <trkpt lat="48.44088" lon="2.67479">
        <ele>121</ele>
        <time>2026-02-11T10:58:08.326+00:00</time>
      </trkpt>
      <trkpt lat="48.44084" lon="2.67483">
        <ele>121</ele>
        <time>2026-02-11T10:58:12.860+00:00</time>
      </trkpt>
      <trkpt lat="48.4408" lon="2.67478">
        <ele>121</ele>
        <time>2026-02-11T10:58:17.298+00:00</time>
      </trkpt>
      <trkpt lat="48.44078" lon="2.67474">
        <ele>121</ele>
        <time>2026-02-11T10:58:21.327+00:00</time>
      </trkpt>
      <trkpt lat="48.44075" lon="2.67472">
        <ele>121</ele>
        <time>2026-02-11T10:58:25.817+00:00</time>
      </trkpt>
      <trkpt lat="48.44071" lon="2.67476">
        <ele>121</ele>
        <time>2026-02-11T10:58:30.041+00:00</time>
      </trkpt>
      <trkpt lat="48.44066" lon="2.67478">
        <ele>117</ele>
        <time>2026-02-11T10:58:34.119+00:00</time>
      </trkpt>
      <trkpt lat="48.44062" lon="2.6748">
        <ele>117</ele>
        <time>2026-02-11T10:58:38.327+00:00</time>
      </trkpt>
      <trkpt lat="48.44058" lon="2.67479">
        <ele>117</ele>
        <time>2026-02-11T10:58:42.335+00:00</time>
      </trkpt>
      <trkpt lat="48.44057" lon="2.67471">
        <ele>117</ele>
        <time>2026-02-11T10:58:46.563+00:00</time>
      </trkpt>
      <trkpt lat="48.44057" lon="2.67468">
        <ele>117</ele>
        <time>2026-02-11T10:58:51.327+00:00</time>
      </trkpt>
      <trkpt lat="48.44057" lon="2.67465">
        <ele>117</ele>
        <time>2026-02-11T10:58:56.327+00:00</time>
      </trkpt>
      <trkpt lat="48.44052" lon="2.67464">
        <ele>117</ele>
        <time>2026-02-11T10:59:00.825+00:00</time>
      </trkpt>
      <trkpt lat="48.44049" lon="2.67474">
        <ele>117</ele>
        <time>2026-02-11T10:59:05.326+00:00</time>
      </trkpt>
      <trkpt lat="48.44049" lon="2.67483">
        <ele>117</ele>
        <time>2026-02-11T10:59:09.881+00:00</time>
      </trkpt>
      <trkpt lat="48.44051" lon="2.6749">
        <ele>116</ele>
        <time>2026-02-11T10:59:32.327+00:00</time>
      </trkpt>
      <trkpt lat="48.44051" lon="2.67488">
        <ele>116</ele>
        <time>2026-02-11T10:59:37.317+00:00</time>
      </trkpt>
      <trkpt lat="48.4405" lon="2.67486">
        <ele>117</ele>
        <time>2026-02-11T10:59:41.839+00:00</time>
      </trkpt>
      <trkpt lat="48.44049" lon="2.67481">
        <ele>117</ele>
        <time>2026-02-11T10:59:46.326+00:00</time>
      </trkpt>
      <trkpt lat="48.44048" lon="2.67472">
        <ele>117</ele>
        <time>2026-02-11T10:59:51.327+00:00</time>
      </trkpt>
      <trkpt lat="48.44045" lon="2.6747">
        <ele>117</ele>
        <time>2026-02-11T10:59:56.327+00:00</time>
      </trkpt>
      <trkpt lat="48.4404" lon="2.67471">
        <ele>111</ele>
        <time>2026-02-11T11:00:00.599+00:00</time>
      </trkpt>
      <trkpt lat="48.44039" lon="2.67466">
        <ele>111</ele>
        <time>2026-02-11T11:00:04.982+00:00</time>
      </trkpt>
      <trkpt lat="48.44038" lon="2.67461">
        <ele>111</ele>
        <time>2026-02-11T11:00:09.258+00:00</time>
      </trkpt>
      <trkpt lat="48.44034" lon="2.67454">
        <ele>112</ele>
        <time>2026-02-11T11:00:36.326+00:00</time>
      </trkpt>
      <trkpt lat="48.44034" lon="2.67454">
        <ele>112</ele>
        <time>2026-02-11T11:00:45.327+00:00</time>
      </trkpt>
      <trkpt lat="48.44031" lon="2.67451">
        <ele>112</ele>
        <time>2026-02-11T11:00:49.441+00:00</time>
      </trkpt>
      <trkpt lat="48.44029" lon="2.67447">
        <ele>112</ele>
        <time>2026-02-11T11:00:54.326+00:00</time>
      </trkpt>
      <trkpt lat="48.44029" lon="2.67447">
        <ele>112</ele>
        <time>2026-02-11T11:00:59.644+00:00</time>
      </trkpt>
      <trkpt lat="48.44023" lon="2.67444">
        <ele>112</ele>
        <time>2026-02-11T11:01:03.845+00:00</time>
      </trkpt>
      <trkpt lat="48.44016" lon="2.67439">
        <ele>112</ele>
        <time>2026-02-11T11:01:08.319+00:00</time>
      </trkpt>
      <trkpt lat="48.44009" lon="2.67436">
        <ele>107</ele>
        <time>2026-02-11T11:01:12.782+00:00</time>
      </trkpt>
      <trkpt lat="48.44005" lon="2.67432">
        <ele>107</ele>
        <time>2026-02-11T11:01:16.878+00:00</time>
      </trkpt>
      <trkpt lat="48.44001" lon="2.67438">
        <ele>107</ele>
        <time>2026-02-11T11:01:20.997+00:00</time>
      </trkpt>
      <trkpt lat="48.43998" lon="2.67448">
        <ele>107</ele>
        <time>2026-02-11T11:01:25.459+00:00</time>
      </trkpt>
      <trkpt lat="48.43991" lon="2.6745">
        <ele>107</ele>
        <time>2026-02-11T11:01:30.278+00:00</time>
      </trkpt>
      <trkpt lat="48.43986" lon="2.67452">
        <ele>107</ele>
        <time>2026-02-11T11:01:34.327+00:00</time>
      </trkpt>
      <trkpt lat="48.4398" lon="2.67452">
        <ele>107</ele>
        <time>2026-02-11T11:01:38.962+00:00</time>
      </trkpt>
      <trkpt lat="48.43975" lon="2.6745">
        <ele>107</ele>
        <time>2026-02-11T11:01:43.326+00:00</time>
      </trkpt>
      <trkpt lat="48.43969" lon="2.67448">
        <ele>107</ele>
        <time>2026-02-11T11:01:47.664+00:00</time>
      </trkpt>
      <trkpt lat="48.43964" lon="2.67449">
        <ele>107</ele>
        <time>2026-02-11T11:01:51.877+00:00</time>
      </trkpt>
      <trkpt lat="48.43959" lon="2.67451">
        <ele>107</ele>
        <time>2026-02-11T11:01:56.327+00:00</time>
      </trkpt>
      <trkpt lat="48.43954" lon="2.67452">
        <ele>106</ele>
        <time>2026-02-11T11:02:00.663+00:00</time>
      </trkpt>
      <trkpt lat="48.43955" lon="2.67462">
        <ele>106</ele>
        <time>2026-02-11T11:02:04.938+00:00</time>
      </trkpt>
      <trkpt lat="48.43955" lon="2.67471">
        <ele>106</ele>
        <time>2026-02-11T11:02:09.239+00:00</time>
      </trkpt>
      <trkpt lat="48.43955" lon="2.67479">
        <ele>106</ele>
        <time>2026-02-11T11:02:13.579+00:00</time>
      </trkpt>
      <trkpt lat="48.43953" lon="2.67488">
        <ele>106</ele>
        <time>2026-02-11T11:02:17.998+00:00</time>
      </trkpt>
      <trkpt lat="48.43951" lon="2.67497">
        <ele>106</ele>
        <time>2026-02-11T11:02:22.326+00:00</time>
      </trkpt>
      <trkpt lat="48.43949" lon="2.67505">
        <ele>106</ele>
        <time>2026-02-11T11:02:26.862+00:00</time>
      </trkpt>
      <trkpt lat="48.43948" lon="2.67513">
        <ele>106</ele>
        <time>2026-02-11T11:02:31.299+00:00</time>
      </trkpt>
      <trkpt lat="48.43947" lon="2.67521">
        <ele>105</ele>
        <time>2026-02-11T11:02:35.742+00:00</time>
      </trkpt>
      <trkpt lat="48.43946" lon="2.6753">
        <ele>105</ele>
        <time>2026-02-11T11:02:40.162+00:00</time>
      </trkpt>
      <trkpt lat="48.43945" lon="2.67538">
        <ele>105</ele>
        <time>2026-02-11T11:02:44.563+00:00</time>
      </trkpt>
      <trkpt lat="48.43943" lon="2.67546">
        <ele>104</ele>
        <time>2026-02-11T11:02:48.922+00:00</time>
      </trkpt>
      <trkpt lat="48.43943" lon="2.67554">
        <ele>104</ele>
        <time>2026-02-11T11:02:53.258+00:00</time>
      </trkpt>
      <trkpt lat="48.43942" lon="2.67563">
        <ele>104</ele>
        <time>2026-02-11T11:02:57.624+00:00</time>
      </trkpt>
      <trkpt lat="48.43941" lon="2.67572">
        <ele>103</ele>
        <time>2026-02-11T11:03:01.924+00:00</time>
      </trkpt>
      <trkpt lat="48.4394" lon="2.67583">
        <ele>103</ele>
        <time>2026-02-11T11:03:06.318+00:00</time>
      </trkpt>
      <trkpt lat="48.43938" lon="2.67593">
        <ele>103</ele>
        <time>2026-02-11T11:03:10.642+00:00</time>
      </trkpt>
      <trkpt lat="48.43937" lon="2.67603">
        <ele>104</ele>
        <time>2026-02-11T11:03:14.838+00:00</time>
      </trkpt>
      <trkpt lat="48.43935" lon="2.67613">
        <ele>104</ele>
        <time>2026-02-11T11:03:19.061+00:00</time>
      </trkpt>
      <trkpt lat="48.43934" lon="2.67622">
        <ele>104</ele>
        <time>2026-02-11T11:03:23.278+00:00</time>
      </trkpt>
      <trkpt lat="48.43931" lon="2.67629">
        <ele>102</ele>
        <time>2026-02-11T11:03:27.326+00:00</time>
      </trkpt>
      <trkpt lat="48.43929" lon="2.67638">
        <ele>99</ele>
        <time>2026-02-11T11:03:31.765+00:00</time>
      </trkpt>
      <trkpt lat="48.43926" lon="2.67645">
        <ele>99</ele>
        <time>2026-02-11T11:03:36.080+00:00</time>
      </trkpt>
      <trkpt lat="48.43925" lon="2.67653">
        <ele>99</ele>
        <time>2026-02-11T11:03:40.483+00:00</time>
      </trkpt>
      <trkpt lat="48.43924" lon="2.67662">
        <ele>99</ele>
        <time>2026-02-11T11:03:44.699+00:00</time>
      </trkpt>
      <trkpt lat="48.43924" lon="2.67671">
        <ele>99</ele>
        <time>2026-02-11T11:03:48.964+00:00</time>
      </trkpt>
      <trkpt lat="48.43923" lon="2.6768">
        <ele>99</ele>
        <time>2026-02-11T11:03:53.117+00:00</time>
      </trkpt>
      <trkpt lat="48.43923" lon="2.67687">
        <ele>99</ele>
        <time>2026-02-11T11:03:57.322+00:00</time>
      </trkpt>
      <trkpt lat="48.43922" lon="2.67696">
        <ele>99</ele>
        <time>2026-02-11T11:04:01.561+00:00</time>
      </trkpt>
      <trkpt lat="48.43922" lon="2.67705">
        <ele>99</ele>
        <time>2026-02-11T11:04:05.844+00:00</time>
      </trkpt>
      <trkpt lat="48.43921" lon="2.67714">
        <ele>99</ele>
        <time>2026-02-11T11:04:10.083+00:00</time>
      </trkpt>
      <trkpt lat="48.43919" lon="2.67723">
        <ele>99</ele>
        <time>2026-02-11T11:04:14.323+00:00</time>
      </trkpt>
      <trkpt lat="48.43917" lon="2.6773">
        <ele>99</ele>
        <time>2026-02-11T11:04:18.347+00:00</time>
      </trkpt>
      <trkpt lat="48.43919" lon="2.6774">
        <ele>101</ele>
        <time>2026-02-11T11:04:22.479+00:00</time>
      </trkpt>
      <trkpt lat="48.43919" lon="2.67749">
        <ele>101</ele>
        <time>2026-02-11T11:04:26.880+00:00</time>
      </trkpt>
      <trkpt lat="48.4392" lon="2.67759">
        <ele>101</ele>
        <time>2026-02-11T11:04:31.223+00:00</time>
      </trkpt>
      <trkpt lat="48.43919" lon="2.67768">
        <ele>101</ele>
        <time>2026-02-11T11:04:35.347+00:00</time>
      </trkpt>
      <trkpt lat="48.43921" lon="2.67776">
        <ele>101</ele>
        <time>2026-02-11T11:04:39.559+00:00</time>
      </trkpt>
      <trkpt lat="48.43921" lon="2.67785">
        <ele>101</ele>
        <time>2026-02-11T11:04:43.678+00:00</time>
      </trkpt>
      <trkpt lat="48.43921" lon="2.67795">
        <ele>100</ele>
        <time>2026-02-11T11:04:47.942+00:00</time>
      </trkpt>
      <trkpt lat="48.43922" lon="2.67803">
        <ele>100</ele>
        <time>2026-02-11T11:04:52.139+00:00</time>
      </trkpt>
      <trkpt lat="48.4392" lon="2.67813">
        <ele>100</ele>
        <time>2026-02-11T11:04:56.558+00:00</time>
      </trkpt>
      <trkpt lat="48.43917" lon="2.67822">
        <ele>100</ele>
        <time>2026-02-11T11:05:01.327+00:00</time>
      </trkpt>
      <trkpt lat="48.43916" lon="2.67831">
        <ele>100</ele>
        <time>2026-02-11T11:05:05.524+00:00</time>
      </trkpt>
      <trkpt lat="48.43915" lon="2.67841">
        <ele>100</ele>
        <time>2026-02-11T11:05:09.835+00:00</time>
      </trkpt>
      <trkpt lat="48.43915" lon="2.6785">
        <ele>100</ele>
        <time>2026-02-11T11:05:13.918+00:00</time>
      </trkpt>
      <trkpt lat="48.43914" lon="2.67859">
        <ele>100</ele>
        <time>2026-02-11T11:05:18.125+00:00</time>
      </trkpt>
      <trkpt lat="48.43913" lon="2.67868">
        <ele>100</ele>
        <time>2026-02-11T11:05:22.326+00:00</time>
      </trkpt>
      <trkpt lat="48.43913" lon="2.67878">
        <ele>100</ele>
        <time>2026-02-11T11:05:26.603+00:00</time>
      </trkpt>
      <trkpt lat="48.43912" lon="2.67888">
        <ele>100</ele>
        <time>2026-02-11T11:05:30.819+00:00</time>
      </trkpt>
      <trkpt lat="48.43911" lon="2.67897">
        <ele>100</ele>
        <time>2026-02-11T11:05:35.082+00:00</time>
      </trkpt>
      <trkpt lat="48.43911" lon="2.67907">
        <ele>100</ele>
        <time>2026-02-11T11:05:39.298+00:00</time>
      </trkpt>
      <trkpt lat="48.4391" lon="2.67916">
        <ele>100</ele>
        <time>2026-02-11T11:05:43.545+00:00</time>
      </trkpt>
      <trkpt lat="48.4391" lon="2.67925">
        <ele>100</ele>
        <time>2026-02-11T11:05:47.724+00:00</time>
      </trkpt>
      <trkpt lat="48.4391" lon="2.67935">
        <ele>99</ele>
        <time>2026-02-11T11:05:51.963+00:00</time>
      </trkpt>
      <trkpt lat="48.4391" lon="2.67944">
        <ele>99</ele>
        <time>2026-02-11T11:05:56.179+00:00</time>
      </trkpt>
      <trkpt lat="48.4391" lon="2.67952">
        <ele>99</ele>
        <time>2026-02-11T11:06:00.327+00:00</time>
      </trkpt>
      <trkpt lat="48.43911" lon="2.67961">
        <ele>98</ele>
        <time>2026-02-11T11:06:04.326+00:00</time>
      </trkpt>
      <trkpt lat="48.4391" lon="2.6797">
        <ele>98</ele>
        <time>2026-02-11T11:06:08.779+00:00</time>
      </trkpt>
      <trkpt lat="48.4391" lon="2.6798">
        <ele>98</ele>
        <time>2026-02-11T11:06:13.102+00:00</time>
      </trkpt>
      <trkpt lat="48.43911" lon="2.67989">
        <ele>97</ele>
        <time>2026-02-11T11:06:17.326+00:00</time>
      </trkpt>
      <trkpt lat="48.4391" lon="2.67998">
        <ele>97</ele>
        <time>2026-02-11T11:06:21.499+00:00</time>
      </trkpt>
      <trkpt lat="48.43909" lon="2.68008">
        <ele>97</ele>
        <time>2026-02-11T11:06:25.719+00:00</time>
      </trkpt>
      <trkpt lat="48.43909" lon="2.68018">
        <ele>97</ele>
        <time>2026-02-11T11:06:29.941+00:00</time>
      </trkpt>
      <trkpt lat="48.43909" lon="2.68026">
        <ele>97</ele>
        <time>2026-02-11T11:06:34.097+00:00</time>
      </trkpt>
      <trkpt lat="48.43909" lon="2.68034">
        <ele>97</ele>
        <time>2026-02-11T11:06:38.217+00:00</time>
      </trkpt>
      <trkpt lat="48.43908" lon="2.68043">
        <ele>97</ele>
        <time>2026-02-11T11:06:42.327+00:00</time>
      </trkpt>
      <trkpt lat="48.43908" lon="2.68052">
        <ele>97</ele>
        <time>2026-02-11T11:06:46.542+00:00</time>
      </trkpt>
      <trkpt lat="48.43907" lon="2.68061">
        <ele>97</ele>
        <time>2026-02-11T11:06:50.722+00:00</time>
      </trkpt>
      <trkpt lat="48.43908" lon="2.6807">
        <ele>97</ele>
        <time>2026-02-11T11:06:54.901+00:00</time>
      </trkpt>
      <trkpt lat="48.43908" lon="2.68079">
        <ele>97</ele>
        <time>2026-02-11T11:06:59.141+00:00</time>
      </trkpt>
      <trkpt lat="48.43907" lon="2.68088">
        <ele>97</ele>
        <time>2026-02-11T11:07:03.201+00:00</time>
      </trkpt>
      <trkpt lat="48.43906" lon="2.68097">
        <ele>97</ele>
        <time>2026-02-11T11:07:07.298+00:00</time>
      </trkpt>
      <trkpt lat="48.43905" lon="2.68106">
        <ele>99</ele>
        <time>2026-02-11T11:07:11.724+00:00</time>
      </trkpt>
      <trkpt lat="48.43903" lon="2.68117">
        <ele>99</ele>
        <time>2026-02-11T11:07:16.326+00:00</time>
      </trkpt>
      <trkpt lat="48.43901" lon="2.68126">
        <ele>99</ele>
        <time>2026-02-11T11:07:20.842+00:00</time>
      </trkpt>
      <trkpt lat="48.439" lon="2.68136">
        <ele>99</ele>
        <time>2026-02-11T11:07:25.023+00:00</time>
      </trkpt>
      <trkpt lat="48.43898" lon="2.68144">
        <ele>99</ele>
        <time>2026-02-11T11:07:29.326+00:00</time>
      </trkpt>
      <trkpt lat="48.43897" lon="2.6815">
        <ele>99</ele>
        <time>2026-02-11T11:07:33.327+00:00</time>
      </trkpt>
      <trkpt lat="48.43899" lon="2.6816">
        <ele>98</ele>
        <time>2026-02-11T11:07:37.823+00:00</time>
      </trkpt>
      <trkpt lat="48.43898" lon="2.68168">
        <ele>98</ele>
        <time>2026-02-11T11:07:41.921+00:00</time>
      </trkpt>
      <trkpt lat="48.43896" lon="2.68178">
        <ele>98</ele>
        <time>2026-02-11T11:07:46.203+00:00</time>
      </trkpt>
      <trkpt lat="48.43895" lon="2.68186">
        <ele>98</ele>
        <time>2026-02-11T11:07:50.327+00:00</time>
      </trkpt>
      <trkpt lat="48.43894" lon="2.68196">
        <ele>98</ele>
        <time>2026-02-11T11:07:55.203+00:00</time>
      </trkpt>
      <trkpt lat="48.43894" lon="2.68203">
        <ele>98</ele>
        <time>2026-02-11T11:07:59.327+00:00</time>
      </trkpt>
      <trkpt lat="48.43894" lon="2.68212">
        <ele>98</ele>
        <time>2026-02-11T11:08:03.938+00:00</time>
      </trkpt>
      <trkpt lat="48.43892" lon="2.68221">
        <ele>98</ele>
        <time>2026-02-11T11:08:08.119+00:00</time>
      </trkpt>
      <trkpt lat="48.43891" lon="2.68231">
        <ele>98</ele>
        <time>2026-02-11T11:08:12.980+00:00</time>
      </trkpt>
      <trkpt lat="48.43891" lon="2.6824">
        <ele>98</ele>
        <time>2026-02-11T11:08:17.162+00:00</time>
      </trkpt>
      <trkpt lat="48.4389" lon="2.6825">
        <ele>98</ele>
        <time>2026-02-11T11:08:21.326+00:00</time>
      </trkpt>
      <trkpt lat="48.43889" lon="2.68259">
        <ele>98</ele>
        <time>2026-02-11T11:08:25.583+00:00</time>
      </trkpt>
      <trkpt lat="48.43888" lon="2.68268">
        <ele>97</ele>
        <time>2026-02-11T11:08:29.818+00:00</time>
      </trkpt>
      <trkpt lat="48.43887" lon="2.68277">
        <ele>97</ele>
        <time>2026-02-11T11:08:34.085+00:00</time>
      </trkpt>
      <trkpt lat="48.43885" lon="2.68286">
        <ele>97</ele>
        <time>2026-02-11T11:08:38.324+00:00</time>
      </trkpt>
      <trkpt lat="48.43884" lon="2.68295">
        <ele>96</ele>
        <time>2026-02-11T11:08:42.327+00:00</time>
      </trkpt>
      <trkpt lat="48.43883" lon="2.68305">
        <ele>96</ele>
        <time>2026-02-11T11:08:47.119+00:00</time>
      </trkpt>
      <trkpt lat="48.43881" lon="2.68316">
        <ele>96</ele>
        <time>2026-02-11T11:08:51.863+00:00</time>
      </trkpt>
      <trkpt lat="48.4388" lon="2.68325">
        <ele>96</ele>
        <time>2026-02-11T11:08:56.061+00:00</time>
      </trkpt>
      <trkpt lat="48.43879" lon="2.68334">
        <ele>96</ele>
        <time>2026-02-11T11:09:00.266+00:00</time>
      </trkpt>
      <trkpt lat="48.43878" lon="2.68343">
        <ele>96</ele>
        <time>2026-02-11T11:09:04.327+00:00</time>
      </trkpt>
      <trkpt lat="48.43877" lon="2.68352">
        <ele>95</ele>
        <time>2026-02-11T11:09:08.565+00:00</time>
      </trkpt>
      <trkpt lat="48.43876" lon="2.68361">
        <ele>95</ele>
        <time>2026-02-11T11:09:12.599+00:00</time>
      </trkpt>
      <trkpt lat="48.43875" lon="2.6837">
        <ele>95</ele>
        <time>2026-02-11T11:09:16.841+00:00</time>
      </trkpt>
      <trkpt lat="48.43874" lon="2.68379">
        <ele>94</ele>
        <time>2026-02-11T11:09:20.985+00:00</time>
      </trkpt>
      <trkpt lat="48.43873" lon="2.68389">
        <ele>94</ele>
        <time>2026-02-11T11:09:25.105+00:00</time>
      </trkpt>
      <trkpt lat="48.43872" lon="2.68398">
        <ele>94</ele>
        <time>2026-02-11T11:09:29.166+00:00</time>
      </trkpt>
      <trkpt lat="48.43871" lon="2.68407">
        <ele>94</ele>
        <time>2026-02-11T11:09:33.326+00:00</time>
      </trkpt>
      <trkpt lat="48.43871" lon="2.68417">
        <ele>94</ele>
        <time>2026-02-11T11:09:37.559+00:00</time>
      </trkpt>
      <trkpt lat="48.43869" lon="2.68425">
        <ele>94</ele>
        <time>2026-02-11T11:09:41.662+00:00</time>
      </trkpt>
      <trkpt lat="48.43867" lon="2.68434">
        <ele>93</ele>
        <time>2026-02-11T11:09:46.226+00:00</time>
      </trkpt>
      <trkpt lat="48.43864" lon="2.68442">
        <ele>93</ele>
        <time>2026-02-11T11:09:50.326+00:00</time>
      </trkpt>
      <trkpt lat="48.43863" lon="2.6845">
        <ele>93</ele>
        <time>2026-02-11T11:09:54.620+00:00</time>
      </trkpt>
      <trkpt lat="48.43861" lon="2.68459">
        <ele>92</ele>
        <time>2026-02-11T11:09:59.244+00:00</time>
      </trkpt>
      <trkpt lat="48.4386" lon="2.68467">
        <ele>92</ele>
        <time>2026-02-11T11:10:03.321+00:00</time>
      </trkpt>
      <trkpt lat="48.43859" lon="2.68476">
        <ele>92</ele>
        <time>2026-02-11T11:10:07.484+00:00</time>
      </trkpt>
      <trkpt lat="48.43859" lon="2.68486">
        <ele>92</ele>
        <time>2026-02-11T11:10:12.141+00:00</time>
      </trkpt>
      <trkpt lat="48.43859" lon="2.68495">
        <ele>90</ele>
        <time>2026-02-11T11:10:16.326+00:00</time>
      </trkpt>
      <trkpt lat="48.43859" lon="2.68504">
        <ele>90</ele>
        <time>2026-02-11T11:10:20.484+00:00</time>
      </trkpt>
      <trkpt lat="48.4386" lon="2.68513">
        <ele>90</ele>
        <time>2026-02-11T11:10:24.800+00:00</time>
      </trkpt>
      <trkpt lat="48.4386" lon="2.68522">
        <ele>87</ele>
        <time>2026-02-11T11:10:28.946+00:00</time>
      </trkpt>
      <trkpt lat="48.43861" lon="2.68531">
        <ele>87</ele>
        <time>2026-02-11T11:10:33.326+00:00</time>
      </trkpt>
      <trkpt lat="48.43863" lon="2.68541">
        <ele>87</ele>
        <time>2026-02-11T11:10:38.125+00:00</time>
      </trkpt>
      <trkpt lat="48.43865" lon="2.6855">
        <ele>87</ele>
        <time>2026-02-11T11:10:42.586+00:00</time>
      </trkpt>
      <trkpt lat="48.43866" lon="2.68559">
        <ele>87</ele>
        <time>2026-02-11T11:10:47.261+00:00</time>
      </trkpt>
      <trkpt lat="48.43868" lon="2.68567">
        <ele>87</ele>
        <time>2026-02-11T11:10:51.529+00:00</time>
      </trkpt>
      <trkpt lat="48.43869" lon="2.68576">
        <ele>87</ele>
        <time>2026-02-11T11:10:55.945+00:00</time>
      </trkpt>
      <trkpt lat="48.43869" lon="2.68585">
        <ele>87</ele>
        <time>2026-02-11T11:11:00.326+00:00</time>
      </trkpt>
      <trkpt lat="48.43868" lon="2.68593">
        <ele>87</ele>
        <time>2026-02-11T11:11:04.500+00:00</time>
      </trkpt>
      <trkpt lat="48.43868" lon="2.68601">
        <ele>87</ele>
        <time>2026-02-11T11:11:08.843+00:00</time>
      </trkpt>
      <trkpt lat="48.4387" lon="2.68609">
        <ele>87</ele>
        <time>2026-02-11T11:11:13.325+00:00</time>
      </trkpt>
      <trkpt lat="48.43871" lon="2.68618">
        <ele>87</ele>
        <time>2026-02-11T11:11:17.501+00:00</time>
      </trkpt>
      <trkpt lat="48.43871" lon="2.68627">
        <ele>88</ele>
        <time>2026-02-11T11:11:21.859+00:00</time>
      </trkpt>
      <trkpt lat="48.43871" lon="2.68636">
        <ele>88</ele>
        <time>2026-02-11T11:11:26.184+00:00</time>
      </trkpt>
      <trkpt lat="48.43873" lon="2.68644">
        <ele>88</ele>
        <time>2026-02-11T11:11:30.500+00:00</time>
      </trkpt>
      <trkpt lat="48.43875" lon="2.68652">
        <ele>88</ele>
        <time>2026-02-11T11:11:34.826+00:00</time>
      </trkpt>
      <trkpt lat="48.43875" lon="2.68661">
        <ele>90</ele>
        <time>2026-02-11T11:11:39.127+00:00</time>
      </trkpt>
      <trkpt lat="48.43875" lon="2.6867">
        <ele>88</ele>
        <time>2026-02-11T11:11:43.324+00:00</time>
      </trkpt>
      <trkpt lat="48.43875" lon="2.68679">
        <ele>88</ele>
        <time>2026-02-11T11:11:47.707+00:00</time>
      </trkpt>
      <trkpt lat="48.43875" lon="2.68687">
        <ele>87</ele>
        <time>2026-02-11T11:11:51.963+00:00</time>
      </trkpt>
      <trkpt lat="48.43875" lon="2.68696">
        <ele>87</ele>
        <time>2026-02-11T11:11:56.244+00:00</time>
      </trkpt>
      <trkpt lat="48.43875" lon="2.68705">
        <ele>87</ele>
        <time>2026-02-11T11:12:00.322+00:00</time>
      </trkpt>
      <trkpt lat="48.43876" lon="2.68712">
        <ele>87</ele>
        <time>2026-02-11T11:12:04.459+00:00</time>
      </trkpt>
      <trkpt lat="48.43878" lon="2.6872">
        <ele>87</ele>
        <time>2026-02-11T11:12:08.861+00:00</time>
      </trkpt>
      <trkpt lat="48.43881" lon="2.68727">
        <ele>87</ele>
        <time>2026-02-11T11:12:13.219+00:00</time>
      </trkpt>
      <trkpt lat="48.43884" lon="2.68733">
        <ele>87</ele>
        <time>2026-02-11T11:12:17.519+00:00</time>
      </trkpt>
      <trkpt lat="48.43888" lon="2.6874">
        <ele>86</ele>
        <time>2026-02-11T11:12:22.325+00:00</time>
      </trkpt>
      <trkpt lat="48.43892" lon="2.68744">
        <ele>86</ele>
        <time>2026-02-11T11:12:26.399+00:00</time>
      </trkpt>
      <trkpt lat="48.43897" lon="2.68748">
        <ele>86</ele>
        <time>2026-02-11T11:12:30.425+00:00</time>
      </trkpt>
      <trkpt lat="48.43901" lon="2.68753">
        <ele>86</ele>
        <time>2026-02-11T11:12:34.844+00:00</time>
      </trkpt>
      <trkpt lat="48.43906" lon="2.68757">
        <ele>86</ele>
        <time>2026-02-11T11:12:39.245+00:00</time>
      </trkpt>
      <trkpt lat="48.43911" lon="2.6876">
        <ele>86</ele>
        <time>2026-02-11T11:12:43.326+00:00</time>
      </trkpt>
      <trkpt lat="48.43915" lon="2.68765">
        <ele>87</ele>
        <time>2026-02-11T11:12:47.504+00:00</time>
      </trkpt>
      <trkpt lat="48.4392" lon="2.6877">
        <ele>87</ele>
        <time>2026-02-11T11:12:51.703+00:00</time>
      </trkpt>
      <trkpt lat="48.43924" lon="2.68774">
        <ele>87</ele>
        <time>2026-02-11T11:12:56.001+00:00</time>
      </trkpt>
      <trkpt lat="48.43926" lon="2.68776">
        <ele>87</ele>
        <time>2026-02-11T11:13:00.171+00:00</time>
      </trkpt>
      <trkpt lat="48.43931" lon="2.68781">
        <ele>88</ele>
        <time>2026-02-11T11:13:16.325+00:00</time>
      </trkpt>
      <trkpt lat="48.43931" lon="2.68781">
        <ele>88</ele>
        <time>2026-02-11T11:13:28.326+00:00</time>
      </trkpt>
      <trkpt lat="48.43934" lon="2.68781">
        <ele>88</ele>
        <time>2026-02-11T11:13:32.680+00:00</time>
      </trkpt>
      <trkpt lat="48.4394" lon="2.68782">
        <ele>88</ele>
        <time>2026-02-11T11:13:37.326+00:00</time>
      </trkpt>
      <trkpt lat="48.43946" lon="2.68784">
        <ele>88</ele>
        <time>2026-02-11T11:13:41.465+00:00</time>
      </trkpt>
      <trkpt lat="48.43952" lon="2.68786">
        <ele>88</ele>
        <time>2026-02-11T11:13:46.021+00:00</time>
      </trkpt>
      <trkpt lat="48.43957" lon="2.68786">
        <ele>88</ele>
        <time>2026-02-11T11:13:50.038+00:00</time>
      </trkpt>
      <trkpt lat="48.43961" lon="2.68788">
        <ele>89</ele>
        <time>2026-02-11T11:13:54.326+00:00</time>
      </trkpt>
      <trkpt lat="48.43966" lon="2.68788">
        <ele>89</ele>
        <time>2026-02-11T11:13:59.326+00:00</time>
      </trkpt>
      <trkpt lat="48.43971" lon="2.68791">
        <ele>89</ele>
        <time>2026-02-11T11:14:03.586+00:00</time>
      </trkpt>
      <trkpt lat="48.43975" lon="2.68795">
        <ele>90</ele>
        <time>2026-02-11T11:14:07.661+00:00</time>
      </trkpt>
      <trkpt lat="48.43979" lon="2.68798">
        <ele>90</ele>
        <time>2026-02-11T11:14:11.705+00:00</time>
      </trkpt>
      <trkpt lat="48.43983" lon="2.68797">
        <ele>90</ele>
        <time>2026-02-11T11:14:16.123+00:00</time>
      </trkpt>
      <trkpt lat="48.43987" lon="2.68797">
        <ele>91</ele>
        <time>2026-02-11T11:14:20.525+00:00</time>
      </trkpt>
      <trkpt lat="48.43992" lon="2.68801">
        <ele>91</ele>
        <time>2026-02-11T11:14:24.842+00:00</time>
      </trkpt>
      <trkpt lat="48.43996" lon="2.68803">
        <ele>91</ele>
        <time>2026-02-11T11:14:28.885+00:00</time>
      </trkpt>
      <trkpt lat="48.44" lon="2.68804">
        <ele>91</ele>
        <time>2026-02-11T11:14:32.912+00:00</time>
      </trkpt>
      <trkpt lat="48.44005" lon="2.68806">
        <ele>91</ele>
        <time>2026-02-11T11:14:37.186+00:00</time>
      </trkpt>
      <trkpt lat="48.44011" lon="2.68804">
        <ele>91</ele>
        <time>2026-02-11T11:14:41.343+00:00</time>
      </trkpt>
      <trkpt lat="48.44015" lon="2.68799">
        <ele>93</ele>
        <time>2026-02-11T11:14:45.699+00:00</time>
      </trkpt>
      <trkpt lat="48.44018" lon="2.68793">
        <ele>93</ele>
        <time>2026-02-11T11:14:49.785+00:00</time>
      </trkpt>
      <trkpt lat="48.44021" lon="2.68787">
        <ele>93</ele>
        <time>2026-02-11T11:14:53.820+00:00</time>
      </trkpt>
      <trkpt lat="48.44025" lon="2.68784">
        <ele>93</ele>
        <time>2026-02-11T11:14:58.024+00:00</time>
      </trkpt>
      <trkpt lat="48.44029" lon="2.68784">
        <ele>93</ele>
        <time>2026-02-11T11:15:02.119+00:00</time>
      </trkpt>
      <trkpt lat="48.44033" lon="2.68783">
        <ele>93</ele>
        <time>2026-02-11T11:15:06.325+00:00</time>
      </trkpt>
      <trkpt lat="48.44037" lon="2.68783">
        <ele>93</ele>
        <time>2026-02-11T11:15:11.025+00:00</time>
      </trkpt>
      <trkpt lat="48.44041" lon="2.68783">
        <ele>93</ele>
        <time>2026-02-11T11:15:15.330+00:00</time>
      </trkpt>
      <trkpt lat="48.44045" lon="2.68783">
        <ele>95</ele>
        <time>2026-02-11T11:15:19.326+00:00</time>
      </trkpt>
      <trkpt lat="48.44049" lon="2.68779">
        <ele>95</ele>
        <time>2026-02-11T11:15:23.744+00:00</time>
      </trkpt>
      <trkpt lat="48.44047" lon="2.68765">
        <ele>95</ele>
        <time>2026-02-11T11:28:10.326+00:00</time>
      </trkpt>
      <trkpt lat="48.44047" lon="2.68765">
        <ele>95</ele>
        <time>2026-02-11T11:28:18.326+00:00</time>
      </trkpt>
      <trkpt lat="48.44047" lon="2.68765">
        <ele>95</ele>
        <time>2026-02-11T11:28:45.326+00:00</time>
      </trkpt>
      <trkpt lat="48.44047" lon="2.68765">
        <ele>95</ele>
        <time>2026-02-11T11:28:50.326+00:00</time>
      </trkpt>
      <trkpt lat="48.44047" lon="2.68765">
        <ele>95</ele>
        <time>2026-02-11T11:29:00.326+00:00</time>
      </trkpt>
      <trkpt lat="48.44043" lon="2.68775">
        <ele>95</ele>
        <time>2026-02-11T11:53:50.322+00:00</time>
      </trkpt>
      <trkpt lat="48.44044" lon="2.68775">
        <ele>95</ele>
        <time>2026-02-11T11:53:55.323+00:00</time>
      </trkpt>
      <trkpt lat="48.44043" lon="2.68776">
        <ele>95</ele>
        <time>2026-02-11T11:54:00.103+00:00</time>
      </trkpt>
      <trkpt lat="48.44043" lon="2.68777">
        <ele>95</ele>
        <time>2026-02-11T11:54:04.249+00:00</time>
      </trkpt>
      <trkpt lat="48.44043" lon="2.68777">
        <ele>95</ele>
        <time>2026-02-11T11:54:09.323+00:00</time>
      </trkpt>
      <trkpt lat="48.44041" lon="2.68776">
        <ele>93</ele>
        <time>2026-02-11T11:54:53.323+00:00</time>
      </trkpt>
      <trkpt lat="48.44041" lon="2.68776">
        <ele>93</ele>
        <time>2026-02-11T11:54:58.322+00:00</time>
      </trkpt>
      <trkpt lat="48.44038" lon="2.68779">
        <ele>93</ele>
        <time>2026-02-11T11:55:02.323+00:00</time>
      </trkpt>
      <trkpt lat="48.44037" lon="2.68784">
        <ele>93</ele>
        <time>2026-02-11T11:55:07.323+00:00</time>
      </trkpt>
      <trkpt lat="48.44033" lon="2.68785">
        <ele>93</ele>
        <time>2026-02-11T11:55:11.322+00:00</time>
      </trkpt>
      <trkpt lat="48.44028" lon="2.68788">
        <ele>93</ele>
        <time>2026-02-11T11:55:15.323+00:00</time>
      </trkpt>
      <trkpt lat="48.44024" lon="2.68796">
        <ele>93</ele>
        <time>2026-02-11T11:55:20.323+00:00</time>
      </trkpt>
      <trkpt lat="48.4402" lon="2.68799">
        <ele>93</ele>
        <time>2026-02-11T11:55:24.323+00:00</time>
      </trkpt>
      <trkpt lat="48.44016" lon="2.688">
        <ele>93</ele>
        <time>2026-02-11T11:55:28.518+00:00</time>
      </trkpt>
      <trkpt lat="48.4401" lon="2.68799">
        <ele>91</ele>
        <time>2026-02-11T11:55:32.937+00:00</time>
      </trkpt>
      <trkpt lat="48.44005" lon="2.68799">
        <ele>91</ele>
        <time>2026-02-11T11:55:37.323+00:00</time>
      </trkpt>
      <trkpt lat="48.44" lon="2.68801">
        <ele>91</ele>
        <time>2026-02-11T11:55:41.322+00:00</time>
      </trkpt>
      <trkpt lat="48.43993" lon="2.68803">
        <ele>91</ele>
        <time>2026-02-11T11:55:46.322+00:00</time>
      </trkpt>
      <trkpt lat="48.43986" lon="2.68804">
        <ele>91</ele>
        <time>2026-02-11T11:55:50.965+00:00</time>
      </trkpt>
      <trkpt lat="48.43981" lon="2.68808">
        <ele>90</ele>
        <time>2026-02-11T11:55:55.322+00:00</time>
      </trkpt>
      <trkpt lat="48.43977" lon="2.68811">
        <ele>90</ele>
        <time>2026-02-11T11:55:59.835+00:00</time>
      </trkpt>
      <trkpt lat="48.43971" lon="2.68811">
        <ele>90</ele>
        <time>2026-02-11T11:56:04+00:00</time>
      </trkpt>
      <trkpt lat="48.43966" lon="2.68812">
        <ele>90</ele>
        <time>2026-02-11T11:56:08.061+00:00</time>
      </trkpt>
      <trkpt lat="48.43965" lon="2.68819">
        <ele>90</ele>
        <time>2026-02-11T11:56:12.540+00:00</time>
      </trkpt>
      <trkpt lat="48.43963" lon="2.68825">
        <ele>90</ele>
        <time>2026-02-11T11:56:16.739+00:00</time>
      </trkpt>
      <trkpt lat="48.43958" lon="2.68831">
        <ele>89</ele>
        <time>2026-02-11T11:56:20.942+00:00</time>
      </trkpt>
      <trkpt lat="48.43953" lon="2.68834">
        <ele>89</ele>
        <time>2026-02-11T11:56:25.183+00:00</time>
      </trkpt>
      <trkpt lat="48.43947" lon="2.68837">
        <ele>89</ele>
        <time>2026-02-11T11:56:29.323+00:00</time>
      </trkpt>
      <trkpt lat="48.43942" lon="2.68842">
        <ele>89</ele>
        <time>2026-02-11T11:56:33.605+00:00</time>
      </trkpt>
      <trkpt lat="48.4394" lon="2.6885">
        <ele>90</ele>
        <time>2026-02-11T11:56:38.117+00:00</time>
      </trkpt>
      <trkpt lat="48.4394" lon="2.68858">
        <ele>90</ele>
        <time>2026-02-11T11:56:42.323+00:00</time>
      </trkpt>
      <trkpt lat="48.43936" lon="2.68865">
        <ele>90</ele>
        <time>2026-02-11T11:56:46.980+00:00</time>
      </trkpt>
      <trkpt lat="48.43938" lon="2.68873">
        <ele>90</ele>
        <time>2026-02-11T11:56:51.322+00:00</time>
      </trkpt>
      <trkpt lat="48.43938" lon="2.68882">
        <ele>90</ele>
        <time>2026-02-11T11:56:55.742+00:00</time>
      </trkpt>
      <trkpt lat="48.43941" lon="2.68891">
        <ele>90</ele>
        <time>2026-02-11T11:57:00.101+00:00</time>
      </trkpt>
      <trkpt lat="48.43942" lon="2.68899">
        <ele>90</ele>
        <time>2026-02-11T11:57:04.323+00:00</time>
      </trkpt>
      <trkpt lat="48.43945" lon="2.68908">
        <ele>89</ele>
        <time>2026-02-11T11:57:08.581+00:00</time>
      </trkpt>
      <trkpt lat="48.43946" lon="2.68916">
        <ele>89</ele>
        <time>2026-02-11T11:57:12.846+00:00</time>
      </trkpt>
      <trkpt lat="48.43947" lon="2.68924">
        <ele>89</ele>
        <time>2026-02-11T11:57:17.223+00:00</time>
      </trkpt>
      <trkpt lat="48.43948" lon="2.68932">
        <ele>88</ele>
        <time>2026-02-11T11:57:21.678+00:00</time>
      </trkpt>
      <trkpt lat="48.43949" lon="2.6894">
        <ele>88</ele>
        <time>2026-02-11T11:57:26.045+00:00</time>
      </trkpt>
      <trkpt lat="48.43948" lon="2.68949">
        <ele>88</ele>
        <time>2026-02-11T11:57:30.352+00:00</time>
      </trkpt>
      <trkpt lat="48.43946" lon="2.68958">
        <ele>88</ele>
        <time>2026-02-11T11:57:34.780+00:00</time>
      </trkpt>
      <trkpt lat="48.43946" lon="2.68966">
        <ele>87</ele>
        <time>2026-02-11T11:57:39.301+00:00</time>
      </trkpt>
      <trkpt lat="48.43946" lon="2.68975">
        <ele>87</ele>
        <time>2026-02-11T11:57:43.900+00:00</time>
      </trkpt>
      <trkpt lat="48.43944" lon="2.68982">
        <ele>87</ele>
        <time>2026-02-11T11:57:48.081+00:00</time>
      </trkpt>
      <trkpt lat="48.43942" lon="2.6899">
        <ele>87</ele>
        <time>2026-02-11T11:57:52.440+00:00</time>
      </trkpt>
      <trkpt lat="48.43941" lon="2.68997">
        <ele>87</ele>
        <time>2026-02-11T11:57:57.021+00:00</time>
      </trkpt>
      <trkpt lat="48.43944" lon="2.69003">
        <ele>87</ele>
        <time>2026-02-11T11:58:01.022+00:00</time>
      </trkpt>
      <trkpt lat="48.43949" lon="2.69008">
        <ele>87</ele>
        <time>2026-02-11T11:58:05.441+00:00</time>
      </trkpt>
      <trkpt lat="48.43954" lon="2.69012">
        <ele>87</ele>
        <time>2026-02-11T11:58:09.878+00:00</time>
      </trkpt>
      <trkpt lat="48.43959" lon="2.69016">
        <ele>87</ele>
        <time>2026-02-11T11:58:14.279+00:00</time>
      </trkpt>
      <trkpt lat="48.43963" lon="2.69018">
        <ele>87</ele>
        <time>2026-02-11T11:58:18.340+00:00</time>
      </trkpt>
      <trkpt lat="48.43965" lon="2.69025">
        <ele>87</ele>
        <time>2026-02-11T11:58:23.322+00:00</time>
      </trkpt>
      <trkpt lat="48.43965" lon="2.6903">
        <ele>87</ele>
        <time>2026-02-11T11:58:28.323+00:00</time>
      </trkpt>
      <trkpt lat="48.43965" lon="2.6903">
        <ele>87</ele>
        <time>2026-02-11T11:58:33.040+00:00</time>
      </trkpt>
      <trkpt lat="48.43965" lon="2.69031">
        <ele>87</ele>
        <time>2026-02-11T11:58:37.143+00:00</time>
      </trkpt>
      <trkpt lat="48.4397" lon="2.69046">
        <ele>86</ele>
        <time>2026-02-11T11:58:41.323+00:00</time>
      </trkpt>
      <trkpt lat="48.43974" lon="2.69053">
        <ele>86</ele>
        <time>2026-02-11T11:58:45.599+00:00</time>
      </trkpt>
      <trkpt lat="48.43974" lon="2.69061">
        <ele>86</ele>
        <time>2026-02-11T11:58:49.683+00:00</time>
      </trkpt>
      <trkpt lat="48.43969" lon="2.69065">
        <ele>86</ele>
        <time>2026-02-11T11:58:53.880+00:00</time>
      </trkpt>
      <trkpt lat="48.43963" lon="2.69066">
        <ele>86</ele>
        <time>2026-02-11T11:58:58.318+00:00</time>
      </trkpt>
      <trkpt lat="48.43958" lon="2.69067">
        <ele>86</ele>
        <time>2026-02-11T11:59:02.618+00:00</time>
      </trkpt>
      <trkpt lat="48.43953" lon="2.69071">
        <ele>86</ele>
        <time>2026-02-11T11:59:06.984+00:00</time>
      </trkpt>
      <trkpt lat="48.43952" lon="2.69078">
        <ele>86</ele>
        <time>2026-02-11T11:59:11.481+00:00</time>
      </trkpt>
      <trkpt lat="48.43952" lon="2.69086">
        <ele>86</ele>
        <time>2026-02-11T11:59:15.859+00:00</time>
      </trkpt>
      <trkpt lat="48.4395" lon="2.69095">
        <ele>86</ele>
        <time>2026-02-11T11:59:20.318+00:00</time>
      </trkpt>
      <trkpt lat="48.43946" lon="2.69103">
        <ele>86</ele>
        <time>2026-02-11T11:59:24.322+00:00</time>
      </trkpt>
      <trkpt lat="48.43942" lon="2.69111">
        <ele>86</ele>
        <time>2026-02-11T11:59:28.901+00:00</time>
      </trkpt>
      <trkpt lat="48.43937" lon="2.69117">
        <ele>86</ele>
        <time>2026-02-11T11:59:33.322+00:00</time>
      </trkpt>
      <trkpt lat="48.43934" lon="2.69124">
        <ele>86</ele>
        <time>2026-02-11T11:59:37.841+00:00</time>
      </trkpt>
      <trkpt lat="48.43931" lon="2.69132">
        <ele>88</ele>
        <time>2026-02-11T11:59:42.200+00:00</time>
      </trkpt>
      <trkpt lat="48.4393" lon="2.69139">
        <ele>90</ele>
        <time>2026-02-11T11:59:46.560+00:00</time>
      </trkpt>
      <trkpt lat="48.4393" lon="2.69147">
        <ele>90</ele>
        <time>2026-02-11T11:59:50.962+00:00</time>
      </trkpt>
      <trkpt lat="48.43931" lon="2.69158">
        <ele>93</ele>
        <time>2026-02-11T11:59:55.323+00:00</time>
      </trkpt>
      <trkpt lat="48.43929" lon="2.69167">
        <ele>93</ele>
        <time>2026-02-11T12:00:00.099+00:00</time>
      </trkpt>
      <trkpt lat="48.4393" lon="2.69173">
        <ele>93</ele>
        <time>2026-02-11T12:00:04.322+00:00</time>
      </trkpt>
      <trkpt lat="48.43931" lon="2.6918">
        <ele>90</ele>
        <time>2026-02-11T12:00:08.621+00:00</time>
      </trkpt>
      <trkpt lat="48.43928" lon="2.69187">
        <ele>97</ele>
        <time>2026-02-11T12:00:12.981+00:00</time>
      </trkpt>
      <trkpt lat="48.43926" lon="2.69195">
        <ele>97</ele>
        <time>2026-02-11T12:00:17.323+00:00</time>
      </trkpt>
      <trkpt lat="48.43928" lon="2.69202">
        <ele>97</ele>
        <time>2026-02-11T12:00:21.443+00:00</time>
      </trkpt>
      <trkpt lat="48.4393" lon="2.69209">
        <ele>101</ele>
        <time>2026-02-11T12:00:25.480+00:00</time>
      </trkpt>
      <trkpt lat="48.43932" lon="2.69219">
        <ele>99</ele>
        <time>2026-02-11T12:00:30.078+00:00</time>
      </trkpt>
      <trkpt lat="48.43932" lon="2.69229">
        <ele>99</ele>
        <time>2026-02-11T12:00:34.283+00:00</time>
      </trkpt>
      <trkpt lat="48.43931" lon="2.69236">
        <ele>102</ele>
        <time>2026-02-11T12:00:38.323+00:00</time>
      </trkpt>
      <trkpt lat="48.43932" lon="2.69242">
        <ele>102</ele>
        <time>2026-02-11T12:00:42.323+00:00</time>
      </trkpt>
      <trkpt lat="48.43935" lon="2.69246">
        <ele>102</ele>
        <time>2026-02-11T12:00:46.603+00:00</time>
      </trkpt>
      <trkpt lat="48.43937" lon="2.6925">
        <ele>102</ele>
        <time>2026-02-11T12:00:50.824+00:00</time>
      </trkpt>
      <trkpt lat="48.43937" lon="2.69254">
        <ele>102</ele>
        <time>2026-02-11T12:00:55.322+00:00</time>
      </trkpt>
      <trkpt lat="48.43934" lon="2.69258">
        <ele>102</ele>
        <time>2026-02-11T12:00:59.423+00:00</time>
      </trkpt>
      <trkpt lat="48.43933" lon="2.69265">
        <ele>104</ele>
        <time>2026-02-11T12:01:03.561+00:00</time>
      </trkpt>
      <trkpt lat="48.43932" lon="2.69271">
        <ele>104</ele>
        <time>2026-02-11T12:01:07.607+00:00</time>
      </trkpt>
      <trkpt lat="48.4393" lon="2.69276">
        <ele>105</ele>
        <time>2026-02-11T12:01:11.835+00:00</time>
      </trkpt>
      <trkpt lat="48.43923" lon="2.69276">
        <ele>105</ele>
        <time>2026-02-11T12:01:16.179+00:00</time>
      </trkpt>
      <trkpt lat="48.43919" lon="2.69278">
        <ele>105</ele>
        <time>2026-02-11T12:01:20.521+00:00</time>
      </trkpt>
      <trkpt lat="48.43922" lon="2.69283">
        <ele>105</ele>
        <time>2026-02-11T12:01:25.323+00:00</time>
      </trkpt>
      <trkpt lat="48.43922" lon="2.69283">
        <ele>105</ele>
        <time>2026-02-11T12:01:30.162+00:00</time>
      </trkpt>
      <trkpt lat="48.43927" lon="2.6929">
        <ele>105</ele>
        <time>2026-02-11T12:01:34.818+00:00</time>
      </trkpt>
      <trkpt lat="48.43923" lon="2.69295">
        <ele>106</ele>
        <time>2026-02-11T12:01:38.838+00:00</time>
      </trkpt>
      <trkpt lat="48.43916" lon="2.69299">
        <ele>106</ele>
        <time>2026-02-11T12:01:43.341+00:00</time>
      </trkpt>
      <trkpt lat="48.4391" lon="2.69321">
        <ele>107</ele>
        <time>2026-02-11T12:02:20.322+00:00</time>
      </trkpt>
      <trkpt lat="48.4391" lon="2.69321">
        <ele>107</ele>
        <time>2026-02-11T12:02:25.323+00:00</time>
      </trkpt>
      <trkpt lat="48.43907" lon="2.69326">
        <ele>107</ele>
        <time>2026-02-11T12:02:29.323+00:00</time>
      </trkpt>
      <trkpt lat="48.43903" lon="2.69331">
        <ele>107</ele>
        <time>2026-02-11T12:02:34.322+00:00</time>
      </trkpt>
      <trkpt lat="48.43901" lon="2.69336">
        <ele>108</ele>
        <time>2026-02-11T12:02:39.323+00:00</time>
      </trkpt>
      <trkpt lat="48.43898" lon="2.6934">
        <ele>108</ele>
        <time>2026-02-11T12:02:44.323+00:00</time>
      </trkpt>
      <trkpt lat="48.43894" lon="2.69346">
        <ele>108</ele>
        <time>2026-02-11T12:02:49.323+00:00</time>
      </trkpt>
      <trkpt lat="48.43889" lon="2.69352">
        <ele>109</ele>
        <time>2026-02-11T12:02:54.323+00:00</time>
      </trkpt>
      <trkpt lat="48.43884" lon="2.69359">
        <ele>109</ele>
        <time>2026-02-11T12:02:59.322+00:00</time>
      </trkpt>
      <trkpt lat="48.43878" lon="2.69357">
        <ele>109</ele>
        <time>2026-02-11T12:03:03.560+00:00</time>
      </trkpt>
      <trkpt lat="48.43874" lon="2.69362">
        <ele>110</ele>
        <time>2026-02-11T12:03:07.899+00:00</time>
      </trkpt>
      <trkpt lat="48.4387" lon="2.69369">
        <ele>110</ele>
        <time>2026-02-11T12:03:12.322+00:00</time>
      </trkpt>
      <trkpt lat="48.43865" lon="2.69375">
        <ele>111</ele>
        <time>2026-02-11T12:03:16.858+00:00</time>
      </trkpt>
      <trkpt lat="48.43867" lon="2.69384">
        <ele>111</ele>
        <time>2026-02-11T12:03:21.323+00:00</time>
      </trkpt>
      <trkpt lat="48.43868" lon="2.69392">
        <ele>111</ele>
        <time>2026-02-11T12:03:25.481+00:00</time>
      </trkpt>
      <trkpt lat="48.43869" lon="2.69392">
        <ele>111</ele>
        <time>2026-02-11T12:03:29.841+00:00</time>
      </trkpt>
      <trkpt lat="48.4387" lon="2.69397">
        <ele>111</ele>
        <time>2026-02-11T12:03:34.323+00:00</time>
      </trkpt>
      <trkpt lat="48.43873" lon="2.694">
        <ele>111</ele>
        <time>2026-02-11T12:03:39.323+00:00</time>
      </trkpt>
      <trkpt lat="48.43874" lon="2.694">
        <ele>111</ele>
        <time>2026-02-11T12:03:43.322+00:00</time>
      </trkpt>
      <trkpt lat="48.43876" lon="2.69392">
        <ele>110</ele>
        <time>2026-02-11T12:03:47.662+00:00</time>
      </trkpt>
      <trkpt lat="48.43886" lon="2.6939">
        <ele>110</ele>
        <time>2026-02-11T12:03:52.242+00:00</time>
      </trkpt>
      <trkpt lat="48.4389" lon="2.69389">
        <ele>110</ele>
        <time>2026-02-11T12:03:56.320+00:00</time>
      </trkpt>
      <trkpt lat="48.43895" lon="2.69393">
        <ele>110</ele>
        <time>2026-02-11T12:04:05.184+00:00</time>
      </trkpt>
      <trkpt lat="48.43898" lon="2.69393">
        <ele>110</ele>
        <time>2026-02-11T12:04:09.639+00:00</time>
      </trkpt>
      <trkpt lat="48.439" lon="2.69395">
        <ele>110</ele>
        <time>2026-02-11T12:04:13.902+00:00</time>
      </trkpt>
      <trkpt lat="48.43899" lon="2.69398">
        <ele>110</ele>
        <time>2026-02-11T12:04:18.323+00:00</time>
      </trkpt>
      <trkpt lat="48.43898" lon="2.69405">
        <ele>111</ele>
        <time>2026-02-11T12:04:22.782+00:00</time>
      </trkpt>
      <trkpt lat="48.43896" lon="2.69406">
        <ele>111</ele>
        <time>2026-02-11T12:04:26.997+00:00</time>
      </trkpt>
      <trkpt lat="48.43896" lon="2.69406">
        <ele>111</ele>
        <time>2026-02-11T12:04:31.322+00:00</time>
      </trkpt>
      <trkpt lat="48.43893" lon="2.6941">
        <ele>111</ele>
        <time>2026-02-11T12:04:35.622+00:00</time>
      </trkpt>
      <trkpt lat="48.4389" lon="2.69418">
        <ele>111</ele>
        <time>2026-02-11T12:04:39.904+00:00</time>
      </trkpt>
      <trkpt lat="48.43887" lon="2.69426">
        <ele>111</ele>
        <time>2026-02-11T12:04:44.298+00:00</time>
      </trkpt>
      <trkpt lat="48.43885" lon="2.69429">
        <ele>111</ele>
        <time>2026-02-11T12:04:48.725+00:00</time>
      </trkpt>
      <trkpt lat="48.4388" lon="2.69426">
        <ele>111</ele>
        <time>2026-02-11T12:04:53.322+00:00</time>
      </trkpt>
      <trkpt lat="48.43878" lon="2.69428">
        <ele>111</ele>
        <time>2026-02-11T12:04:57.323+00:00</time>
      </trkpt>
      <trkpt lat="48.43879" lon="2.69434">
        <ele>112</ele>
        <time>2026-02-11T12:05:02.323+00:00</time>
      </trkpt>
      <trkpt lat="48.4388" lon="2.69436">
        <ele>112</ele>
        <time>2026-02-11T12:05:06.323+00:00</time>
      </trkpt>
      <trkpt lat="48.43878" lon="2.69442">
        <ele>112</ele>
        <time>2026-02-11T12:05:10.684+00:00</time>
      </trkpt>
      <trkpt lat="48.43879" lon="2.69448">
        <ele>112</ele>
        <time>2026-02-11T12:05:14.839+00:00</time>
      </trkpt>
      <trkpt lat="48.43879" lon="2.69456">
        <ele>112</ele>
        <time>2026-02-11T12:05:32.323+00:00</time>
      </trkpt>
      <trkpt lat="48.4388" lon="2.69461">
        <ele>111</ele>
        <time>2026-02-11T12:05:36.778+00:00</time>
      </trkpt>
      <trkpt lat="48.43882" lon="2.69467">
        <ele>111</ele>
        <time>2026-02-11T12:05:41.322+00:00</time>
      </trkpt>
      <trkpt lat="48.43879" lon="2.69472">
        <ele>111</ele>
        <time>2026-02-11T12:05:45.851+00:00</time>
      </trkpt>
      <trkpt lat="48.43877" lon="2.69479">
        <ele>111</ele>
        <time>2026-02-11T12:05:50.322+00:00</time>
      </trkpt>
      <trkpt lat="48.43877" lon="2.69486">
        <ele>112</ele>
        <time>2026-02-11T12:05:54.821+00:00</time>
      </trkpt>
      <trkpt lat="48.43875" lon="2.69492">
        <ele>111</ele>
        <time>2026-02-11T12:05:59.180+00:00</time>
      </trkpt>
      <trkpt lat="48.43871" lon="2.69494">
        <ele>111</ele>
        <time>2026-02-11T12:06:03.318+00:00</time>
      </trkpt>
      <trkpt lat="48.43869" lon="2.69498">
        <ele>111</ele>
        <time>2026-02-11T12:06:07.685+00:00</time>
      </trkpt>
      <trkpt lat="48.4387" lon="2.69504">
        <ele>111</ele>
        <time>2026-02-11T12:06:11.780+00:00</time>
      </trkpt>
      <trkpt lat="48.43869" lon="2.6951">
        <ele>111</ele>
        <time>2026-02-11T12:06:16.284+00:00</time>
      </trkpt>
      <trkpt lat="48.43865" lon="2.69511">
        <ele>111</ele>
        <time>2026-02-11T12:06:20.746+00:00</time>
      </trkpt>
      <trkpt lat="48.4386" lon="2.69511">
        <ele>111</ele>
        <time>2026-02-11T12:06:25.163+00:00</time>
      </trkpt>
      <trkpt lat="48.43857" lon="2.69511">
        <ele>111</ele>
        <time>2026-02-11T12:06:29.316+00:00</time>
      </trkpt>
      <trkpt lat="48.43853" lon="2.69509">
        <ele>111</ele>
        <time>2026-02-11T12:06:33.404+00:00</time>
      </trkpt>
      <trkpt lat="48.43848" lon="2.69507">
        <ele>111</ele>
        <time>2026-02-11T12:06:38.315+00:00</time>
      </trkpt>
      <trkpt lat="48.43843" lon="2.69507">
        <ele>109</ele>
        <time>2026-02-11T12:06:42.763+00:00</time>
      </trkpt>
      <trkpt lat="48.43838" lon="2.69508">
        <ele>109</ele>
        <time>2026-02-11T12:06:46.882+00:00</time>
      </trkpt>
      <trkpt lat="48.43834" lon="2.6951">
        <ele>109</ele>
        <time>2026-02-11T12:06:51.302+00:00</time>
      </trkpt>
      <trkpt lat="48.43831" lon="2.69513">
        <ele>109</ele>
        <time>2026-02-11T12:06:55.318+00:00</time>
      </trkpt>
      <trkpt lat="48.43827" lon="2.69517">
        <ele>110</ele>
        <time>2026-02-11T12:06:59.764+00:00</time>
      </trkpt>
      <trkpt lat="48.43824" lon="2.69521">
        <ele>110</ele>
        <time>2026-02-11T12:07:04.039+00:00</time>
      </trkpt>
      <trkpt lat="48.43821" lon="2.69525">
        <ele>110</ele>
        <time>2026-02-11T12:07:08.323+00:00</time>
      </trkpt>
      <trkpt lat="48.43816" lon="2.69527">
        <ele>108</ele>
        <time>2026-02-11T12:07:12.706+00:00</time>
      </trkpt>
      <trkpt lat="48.43811" lon="2.69528">
        <ele>108</ele>
        <time>2026-02-11T12:07:17.159+00:00</time>
      </trkpt>
      <trkpt lat="48.43806" lon="2.69529">
        <ele>108</ele>
        <time>2026-02-11T12:07:21.679+00:00</time>
      </trkpt>
      <trkpt lat="48.43803" lon="2.69531">
        <ele>108</ele>
        <time>2026-02-11T12:07:25.723+00:00</time>
      </trkpt>
      <trkpt lat="48.43799" lon="2.69532">
        <ele>108</ele>
        <time>2026-02-11T12:07:30.098+00:00</time>
      </trkpt>
      <trkpt lat="48.43795" lon="2.69534">
        <ele>108</ele>
        <time>2026-02-11T12:07:34.279+00:00</time>
      </trkpt>
      <trkpt lat="48.43792" lon="2.69534">
        <ele>108</ele>
        <time>2026-02-11T12:07:38.317+00:00</time>
      </trkpt>
      <trkpt lat="48.43791" lon="2.6954">
        <ele>106</ele>
        <time>2026-02-11T12:07:42.817+00:00</time>
      </trkpt>
      <trkpt lat="48.43787" lon="2.69546">
        <ele>107</ele>
        <time>2026-02-11T12:07:47.317+00:00</time>
      </trkpt>
      <trkpt lat="48.43782" lon="2.69549">
        <ele>107</ele>
        <time>2026-02-11T12:07:52.317+00:00</time>
      </trkpt>
      <trkpt lat="48.43777" lon="2.69547">
        <ele>107</ele>
        <time>2026-02-11T12:07:57.243+00:00</time>
      </trkpt>
      <trkpt lat="48.43774" lon="2.69547">
        <ele>107</ele>
        <time>2026-02-11T12:08:01.321+00:00</time>
      </trkpt>
      <trkpt lat="48.43771" lon="2.6955">
        <ele>107</ele>
        <time>2026-02-11T12:08:05.317+00:00</time>
      </trkpt>
      <trkpt lat="48.43769" lon="2.69552">
        <ele>107</ele>
        <time>2026-02-11T12:08:10.023+00:00</time>
      </trkpt>
      <trkpt lat="48.43765" lon="2.69553">
        <ele>107</ele>
        <time>2026-02-11T12:08:14.578+00:00</time>
      </trkpt>
      <trkpt lat="48.43762" lon="2.69557">
        <ele>105</ele>
        <time>2026-02-11T12:08:18.841+00:00</time>
      </trkpt>
      <trkpt lat="48.43758" lon="2.69553">
        <ele>105</ele>
        <time>2026-02-11T12:08:23.317+00:00</time>
      </trkpt>
      <trkpt lat="48.43755" lon="2.69551">
        <ele>105</ele>
        <time>2026-02-11T12:08:28.317+00:00</time>
      </trkpt>
      <trkpt lat="48.43752" lon="2.69553">
        <ele>105</ele>
        <time>2026-02-11T12:08:32.919+00:00</time>
      </trkpt>
      <trkpt lat="48.43748" lon="2.69555">
        <ele>105</ele>
        <time>2026-02-11T12:08:37.317+00:00</time>
      </trkpt>
      <trkpt lat="48.43744" lon="2.69559">
        <ele>105</ele>
        <time>2026-02-11T12:08:41.809+00:00</time>
      </trkpt>
      <trkpt lat="48.43741" lon="2.69563">
        <ele>105</ele>
        <time>2026-02-11T12:08:45.859+00:00</time>
      </trkpt>
      <trkpt lat="48.43735" lon="2.69564">
        <ele>102</ele>
        <time>2026-02-11T12:08:50.317+00:00</time>
      </trkpt>
      <trkpt lat="48.43733" lon="2.69567">
        <ele>102</ele>
        <time>2026-02-11T12:08:54.783+00:00</time>
      </trkpt>
      <trkpt lat="48.43729" lon="2.6957">
        <ele>104</ele>
        <time>2026-02-11T12:08:58.944+00:00</time>
      </trkpt>
      <trkpt lat="48.43726" lon="2.69575">
        <ele>104</ele>
        <time>2026-02-11T12:09:03.320+00:00</time>
      </trkpt>
      <trkpt lat="48.43726" lon="2.69582">
        <ele>104</ele>
        <time>2026-02-11T12:09:07.858+00:00</time>
      </trkpt>
      <trkpt lat="48.43727" lon="2.69589">
        <ele>104</ele>
        <time>2026-02-11T12:09:12.158+00:00</time>
      </trkpt>
      <trkpt lat="48.43725" lon="2.69594">
        <ele>104</ele>
        <time>2026-02-11T12:09:16.884+00:00</time>
      </trkpt>
      <trkpt lat="48.43722" lon="2.69595">
        <ele>104</ele>
        <time>2026-02-11T12:09:20.901+00:00</time>
      </trkpt>
      <trkpt lat="48.43718" lon="2.69597">
        <ele>104</ele>
        <time>2026-02-11T12:09:25.303+00:00</time>
      </trkpt>
      <trkpt lat="48.43716" lon="2.69595">
        <ele>104</ele>
        <time>2026-02-11T12:09:29.317+00:00</time>
      </trkpt>
      <trkpt lat="48.43715" lon="2.69596">
        <ele>104</ele>
        <time>2026-02-11T12:09:34.243+00:00</time>
      </trkpt>
      <trkpt lat="48.43712" lon="2.69603">
        <ele>106</ele>
        <time>2026-02-11T12:09:38.317+00:00</time>
      </trkpt>
      <trkpt lat="48.43712" lon="2.69607">
        <ele>106</ele>
        <time>2026-02-11T12:09:42.798+00:00</time>
      </trkpt>
      <trkpt lat="48.43708" lon="2.69611">
        <ele>104</ele>
        <time>2026-02-11T12:09:46.858+00:00</time>
      </trkpt>
      <trkpt lat="48.43705" lon="2.69613">
        <ele>104</ele>
        <time>2026-02-11T12:09:51.158+00:00</time>
      </trkpt>
      <trkpt lat="48.43702" lon="2.69618">
        <ele>104</ele>
        <time>2026-02-11T12:09:55.317+00:00</time>
      </trkpt>
      <trkpt lat="48.437" lon="2.69621">
        <ele>104</ele>
        <time>2026-02-11T12:09:59.824+00:00</time>
      </trkpt>
      <trkpt lat="48.43696" lon="2.69625">
        <ele>104</ele>
        <time>2026-02-11T12:10:04.022+00:00</time>
      </trkpt>
      <trkpt lat="48.43693" lon="2.6963">
        <ele>105</ele>
        <time>2026-02-11T12:10:08.261+00:00</time>
      </trkpt>
      <trkpt lat="48.43691" lon="2.69636">
        <ele>105</ele>
        <time>2026-02-11T12:10:12.543+00:00</time>
      </trkpt>
      <trkpt lat="48.43689" lon="2.69642">
        <ele>105</ele>
        <time>2026-02-11T12:10:16.920+00:00</time>
      </trkpt>
      <trkpt lat="48.43682" lon="2.69647">
        <ele>105</ele>
        <time>2026-02-11T12:10:47.317+00:00</time>
      </trkpt>
      <trkpt lat="48.43677" lon="2.69649">
        <ele>102</ele>
        <time>2026-02-11T12:10:52.317+00:00</time>
      </trkpt>
      <trkpt lat="48.4367" lon="2.69655">
        <ele>102</ele>
        <time>2026-02-11T12:10:56.703+00:00</time>
      </trkpt>
      <trkpt lat="48.43664" lon="2.69656">
        <ele>102</ele>
        <time>2026-02-11T12:11:00.882+00:00</time>
      </trkpt>
      <trkpt lat="48.43661" lon="2.69659">
        <ele>102</ele>
        <time>2026-02-11T12:11:05.021+00:00</time>
      </trkpt>
      <trkpt lat="48.43657" lon="2.69659">
        <ele>102</ele>
        <time>2026-02-11T12:11:09.317+00:00</time>
      </trkpt>
      <trkpt lat="48.43652" lon="2.69662">
        <ele>99</ele>
        <time>2026-02-11T12:11:14.071+00:00</time>
      </trkpt>
      <trkpt lat="48.4365" lon="2.69666">
        <ele>99</ele>
        <time>2026-02-11T12:11:18.317+00:00</time>
      </trkpt>
      <trkpt lat="48.4365" lon="2.69672">
        <ele>99</ele>
        <time>2026-02-11T12:11:22.864+00:00</time>
      </trkpt>
      <trkpt lat="48.43649" lon="2.6968">
        <ele>99</ele>
        <time>2026-02-11T12:11:26.942+00:00</time>
      </trkpt>
      <trkpt lat="48.43648" lon="2.69687">
        <ele>99</ele>
        <time>2026-02-11T12:11:31.284+00:00</time>
      </trkpt>
      <trkpt lat="48.43647" lon="2.69695">
        <ele>99</ele>
        <time>2026-02-11T12:11:35.836+00:00</time>
      </trkpt>
      <trkpt lat="48.43644" lon="2.69702">
        <ele>99</ele>
        <time>2026-02-11T12:11:39.943+00:00</time>
      </trkpt>
      <trkpt lat="48.43643" lon="2.69711">
        <ele>100</ele>
        <time>2026-02-11T12:11:44.317+00:00</time>
      </trkpt>
      <trkpt lat="48.43642" lon="2.69719">
        <ele>100</ele>
        <time>2026-02-11T12:11:48.983+00:00</time>
      </trkpt>
      <trkpt lat="48.43642" lon="2.69727">
        <ele>100</ele>
        <time>2026-02-11T12:11:53.283+00:00</time>
      </trkpt>
      <trkpt lat="48.4364" lon="2.69734">
        <ele>100</ele>
        <time>2026-02-11T12:11:57.317+00:00</time>
      </trkpt>
      <trkpt lat="48.43638" lon="2.69742">
        <ele>101</ele>
        <time>2026-02-11T12:12:01.780+00:00</time>
      </trkpt>
      <trkpt lat="48.43636" lon="2.6975">
        <ele>101</ele>
        <time>2026-02-11T12:12:06.283+00:00</time>
      </trkpt>
      <trkpt lat="48.43634" lon="2.69759">
        <ele>101</ele>
        <time>2026-02-11T12:12:10.744+00:00</time>
      </trkpt>
      <trkpt lat="48.43632" lon="2.69767">
        <ele>103</ele>
        <time>2026-02-11T12:12:14.761+00:00</time>
      </trkpt>
      <trkpt lat="48.43631" lon="2.69775">
        <ele>103</ele>
        <time>2026-02-11T12:12:19.265+00:00</time>
      </trkpt>
      <trkpt lat="48.43629" lon="2.69784">
        <ele>103</ele>
        <time>2026-02-11T12:12:23.718+00:00</time>
      </trkpt>
      <trkpt lat="48.43628" lon="2.69793">
        <ele>105</ele>
        <time>2026-02-11T12:12:28.298+00:00</time>
      </trkpt>
      <trkpt lat="48.43626" lon="2.69802">
        <ele>105</ele>
        <time>2026-02-11T12:12:32.820+00:00</time>
      </trkpt>
      <trkpt lat="48.43625" lon="2.69811">
        <ele>105</ele>
        <time>2026-02-11T12:12:37.263+00:00</time>
      </trkpt>
      <trkpt lat="48.43624" lon="2.6982">
        <ele>105</ele>
        <time>2026-02-11T12:12:41.785+00:00</time>
      </trkpt>
      <trkpt lat="48.43622" lon="2.69828">
        <ele>105</ele>
        <time>2026-02-11T12:12:46.160+00:00</time>
      </trkpt>
      <trkpt lat="48.43621" lon="2.69837">
        <ele>105</ele>
        <time>2026-02-11T12:12:50.604+00:00</time>
      </trkpt>
      <trkpt lat="48.4362" lon="2.69845">
        <ele>105</ele>
        <time>2026-02-11T12:12:55.040+00:00</time>
      </trkpt>
      <trkpt lat="48.43619" lon="2.69854">
        <ele>106</ele>
        <time>2026-02-11T12:12:59.317+00:00</time>
      </trkpt>
      <trkpt lat="48.43617" lon="2.69863">
        <ele>106</ele>
        <time>2026-02-11T12:13:03.638+00:00</time>
      </trkpt>
      <trkpt lat="48.43615" lon="2.69871">
        <ele>106</ele>
        <time>2026-02-11T12:13:08.005+00:00</time>
      </trkpt>
      <trkpt lat="48.43613" lon="2.6988">
        <ele>107</ele>
        <time>2026-02-11T12:13:12.185+00:00</time>
      </trkpt>
      <trkpt lat="48.43611" lon="2.69889">
        <ele>107</ele>
        <time>2026-02-11T12:13:16.543+00:00</time>
      </trkpt>
      <trkpt lat="48.4361" lon="2.69898">
        <ele>107</ele>
        <time>2026-02-11T12:13:20.705+00:00</time>
      </trkpt>
      <trkpt lat="48.43608" lon="2.699">
        <ele>107</ele>
        <time>2026-02-11T12:13:25.064+00:00</time>
      </trkpt>
      <trkpt lat="48.43607" lon="2.69902">
        <ele>107</ele>
        <time>2026-02-11T12:13:29.317+00:00</time>
      </trkpt>
      <trkpt lat="48.43606" lon="2.69916">
        <ele>106</ele>
        <time>2026-02-11T12:13:33.458+00:00</time>
      </trkpt>
      <trkpt lat="48.43605" lon="2.69927">
        <ele>106</ele>
        <time>2026-02-11T12:13:37.945+00:00</time>
      </trkpt>
      <trkpt lat="48.43604" lon="2.69935">
        <ele>107</ele>
        <time>2026-02-11T12:13:42.317+00:00</time>
      </trkpt>
      <trkpt lat="48.43602" lon="2.69943">
        <ele>107</ele>
        <time>2026-02-11T12:13:46.317+00:00</time>
      </trkpt>
      <trkpt lat="48.436" lon="2.69951">
        <ele>107</ele>
        <time>2026-02-11T12:13:51.021+00:00</time>
      </trkpt>
      <trkpt lat="48.43599" lon="2.69958">
        <ele>107</ele>
        <time>2026-02-11T12:13:55.405+00:00</time>
      </trkpt>
      <trkpt lat="48.43597" lon="2.69966">
        <ele>108</ele>
        <time>2026-02-11T12:13:59.645+00:00</time>
      </trkpt>
      <trkpt lat="48.43595" lon="2.69975">
        <ele>108</ele>
        <time>2026-02-11T12:14:04.105+00:00</time>
      </trkpt>
      <trkpt lat="48.43594" lon="2.69984">
        <ele>108</ele>
        <time>2026-02-11T12:14:08.644+00:00</time>
      </trkpt>
      <trkpt lat="48.43592" lon="2.69993">
        <ele>109</ele>
        <time>2026-02-11T12:14:13.045+00:00</time>
      </trkpt>
      <trkpt lat="48.4359" lon="2.70002">
        <ele>109</ele>
        <time>2026-02-11T12:14:17.498+00:00</time>
      </trkpt>
      <trkpt lat="48.43588" lon="2.7001">
        <ele>109</ele>
        <time>2026-02-11T12:14:21.926+00:00</time>
      </trkpt>
      <trkpt lat="48.43586" lon="2.70017">
        <ele>111</ele>
        <time>2026-02-11T12:14:26.021+00:00</time>
      </trkpt>
      <trkpt lat="48.43586" lon="2.70025">
        <ele>111</ele>
        <time>2026-02-11T12:14:30.317+00:00</time>
      </trkpt>
      <trkpt lat="48.43584" lon="2.70034">
        <ele>111</ele>
        <time>2026-02-11T12:14:34.839+00:00</time>
      </trkpt>
      <trkpt lat="48.43582" lon="2.70042">
        <ele>113</ele>
        <time>2026-02-11T12:14:39.317+00:00</time>
      </trkpt>
      <trkpt lat="48.43579" lon="2.70051">
        <ele>113</ele>
        <time>2026-02-11T12:14:43.864+00:00</time>
      </trkpt>
      <trkpt lat="48.43578" lon="2.70059">
        <ele>113</ele>
        <time>2026-02-11T12:14:48.317+00:00</time>
      </trkpt>
      <trkpt lat="48.43578" lon="2.70068">
        <ele>113</ele>
        <time>2026-02-11T12:14:52.725+00:00</time>
      </trkpt>
      <trkpt lat="48.43577" lon="2.70076">
        <ele>115</ele>
        <time>2026-02-11T12:14:57.101+00:00</time>
      </trkpt>
      <trkpt lat="48.43575" lon="2.70085">
        <ele>115</ele>
        <time>2026-02-11T12:15:01.562+00:00</time>
      </trkpt>
      <trkpt lat="48.43572" lon="2.70092">
        <ele>115</ele>
        <time>2026-02-11T12:15:05.665+00:00</time>
      </trkpt>
      <trkpt lat="48.4357" lon="2.701">
        <ele>115</ele>
        <time>2026-02-11T12:15:10.317+00:00</time>
      </trkpt>
      <trkpt lat="48.43569" lon="2.70094">
        <ele>115</ele>
        <time>2026-02-11T12:16:41.317+00:00</time>
      </trkpt>
      <trkpt lat="48.4357" lon="2.70102">
        <ele>115</ele>
        <time>2026-02-11T12:16:45.985+00:00</time>
      </trkpt>
      <trkpt lat="48.4357" lon="2.70107">
        <ele>115</ele>
        <time>2026-02-11T12:16:50.317+00:00</time>
      </trkpt>
      <trkpt lat="48.4357" lon="2.70108">
        <ele>115</ele>
        <time>2026-02-11T12:16:54.317+00:00</time>
      </trkpt>
      <trkpt lat="48.4357" lon="2.70113">
        <ele>115</ele>
        <time>2026-02-11T12:16:59.062+00:00</time>
      </trkpt>
      <trkpt lat="48.4357" lon="2.70115">
        <ele>115</ele>
        <time>2026-02-11T12:17:04.137+00:00</time>
      </trkpt>
      <trkpt lat="48.4357" lon="2.70126">
        <ele>116</ele>
        <time>2026-02-11T12:17:08.317+00:00</time>
      </trkpt>
      <trkpt lat="48.43569" lon="2.70136">
        <ele>117</ele>
        <time>2026-02-11T12:17:12.317+00:00</time>
      </trkpt>
      <trkpt lat="48.43568" lon="2.70145">
        <ele>117</ele>
        <time>2026-02-11T12:17:17.120+00:00</time>
      </trkpt>
      <trkpt lat="48.43567" lon="2.70154">
        <ele>117</ele>
        <time>2026-02-11T12:17:21.327+00:00</time>
      </trkpt>
      <trkpt lat="48.43567" lon="2.70161">
        <ele>117</ele>
        <time>2026-02-11T12:17:25.342+00:00</time>
      </trkpt>
      <trkpt lat="48.43568" lon="2.70169">
        <ele>117</ele>
        <time>2026-02-11T12:17:29.839+00:00</time>
      </trkpt>
      <trkpt lat="48.43566" lon="2.70177">
        <ele>117</ele>
        <time>2026-02-11T12:17:34.224+00:00</time>
      </trkpt>
      <trkpt lat="48.43569" lon="2.70195">
        <ele>117</ele>
        <time>2026-02-11T12:17:52.905+00:00</time>
      </trkpt>
      <trkpt lat="48.43569" lon="2.70195">
        <ele>117</ele>
        <time>2026-02-11T12:17:57.158+00:00</time>
      </trkpt>
      <trkpt lat="48.4357" lon="2.70202">
        <ele>117</ele>
        <time>2026-02-11T12:18:01.906+00:00</time>
      </trkpt>
      <trkpt lat="48.4357" lon="2.70211">
        <ele>119</ele>
        <time>2026-02-11T12:18:06.317+00:00</time>
      </trkpt>
      <trkpt lat="48.43568" lon="2.70215">
        <ele>118</ele>
        <time>2026-02-11T12:18:10.357+00:00</time>
      </trkpt>
      <trkpt lat="48.43566" lon="2.7022">
        <ele>118</ele>
        <time>2026-02-11T12:18:14.624+00:00</time>
      </trkpt>
      <trkpt lat="48.43566" lon="2.70228">
        <ele>118</ele>
        <time>2026-02-11T12:18:18.701+00:00</time>
      </trkpt>
      <trkpt lat="48.43566" lon="2.70235">
        <ele>118</ele>
        <time>2026-02-11T12:18:22.779+00:00</time>
      </trkpt>
      <trkpt lat="48.43566" lon="2.70242">
        <ele>119</ele>
        <time>2026-02-11T12:18:26.941+00:00</time>
      </trkpt>
      <trkpt lat="48.43566" lon="2.7025">
        <ele>119</ele>
        <time>2026-02-11T12:18:31.061+00:00</time>
      </trkpt>
      <trkpt lat="48.43565" lon="2.70257">
        <ele>119</ele>
        <time>2026-02-11T12:18:35.317+00:00</time>
      </trkpt>
      <trkpt lat="48.43565" lon="2.70264">
        <ele>120</ele>
        <time>2026-02-11T12:18:39.414+00:00</time>
      </trkpt>
      <trkpt lat="48.43564" lon="2.70273">
        <ele>120</ele>
        <time>2026-02-11T12:18:44.317+00:00</time>
      </trkpt>
      <trkpt lat="48.43563" lon="2.70281">
        <ele>120</ele>
        <time>2026-02-11T12:18:48.882+00:00</time>
      </trkpt>
      <trkpt lat="48.43563" lon="2.7029">
        <ele>120</ele>
        <time>2026-02-11T12:18:53.317+00:00</time>
      </trkpt>
      <trkpt lat="48.43564" lon="2.70299">
        <ele>121</ele>
        <time>2026-02-11T12:18:58.079+00:00</time>
      </trkpt>
      <trkpt lat="48.43566" lon="2.70306">
        <ele>121</ele>
        <time>2026-02-11T12:19:02.317+00:00</time>
      </trkpt>
      <trkpt lat="48.43564" lon="2.70315">
        <ele>121</ele>
        <time>2026-02-11T12:19:06.839+00:00</time>
      </trkpt>
      <trkpt lat="48.43563" lon="2.70324">
        <ele>123</ele>
        <time>2026-02-11T12:19:11.317+00:00</time>
      </trkpt>
      <trkpt lat="48.43562" lon="2.70333">
        <ele>123</ele>
        <time>2026-02-11T12:19:16.137+00:00</time>
      </trkpt>
      <trkpt lat="48.43563" lon="2.70341">
        <ele>123</ele>
        <time>2026-02-11T12:19:20.317+00:00</time>
      </trkpt>
      <trkpt lat="48.43563" lon="2.70349">
        <ele>125</ele>
        <time>2026-02-11T12:19:24.317+00:00</time>
      </trkpt>
      <trkpt lat="48.43563" lon="2.70359">
        <ele>125</ele>
        <time>2026-02-11T12:19:28.884+00:00</time>
      </trkpt>
      <trkpt lat="48.43563" lon="2.70368">
        <ele>125</ele>
        <time>2026-02-11T12:19:33.317+00:00</time>
      </trkpt>
      <trkpt lat="48.43563" lon="2.70378">
        <ele>126</ele>
        <time>2026-02-11T12:19:38.139+00:00</time>
      </trkpt>
      <trkpt lat="48.43562" lon="2.70385">
        <ele>126</ele>
        <time>2026-02-11T12:19:42.325+00:00</time>
      </trkpt>
      <trkpt lat="48.43562" lon="2.70392">
        <ele>126</ele>
        <time>2026-02-11T12:19:46.317+00:00</time>
      </trkpt>
      <trkpt lat="48.43561" lon="2.704">
        <ele>126</ele>
        <time>2026-02-11T12:19:50.659+00:00</time>
      </trkpt>
      <trkpt lat="48.43562" lon="2.70407">
        <ele>128</ele>
        <time>2026-02-11T12:19:54.720+00:00</time>
      </trkpt>
      <trkpt lat="48.43562" lon="2.70415">
        <ele>128</ele>
        <time>2026-02-11T12:19:58.985+00:00</time>
      </trkpt>
      <trkpt lat="48.43561" lon="2.70422">
        <ele>128</ele>
        <time>2026-02-11T12:20:03.045+00:00</time>
      </trkpt>
      <trkpt lat="48.4356" lon="2.7043">
        <ele>128</ele>
        <time>2026-02-11T12:20:07.317+00:00</time>
      </trkpt>
      <trkpt lat="48.4356" lon="2.70439">
        <ele>129</ele>
        <time>2026-02-11T12:20:12.317+00:00</time>
      </trkpt>
      <trkpt lat="48.4356" lon="2.70448">
        <ele>129</ele>
        <time>2026-02-11T12:20:16.881+00:00</time>
      </trkpt>
      <trkpt lat="48.43559" lon="2.70456">
        <ele>129</ele>
        <time>2026-02-11T12:20:21.138+00:00</time>
      </trkpt>
      <trkpt lat="48.43559" lon="2.70463">
        <ele>130</ele>
        <time>2026-02-11T12:20:25.224+00:00</time>
      </trkpt>
      <trkpt lat="48.43559" lon="2.70471">
        <ele>130</ele>
        <time>2026-02-11T12:20:29.643+00:00</time>
      </trkpt>
      <trkpt lat="48.4356" lon="2.70479">
        <ele>130</ele>
        <time>2026-02-11T12:20:34.163+00:00</time>
      </trkpt>
      <trkpt lat="48.43559" lon="2.70487">
        <ele>132</ele>
        <time>2026-02-11T12:20:38.317+00:00</time>
      </trkpt>
      <trkpt lat="48.43558" lon="2.70495">
        <ele>132</ele>
        <time>2026-02-11T12:20:42.841+00:00</time>
      </trkpt>
      <trkpt lat="48.43557" lon="2.70503">
        <ele>132</ele>
        <time>2026-02-11T12:20:47.317+00:00</time>
      </trkpt>
      <trkpt lat="48.43558" lon="2.70513">
        <ele>132</ele>
        <time>2026-02-11T12:20:52.017+00:00</time>
      </trkpt>
      <trkpt lat="48.43557" lon="2.70523">
        <ele>133</ele>
        <time>2026-02-11T12:20:57.282+00:00</time>
      </trkpt>
      <trkpt lat="48.43557" lon="2.70531">
        <ele>133</ele>
        <time>2026-02-11T12:21:01.758+00:00</time>
      </trkpt>
      <trkpt lat="48.43555" lon="2.70538">
        <ele>133</ele>
        <time>2026-02-11T12:21:06.202+00:00</time>
      </trkpt>
      <trkpt lat="48.43553" lon="2.70545">
        <ele>135</ele>
        <time>2026-02-11T12:21:10.317+00:00</time>
      </trkpt>
      <trkpt lat="48.43552" lon="2.70553">
        <ele>135</ele>
        <time>2026-02-11T12:21:15.244+00:00</time>
      </trkpt>
      <trkpt lat="48.43552" lon="2.70559">
        <ele>135</ele>
        <time>2026-02-11T12:21:19.317+00:00</time>
      </trkpt>
      <trkpt lat="48.43551" lon="2.70567">
        <ele>135</ele>
        <time>2026-02-11T12:21:24.277+00:00</time>
      </trkpt>
      <trkpt lat="48.4355" lon="2.70577">
        <ele>136</ele>
        <time>2026-02-11T12:21:28.722+00:00</time>
      </trkpt>
      <trkpt lat="48.43549" lon="2.70585">
        <ele>136</ele>
        <time>2026-02-11T12:21:33.317+00:00</time>
      </trkpt>
      <trkpt lat="48.43547" lon="2.70593">
        <ele>136</ele>
        <time>2026-02-11T12:21:37.943+00:00</time>
      </trkpt>
      <trkpt lat="48.43545" lon="2.70602">
        <ele>137</ele>
        <time>2026-02-11T12:21:42.317+00:00</time>
      </trkpt>
      <trkpt lat="48.43543" lon="2.7061">
        <ele>137</ele>
        <time>2026-02-11T12:21:47.079+00:00</time>
      </trkpt>
      <trkpt lat="48.43541" lon="2.70621">
        <ele>134</ele>
        <time>2026-02-11T12:21:52.162+00:00</time>
      </trkpt>
      <trkpt lat="48.43539" lon="2.70629">
        <ele>134</ele>
        <time>2026-02-11T12:21:56.803+00:00</time>
      </trkpt>
      <trkpt lat="48.43538" lon="2.70638">
        <ele>134</ele>
        <time>2026-02-11T12:22:01.204+00:00</time>
      </trkpt>
      <trkpt lat="48.43538" lon="2.70646">
        <ele>134</ele>
        <time>2026-02-11T12:22:05.317+00:00</time>
      </trkpt>
      <trkpt lat="48.43537" lon="2.70654">
        <ele>133</ele>
        <time>2026-02-11T12:22:09.819+00:00</time>
      </trkpt>
      <trkpt lat="48.43535" lon="2.70663">
        <ele>133</ele>
        <time>2026-02-11T12:22:14.101+00:00</time>
      </trkpt>
      <trkpt lat="48.43533" lon="2.70671">
        <ele>133</ele>
        <time>2026-02-11T12:22:18.323+00:00</time>
      </trkpt>
      <trkpt lat="48.43532" lon="2.70679">
        <ele>133</ele>
        <time>2026-02-11T12:22:22.622+00:00</time>
      </trkpt>
      <trkpt lat="48.43531" lon="2.70688">
        <ele>133</ele>
        <time>2026-02-11T12:22:27.041+00:00</time>
      </trkpt>
      <trkpt lat="48.43529" lon="2.70697">
        <ele>133</ele>
        <time>2026-02-11T12:22:31.317+00:00</time>
      </trkpt>
      <trkpt lat="48.43529" lon="2.70706">
        <ele>133</ele>
        <time>2026-02-11T12:22:35.903+00:00</time>
      </trkpt>
      <trkpt lat="48.43525" lon="2.70713">
        <ele>132</ele>
        <time>2026-02-11T12:22:40.317+00:00</time>
      </trkpt>
      <trkpt lat="48.43523" lon="2.70721">
        <ele>132</ele>
        <time>2026-02-11T12:22:44.637+00:00</time>
      </trkpt>
      <trkpt lat="48.43522" lon="2.70731">
        <ele>132</ele>
        <time>2026-02-11T12:22:49.317+00:00</time>
      </trkpt>
      <trkpt lat="48.43521" lon="2.70742">
        <ele>131</ele>
        <time>2026-02-11T12:22:54.317+00:00</time>
      </trkpt>
      <trkpt lat="48.4352" lon="2.70751">
        <ele>131</ele>
        <time>2026-02-11T12:22:58.583+00:00</time>
      </trkpt>
      <trkpt lat="48.43519" lon="2.7076">
        <ele>131</ele>
        <time>2026-02-11T12:23:02.865+00:00</time>
      </trkpt>
      <trkpt lat="48.43517" lon="2.7077">
        <ele>131</ele>
        <time>2026-02-11T12:23:07.259+00:00</time>
      </trkpt>
      <trkpt lat="48.43516" lon="2.70777">
        <ele>131</ele>
        <time>2026-02-11T12:23:11.317+00:00</time>
      </trkpt>
      <trkpt lat="48.43515" lon="2.70787">
        <ele>131</ele>
        <time>2026-02-11T12:23:16.155+00:00</time>
      </trkpt>
      <trkpt lat="48.43513" lon="2.70796">
        <ele>126</ele>
        <time>2026-02-11T12:23:20.259+00:00</time>
      </trkpt>
      <trkpt lat="48.43512" lon="2.70805">
        <ele>126</ele>
        <time>2026-02-11T12:23:24.317+00:00</time>
      </trkpt>
      <trkpt lat="48.4351" lon="2.70814">
        <ele>126</ele>
        <time>2026-02-11T12:23:28.963+00:00</time>
      </trkpt>
      <trkpt lat="48.43509" lon="2.70823">
        <ele>126</ele>
        <time>2026-02-11T12:23:33.317+00:00</time>
      </trkpt>
      <trkpt lat="48.43508" lon="2.70831">
        <ele>126</ele>
        <time>2026-02-11T12:23:37.317+00:00</time>
      </trkpt>
      <trkpt lat="48.43507" lon="2.7084">
        <ele>126</ele>
        <time>2026-02-11T12:23:41.572+00:00</time>
      </trkpt>
      <trkpt lat="48.43506" lon="2.70849">
        <ele>125</ele>
        <time>2026-02-11T12:23:45.958+00:00</time>
      </trkpt>
      <trkpt lat="48.43504" lon="2.70858">
        <ele>125</ele>
        <time>2026-02-11T12:23:50.272+00:00</time>
      </trkpt>
      <trkpt lat="48.43503" lon="2.70868">
        <ele>125</ele>
        <time>2026-02-11T12:23:55.018+00:00</time>
      </trkpt>
      <trkpt lat="48.43501" lon="2.70877">
        <ele>126</ele>
        <time>2026-02-11T12:23:59.390+00:00</time>
      </trkpt>
      <trkpt lat="48.43498" lon="2.70888">
        <ele>126</ele>
        <time>2026-02-11T12:24:04.317+00:00</time>
      </trkpt>
      <trkpt lat="48.43498" lon="2.70897">
        <ele>126</ele>
        <time>2026-02-11T12:24:08.698+00:00</time>
      </trkpt>
      <trkpt lat="48.43496" lon="2.70906">
        <ele>125</ele>
        <time>2026-02-11T12:24:13.317+00:00</time>
      </trkpt>
      <trkpt lat="48.43495" lon="2.70915">
        <ele>125</ele>
        <time>2026-02-11T12:24:17.874+00:00</time>
      </trkpt>
      <trkpt lat="48.43495" lon="2.70924">
        <ele>125</ele>
        <time>2026-02-11T12:24:22.039+00:00</time>
      </trkpt>
      <trkpt lat="48.43493" lon="2.70934">
        <ele>124</ele>
        <time>2026-02-11T12:24:26.317+00:00</time>
      </trkpt>
      <trkpt lat="48.43491" lon="2.70943">
        <ele>124</ele>
        <time>2026-02-11T12:24:30.317+00:00</time>
      </trkpt>
      <trkpt lat="48.43491" lon="2.70952">
        <ele>124</ele>
        <time>2026-02-11T12:24:35.138+00:00</time>
      </trkpt>
      <trkpt lat="48.43489" lon="2.70961">
        <ele>123</ele>
        <time>2026-02-11T12:24:39.499+00:00</time>
      </trkpt>
      <trkpt lat="48.43487" lon="2.7097">
        <ele>123</ele>
        <time>2026-02-11T12:24:43.752+00:00</time>
      </trkpt>
      <trkpt lat="48.43485" lon="2.70978">
        <ele>123</ele>
        <time>2026-02-11T12:24:48.079+00:00</time>
      </trkpt>
      <trkpt lat="48.43484" lon="2.70987">
        <ele>122</ele>
        <time>2026-02-11T12:24:52.231+00:00</time>
      </trkpt>
      <trkpt lat="48.43482" lon="2.70996">
        <ele>122</ele>
        <time>2026-02-11T12:24:56.273+00:00</time>
      </trkpt>
      <trkpt lat="48.4348" lon="2.71003">
        <ele>122</ele>
        <time>2026-02-11T12:25:00.317+00:00</time>
      </trkpt>
      <trkpt lat="48.4348" lon="2.71012">
        <ele>122</ele>
        <time>2026-02-11T12:25:04.913+00:00</time>
      </trkpt>
      <trkpt lat="48.43482" lon="2.71018">
        <ele>122</ele>
        <time>2026-02-11T12:25:09.317+00:00</time>
      </trkpt>
      <trkpt lat="48.43476" lon="2.71026">
        <ele>122</ele>
        <time>2026-02-11T12:25:14.178+00:00</time>
      </trkpt>
      <trkpt lat="48.43478" lon="2.71037">
        <ele>122</ele>
        <time>2026-02-11T12:25:18.317+00:00</time>
      </trkpt>
      <trkpt lat="48.43483" lon="2.71045">
        <ele>122</ele>
        <time>2026-02-11T12:25:22.595+00:00</time>
      </trkpt>
      <trkpt lat="48.43489" lon="2.71049">
        <ele>121</ele>
        <time>2026-02-11T12:25:26.938+00:00</time>
      </trkpt>
      <trkpt lat="48.43492" lon="2.71055">
        <ele>121</ele>
        <time>2026-02-11T12:25:31.235+00:00</time>
      </trkpt>
      <trkpt lat="48.43495" lon="2.71058">
        <ele>121</ele>
        <time>2026-02-11T12:25:35.317+00:00</time>
      </trkpt>
      <trkpt lat="48.435" lon="2.71063">
        <ele>121</ele>
        <time>2026-02-11T12:25:39.817+00:00</time>
      </trkpt>
      <trkpt lat="48.43505" lon="2.71062">
        <ele>121</ele>
        <time>2026-02-11T12:25:44.317+00:00</time>
      </trkpt>
      <trkpt lat="48.4351" lon="2.71065">
        <ele>121</ele>
        <time>2026-02-11T12:25:48.813+00:00</time>
      </trkpt>
      <trkpt lat="48.43513" lon="2.71071">
        <ele>120</ele>
        <time>2026-02-11T12:25:53.215+00:00</time>
      </trkpt>
      <trkpt lat="48.43518" lon="2.71076">
        <ele>122</ele>
        <time>2026-02-11T12:25:57.276+00:00</time>
      </trkpt>
      <trkpt lat="48.43523" lon="2.7108">
        <ele>122</ele>
        <time>2026-02-11T12:26:01.738+00:00</time>
      </trkpt>
      <trkpt lat="48.43527" lon="2.71082">
        <ele>122</ele>
        <time>2026-02-11T12:26:05.958+00:00</time>
      </trkpt>
      <trkpt lat="48.43531" lon="2.71083">
        <ele>122</ele>
        <time>2026-02-11T12:26:10.573+00:00</time>
      </trkpt>
      <trkpt lat="48.43537" lon="2.71081">
        <ele>122</ele>
        <time>2026-02-11T12:26:15.239+00:00</time>
      </trkpt>
      <trkpt lat="48.43541" lon="2.71077">
        <ele>122</ele>
        <time>2026-02-11T12:26:19.972+00:00</time>
      </trkpt>
      <trkpt lat="48.43545" lon="2.71073">
        <ele>124</ele>
        <time>2026-02-11T12:26:24.032+00:00</time>
      </trkpt>
      <trkpt lat="48.4355" lon="2.71071">
        <ele>124</ele>
        <time>2026-02-11T12:26:28.211+00:00</time>
      </trkpt>
      <trkpt lat="48.43556" lon="2.71067">
        <ele>126</ele>
        <time>2026-02-11T12:26:32.698+00:00</time>
      </trkpt>
      <trkpt lat="48.4356" lon="2.71064">
        <ele>126</ele>
        <time>2026-02-11T12:26:37.193+00:00</time>
      </trkpt>
      <trkpt lat="48.43564" lon="2.71059">
        <ele>126</ele>
        <time>2026-02-11T12:26:41.671+00:00</time>
      </trkpt>
      <trkpt lat="48.43568" lon="2.71055">
        <ele>126</ele>
        <time>2026-02-11T12:26:45.697+00:00</time>
      </trkpt>
      <trkpt lat="48.43571" lon="2.71051">
        <ele>126</ele>
        <time>2026-02-11T12:26:49.834+00:00</time>
      </trkpt>
      <trkpt lat="48.43576" lon="2.71049">
        <ele>126</ele>
        <time>2026-02-11T12:26:53.937+00:00</time>
      </trkpt>
      <trkpt lat="48.43581" lon="2.71048">
        <ele>126</ele>
        <time>2026-02-11T12:26:58.317+00:00</time>
      </trkpt>
      <trkpt lat="48.43586" lon="2.71045">
        <ele>126</ele>
        <time>2026-02-11T12:27:02.398+00:00</time>
      </trkpt>
      <trkpt lat="48.4359" lon="2.71039">
        <ele>129</ele>
        <time>2026-02-11T12:27:06.773+00:00</time>
      </trkpt>
      <trkpt lat="48.43594" lon="2.71033">
        <ele>129</ele>
        <time>2026-02-11T12:27:10.978+00:00</time>
      </trkpt>
      <trkpt lat="48.43597" lon="2.71025">
        <ele>128</ele>
        <time>2026-02-11T12:27:15.338+00:00</time>
      </trkpt>
      <trkpt lat="48.436" lon="2.71018">
        <ele>128</ele>
        <time>2026-02-11T12:27:19.577+00:00</time>
      </trkpt>
      <trkpt lat="48.43604" lon="2.7101">
        <ele>131</ele>
        <time>2026-02-11T12:27:24.054+00:00</time>
      </trkpt>
      <trkpt lat="48.43608" lon="2.71003">
        <ele>131</ele>
        <time>2026-02-11T12:27:28.618+00:00</time>
      </trkpt>
      <trkpt lat="48.4361" lon="2.70996">
        <ele>131</ele>
        <time>2026-02-11T12:27:32.992+00:00</time>
      </trkpt>
      <trkpt lat="48.43613" lon="2.70991">
        <ele>131</ele>
        <time>2026-02-11T12:27:37.078+00:00</time>
      </trkpt>
      <trkpt lat="48.43617" lon="2.70986">
        <ele>134</ele>
        <time>2026-02-11T12:27:41.471+00:00</time>
      </trkpt>
      <trkpt lat="48.43621" lon="2.7098">
        <ele>134</ele>
        <time>2026-02-11T12:27:46.019+00:00</time>
      </trkpt>
      <trkpt lat="48.43625" lon="2.70974">
        <ele>134</ele>
        <time>2026-02-11T12:27:50.110+00:00</time>
      </trkpt>
      <trkpt lat="48.43628" lon="2.70968">
        <ele>131</ele>
        <time>2026-02-11T12:27:54.599+00:00</time>
      </trkpt>
      <trkpt lat="48.43631" lon="2.70963">
        <ele>131</ele>
        <time>2026-02-11T12:27:58.752+00:00</time>
      </trkpt>
      <trkpt lat="48.43634" lon="2.70957">
        <ele>134</ele>
        <time>2026-02-11T12:28:03.331+00:00</time>
      </trkpt>
      <trkpt lat="48.43636" lon="2.70952">
        <ele>134</ele>
        <time>2026-02-11T12:28:07.434+00:00</time>
      </trkpt>
      <trkpt lat="48.43639" lon="2.70946">
        <ele>134</ele>
        <time>2026-02-11T12:28:11.793+00:00</time>
      </trkpt>
      <trkpt lat="48.43642" lon="2.7094">
        <ele>134</ele>
        <time>2026-02-11T12:28:16.317+00:00</time>
      </trkpt>
      <trkpt lat="48.43645" lon="2.70933">
        <ele>134</ele>
        <time>2026-02-11T12:28:20.672+00:00</time>
      </trkpt>
      <trkpt lat="48.43648" lon="2.70926">
        <ele>138</ele>
        <time>2026-02-11T12:28:25.193+00:00</time>
      </trkpt>
      <trkpt lat="48.43651" lon="2.70919">
        <ele>138</ele>
        <time>2026-02-11T12:28:29.638+00:00</time>
      </trkpt>
      <trkpt lat="48.43655" lon="2.70913">
        <ele>136</ele>
        <time>2026-02-11T12:28:34.191+00:00</time>
      </trkpt>
      <trkpt lat="48.43658" lon="2.70907">
        <ele>136</ele>
        <time>2026-02-11T12:28:38.295+00:00</time>
      </trkpt>
      <trkpt lat="48.4366" lon="2.70901">
        <ele>139</ele>
        <time>2026-02-11T12:28:42.578+00:00</time>
      </trkpt>
      <trkpt lat="48.43665" lon="2.70895">
        <ele>139</ele>
        <time>2026-02-11T12:28:46.654+00:00</time>
      </trkpt>
      <trkpt lat="48.43668" lon="2.70889">
        <ele>139</ele>
        <time>2026-02-11T12:28:51.251+00:00</time>
      </trkpt>
      <trkpt lat="48.43673" lon="2.70883">
        <ele>139</ele>
        <time>2026-02-11T12:28:55.890+00:00</time>
      </trkpt>
      <trkpt lat="48.43676" lon="2.70878">
        <ele>139</ele>
        <time>2026-02-11T12:29:00.155+00:00</time>
      </trkpt>
      <trkpt lat="48.43679" lon="2.70872">
        <ele>141</ele>
        <time>2026-02-11T12:29:04.618+00:00</time>
      </trkpt>
      <trkpt lat="48.43682" lon="2.70866">
        <ele>139</ele>
        <time>2026-02-11T12:29:09.035+00:00</time>
      </trkpt>
      <trkpt lat="48.43686" lon="2.70859">
        <ele>139</ele>
        <time>2026-02-11T12:29:13.317+00:00</time>
      </trkpt>
      <trkpt lat="48.43688" lon="2.70852">
        <ele>139</ele>
        <time>2026-02-11T12:29:17.615+00:00</time>
      </trkpt>
      <trkpt lat="48.43689" lon="2.7085">
        <ele>139</ele>
        <time>2026-02-11T12:29:22.317+00:00</time>
      </trkpt>
      <trkpt lat="48.43691" lon="2.70852">
        <ele>139</ele>
        <time>2026-02-11T12:29:26.317+00:00</time>
      </trkpt>
      <trkpt lat="48.43698" lon="2.70853">
        <ele>139</ele>
        <time>2026-02-11T12:29:30.912+00:00</time>
      </trkpt>
      <trkpt lat="48.43704" lon="2.70854">
        <ele>139</ele>
        <time>2026-02-11T12:29:35.240+00:00</time>
      </trkpt>
      <trkpt lat="48.43711" lon="2.70853">
        <ele>137</ele>
        <time>2026-02-11T12:29:40.090+00:00</time>
      </trkpt>
      <trkpt lat="48.43716" lon="2.70847">
        <ele>139</ele>
        <time>2026-02-11T12:29:44.611+00:00</time>
      </trkpt>
      <trkpt lat="48.43721" lon="2.70846">
        <ele>139</ele>
        <time>2026-02-11T12:29:48.936+00:00</time>
      </trkpt>
      <trkpt lat="48.43725" lon="2.70852">
        <ele>137</ele>
        <time>2026-02-11T12:29:53.158+00:00</time>
      </trkpt>
      <trkpt lat="48.43725" lon="2.70862">
        <ele>137</ele>
        <time>2026-02-11T12:29:57.637+00:00</time>
      </trkpt>
      <trkpt lat="48.43721" lon="2.7087">
        <ele>137</ele>
        <time>2026-02-11T12:30:01.832+00:00</time>
      </trkpt>
      <trkpt lat="48.43718" lon="2.70875">
        <ele>137</ele>
        <time>2026-02-11T12:30:06.123+00:00</time>
      </trkpt>
      <trkpt lat="48.43718" lon="2.70883">
        <ele>133</ele>
        <time>2026-02-11T12:30:10.174+00:00</time>
      </trkpt>
      <trkpt lat="48.43721" lon="2.7089">
        <ele>133</ele>
        <time>2026-02-11T12:30:14.251+00:00</time>
      </trkpt>
      <trkpt lat="48.43726" lon="2.70895">
        <ele>133</ele>
        <time>2026-02-11T12:30:18.695+00:00</time>
      </trkpt>
      <trkpt lat="48.43728" lon="2.70901">
        <ele>133</ele>
        <time>2026-02-11T12:30:22.830+00:00</time>
      </trkpt>
      <trkpt lat="48.43731" lon="2.70908">
        <ele>130</ele>
        <time>2026-02-11T12:30:27.038+00:00</time>
      </trkpt>
      <trkpt lat="48.43732" lon="2.70917">
        <ele>130</ele>
        <time>2026-02-11T12:30:32.172+00:00</time>
      </trkpt>
      <trkpt lat="48.4373" lon="2.70924">
        <ele>130</ele>
        <time>2026-02-11T12:30:36.259+00:00</time>
      </trkpt>
      <trkpt lat="48.43729" lon="2.70929">
        <ele>130</ele>
        <time>2026-02-11T12:30:41.171+00:00</time>
      </trkpt>
      <trkpt lat="48.43728" lon="2.70936">
        <ele>128</ele>
        <time>2026-02-11T12:30:45.337+00:00</time>
      </trkpt>
      <trkpt lat="48.4373" lon="2.70941">
        <ele>128</ele>
        <time>2026-02-11T12:30:49.317+00:00</time>
      </trkpt>
      <trkpt lat="48.43729" lon="2.70943">
        <ele>128</ele>
        <time>2026-02-11T12:30:53.931+00:00</time>
      </trkpt>
      <trkpt lat="48.43727" lon="2.70951">
        <ele>128</ele>
        <time>2026-02-11T12:30:58.298+00:00</time>
      </trkpt>
      <trkpt lat="48.43726" lon="2.70958">
        <ele>128</ele>
        <time>2026-02-11T12:31:02.718+00:00</time>
      </trkpt>
      <trkpt lat="48.43727" lon="2.70966">
        <ele>124</ele>
        <time>2026-02-11T12:31:07.259+00:00</time>
      </trkpt>
      <trkpt lat="48.4373" lon="2.70972">
        <ele>124</ele>
        <time>2026-02-11T12:31:11.715+00:00</time>
      </trkpt>
      <trkpt lat="48.43734" lon="2.70976">
        <ele>124</ele>
        <time>2026-02-11T12:31:15.835+00:00</time>
      </trkpt>
      <trkpt lat="48.43738" lon="2.70982">
        <ele>123</ele>
        <time>2026-02-11T12:31:20.317+00:00</time>
      </trkpt>
      <trkpt lat="48.43743" lon="2.70987">
        <ele>121</ele>
        <time>2026-02-11T12:31:24.578+00:00</time>
      </trkpt>
      <trkpt lat="48.43748" lon="2.7099">
        <ele>121</ele>
        <time>2026-02-11T12:31:29.073+00:00</time>
      </trkpt>
      <trkpt lat="48.43749" lon="2.70986">
        <ele>123</ele>
        <time>2026-02-11T12:31:33.278+00:00</time>
      </trkpt>
      <trkpt lat="48.43751" lon="2.70985">
        <ele>123</ele>
        <time>2026-02-11T12:31:37.578+00:00</time>
      </trkpt>
      <trkpt lat="48.43756" lon="2.70986">
        <ele>123</ele>
        <time>2026-02-11T12:31:41.790+00:00</time>
      </trkpt>
      <trkpt lat="48.43763" lon="2.70988">
        <ele>121</ele>
        <time>2026-02-11T12:31:46.115+00:00</time>
      </trkpt>
      <trkpt lat="48.43769" lon="2.70992">
        <ele>119</ele>
        <time>2026-02-11T12:31:50.611+00:00</time>
      </trkpt>
      <trkpt lat="48.43773" lon="2.70996">
        <ele>119</ele>
        <time>2026-02-11T12:31:54.699+00:00</time>
      </trkpt>
      <trkpt lat="48.43777" lon="2.71">
        <ele>119</ele>
        <time>2026-02-11T12:31:58.731+00:00</time>
      </trkpt>
      <trkpt lat="48.43781" lon="2.71003">
        <ele>119</ele>
        <time>2026-02-11T12:32:03.158+00:00</time>
      </trkpt>
      <trkpt lat="48.43785" lon="2.71007">
        <ele>119</ele>
        <time>2026-02-11T12:32:07.351+00:00</time>
      </trkpt>
      <trkpt lat="48.4379" lon="2.71006">
        <ele>119</ele>
        <time>2026-02-11T12:32:11.593+00:00</time>
      </trkpt>
      <trkpt lat="48.43796" lon="2.71004">
        <ele>118</ele>
        <time>2026-02-11T12:32:16.072+00:00</time>
      </trkpt>
      <trkpt lat="48.43801" lon="2.71002">
        <ele>118</ele>
        <time>2026-02-11T12:32:20.098+00:00</time>
      </trkpt>
      <trkpt lat="48.43805" lon="2.71004">
        <ele>118</ele>
        <time>2026-02-11T12:32:24.577+00:00</time>
      </trkpt>
      <trkpt lat="48.43809" lon="2.71011">
        <ele>118</ele>
        <time>2026-02-11T12:32:28.611+00:00</time>
      </trkpt>
      <trkpt lat="48.43814" lon="2.71016">
        <ele>116</ele>
        <time>2026-02-11T12:32:32.798+00:00</time>
      </trkpt>
      <trkpt lat="48.43818" lon="2.7102">
        <ele>116</ele>
        <time>2026-02-11T12:32:36.952+00:00</time>
      </trkpt>
      <trkpt lat="48.43822" lon="2.71023">
        <ele>115</ele>
        <time>2026-02-11T12:32:41.310+00:00</time>
      </trkpt>
      <trkpt lat="48.43828" lon="2.71023">
        <ele>115</ele>
        <time>2026-02-11T12:32:45.917+00:00</time>
      </trkpt>
      <trkpt lat="48.43831" lon="2.71028">
        <ele>115</ele>
        <time>2026-02-11T12:32:49.994+00:00</time>
      </trkpt>
      <trkpt lat="48.43835" lon="2.7103">
        <ele>115</ele>
        <time>2026-02-11T12:32:54.055+00:00</time>
      </trkpt>
      <trkpt lat="48.43836" lon="2.71021">
        <ele>115</ele>
        <time>2026-02-11T12:32:58.317+00:00</time>
      </trkpt>
      <trkpt lat="48.43836" lon="2.71013">
        <ele>117</ele>
        <time>2026-02-11T12:33:03.097+00:00</time>
      </trkpt>
      <trkpt lat="48.43838" lon="2.71007">
        <ele>117</ele>
        <time>2026-02-11T12:33:07.157+00:00</time>
      </trkpt>
      <trkpt lat="48.4384" lon="2.71001">
        <ele>117</ele>
        <time>2026-02-11T12:33:11.312+00:00</time>
      </trkpt>
      <trkpt lat="48.43841" lon="2.70995">
        <ele>117</ele>
        <time>2026-02-11T12:33:15.678+00:00</time>
      </trkpt>
      <trkpt lat="48.43842" lon="2.70988">
        <ele>117</ele>
        <time>2026-02-11T12:33:20.013+00:00</time>
      </trkpt>
      <trkpt lat="48.43844" lon="2.70982">
        <ele>118</ele>
        <time>2026-02-11T12:33:24.591+00:00</time>
      </trkpt>
      <trkpt lat="48.43846" lon="2.70975">
        <ele>118</ele>
        <time>2026-02-11T12:33:29.053+00:00</time>
      </trkpt>
      <trkpt lat="48.43847" lon="2.70968">
        <ele>118</ele>
        <time>2026-02-11T12:33:33.659+00:00</time>
      </trkpt>
      <trkpt lat="48.43847" lon="2.7096">
        <ele>118</ele>
        <time>2026-02-11T12:33:38.171+00:00</time>
      </trkpt>
      <trkpt lat="48.43848" lon="2.70953">
        <ele>118</ele>
        <time>2026-02-11T12:33:42.214+00:00</time>
      </trkpt>
      <trkpt lat="48.43849" lon="2.70945">
        <ele>118</ele>
        <time>2026-02-11T12:33:46.795+00:00</time>
      </trkpt>
      <trkpt lat="48.4385" lon="2.70937">
        <ele>118</ele>
        <time>2026-02-11T12:33:51.111+00:00</time>
      </trkpt>
      <trkpt lat="48.43851" lon="2.70931">
        <ele>118</ele>
        <time>2026-02-11T12:33:55.154+00:00</time>
      </trkpt>
      <trkpt lat="48.43853" lon="2.70923">
        <ele>118</ele>
        <time>2026-02-11T12:33:59.598+00:00</time>
      </trkpt>
      <trkpt lat="48.43854" lon="2.70915">
        <ele>118</ele>
        <time>2026-02-11T12:34:04.093+00:00</time>
      </trkpt>
      <trkpt lat="48.43856" lon="2.70908">
        <ele>118</ele>
        <time>2026-02-11T12:34:08.478+00:00</time>
      </trkpt>
      <trkpt lat="48.43859" lon="2.709">
        <ele>117</ele>
        <time>2026-02-11T12:34:12.939+00:00</time>
      </trkpt>
      <trkpt lat="48.4386" lon="2.70892">
        <ele>117</ele>
        <time>2026-02-11T12:34:17.317+00:00</time>
      </trkpt>
      <trkpt lat="48.43861" lon="2.70884">
        <ele>117</ele>
        <time>2026-02-11T12:34:21.971+00:00</time>
      </trkpt>
      <trkpt lat="48.43863" lon="2.70876">
        <ele>117</ele>
        <time>2026-02-11T12:34:26.398+00:00</time>
      </trkpt>
      <trkpt lat="48.43865" lon="2.70868">
        <ele>118</ele>
        <time>2026-02-11T12:34:30.775+00:00</time>
      </trkpt>
      <trkpt lat="48.43866" lon="2.7086">
        <ele>118</ele>
        <time>2026-02-11T12:34:35.295+00:00</time>
      </trkpt>
      <trkpt lat="48.43868" lon="2.7085">
        <ele>118</ele>
        <time>2026-02-11T12:34:39.773+00:00</time>
      </trkpt>
      <trkpt lat="48.4387" lon="2.70843">
        <ele>119</ele>
        <time>2026-02-11T12:34:44.132+00:00</time>
      </trkpt>
      <trkpt lat="48.43872" lon="2.70835">
        <ele>119</ele>
        <time>2026-02-11T12:34:48.534+00:00</time>
      </trkpt>
      <trkpt lat="48.43874" lon="2.70825">
        <ele>119</ele>
        <time>2026-02-11T12:34:52.919+00:00</time>
      </trkpt>
      <trkpt lat="48.43876" lon="2.70816">
        <ele>120</ele>
        <time>2026-02-11T12:34:57.234+00:00</time>
      </trkpt>
      <trkpt lat="48.43877" lon="2.70807">
        <ele>120</ele>
        <time>2026-02-11T12:35:01.694+00:00</time>
      </trkpt>
      <trkpt lat="48.43878" lon="2.70799">
        <ele>120</ele>
        <time>2026-02-11T12:35:06.038+00:00</time>
      </trkpt>
      <trkpt lat="48.43879" lon="2.70792">
        <ele>120</ele>
        <time>2026-02-11T12:35:10.317+00:00</time>
      </trkpt>
      <trkpt lat="48.43881" lon="2.70784">
        <ele>120</ele>
        <time>2026-02-11T12:35:14.635+00:00</time>
      </trkpt>
      <trkpt lat="48.43881" lon="2.70775">
        <ele>120</ele>
        <time>2026-02-11T12:35:18.956+00:00</time>
      </trkpt>
      <trkpt lat="48.43882" lon="2.70767">
        <ele>120</ele>
        <time>2026-02-11T12:35:23.218+00:00</time>
      </trkpt>
      <trkpt lat="48.43882" lon="2.70757">
        <ele>118</ele>
        <time>2026-02-11T12:35:27.514+00:00</time>
      </trkpt>
      <trkpt lat="48.43878" lon="2.70743">
        <ele>118</ele>
        <time>2026-02-11T12:36:12.317+00:00</time>
      </trkpt>
      <trkpt lat="48.43878" lon="2.70743">
        <ele>118</ele>
        <time>2026-02-11T12:36:20.317+00:00</time>
      </trkpt>
      <trkpt lat="48.43878" lon="2.70742">
        <ele>118</ele>
        <time>2026-02-11T12:36:27.317+00:00</time>
      </trkpt>
      <trkpt lat="48.4388" lon="2.70735">
        <ele>115</ele>
        <time>2026-02-11T12:36:32.317+00:00</time>
      </trkpt>
      <trkpt lat="48.43882" lon="2.70728">
        <ele>115</ele>
        <time>2026-02-11T12:36:36.734+00:00</time>
      </trkpt>
      <trkpt lat="48.43886" lon="2.7072">
        <ele>115</ele>
        <time>2026-02-11T12:36:41.078+00:00</time>
      </trkpt>
      <trkpt lat="48.43889" lon="2.70714">
        <ele>115</ele>
        <time>2026-02-11T12:36:45.198+00:00</time>
      </trkpt>
      <trkpt lat="48.43891" lon="2.70708">
        <ele>115</ele>
        <time>2026-02-11T12:36:49.291+00:00</time>
      </trkpt>
      <trkpt lat="48.43894" lon="2.70702">
        <ele>114</ele>
        <time>2026-02-11T12:36:53.836+00:00</time>
      </trkpt>
      <trkpt lat="48.43896" lon="2.70695">
        <ele>114</ele>
        <time>2026-02-11T12:36:58.153+00:00</time>
      </trkpt>
      <trkpt lat="48.43898" lon="2.70689">
        <ele>114</ele>
        <time>2026-02-11T12:37:02.317+00:00</time>
      </trkpt>
      <trkpt lat="48.43901" lon="2.70682">
        <ele>114</ele>
        <time>2026-02-11T12:37:06.720+00:00</time>
      </trkpt>
      <trkpt lat="48.43903" lon="2.70675">
        <ele>113</ele>
        <time>2026-02-11T12:37:10.991+00:00</time>
      </trkpt>
      <trkpt lat="48.43908" lon="2.7067">
        <ele>113</ele>
        <time>2026-02-11T12:37:15.197+00:00</time>
      </trkpt>
      <trkpt lat="48.43916" lon="2.70667">
        <ele>113</ele>
        <time>2026-02-11T12:37:20.195+00:00</time>
      </trkpt>
      <trkpt lat="48.43923" lon="2.70668">
        <ele>113</ele>
        <time>2026-02-11T12:37:24.792+00:00</time>
      </trkpt>
      <trkpt lat="48.43929" lon="2.70668">
        <ele>113</ele>
        <time>2026-02-11T12:37:29.278+00:00</time>
      </trkpt>
      <trkpt lat="48.43935" lon="2.70672">
        <ele>114</ele>
        <time>2026-02-11T12:37:33.671+00:00</time>
      </trkpt>
      <trkpt lat="48.4394" lon="2.70672">
        <ele>114</ele>
        <time>2026-02-11T12:37:37.714+00:00</time>
      </trkpt>
      <trkpt lat="48.43946" lon="2.70672">
        <ele>114</ele>
        <time>2026-02-11T12:37:42.218+00:00</time>
      </trkpt>
      <trkpt lat="48.43951" lon="2.70671">
        <ele>114</ele>
        <time>2026-02-11T12:37:46.731+00:00</time>
      </trkpt>
      <trkpt lat="48.43956" lon="2.70667">
        <ele>114</ele>
        <time>2026-02-11T12:37:51.157+00:00</time>
      </trkpt>
      <trkpt lat="48.43962" lon="2.70663">
        <ele>115</ele>
        <time>2026-02-11T12:37:55.652+00:00</time>
      </trkpt>
      <trkpt lat="48.43966" lon="2.70663">
        <ele>115</ele>
        <time>2026-02-11T12:37:59.818+00:00</time>
      </trkpt>
      <trkpt lat="48.43967" lon="2.70671">
        <ele>115</ele>
        <time>2026-02-11T12:38:04.317+00:00</time>
      </trkpt>
      <trkpt lat="48.43971" lon="2.70675">
        <ele>115</ele>
        <time>2026-02-11T12:38:08.695+00:00</time>
      </trkpt>
      <trkpt lat="48.43974" lon="2.70679">
        <ele>115</ele>
        <time>2026-02-11T12:38:12.859+00:00</time>
      </trkpt>
      <trkpt lat="48.43977" lon="2.70684">
        <ele>115</ele>
        <time>2026-02-11T12:38:17.259+00:00</time>
      </trkpt>
      <trkpt lat="48.43981" lon="2.70688">
        <ele>115</ele>
        <time>2026-02-11T12:38:21.661+00:00</time>
      </trkpt>
      <trkpt lat="48.43983" lon="2.70689">
        <ele>115</ele>
        <time>2026-02-11T12:38:26.317+00:00</time>
      </trkpt>
      <trkpt lat="48.43987" lon="2.70686">
        <ele>115</ele>
        <time>2026-02-11T12:38:30.745+00:00</time>
      </trkpt>
      <trkpt lat="48.43992" lon="2.7068">
        <ele>116</ele>
        <time>2026-02-11T12:38:35.317+00:00</time>
      </trkpt>
      <trkpt lat="48.43994" lon="2.70673">
        <ele>116</ele>
        <time>2026-02-11T12:38:39.539+00:00</time>
      </trkpt>
      <trkpt lat="48.43997" lon="2.70667">
        <ele>116</ele>
        <time>2026-02-11T12:38:43.863+00:00</time>
      </trkpt>
      <trkpt lat="48.44" lon="2.7066">
        <ele>116</ele>
        <time>2026-02-11T12:38:48.027+00:00</time>
      </trkpt>
      <trkpt lat="48.44002" lon="2.70655">
        <ele>116</ele>
        <time>2026-02-11T12:38:52.317+00:00</time>
      </trkpt>
      <trkpt lat="48.44005" lon="2.7065">
        <ele>117</ele>
        <time>2026-02-11T12:38:57.281+00:00</time>
      </trkpt>
      <trkpt lat="48.44005" lon="2.70645">
        <ele>117</ele>
        <time>2026-02-11T12:39:01.427+00:00</time>
      </trkpt>
      <trkpt lat="48.44005" lon="2.70637">
        <ele>117</ele>
        <time>2026-02-11T12:39:06.317+00:00</time>
      </trkpt>
      <trkpt lat="48.44007" lon="2.70631">
        <ele>117</ele>
        <time>2026-02-11T12:39:10.383+00:00</time>
      </trkpt>
      <trkpt lat="48.4401" lon="2.7063">
        <ele>117</ele>
        <time>2026-02-11T12:39:15.317+00:00</time>
      </trkpt>
      <trkpt lat="48.4401" lon="2.7063">
        <ele>117</ele>
        <time>2026-02-11T12:39:20.317+00:00</time>
      </trkpt>
      <trkpt lat="48.44011" lon="2.70629">
        <ele>117</ele>
        <time>2026-02-11T12:39:25.317+00:00</time>
      </trkpt>
      <trkpt lat="48.44015" lon="2.70621">
        <ele>117</ele>
        <time>2026-02-11T12:39:29.699+00:00</time>
      </trkpt>
      <trkpt lat="48.4402" lon="2.70622">
        <ele>117</ele>
        <time>2026-02-11T12:39:34.007+00:00</time>
      </trkpt>
      <trkpt lat="48.44026" lon="2.70623">
        <ele>117</ele>
        <time>2026-02-11T12:39:38.317+00:00</time>
      </trkpt>
      <trkpt lat="48.44031" lon="2.70616">
        <ele>117</ele>
        <time>2026-02-11T12:39:42.904+00:00</time>
      </trkpt>
      <trkpt lat="48.44034" lon="2.70609">
        <ele>117</ele>
        <time>2026-02-11T12:39:47.324+00:00</time>
      </trkpt>
      <trkpt lat="48.44033" lon="2.70602">
        <ele>117</ele>
        <time>2026-02-11T12:39:51.742+00:00</time>
      </trkpt>
      <trkpt lat="48.4403" lon="2.70597">
        <ele>118</ele>
        <time>2026-02-11T12:39:55.946+00:00</time>
      </trkpt>
      <trkpt lat="48.44027" lon="2.7059">
        <ele>118</ele>
        <time>2026-02-11T12:40:01.317+00:00</time>
      </trkpt>
      <trkpt lat="48.44025" lon="2.7058">
        <ele>118</ele>
        <time>2026-02-11T12:40:05.925+00:00</time>
      </trkpt>
      <trkpt lat="48.4402" lon="2.70576">
        <ele>118</ele>
        <time>2026-02-11T12:40:10.122+00:00</time>
      </trkpt>
      <trkpt lat="48.44017" lon="2.70573">
        <ele>118</ele>
        <time>2026-02-11T12:40:14.464+00:00</time>
      </trkpt>
      <trkpt lat="48.4402" lon="2.70567">
        <ele>119</ele>
        <time>2026-02-11T12:40:18.780+00:00</time>
      </trkpt>
      <trkpt lat="48.44026" lon="2.70566">
        <ele>119</ele>
        <time>2026-02-11T12:40:22.842+00:00</time>
      </trkpt>
      <trkpt lat="48.4403" lon="2.70564">
        <ele>119</ele>
        <time>2026-02-11T12:40:27.004+00:00</time>
      </trkpt>
      <trkpt lat="48.44032" lon="2.70556">
        <ele>119</ele>
        <time>2026-02-11T12:40:31.317+00:00</time>
      </trkpt>
      <trkpt lat="48.44038" lon="2.70558">
        <ele>119</ele>
        <time>2026-02-11T12:40:36.317+00:00</time>
      </trkpt>
      <trkpt lat="48.44044" lon="2.70561">
        <ele>114</ele>
        <time>2026-02-11T12:40:40.880+00:00</time>
      </trkpt>
      <trkpt lat="48.44047" lon="2.70553">
        <ele>114</ele>
        <time>2026-02-11T12:40:44.983+00:00</time>
      </trkpt>
      <trkpt lat="48.4405" lon="2.70547">
        <ele>114</ele>
        <time>2026-02-11T12:40:49.727+00:00</time>
      </trkpt>
      <trkpt lat="48.44052" lon="2.70542">
        <ele>114</ele>
        <time>2026-02-11T12:40:54.341+00:00</time>
      </trkpt>
      <trkpt lat="48.44054" lon="2.70537">
        <ele>115</ele>
        <time>2026-02-11T12:40:58.683+00:00</time>
      </trkpt>
      <trkpt lat="48.4406" lon="2.70536">
        <ele>115</ele>
        <time>2026-02-11T12:41:03.205+00:00</time>
      </trkpt>
      <trkpt lat="48.44065" lon="2.70538">
        <ele>115</ele>
        <time>2026-02-11T12:41:07.605+00:00</time>
      </trkpt>
      <trkpt lat="48.4407" lon="2.70538">
        <ele>106</ele>
        <time>2026-02-11T12:41:11.887+00:00</time>
      </trkpt>
      <trkpt lat="48.4407" lon="2.70531">
        <ele>106</ele>
        <time>2026-02-11T12:41:16.084+00:00</time>
      </trkpt>
      <trkpt lat="48.44073" lon="2.70525">
        <ele>106</ele>
        <time>2026-02-11T12:41:20.588+00:00</time>
      </trkpt>
      <trkpt lat="48.44069" lon="2.70518">
        <ele>115</ele>
        <time>2026-02-11T12:41:25.092+00:00</time>
      </trkpt>
      <trkpt lat="48.44067" lon="2.70511">
        <ele>115</ele>
        <time>2026-02-11T12:41:29.868+00:00</time>
      </trkpt>
      <trkpt lat="48.44064" lon="2.70505">
        <ele>115</ele>
        <time>2026-02-11T12:41:34.317+00:00</time>
      </trkpt>
      <trkpt lat="48.4406" lon="2.70504">
        <ele>115</ele>
        <time>2026-02-11T12:41:39.286+00:00</time>
      </trkpt>
      <trkpt lat="48.44057" lon="2.70509">
        <ele>115</ele>
        <time>2026-02-11T12:41:43.789+00:00</time>
      </trkpt>
      <trkpt lat="48.44054" lon="2.70515">
        <ele>115</ele>
        <time>2026-02-11T12:41:48.213+00:00</time>
      </trkpt>
      <trkpt lat="48.44051" lon="2.70511">
        <ele>115</ele>
        <time>2026-02-11T12:41:52.317+00:00</time>
      </trkpt>
      <trkpt lat="48.44048" lon="2.70506">
        <ele>115</ele>
        <time>2026-02-11T12:41:56.712+00:00</time>
      </trkpt>
      <trkpt lat="48.44045" lon="2.70499">
        <ele>115</ele>
        <time>2026-02-11T12:42:01.088+00:00</time>
      </trkpt>
      <trkpt lat="48.44042" lon="2.70495">
        <ele>115</ele>
        <time>2026-02-11T12:42:05.267+00:00</time>
      </trkpt>
      <trkpt lat="48.44038" lon="2.70493">
        <ele>121</ele>
        <time>2026-02-11T12:42:09.317+00:00</time>
      </trkpt>
      <trkpt lat="48.44038" lon="2.70487">
        <ele>121</ele>
        <time>2026-02-11T12:42:13.669+00:00</time>
      </trkpt>
      <trkpt lat="48.4404" lon="2.7048">
        <ele>121</ele>
        <time>2026-02-11T12:42:18.147+00:00</time>
      </trkpt>
      <trkpt lat="48.44036" lon="2.70476">
        <ele>121</ele>
        <time>2026-02-11T12:42:23.146+00:00</time>
      </trkpt>
      <trkpt lat="48.4403" lon="2.70475">
        <ele>121</ele>
        <time>2026-02-11T12:42:27.743+00:00</time>
      </trkpt>
      <trkpt lat="48.44029" lon="2.70469">
        <ele>121</ele>
        <time>2026-02-11T12:42:31.864+00:00</time>
      </trkpt>
      <trkpt lat="48.44029" lon="2.70462">
        <ele>121</ele>
        <time>2026-02-11T12:42:36.317+00:00</time>
      </trkpt>
      <trkpt lat="48.44027" lon="2.70457">
        <ele>121</ele>
        <time>2026-02-11T12:42:40.606+00:00</time>
      </trkpt>
      <trkpt lat="48.44025" lon="2.70452">
        <ele>121</ele>
        <time>2026-02-11T12:42:44.770+00:00</time>
      </trkpt>
      <trkpt lat="48.44022" lon="2.70449">
        <ele>121</ele>
        <time>2026-02-11T12:42:48.966+00:00</time>
      </trkpt>
      <trkpt lat="48.44019" lon="2.70449">
        <ele>121</ele>
        <time>2026-02-11T12:42:57.931+00:00</time>
      </trkpt>
      <trkpt lat="48.44019" lon="2.70452">
        <ele>121</ele>
        <time>2026-02-11T12:43:02.317+00:00</time>
      </trkpt>
      <trkpt lat="48.44017" lon="2.70451">
        <ele>121</ele>
        <time>2026-02-11T12:43:07.317+00:00</time>
      </trkpt>
      <trkpt lat="48.44016" lon="2.70452">
        <ele>121</ele>
        <time>2026-02-11T12:43:12.330+00:00</time>
      </trkpt>
      <trkpt lat="48.44013" lon="2.70451">
        <ele>121</ele>
        <time>2026-02-11T12:43:16.317+00:00</time>
      </trkpt>
      <trkpt lat="48.44013" lon="2.70458">
        <ele>121</ele>
        <time>2026-02-11T12:44:52.317+00:00</time>
      </trkpt>
      <trkpt lat="48.44013" lon="2.7046">
        <ele>123</ele>
        <time>2026-02-11T12:44:57.317+00:00</time>
      </trkpt>
      <trkpt lat="48.44016" lon="2.70461">
        <ele>121</ele>
        <time>2026-02-11T12:45:02.317+00:00</time>
      </trkpt>
      <trkpt lat="48.44015" lon="2.70461">
        <ele>121</ele>
        <time>2026-02-11T12:45:07.317+00:00</time>
      </trkpt>
      <trkpt lat="48.44015" lon="2.70465">
        <ele>121</ele>
        <time>2026-02-11T12:45:11.589+00:00</time>
      </trkpt>
      <trkpt lat="48.44017" lon="2.70474">
        <ele>121</ele>
        <time>2026-02-11T12:45:15.832+00:00</time>
      </trkpt>
      <trkpt lat="48.44017" lon="2.70483">
        <ele>121</ele>
        <time>2026-02-11T12:45:20.317+00:00</time>
      </trkpt>
      <trkpt lat="48.44015" lon="2.70487">
        <ele>121</ele>
        <time>2026-02-11T12:45:24.792+00:00</time>
      </trkpt>
      <trkpt lat="48.44009" lon="2.70485">
        <ele>123</ele>
        <time>2026-02-11T12:45:29.244+00:00</time>
      </trkpt>
      <trkpt lat="48.44005" lon="2.70479">
        <ele>123</ele>
        <time>2026-02-11T12:45:33.317+00:00</time>
      </trkpt>
      <trkpt lat="48.44003" lon="2.70472">
        <ele>123</ele>
        <time>2026-02-11T12:45:38.317+00:00</time>
      </trkpt>
      <trkpt lat="48.43999" lon="2.70465">
        <ele>123</ele>
        <time>2026-02-11T12:45:42.687+00:00</time>
      </trkpt>
      <trkpt lat="48.43997" lon="2.70457">
        <ele>121</ele>
        <time>2026-02-11T12:45:47.269+00:00</time>
      </trkpt>
      <trkpt lat="48.43998" lon="2.70459">
        <ele>123</ele>
        <time>2026-02-11T12:45:51.317+00:00</time>
      </trkpt>
      <trkpt lat="48.43999" lon="2.70451">
        <ele>121</ele>
        <time>2026-02-11T12:45:55.629+00:00</time>
      </trkpt>
      <trkpt lat="48.44003" lon="2.70448">
        <ele>121</ele>
        <time>2026-02-11T12:45:59.884+00:00</time>
      </trkpt>
      <trkpt lat="48.44005" lon="2.70449">
        <ele>121</ele>
        <time>2026-02-11T12:46:04.789+00:00</time>
      </trkpt>
      <trkpt lat="48.44009" lon="2.70445">
        <ele>121</ele>
        <time>2026-02-11T12:46:08.871+00:00</time>
      </trkpt>
      <trkpt lat="48.44013" lon="2.7044">
        <ele>121</ele>
        <time>2026-02-11T12:46:13.110+00:00</time>
      </trkpt>
      <trkpt lat="48.44017" lon="2.70437">
        <ele>121</ele>
        <time>2026-02-11T12:46:17.317+00:00</time>
      </trkpt>
      <trkpt lat="48.44022" lon="2.70437">
        <ele>121</ele>
        <time>2026-02-11T12:46:21.836+00:00</time>
      </trkpt>
      <trkpt lat="48.44025" lon="2.70437">
        <ele>121</ele>
        <time>2026-02-11T12:46:26.127+00:00</time>
      </trkpt>
      <trkpt lat="48.4403" lon="2.70437">
        <ele>121</ele>
        <time>2026-02-11T12:46:30.630+00:00</time>
      </trkpt>
      <trkpt lat="48.44032" lon="2.70434">
        <ele>121</ele>
        <time>2026-02-11T12:46:34.887+00:00</time>
      </trkpt>
      <trkpt lat="48.44035" lon="2.70429">
        <ele>119</ele>
        <time>2026-02-11T12:46:38.888+00:00</time>
      </trkpt>
      <trkpt lat="48.44038" lon="2.70426">
        <ele>119</ele>
        <time>2026-02-11T12:46:44.185+00:00</time>
      </trkpt>
      <trkpt lat="48.44043" lon="2.70424">
        <ele>116</ele>
        <time>2026-02-11T12:46:49.191+00:00</time>
      </trkpt>
      <trkpt lat="48.44048" lon="2.70421">
        <ele>116</ele>
        <time>2026-02-11T12:46:53.312+00:00</time>
      </trkpt>
      <trkpt lat="48.44051" lon="2.70413">
        <ele>116</ele>
        <time>2026-02-11T12:46:57.317+00:00</time>
      </trkpt>
      <trkpt lat="48.44052" lon="2.70409">
        <ele>116</ele>
        <time>2026-02-11T12:47:59.948+00:00</time>
      </trkpt>
      <trkpt lat="48.44054" lon="2.70403">
        <ele>115</ele>
        <time>2026-02-11T12:48:04.512+00:00</time>
      </trkpt>
      <trkpt lat="48.44058" lon="2.70399">
        <ele>115</ele>
        <time>2026-02-11T12:48:08.691+00:00</time>
      </trkpt>
      <trkpt lat="48.44059" lon="2.70396">
        <ele>115</ele>
        <time>2026-02-11T12:48:12.834+00:00</time>
      </trkpt>
      <trkpt lat="48.44063" lon="2.70393">
        <ele>115</ele>
        <time>2026-02-11T12:48:17.317+00:00</time>
      </trkpt>
      <trkpt lat="48.44067" lon="2.70382">
        <ele>115</ele>
        <time>2026-02-11T12:48:22.317+00:00</time>
      </trkpt>
      <trkpt lat="48.44067" lon="2.70376">
        <ele>115</ele>
        <time>2026-02-11T12:48:27.184+00:00</time>
      </trkpt>
      <trkpt lat="48.44069" lon="2.70372">
        <ele>115</ele>
        <time>2026-02-11T12:48:31.317+00:00</time>
      </trkpt>
      <trkpt lat="48.44071" lon="2.70367">
        <ele>115</ele>
        <time>2026-02-11T12:48:35.868+00:00</time>
      </trkpt>
      <trkpt lat="48.44074" lon="2.70374">
        <ele>115</ele>
        <time>2026-02-11T12:50:49.111+00:00</time>
      </trkpt>
      <trkpt lat="48.44071" lon="2.70381">
        <ele>113</ele>
        <time>2026-02-11T12:50:53.317+00:00</time>
      </trkpt>
      <trkpt lat="48.4407" lon="2.70387">
        <ele>113</ele>
        <time>2026-02-11T12:50:58.188+00:00</time>
      </trkpt>
      <trkpt lat="48.44071" lon="2.70393">
        <ele>113</ele>
        <time>2026-02-11T12:51:02.888+00:00</time>
      </trkpt>
      <trkpt lat="48.44071" lon="2.70398">
        <ele>113</ele>
        <time>2026-02-11T12:51:07.317+00:00</time>
      </trkpt>
      <trkpt lat="48.44076" lon="2.70398">
        <ele>113</ele>
        <time>2026-02-11T12:51:43.317+00:00</time>
      </trkpt>
      <trkpt lat="48.44076" lon="2.70397">
        <ele>113</ele>
        <time>2026-02-11T12:51:47.317+00:00</time>
      </trkpt>
      <trkpt lat="48.44076" lon="2.70397">
        <ele>113</ele>
        <time>2026-02-11T12:51:53.317+00:00</time>
      </trkpt>
      <trkpt lat="48.44077" lon="2.70396">
        <ele>113</ele>
        <time>2026-02-11T12:51:57.572+00:00</time>
      </trkpt>
      <trkpt lat="48.44084" lon="2.70395">
        <ele>113</ele>
        <time>2026-02-11T12:52:02.132+00:00</time>
      </trkpt>
      <trkpt lat="48.44089" lon="2.70395">
        <ele>113</ele>
        <time>2026-02-11T12:52:06.910+00:00</time>
      </trkpt>
      <trkpt lat="48.44094" lon="2.70396">
        <ele>113</ele>
        <time>2026-02-11T12:52:11.317+00:00</time>
      </trkpt>
      <trkpt lat="48.44099" lon="2.70395">
        <ele>111</ele>
        <time>2026-02-11T12:52:15.491+00:00</time>
      </trkpt>
      <trkpt lat="48.44103" lon="2.70394">
        <ele>111</ele>
        <time>2026-02-11T12:52:19.594+00:00</time>
      </trkpt>
      <trkpt lat="48.44107" lon="2.7039">
        <ele>111</ele>
        <time>2026-02-11T12:52:24.030+00:00</time>
      </trkpt>
      <trkpt lat="48.44111" lon="2.70388">
        <ele>111</ele>
        <time>2026-02-11T12:52:28.534+00:00</time>
      </trkpt>
      <trkpt lat="48.44116" lon="2.70389">
        <ele>111</ele>
        <time>2026-02-11T12:52:33.072+00:00</time>
      </trkpt>
      <trkpt lat="48.44121" lon="2.70392">
        <ele>111</ele>
        <time>2026-02-11T12:52:37.533+00:00</time>
      </trkpt>
      <trkpt lat="48.44126" lon="2.70391">
        <ele>106</ele>
        <time>2026-02-11T12:52:41.829+00:00</time>
      </trkpt>
      <trkpt lat="48.4413" lon="2.70391">
        <ele>106</ele>
        <time>2026-02-11T12:52:46.193+00:00</time>
      </trkpt>
      <trkpt lat="48.44136" lon="2.70391">
        <ele>106</ele>
        <time>2026-02-11T12:52:50.252+00:00</time>
      </trkpt>
      <trkpt lat="48.4414" lon="2.70392">
        <ele>106</ele>
        <time>2026-02-11T12:52:54.773+00:00</time>
      </trkpt>
      <trkpt lat="48.44144" lon="2.70395">
        <ele>106</ele>
        <time>2026-02-11T12:52:58.772+00:00</time>
      </trkpt>
      <trkpt lat="48.44143" lon="2.70403">
        <ele>103</ele>
        <time>2026-02-11T12:53:03.127+00:00</time>
      </trkpt>
      <trkpt lat="48.4415" lon="2.70408">
        <ele>103</ele>
        <time>2026-02-11T12:53:07.367+00:00</time>
      </trkpt>
      <trkpt lat="48.44155" lon="2.70412">
        <ele>97</ele>
        <time>2026-02-11T12:53:11.770+00:00</time>
      </trkpt>
      <trkpt lat="48.4416" lon="2.70412">
        <ele>97</ele>
        <time>2026-02-11T12:53:16.221+00:00</time>
      </trkpt>
      <trkpt lat="48.44164" lon="2.70417">
        <ele>97</ele>
        <time>2026-02-11T12:53:20.632+00:00</time>
      </trkpt>
      <trkpt lat="48.4417" lon="2.70421">
        <ele>97</ele>
        <time>2026-02-11T12:53:25.291+00:00</time>
      </trkpt>
      <trkpt lat="48.44174" lon="2.70426">
        <ele>97</ele>
        <time>2026-02-11T12:53:29.691+00:00</time>
      </trkpt>
      <trkpt lat="48.4418" lon="2.70429">
        <ele>97</ele>
        <time>2026-02-11T12:53:34.317+00:00</time>
      </trkpt>
      <trkpt lat="48.44186" lon="2.70432">
        <ele>94</ele>
        <time>2026-02-11T12:53:38.468+00:00</time>
      </trkpt>
      <trkpt lat="48.44191" lon="2.70437">
        <ele>94</ele>
        <time>2026-02-11T12:53:42.947+00:00</time>
      </trkpt>
      <trkpt lat="48.44195" lon="2.70441">
        <ele>94</ele>
        <time>2026-02-11T12:53:46.991+00:00</time>
      </trkpt>
      <trkpt lat="48.44201" lon="2.70446">
        <ele>94</ele>
        <time>2026-02-11T12:53:51.268+00:00</time>
      </trkpt>
      <trkpt lat="48.44205" lon="2.7045">
        <ele>94</ele>
        <time>2026-02-11T12:53:55.286+00:00</time>
      </trkpt>
      <trkpt lat="48.4421" lon="2.70452">
        <ele>93</ele>
        <time>2026-02-11T12:53:59.508+00:00</time>
      </trkpt>
      <trkpt lat="48.44213" lon="2.70459">
        <ele>92</ele>
        <time>2026-02-11T12:54:04.209+00:00</time>
      </trkpt>
      <trkpt lat="48.44218" lon="2.70456">
        <ele>93</ele>
        <time>2026-02-11T12:54:08.317+00:00</time>
      </trkpt>
      <trkpt lat="48.44215" lon="2.70449">
        <ele>93</ele>
        <time>2026-02-11T12:54:12.791+00:00</time>
      </trkpt>
      <trkpt lat="48.44215" lon="2.70442">
        <ele>93</ele>
        <time>2026-02-11T12:54:17.317+00:00</time>
      </trkpt>
      <trkpt lat="48.44217" lon="2.70435">
        <ele>93</ele>
        <time>2026-02-11T12:54:21.569+00:00</time>
      </trkpt>
      <trkpt lat="48.4422" lon="2.70428">
        <ele>95</ele>
        <time>2026-02-11T12:54:25.927+00:00</time>
      </trkpt>
      <trkpt lat="48.44223" lon="2.70421">
        <ele>95</ele>
        <time>2026-02-11T12:54:30.269+00:00</time>
      </trkpt>
      <trkpt lat="48.44226" lon="2.70414">
        <ele>95</ele>
        <time>2026-02-11T12:54:34.987+00:00</time>
      </trkpt>
      <trkpt lat="48.44227" lon="2.70404">
        <ele>95</ele>
        <time>2026-02-11T12:54:39.317+00:00</time>
      </trkpt>
      <trkpt lat="48.44229" lon="2.70398">
        <ele>95</ele>
        <time>2026-02-11T12:54:44.037+00:00</time>
      </trkpt>
      <trkpt lat="48.4423" lon="2.70388">
        <ele>95</ele>
        <time>2026-02-11T12:54:48.227+00:00</time>
      </trkpt>
      <trkpt lat="48.4423" lon="2.70377">
        <ele>95</ele>
        <time>2026-02-11T12:54:52.250+00:00</time>
      </trkpt>
      <trkpt lat="48.44231" lon="2.70366">
        <ele>95</ele>
        <time>2026-02-11T12:54:56.535+00:00</time>
      </trkpt>
      <trkpt lat="48.44234" lon="2.70355">
        <ele>95</ele>
        <time>2026-02-11T12:55:01.317+00:00</time>
      </trkpt>
      <trkpt lat="48.44236" lon="2.70346">
        <ele>93</ele>
        <time>2026-02-11T12:55:05.317+00:00</time>
      </trkpt>
      <trkpt lat="48.44239" lon="2.70334">
        <ele>93</ele>
        <time>2026-02-11T12:55:10.317+00:00</time>
      </trkpt>
      <trkpt lat="48.44241" lon="2.70323">
        <ele>93</ele>
        <time>2026-02-11T12:55:15.317+00:00</time>
      </trkpt>
      <trkpt lat="48.44242" lon="2.70313">
        <ele>92</ele>
        <time>2026-02-11T12:55:19.948+00:00</time>
      </trkpt>
      <trkpt lat="48.44244" lon="2.70303">
        <ele>92</ele>
        <time>2026-02-11T12:55:24.949+00:00</time>
      </trkpt>
      <trkpt lat="48.44245" lon="2.70294">
        <ele>92</ele>
        <time>2026-02-11T12:55:29.052+00:00</time>
      </trkpt>
      <trkpt lat="48.44247" lon="2.70285">
        <ele>91</ele>
        <time>2026-02-11T12:55:33.316+00:00</time>
      </trkpt>
      <trkpt lat="48.44248" lon="2.70276">
        <ele>91</ele>
        <time>2026-02-11T12:55:37.317+00:00</time>
      </trkpt>
      <trkpt lat="48.44251" lon="2.70267">
        <ele>91</ele>
        <time>2026-02-11T12:55:42.317+00:00</time>
      </trkpt>
      <trkpt lat="48.44251" lon="2.70258">
        <ele>92</ele>
        <time>2026-02-11T12:55:47.313+00:00</time>
      </trkpt>
      <trkpt lat="48.44253" lon="2.70253">
        <ele>92</ele>
        <time>2026-02-11T12:55:51.317+00:00</time>
      </trkpt>
      <trkpt lat="48.44253" lon="2.70246">
        <ele>92</ele>
        <time>2026-02-11T12:55:56.317+00:00</time>
      </trkpt>
      <trkpt lat="48.44252" lon="2.70237">
        <ele>92</ele>
        <time>2026-02-11T12:56:01.213+00:00</time>
      </trkpt>
      <trkpt lat="48.44253" lon="2.70229">
        <ele>95</ele>
        <time>2026-02-11T12:56:06.211+00:00</time>
      </trkpt>
      <trkpt lat="48.44256" lon="2.70221">
        <ele>95</ele>
        <time>2026-02-11T12:56:10.409+00:00</time>
      </trkpt>
      <trkpt lat="48.44258" lon="2.70213">
        <ele>95</ele>
        <time>2026-02-11T12:56:14.947+00:00</time>
      </trkpt>
      <trkpt lat="48.4426" lon="2.70205">
        <ele>96</ele>
        <time>2026-02-11T12:56:19.276+00:00</time>
      </trkpt>
      <trkpt lat="48.44262" lon="2.70197">
        <ele>96</ele>
        <time>2026-02-11T12:56:23.606+00:00</time>
      </trkpt>
      <trkpt lat="48.44265" lon="2.70191">
        <ele>96</ele>
        <time>2026-02-11T12:56:28.009+00:00</time>
      </trkpt>
      <trkpt lat="48.44267" lon="2.7018">
        <ele>97</ele>
        <time>2026-02-11T12:56:32.051+00:00</time>
      </trkpt>
      <trkpt lat="48.44269" lon="2.70167">
        <ele>97</ele>
        <time>2026-02-11T12:56:36.317+00:00</time>
      </trkpt>
      <trkpt lat="48.4427" lon="2.70158">
        <ele>97</ele>
        <time>2026-02-11T12:56:40.728+00:00</time>
      </trkpt>
      <trkpt lat="48.4427" lon="2.70148">
        <ele>97</ele>
        <time>2026-02-11T12:56:44.925+00:00</time>
      </trkpt>
      <trkpt lat="48.44271" lon="2.70139">
        <ele>97</ele>
        <time>2026-02-11T12:56:49.072+00:00</time>
      </trkpt>
      <trkpt lat="48.44272" lon="2.7013">
        <ele>97</ele>
        <time>2026-02-11T12:56:53.925+00:00</time>
      </trkpt>
      <trkpt lat="48.44272" lon="2.7012">
        <ele>97</ele>
        <time>2026-02-11T12:56:58.317+00:00</time>
      </trkpt>
      <trkpt lat="48.44273" lon="2.70112">
        <ele>97</ele>
        <time>2026-02-11T12:57:02.668+00:00</time>
      </trkpt>
      <trkpt lat="48.44275" lon="2.70102">
        <ele>97</ele>
        <time>2026-02-11T12:57:07.317+00:00</time>
      </trkpt>
      <trkpt lat="48.44276" lon="2.70093">
        <ele>96</ele>
        <time>2026-02-11T12:57:11.908+00:00</time>
      </trkpt>
      <trkpt lat="48.44277" lon="2.70083">
        <ele>96</ele>
        <time>2026-02-11T12:57:16.317+00:00</time>
      </trkpt>
      <trkpt lat="48.44279" lon="2.70074">
        <ele>96</ele>
        <time>2026-02-11T12:57:20.847+00:00</time>
      </trkpt>
      <trkpt lat="48.44283" lon="2.70067">
        <ele>97</ele>
        <time>2026-02-11T12:57:25.292+00:00</time>
      </trkpt>
      <trkpt lat="48.44285" lon="2.7006">
        <ele>97</ele>
        <time>2026-02-11T12:57:29.668+00:00</time>
      </trkpt>
      <trkpt lat="48.44289" lon="2.70053">
        <ele>97</ele>
        <time>2026-02-11T12:57:33.851+00:00</time>
      </trkpt>
      <trkpt lat="48.44294" lon="2.70048">
        <ele>96</ele>
        <time>2026-02-11T12:57:38.317+00:00</time>
      </trkpt>
      <trkpt lat="48.44298" lon="2.70045">
        <ele>96</ele>
        <time>2026-02-11T12:57:42.711+00:00</time>
      </trkpt>
      <trkpt lat="48.44302" lon="2.70039">
        <ele>95</ele>
        <time>2026-02-11T12:57:47.317+00:00</time>
      </trkpt>
      <trkpt lat="48.44306" lon="2.70033">
        <ele>95</ele>
        <time>2026-02-11T12:57:51.864+00:00</time>
      </trkpt>
      <trkpt lat="48.44309" lon="2.70027">
        <ele>95</ele>
        <time>2026-02-11T12:57:56.317+00:00</time>
      </trkpt>
      <trkpt lat="48.44313" lon="2.70021">
        <ele>95</ele>
        <time>2026-02-11T12:58:00.872+00:00</time>
      </trkpt>
      <trkpt lat="48.44318" lon="2.70017">
        <ele>95</ele>
        <time>2026-02-11T12:58:05.505+00:00</time>
      </trkpt>
      <trkpt lat="48.44322" lon="2.70012">
        <ele>94</ele>
        <time>2026-02-11T12:58:09.992+00:00</time>
      </trkpt>
      <trkpt lat="48.44326" lon="2.70011">
        <ele>94</ele>
        <time>2026-02-11T12:58:14.317+00:00</time>
      </trkpt>
      <trkpt lat="48.4433" lon="2.70004">
        <ele>94</ele>
        <time>2026-02-11T12:58:18.770+00:00</time>
      </trkpt>
      <trkpt lat="48.44334" lon="2.69997">
        <ele>94</ele>
        <time>2026-02-11T12:58:22.788+00:00</time>
      </trkpt>
      <trkpt lat="48.44338" lon="2.69991">
        <ele>94</ele>
        <time>2026-02-11T12:58:26.984+00:00</time>
      </trkpt>
      <trkpt lat="48.44342" lon="2.69985">
        <ele>95</ele>
        <time>2026-02-11T12:58:31.267+00:00</time>
      </trkpt>
      <trkpt lat="48.44347" lon="2.69977">
        <ele>95</ele>
        <time>2026-02-11T12:58:36.087+00:00</time>
      </trkpt>
      <trkpt lat="48.44351" lon="2.69971">
        <ele>95</ele>
        <time>2026-02-11T12:58:40.317+00:00</time>
      </trkpt>
      <trkpt lat="48.44354" lon="2.69964">
        <ele>95</ele>
        <time>2026-02-11T12:58:44.787+00:00</time>
      </trkpt>
      <trkpt lat="48.44358" lon="2.69958">
        <ele>96</ele>
        <time>2026-02-11T12:58:49.318+00:00</time>
      </trkpt>
      <trkpt lat="48.44361" lon="2.69958">
        <ele>95</ele>
        <time>2026-02-11T12:58:53.317+00:00</time>
      </trkpt>
      <trkpt lat="48.4436" lon="2.69961">
        <ele>95</ele>
        <time>2026-02-11T12:58:58.172+00:00</time>
      </trkpt>
      <trkpt lat="48.44354" lon="2.69958">
        <ele>96</ele>
        <time>2026-02-11T12:59:02.318+00:00</time>
      </trkpt>
      <trkpt lat="48.44349" lon="2.69948">
        <ele>96</ele>
        <time>2026-02-11T12:59:06.592+00:00</time>
      </trkpt>
      <trkpt lat="48.44344" lon="2.69941">
        <ele>96</ele>
        <time>2026-02-11T12:59:10.891+00:00</time>
      </trkpt>
      <trkpt lat="48.44342" lon="2.69933">
        <ele>96</ele>
        <time>2026-02-11T12:59:15.310+00:00</time>
      </trkpt>
      <trkpt lat="48.44341" lon="2.69924">
        <ele>96</ele>
        <time>2026-02-11T12:59:19.968+00:00</time>
      </trkpt>
      <trkpt lat="48.44338" lon="2.69916">
        <ele>96</ele>
        <time>2026-02-11T12:59:24.232+00:00</time>
      </trkpt>
      <trkpt lat="48.44335" lon="2.69908">
        <ele>96</ele>
        <time>2026-02-11T12:59:28.608+00:00</time>
      </trkpt>
      <trkpt lat="48.44333" lon="2.69902">
        <ele>96</ele>
        <time>2026-02-11T12:59:33.054+00:00</time>
      </trkpt>
      <trkpt lat="48.44329" lon="2.69895">
        <ele>96</ele>
        <time>2026-02-11T12:59:37.565+00:00</time>
      </trkpt>
      <trkpt lat="48.44328" lon="2.69894">
        <ele>96</ele>
        <time>2026-02-11T12:59:42.052+00:00</time>
      </trkpt>
      <trkpt lat="48.44324" lon="2.69892">
        <ele>96</ele>
        <time>2026-02-11T12:59:46.411+00:00</time>
      </trkpt>
      <trkpt lat="48.44318" lon="2.69889">
        <ele>95</ele>
        <time>2026-02-11T12:59:50.890+00:00</time>
      </trkpt>
      <trkpt lat="48.44313" lon="2.69883">
        <ele>95</ele>
        <time>2026-02-11T12:59:55.317+00:00</time>
      </trkpt>
      <trkpt lat="48.4431" lon="2.69876">
        <ele>95</ele>
        <time>2026-02-11T12:59:59.608+00:00</time>
      </trkpt>
      <trkpt lat="48.44306" lon="2.6987">
        <ele>96</ele>
        <time>2026-02-11T13:00:03.992+00:00</time>
      </trkpt>
      <trkpt lat="48.44302" lon="2.69864">
        <ele>96</ele>
        <time>2026-02-11T13:00:08.249+00:00</time>
      </trkpt>
      <trkpt lat="48.443" lon="2.69856">
        <ele>96</ele>
        <time>2026-02-11T13:00:12.506+00:00</time>
      </trkpt>
      <trkpt lat="48.44297" lon="2.69849">
        <ele>96</ele>
        <time>2026-02-11T13:00:16.933+00:00</time>
      </trkpt>
      <trkpt lat="48.44296" lon="2.69841">
        <ele>98</ele>
        <time>2026-02-11T13:00:21.231+00:00</time>
      </trkpt>
      <trkpt lat="48.44299" lon="2.69833">
        <ele>98</ele>
        <time>2026-02-11T13:00:25.625+00:00</time>
      </trkpt>
      <trkpt lat="48.44302" lon="2.69826">
        <ele>98</ele>
        <time>2026-02-11T13:00:30.248+00:00</time>
      </trkpt>
      <trkpt lat="48.44303" lon="2.69818">
        <ele>100</ele>
        <time>2026-02-11T13:00:34.530+00:00</time>
      </trkpt>
      <trkpt lat="48.44305" lon="2.6981">
        <ele>100</ele>
        <time>2026-02-11T13:00:38.967+00:00</time>
      </trkpt>
      <trkpt lat="48.44304" lon="2.69801">
        <ele>100</ele>
        <time>2026-02-11T13:00:43.317+00:00</time>
      </trkpt>
      <trkpt lat="48.44298" lon="2.69797">
        <ele>100</ele>
        <time>2026-02-11T13:00:47.787+00:00</time>
      </trkpt>
      <trkpt lat="48.44294" lon="2.69792">
        <ele>102</ele>
        <time>2026-02-11T13:00:52.317+00:00</time>
      </trkpt>
      <trkpt lat="48.44297" lon="2.69788">
        <ele>102</ele>
        <time>2026-02-11T13:01:02.317+00:00</time>
      </trkpt>
      <trkpt lat="48.44297" lon="2.69782">
        <ele>102</ele>
        <time>2026-02-11T13:01:07.317+00:00</time>
      </trkpt>
      <trkpt lat="48.44298" lon="2.69782">
        <ele>102</ele>
        <time>2026-02-11T13:01:12.321+00:00</time>
      </trkpt>
      <trkpt lat="48.44298" lon="2.69781">
        <ele>102</ele>
        <time>2026-02-11T13:01:16.833+00:00</time>
      </trkpt>
      <trkpt lat="48.44298" lon="2.69773">
        <ele>102</ele>
        <time>2026-02-11T13:01:20.911+00:00</time>
      </trkpt>
      <trkpt lat="48.443" lon="2.69764">
        <ele>102</ele>
        <time>2026-02-11T13:01:33.450+00:00</time>
      </trkpt>
      <trkpt lat="48.44302" lon="2.69762">
        <ele>102</ele>
        <time>2026-02-11T13:01:38.317+00:00</time>
      </trkpt>
      <trkpt lat="48.44302" lon="2.69762">
        <ele>102</ele>
        <time>2026-02-11T13:01:42.317+00:00</time>
      </trkpt>
      <trkpt lat="48.44302" lon="2.69762">
        <ele>102</ele>
        <time>2026-02-11T13:01:47.209+00:00</time>
      </trkpt>
      <trkpt lat="48.44306" lon="2.69755">
        <ele>102</ele>
        <time>2026-02-11T13:01:51.321+00:00</time>
      </trkpt>
      <trkpt lat="48.44308" lon="2.69745">
        <ele>102</ele>
        <time>2026-02-11T13:01:55.852+00:00</time>
      </trkpt>
      <trkpt lat="48.44309" lon="2.69739">
        <ele>102</ele>
        <time>2026-02-11T13:02:00.329+00:00</time>
      </trkpt>
      <trkpt lat="48.44312" lon="2.69733">
        <ele>101</ele>
        <time>2026-02-11T13:02:04.867+00:00</time>
      </trkpt>
      <trkpt lat="48.44316" lon="2.69731">
        <ele>101</ele>
        <time>2026-02-11T13:02:09.317+00:00</time>
      </trkpt>
      <trkpt lat="48.44322" lon="2.69735">
        <ele>100</ele>
        <time>2026-02-11T13:02:13.492+00:00</time>
      </trkpt>
      <trkpt lat="48.44326" lon="2.69737">
        <ele>101</ele>
        <time>2026-02-11T13:02:17.586+00:00</time>
      </trkpt>
      <trkpt lat="48.4433" lon="2.69738">
        <ele>101</ele>
        <time>2026-02-11T13:02:21.689+00:00</time>
      </trkpt>
      <trkpt lat="48.44335" lon="2.69737">
        <ele>101</ele>
        <time>2026-02-11T13:02:26.152+00:00</time>
      </trkpt>
      <trkpt lat="48.44336" lon="2.69738">
        <ele>101</ele>
        <time>2026-02-11T13:02:31.031+00:00</time>
      </trkpt>
      <trkpt lat="48.4434" lon="2.69738">
        <ele>101</ele>
        <time>2026-02-11T13:02:35.124+00:00</time>
      </trkpt>
      <trkpt lat="48.44343" lon="2.69735">
        <ele>100</ele>
        <time>2026-02-11T13:02:39.288+00:00</time>
      </trkpt>
      <trkpt lat="48.44345" lon="2.69727">
        <ele>100</ele>
        <time>2026-02-11T13:02:43.317+00:00</time>
      </trkpt>
      <trkpt lat="48.44345" lon="2.69722">
        <ele>100</ele>
        <time>2026-02-11T13:02:47.451+00:00</time>
      </trkpt>
      <trkpt lat="48.44348" lon="2.69716">
        <ele>97</ele>
        <time>2026-02-11T13:02:51.869+00:00</time>
      </trkpt>
      <trkpt lat="48.4435" lon="2.6971">
        <ele>97</ele>
        <time>2026-02-11T13:02:56.304+00:00</time>
      </trkpt>
      <trkpt lat="48.44353" lon="2.69705">
        <ele>97</ele>
        <time>2026-02-11T13:03:00.317+00:00</time>
      </trkpt>
      <trkpt lat="48.44353" lon="2.69699">
        <ele>97</ele>
        <time>2026-02-11T13:03:04.769+00:00</time>
      </trkpt>
      <trkpt lat="48.44352" lon="2.69692">
        <ele>97</ele>
        <time>2026-02-11T13:03:09.032+00:00</time>
      </trkpt>
      <trkpt lat="48.44352" lon="2.69684">
        <ele>97</ele>
        <time>2026-02-11T13:03:13.317+00:00</time>
      </trkpt>
      <trkpt lat="48.44352" lon="2.69676">
        <ele>95</ele>
        <time>2026-02-11T13:03:17.768+00:00</time>
      </trkpt>
      <trkpt lat="48.44348" lon="2.69671">
        <ele>95</ele>
        <time>2026-02-11T13:03:22.212+00:00</time>
      </trkpt>
      <trkpt lat="48.44343" lon="2.69668">
        <ele>96</ele>
        <time>2026-02-11T13:03:26.273+00:00</time>
      </trkpt>
      <trkpt lat="48.44339" lon="2.69666">
        <ele>96</ele>
        <time>2026-02-11T13:03:30.870+00:00</time>
      </trkpt>
      <trkpt lat="48.44335" lon="2.69665">
        <ele>96</ele>
        <time>2026-02-11T13:03:34.889+00:00</time>
      </trkpt>
      <trkpt lat="48.44331" lon="2.6966">
        <ele>96</ele>
        <time>2026-02-11T13:03:39.171+00:00</time>
      </trkpt>
      <trkpt lat="48.44327" lon="2.69655">
        <ele>96</ele>
        <time>2026-02-11T13:03:43.205+00:00</time>
      </trkpt>
      <trkpt lat="48.44324" lon="2.69649">
        <ele>94</ele>
        <time>2026-02-11T13:03:47.639+00:00</time>
      </trkpt>
      <trkpt lat="48.44322" lon="2.69643">
        <ele>94</ele>
        <time>2026-02-11T13:03:51.744+00:00</time>
      </trkpt>
      <trkpt lat="48.44318" lon="2.69638">
        <ele>95</ele>
        <time>2026-02-11T13:03:56.172+00:00</time>
      </trkpt>
      <trkpt lat="48.44315" lon="2.69631">
        <ele>95</ele>
        <time>2026-02-11T13:04:00.872+00:00</time>
      </trkpt>
      <trkpt lat="48.44312" lon="2.69626">
        <ele>95</ele>
        <time>2026-02-11T13:04:05.308+00:00</time>
      </trkpt>
      <trkpt lat="48.4431" lon="2.6962">
        <ele>94</ele>
        <time>2026-02-11T13:04:09.888+00:00</time>
      </trkpt>
      <trkpt lat="48.44302" lon="2.69611">
        <ele>94</ele>
        <time>2026-02-11T13:04:28.317+00:00</time>
      </trkpt>
      <trkpt lat="48.44298" lon="2.69612">
        <ele>94</ele>
        <time>2026-02-11T13:04:33.317+00:00</time>
      </trkpt>
      <trkpt lat="48.44297" lon="2.69615">
        <ele>94</ele>
        <time>2026-02-11T13:04:38.328+00:00</time>
      </trkpt>
      <trkpt lat="48.44297" lon="2.6961">
        <ele>94</ele>
        <time>2026-02-11T13:04:43.317+00:00</time>
      </trkpt>
      <trkpt lat="48.44296" lon="2.69606">
        <ele>94</ele>
        <time>2026-02-11T13:04:48.317+00:00</time>
      </trkpt>
      <trkpt lat="48.44299" lon="2.69606">
        <ele>94</ele>
        <time>2026-02-11T13:06:14.184+00:00</time>
      </trkpt>
      <trkpt lat="48.44304" lon="2.69601">
        <ele>94</ele>
        <time>2026-02-11T13:06:18.270+00:00</time>
      </trkpt>
      <trkpt lat="48.443" lon="2.69591">
        <ele>93</ele>
        <time>2026-02-11T13:06:22.317+00:00</time>
      </trkpt>
      <trkpt lat="48.44297" lon="2.69585">
        <ele>93</ele>
        <time>2026-02-11T13:06:26.571+00:00</time>
      </trkpt>
      <trkpt lat="48.44294" lon="2.69577">
        <ele>93</ele>
        <time>2026-02-11T13:06:31.317+00:00</time>
      </trkpt>
      <trkpt lat="48.44291" lon="2.69569">
        <ele>96</ele>
        <time>2026-02-11T13:06:36.317+00:00</time>
      </trkpt>
      <trkpt lat="48.44289" lon="2.69562">
        <ele>96</ele>
        <time>2026-02-11T13:06:40.424+00:00</time>
      </trkpt>
      <trkpt lat="48.4429" lon="2.69554">
        <ele>96</ele>
        <time>2026-02-11T13:06:45.317+00:00</time>
      </trkpt>
      <trkpt lat="48.44292" lon="2.69545">
        <ele>93</ele>
        <time>2026-02-11T13:06:49.812+00:00</time>
      </trkpt>
      <trkpt lat="48.44295" lon="2.69537">
        <ele>93</ele>
        <time>2026-02-11T13:06:53.927+00:00</time>
      </trkpt>
      <trkpt lat="48.44297" lon="2.69531">
        <ele>93</ele>
        <time>2026-02-11T13:06:58.227+00:00</time>
      </trkpt>
      <trkpt lat="48.44296" lon="2.69524">
        <ele>93</ele>
        <time>2026-02-11T13:07:02.317+00:00</time>
      </trkpt>
      <trkpt lat="48.44299" lon="2.69516">
        <ele>93</ele>
        <time>2026-02-11T13:07:07.150+00:00</time>
      </trkpt>
      <trkpt lat="48.44298" lon="2.69503">
        <ele>94</ele>
        <time>2026-02-11T13:07:20.317+00:00</time>
      </trkpt>
      <trkpt lat="48.44298" lon="2.69501">
        <ele>94</ele>
        <time>2026-02-11T13:07:24.869+00:00</time>
      </trkpt>
      <trkpt lat="48.443" lon="2.69489">
        <ele>94</ele>
        <time>2026-02-11T13:07:29.287+00:00</time>
      </trkpt>
      <trkpt lat="48.44304" lon="2.69479">
        <ele>95</ele>
        <time>2026-02-11T13:07:33.629+00:00</time>
      </trkpt>
      <trkpt lat="48.4431" lon="2.69478">
        <ele>95</ele>
        <time>2026-02-11T13:07:37.970+00:00</time>
      </trkpt>
      <trkpt lat="48.44316" lon="2.6948">
        <ele>95</ele>
        <time>2026-02-11T13:07:42.329+00:00</time>
      </trkpt>
      <trkpt lat="48.44321" lon="2.69478">
        <ele>93</ele>
        <time>2026-02-11T13:07:47.106+00:00</time>
      </trkpt>
      <trkpt lat="48.44326" lon="2.69475">
        <ele>93</ele>
        <time>2026-02-11T13:07:51.329+00:00</time>
      </trkpt>
      <trkpt lat="48.44331" lon="2.69472">
        <ele>93</ele>
        <time>2026-02-11T13:07:55.628+00:00</time>
      </trkpt>
      <trkpt lat="48.44335" lon="2.6947">
        <ele>93</ele>
        <time>2026-02-11T13:07:59.792+00:00</time>
      </trkpt>
      <trkpt lat="48.44342" lon="2.69469">
        <ele>93</ele>
        <time>2026-02-11T13:08:04.125+00:00</time>
      </trkpt>
      <trkpt lat="48.44347" lon="2.69467">
        <ele>93</ele>
        <time>2026-02-11T13:08:08.466+00:00</time>
      </trkpt>
      <trkpt lat="48.44352" lon="2.69463">
        <ele>93</ele>
        <time>2026-02-11T13:08:12.706+00:00</time>
      </trkpt>
      <trkpt lat="48.44355" lon="2.69455">
        <ele>94</ele>
        <time>2026-02-11T13:08:16.928+00:00</time>
      </trkpt>
      <trkpt lat="48.44359" lon="2.6945">
        <ele>94</ele>
        <time>2026-02-11T13:08:21.254+00:00</time>
      </trkpt>
      <trkpt lat="48.44364" lon="2.69444">
        <ele>94</ele>
        <time>2026-02-11T13:08:25.766+00:00</time>
      </trkpt>
      <trkpt lat="48.44366" lon="2.69441">
        <ele>94</ele>
        <time>2026-02-11T13:08:30.317+00:00</time>
      </trkpt>
      <trkpt lat="48.4437" lon="2.69427">
        <ele>96</ele>
        <time>2026-02-11T13:09:44.317+00:00</time>
      </trkpt>
      <trkpt lat="48.44374" lon="2.69425">
        <ele>96</ele>
        <time>2026-02-11T13:09:49.317+00:00</time>
      </trkpt>
      <trkpt lat="48.44379" lon="2.69426">
        <ele>99</ele>
        <time>2026-02-11T13:09:53.815+00:00</time>
      </trkpt>
      <trkpt lat="48.44385" lon="2.6943">
        <ele>99</ele>
        <time>2026-02-11T13:09:58.186+00:00</time>
      </trkpt>
      <trkpt lat="48.4439" lon="2.69435">
        <ele>98</ele>
        <time>2026-02-11T13:10:02.554+00:00</time>
      </trkpt>
      <trkpt lat="48.44394" lon="2.69441">
        <ele>98</ele>
        <time>2026-02-11T13:10:07.032+00:00</time>
      </trkpt>
      <trkpt lat="48.44398" lon="2.69447">
        <ele>98</ele>
        <time>2026-02-11T13:10:11.317+00:00</time>
      </trkpt>
      <trkpt lat="48.44404" lon="2.69451">
        <ele>100</ele>
        <time>2026-02-11T13:10:15.691+00:00</time>
      </trkpt>
      <trkpt lat="48.44409" lon="2.69454">
        <ele>100</ele>
        <time>2026-02-11T13:10:20.186+00:00</time>
      </trkpt>
      <trkpt lat="48.44414" lon="2.69457">
        <ele>100</ele>
        <time>2026-02-11T13:10:24.317+00:00</time>
      </trkpt>
      <trkpt lat="48.44419" lon="2.69459">
        <ele>98</ele>
        <time>2026-02-11T13:10:28.973+00:00</time>
      </trkpt>
      <trkpt lat="48.44424" lon="2.6946">
        <ele>98</ele>
        <time>2026-02-11T13:10:33.289+00:00</time>
      </trkpt>
      <trkpt lat="48.4443" lon="2.69462">
        <ele>98</ele>
        <time>2026-02-11T13:10:37.470+00:00</time>
      </trkpt>
      <trkpt lat="48.44435" lon="2.69465">
        <ele>99</ele>
        <time>2026-02-11T13:10:41.769+00:00</time>
      </trkpt>
      <trkpt lat="48.44441" lon="2.69465">
        <ele>99</ele>
        <time>2026-02-11T13:10:46.154+00:00</time>
      </trkpt>
      <trkpt lat="48.44447" lon="2.69468">
        <ele>99</ele>
        <time>2026-02-11T13:10:50.752+00:00</time>
      </trkpt>
      <trkpt lat="48.44452" lon="2.69467">
        <ele>99</ele>
        <time>2026-02-11T13:10:55.008+00:00</time>
      </trkpt>
      <trkpt lat="48.44459" lon="2.69465">
        <ele>99</ele>
        <time>2026-02-11T13:10:59.913+00:00</time>
      </trkpt>
      <trkpt lat="48.44464" lon="2.69462">
        <ele>99</ele>
        <time>2026-02-11T13:11:04.317+00:00</time>
      </trkpt>
      <trkpt lat="48.4447" lon="2.69459">
        <ele>99</ele>
        <time>2026-02-11T13:11:08.675+00:00</time>
      </trkpt>
      <trkpt lat="48.44475" lon="2.69456">
        <ele>99</ele>
        <time>2026-02-11T13:11:12.930+00:00</time>
      </trkpt>
      <trkpt lat="48.44482" lon="2.69453">
        <ele>99</ele>
        <time>2026-02-11T13:11:17.291+00:00</time>
      </trkpt>
      <trkpt lat="48.44487" lon="2.69449">
        <ele>99</ele>
        <time>2026-02-11T13:11:21.607+00:00</time>
      </trkpt>
      <trkpt lat="48.44491" lon="2.69442">
        <ele>99</ele>
        <time>2026-02-11T13:11:25.975+00:00</time>
      </trkpt>
      <trkpt lat="48.44495" lon="2.69436">
        <ele>99</ele>
        <time>2026-02-11T13:11:30.274+00:00</time>
      </trkpt>
      <trkpt lat="48.44501" lon="2.69431">
        <ele>99</ele>
        <time>2026-02-11T13:11:34.692+00:00</time>
      </trkpt>
      <trkpt lat="48.44506" lon="2.69427">
        <ele>99</ele>
        <time>2026-02-11T13:11:38.907+00:00</time>
      </trkpt>
      <trkpt lat="48.44511" lon="2.69422">
        <ele>99</ele>
        <time>2026-02-11T13:11:42.967+00:00</time>
      </trkpt>
      <trkpt lat="48.44516" lon="2.69417">
        <ele>98</ele>
        <time>2026-02-11T13:11:47.053+00:00</time>
      </trkpt>
      <trkpt lat="48.44521" lon="2.69411">
        <ele>98</ele>
        <time>2026-02-11T13:11:51.317+00:00</time>
      </trkpt>
      <trkpt lat="48.44526" lon="2.69404">
        <ele>98</ele>
        <time>2026-02-11T13:11:55.814+00:00</time>
      </trkpt>
      <trkpt lat="48.44529" lon="2.69399">
        <ele>97</ele>
        <time>2026-02-11T13:11:59.849+00:00</time>
      </trkpt>
      <trkpt lat="48.44533" lon="2.69392">
        <ele>97</ele>
        <time>2026-02-11T13:12:04.191+00:00</time>
      </trkpt>
      <trkpt lat="48.44537" lon="2.69386">
        <ele>97</ele>
        <time>2026-02-11T13:12:08.328+00:00</time>
      </trkpt>
      <trkpt lat="48.44543" lon="2.69381">
        <ele>95</ele>
        <time>2026-02-11T13:12:12.969+00:00</time>
      </trkpt>
      <trkpt lat="48.44547" lon="2.69375">
        <ele>94</ele>
        <time>2026-02-11T13:12:17.252+00:00</time>
      </trkpt>
      <trkpt lat="48.44552" lon="2.6937">
        <ele>94</ele>
        <time>2026-02-11T13:12:21.610+00:00</time>
      </trkpt>
      <trkpt lat="48.44557" lon="2.69364">
        <ele>94</ele>
        <time>2026-02-11T13:12:25.952+00:00</time>
      </trkpt>
      <trkpt lat="48.44561" lon="2.6936">
        <ele>94</ele>
        <time>2026-02-11T13:12:30.252+00:00</time>
      </trkpt>
      <trkpt lat="48.44566" lon="2.69355">
        <ele>94</ele>
        <time>2026-02-11T13:12:34.670+00:00</time>
      </trkpt>
      <trkpt lat="48.44571" lon="2.69351">
        <ele>95</ele>
        <time>2026-02-11T13:12:38.953+00:00</time>
      </trkpt>
      <trkpt lat="48.44575" lon="2.69346">
        <ele>95</ele>
        <time>2026-02-11T13:12:43.252+00:00</time>
      </trkpt>
      <trkpt lat="48.44581" lon="2.6934">
        <ele>95</ele>
        <time>2026-02-11T13:12:47.893+00:00</time>
      </trkpt>
      <trkpt lat="48.44586" lon="2.69335">
        <ele>95</ele>
        <time>2026-02-11T13:12:52.286+00:00</time>
      </trkpt>
      <trkpt lat="48.44591" lon="2.69329">
        <ele>95</ele>
        <time>2026-02-11T13:12:56.628+00:00</time>
      </trkpt>
      <trkpt lat="48.44596" lon="2.69325">
        <ele>95</ele>
        <time>2026-02-11T13:13:00.867+00:00</time>
      </trkpt>
      <trkpt lat="48.44603" lon="2.69321">
        <ele>98</ele>
        <time>2026-02-11T13:13:05.317+00:00</time>
      </trkpt>
      <trkpt lat="48.44611" lon="2.69318">
        <ele>98</ele>
        <time>2026-02-11T13:13:10.089+00:00</time>
      </trkpt>
      <trkpt lat="48.44615" lon="2.69325">
        <ele>98</ele>
        <time>2026-02-11T13:13:15.317+00:00</time>
      </trkpt>
      <trkpt lat="48.44619" lon="2.69331">
        <ele>98</ele>
        <time>2026-02-11T13:13:20.232+00:00</time>
      </trkpt>
      <trkpt lat="48.44625" lon="2.69336">
        <ele>100</ele>
        <time>2026-02-11T13:13:24.549+00:00</time>
      </trkpt>
      <trkpt lat="48.44631" lon="2.69339">
        <ele>100</ele>
        <time>2026-02-11T13:13:28.820+00:00</time>
      </trkpt>
      <trkpt lat="48.44637" lon="2.69342">
        <ele>100</ele>
        <time>2026-02-11T13:13:32.951+00:00</time>
      </trkpt>
      <trkpt lat="48.44642" lon="2.69349">
        <ele>98</ele>
        <time>2026-02-11T13:13:37.269+00:00</time>
      </trkpt>
      <trkpt lat="48.44647" lon="2.69354">
        <ele>98</ele>
        <time>2026-02-11T13:13:41.475+00:00</time>
      </trkpt>
      <trkpt lat="48.4465" lon="2.69362">
        <ele>98</ele>
        <time>2026-02-11T13:13:45.891+00:00</time>
      </trkpt>
      <trkpt lat="48.44654" lon="2.69369">
        <ele>99</ele>
        <time>2026-02-11T13:13:50.293+00:00</time>
      </trkpt>
      <trkpt lat="48.44658" lon="2.69375">
        <ele>98</ele>
        <time>2026-02-11T13:13:54.669+00:00</time>
      </trkpt>
      <trkpt lat="48.44663" lon="2.69379">
        <ele>98</ele>
        <time>2026-02-11T13:13:58.987+00:00</time>
      </trkpt>
      <trkpt lat="48.44668" lon="2.69382">
        <ele>98</ele>
        <time>2026-02-11T13:14:03.251+00:00</time>
      </trkpt>
      <trkpt lat="48.44675" lon="2.69383">
        <ele>98</ele>
        <time>2026-02-11T13:14:07.317+00:00</time>
      </trkpt>
      <trkpt lat="48.4468" lon="2.69386">
        <ele>98</ele>
        <time>2026-02-11T13:14:11.317+00:00</time>
      </trkpt>
      <trkpt lat="48.44685" lon="2.69387">
        <ele>97</ele>
        <time>2026-02-11T13:14:15.774+00:00</time>
      </trkpt>
      <trkpt lat="48.4469" lon="2.69392">
        <ele>97</ele>
        <time>2026-02-11T13:14:20.178+00:00</time>
      </trkpt>
      <trkpt lat="48.44696" lon="2.69394">
        <ele>97</ele>
        <time>2026-02-11T13:14:24.954+00:00</time>
      </trkpt>
      <trkpt lat="48.44702" lon="2.69395">
        <ele>97</ele>
        <time>2026-02-11T13:14:29.578+00:00</time>
      </trkpt>
      <trkpt lat="48.44708" lon="2.69396">
        <ele>97</ele>
        <time>2026-02-11T13:14:34.317+00:00</time>
      </trkpt>
      <trkpt lat="48.44714" lon="2.69392">
        <ele>97</ele>
        <time>2026-02-11T13:14:39.279+00:00</time>
      </trkpt>
      <trkpt lat="48.44719" lon="2.69391">
        <ele>97</ele>
        <time>2026-02-11T13:14:43.317+00:00</time>
      </trkpt>
      <trkpt lat="48.44724" lon="2.69386">
        <ele>97</ele>
        <time>2026-02-11T13:14:47.918+00:00</time>
      </trkpt>
      <trkpt lat="48.44728" lon="2.69379">
        <ele>97</ele>
        <time>2026-02-11T13:14:52.251+00:00</time>
      </trkpt>
      <trkpt lat="48.44734" lon="2.69377">
        <ele>97</ele>
        <time>2026-02-11T13:14:56.979+00:00</time>
      </trkpt>
      <trkpt lat="48.4474" lon="2.69375">
        <ele>94</ele>
        <time>2026-02-11T13:15:01.071+00:00</time>
      </trkpt>
      <trkpt lat="48.44744" lon="2.6937">
        <ele>94</ele>
        <time>2026-02-11T13:15:05.320+00:00</time>
      </trkpt>
      <trkpt lat="48.44749" lon="2.69366">
        <ele>94</ele>
        <time>2026-02-11T13:15:09.534+00:00</time>
      </trkpt>
      <trkpt lat="48.44755" lon="2.69363">
        <ele>94</ele>
        <time>2026-02-11T13:15:14.317+00:00</time>
      </trkpt>
      <trkpt lat="48.44761" lon="2.69365">
        <ele>94</ele>
        <time>2026-02-11T13:15:18.994+00:00</time>
      </trkpt>
      <trkpt lat="48.44766" lon="2.69365">
        <ele>92</ele>
        <time>2026-02-11T13:15:23.678+00:00</time>
      </trkpt>
      <trkpt lat="48.44769" lon="2.69366">
        <ele>92</ele>
        <time>2026-02-11T13:15:28.011+00:00</time>
      </trkpt>
      <trkpt lat="48.44775" lon="2.69366">
        <ele>92</ele>
        <time>2026-02-11T13:15:32.634+00:00</time>
      </trkpt>
      <trkpt lat="48.44776" lon="2.69371">
        <ele>92</ele>
        <time>2026-02-11T13:15:37.317+00:00</time>
      </trkpt>
      <trkpt lat="48.44776" lon="2.69374">
        <ele>92</ele>
        <time>2026-02-11T13:15:57.317+00:00</time>
      </trkpt>
      <trkpt lat="48.44778" lon="2.69375">
        <ele>92</ele>
        <time>2026-02-11T13:16:01.317+00:00</time>
      </trkpt>
      <trkpt lat="48.44779" lon="2.69379">
        <ele>92</ele>
        <time>2026-02-11T13:16:06.317+00:00</time>
      </trkpt>
      <trkpt lat="48.44786" lon="2.69384">
        <ele>92</ele>
        <time>2026-02-11T13:16:11.317+00:00</time>
      </trkpt>
      <trkpt lat="48.44792" lon="2.69382">
        <ele>90</ele>
        <time>2026-02-11T13:16:16.033+00:00</time>
      </trkpt>
      <trkpt lat="48.44798" lon="2.69379">
        <ele>90</ele>
        <time>2026-02-11T13:16:20.235+00:00</time>
      </trkpt>
      <trkpt lat="48.44803" lon="2.69377">
        <ele>90</ele>
        <time>2026-02-11T13:16:24.638+00:00</time>
      </trkpt>
      <trkpt lat="48.44808" lon="2.69376">
        <ele>90</ele>
        <time>2026-02-11T13:16:28.544+00:00</time>
      </trkpt>
      <trkpt lat="48.44813" lon="2.69378">
        <ele>90</ele>
        <time>2026-02-11T13:16:32.877+00:00</time>
      </trkpt>
      <trkpt lat="48.44819" lon="2.69374">
        <ele>90</ele>
        <time>2026-02-11T13:16:37.272+00:00</time>
      </trkpt>
      <trkpt lat="48.44823" lon="2.69371">
        <ele>88</ele>
        <time>2026-02-11T13:16:41.317+00:00</time>
      </trkpt>
      <trkpt lat="48.44828" lon="2.6937">
        <ele>88</ele>
        <time>2026-02-11T13:16:45.845+00:00</time>
      </trkpt>
      <trkpt lat="48.44833" lon="2.69366">
        <ele>88</ele>
        <time>2026-02-11T13:16:50.109+00:00</time>
      </trkpt>
      <trkpt lat="48.4484" lon="2.69366">
        <ele>88</ele>
        <time>2026-02-11T13:16:54.317+00:00</time>
      </trkpt>
      <trkpt lat="48.44844" lon="2.69361">
        <ele>88</ele>
        <time>2026-02-11T13:16:59.317+00:00</time>
      </trkpt>
      <trkpt lat="48.44849" lon="2.69356">
        <ele>87</ele>
        <time>2026-02-11T13:17:04.039+00:00</time>
      </trkpt>
      <trkpt lat="48.44855" lon="2.69353">
        <ele>87</ele>
        <time>2026-02-11T13:17:08.317+00:00</time>
      </trkpt>
      <trkpt lat="48.44861" lon="2.6935">
        <ele>87</ele>
        <time>2026-02-11T13:17:12.995+00:00</time>
      </trkpt>
      <trkpt lat="48.44867" lon="2.69351">
        <ele>87</ele>
        <time>2026-02-11T13:17:18.071+00:00</time>
      </trkpt>
      <trkpt lat="48.44872" lon="2.69354">
        <ele>87</ele>
        <time>2026-02-11T13:17:22.341+00:00</time>
      </trkpt>
      <trkpt lat="48.44878" lon="2.69354">
        <ele>87</ele>
        <time>2026-02-11T13:17:26.611+00:00</time>
      </trkpt>
      <trkpt lat="48.44884" lon="2.69354">
        <ele>87</ele>
        <time>2026-02-11T13:17:31.250+00:00</time>
      </trkpt>
      <trkpt lat="48.44893" lon="2.69351">
        <ele>87</ele>
        <time>2026-02-11T13:17:36.317+00:00</time>
      </trkpt>
      <trkpt lat="48.449" lon="2.69347">
        <ele>87</ele>
        <time>2026-02-11T13:17:40.891+00:00</time>
      </trkpt>
      <trkpt lat="48.44905" lon="2.69345">
        <ele>85</ele>
        <time>2026-02-11T13:17:45.011+00:00</time>
      </trkpt>
      <trkpt lat="48.4491" lon="2.69339">
        <ele>85</ele>
        <time>2026-02-11T13:17:49.413+00:00</time>
      </trkpt>
      <trkpt lat="48.44914" lon="2.69331">
        <ele>85</ele>
        <time>2026-02-11T13:17:53.892+00:00</time>
      </trkpt>
      <trkpt lat="48.4492" lon="2.69327">
        <ele>85</ele>
        <time>2026-02-11T13:17:58.279+00:00</time>
      </trkpt>
      <trkpt lat="48.44926" lon="2.69325">
        <ele>85</ele>
        <time>2026-02-11T13:18:02.518+00:00</time>
      </trkpt>
      <trkpt lat="48.44933" lon="2.69325">
        <ele>85</ele>
        <time>2026-02-11T13:18:06.892+00:00</time>
      </trkpt>
      <trkpt lat="48.44937" lon="2.69315">
        <ele>86</ele>
        <time>2026-02-11T13:18:11.072+00:00</time>
      </trkpt>
      <trkpt lat="48.44939" lon="2.69302">
        <ele>86</ele>
        <time>2026-02-11T13:18:15.237+00:00</time>
      </trkpt>
      <trkpt lat="48.44941" lon="2.69291">
        <ele>88</ele>
        <time>2026-02-11T13:18:19.317+00:00</time>
      </trkpt>
      <trkpt lat="48.44946" lon="2.69283">
        <ele>88</ele>
        <time>2026-02-11T13:18:23.510+00:00</time>
      </trkpt>
      <trkpt lat="48.44951" lon="2.69276">
        <ele>88</ele>
        <time>2026-02-11T13:18:27.971+00:00</time>
      </trkpt>
      <trkpt lat="48.44958" lon="2.69277">
        <ele>88</ele>
        <time>2026-02-11T13:18:32.314+00:00</time>
      </trkpt>
      <trkpt lat="48.44965" lon="2.69283">
        <ele>88</ele>
        <time>2026-02-11T13:18:36.597+00:00</time>
      </trkpt>
      <trkpt lat="48.44971" lon="2.69285">
        <ele>88</ele>
        <time>2026-02-11T13:18:40.871+00:00</time>
      </trkpt>
      <trkpt lat="48.44977" lon="2.69287">
        <ele>88</ele>
        <time>2026-02-11T13:18:45.195+00:00</time>
      </trkpt>
      <trkpt lat="48.44983" lon="2.69287">
        <ele>88</ele>
        <time>2026-02-11T13:18:49.317+00:00</time>
      </trkpt>
      <trkpt lat="48.44988" lon="2.69288">
        <ele>89</ele>
        <time>2026-02-11T13:18:53.495+00:00</time>
      </trkpt>
      <trkpt lat="48.44993" lon="2.6929">
        <ele>89</ele>
        <time>2026-02-11T13:18:57.590+00:00</time>
      </trkpt>
      <trkpt lat="48.44999" lon="2.69294">
        <ele>86</ele>
        <time>2026-02-11T13:19:01.950+00:00</time>
      </trkpt>
      <trkpt lat="48.45004" lon="2.69295">
        <ele>86</ele>
        <time>2026-02-11T13:19:06.035+00:00</time>
      </trkpt>
      <trkpt lat="48.45009" lon="2.69298">
        <ele>86</ele>
        <time>2026-02-11T13:19:10.098+00:00</time>
      </trkpt>
      <trkpt lat="48.45015" lon="2.69301">
        <ele>88</ele>
        <time>2026-02-11T13:19:14.317+00:00</time>
      </trkpt>
      <trkpt lat="48.45022" lon="2.69304">
        <ele>88</ele>
        <time>2026-02-11T13:19:18.978+00:00</time>
      </trkpt>
      <trkpt lat="48.45028" lon="2.69306">
        <ele>88</ele>
        <time>2026-02-11T13:19:23.275+00:00</time>
      </trkpt>
      <trkpt lat="48.45033" lon="2.69309">
        <ele>88</ele>
        <time>2026-02-11T13:19:27.455+00:00</time>
      </trkpt>
      <trkpt lat="48.45038" lon="2.69312">
        <ele>88</ele>
        <time>2026-02-11T13:19:31.635+00:00</time>
      </trkpt>
      <trkpt lat="48.45044" lon="2.69315">
        <ele>92</ele>
        <time>2026-02-11T13:19:36.317+00:00</time>
      </trkpt>
      <trkpt lat="48.4505" lon="2.69318">
        <ele>92</ele>
        <time>2026-02-11T13:19:40.918+00:00</time>
      </trkpt>
      <trkpt lat="48.45056" lon="2.6932">
        <ele>89</ele>
        <time>2026-02-11T13:19:45.038+00:00</time>
      </trkpt>
      <trkpt lat="48.45062" lon="2.69323">
        <ele>89</ele>
        <time>2026-02-11T13:19:49.317+00:00</time>
      </trkpt>
      <trkpt lat="48.45068" lon="2.69326">
        <ele>89</ele>
        <time>2026-02-11T13:19:53.577+00:00</time>
      </trkpt>
      <trkpt lat="48.45074" lon="2.6933">
        <ele>92</ele>
        <time>2026-02-11T13:19:57.875+00:00</time>
      </trkpt>
      <trkpt lat="48.4508" lon="2.69332">
        <ele>92</ele>
        <time>2026-02-11T13:20:02.317+00:00</time>
      </trkpt>
      <trkpt lat="48.45086" lon="2.69334">
        <ele>92</ele>
        <time>2026-02-11T13:20:06.757+00:00</time>
      </trkpt>
      <trkpt lat="48.45091" lon="2.69337">
        <ele>92</ele>
        <time>2026-02-11T13:20:10.952+00:00</time>
      </trkpt>
      <trkpt lat="48.45096" lon="2.69341">
        <ele>92</ele>
        <time>2026-02-11T13:20:15.072+00:00</time>
      </trkpt>
      <trkpt lat="48.45101" lon="2.69344">
        <ele>95</ele>
        <time>2026-02-11T13:20:19.317+00:00</time>
      </trkpt>
      <trkpt lat="48.45107" lon="2.69346">
        <ele>95</ele>
        <time>2026-02-11T13:20:23.432+00:00</time>
      </trkpt>
      <trkpt lat="48.45113" lon="2.69348">
        <ele>92</ele>
        <time>2026-02-11T13:20:27.878+00:00</time>
      </trkpt>
      <trkpt lat="48.45119" lon="2.6935">
        <ele>92</ele>
        <time>2026-02-11T13:20:31.999+00:00</time>
      </trkpt>
      <trkpt lat="48.45125" lon="2.69352">
        <ele>92</ele>
        <time>2026-02-11T13:20:36.317+00:00</time>
      </trkpt>
      <trkpt lat="48.4513" lon="2.69353">
        <ele>93</ele>
        <time>2026-02-11T13:20:40.792+00:00</time>
      </trkpt>
      <trkpt lat="48.45136" lon="2.69354">
        <ele>93</ele>
        <time>2026-02-11T13:20:45.193+00:00</time>
      </trkpt>
      <trkpt lat="48.45141" lon="2.69357">
        <ele>93</ele>
        <time>2026-02-11T13:20:49.390+00:00</time>
      </trkpt>
      <trkpt lat="48.45147" lon="2.6936">
        <ele>93</ele>
        <time>2026-02-11T13:20:54.175+00:00</time>
      </trkpt>
      <trkpt lat="48.45154" lon="2.69362">
        <ele>96</ele>
        <time>2026-02-11T13:20:58.654+00:00</time>
      </trkpt>
      <trkpt lat="48.4516" lon="2.69364">
        <ele>96</ele>
        <time>2026-02-11T13:21:03.090+00:00</time>
      </trkpt>
      <trkpt lat="48.45167" lon="2.69367">
        <ele>96</ele>
        <time>2026-02-11T13:21:07.937+00:00</time>
      </trkpt>
      <trkpt lat="48.45173" lon="2.69371">
        <ele>96</ele>
        <time>2026-02-11T13:21:12.278+00:00</time>
      </trkpt>
      <trkpt lat="48.45178" lon="2.69375">
        <ele>96</ele>
        <time>2026-02-11T13:21:16.518+00:00</time>
      </trkpt>
      <trkpt lat="48.45183" lon="2.6938">
        <ele>96</ele>
        <time>2026-02-11T13:21:20.790+00:00</time>
      </trkpt>
      <trkpt lat="48.45188" lon="2.69385">
        <ele>96</ele>
        <time>2026-02-11T13:21:25.115+00:00</time>
      </trkpt>
      <trkpt lat="48.45194" lon="2.69387">
        <ele>96</ele>
        <time>2026-02-11T13:21:29.317+00:00</time>
      </trkpt>
      <trkpt lat="48.452" lon="2.69391">
        <ele>96</ele>
        <time>2026-02-11T13:21:33.612+00:00</time>
      </trkpt>
      <trkpt lat="48.45205" lon="2.69394">
        <ele>96</ele>
        <time>2026-02-11T13:21:37.850+00:00</time>
      </trkpt>
      <trkpt lat="48.4521" lon="2.69399">
        <ele>95</ele>
        <time>2026-02-11T13:21:42.210+00:00</time>
      </trkpt>
      <trkpt lat="48.45216" lon="2.69403">
        <ele>93</ele>
        <time>2026-02-11T13:21:46.579+00:00</time>
      </trkpt>
      <trkpt lat="48.45222" lon="2.69407">
        <ele>93</ele>
        <time>2026-02-11T13:21:50.792+00:00</time>
      </trkpt>
      <trkpt lat="48.45227" lon="2.69411">
        <ele>93</ele>
        <time>2026-02-11T13:21:55.150+00:00</time>
      </trkpt>
      <trkpt lat="48.45232" lon="2.69413">
        <ele>93</ele>
        <time>2026-02-11T13:21:59.317+00:00</time>
      </trkpt>
      <trkpt lat="48.45238" lon="2.69416">
        <ele>92</ele>
        <time>2026-02-11T13:22:03.656+00:00</time>
      </trkpt>
      <trkpt lat="48.45243" lon="2.69417">
        <ele>92</ele>
        <time>2026-02-11T13:22:07.852+00:00</time>
      </trkpt>
      <trkpt lat="48.45248" lon="2.6942">
        <ele>92</ele>
        <time>2026-02-11T13:22:12.074+00:00</time>
      </trkpt>
      <trkpt lat="48.45253" lon="2.69424">
        <ele>92</ele>
        <time>2026-02-11T13:22:16.317+00:00</time>
      </trkpt>
      <trkpt lat="48.45258" lon="2.69426">
        <ele>92</ele>
        <time>2026-02-11T13:22:20.494+00:00</time>
      </trkpt>
      <trkpt lat="48.45264" lon="2.69428">
        <ele>92</ele>
        <time>2026-02-11T13:22:24.633+00:00</time>
      </trkpt>
      <trkpt lat="48.4527" lon="2.6943">
        <ele>92</ele>
        <time>2026-02-11T13:22:28.898+00:00</time>
      </trkpt>
      <trkpt lat="48.45276" lon="2.69432">
        <ele>92</ele>
        <time>2026-02-11T13:22:33.093+00:00</time>
      </trkpt>
      <trkpt lat="48.45282" lon="2.69433">
        <ele>92</ele>
        <time>2026-02-11T13:22:37.317+00:00</time>
      </trkpt>
      <trkpt lat="48.45287" lon="2.69433">
        <ele>92</ele>
        <time>2026-02-11T13:22:41.556+00:00</time>
      </trkpt>
      <trkpt lat="48.45293" lon="2.69434">
        <ele>92</ele>
        <time>2026-02-11T13:22:45.735+00:00</time>
      </trkpt>
      <trkpt lat="48.45299" lon="2.69436">
        <ele>92</ele>
        <time>2026-02-11T13:22:49.949+00:00</time>
      </trkpt>
      <trkpt lat="48.45304" lon="2.69438">
        <ele>92</ele>
        <time>2026-02-11T13:22:54.096+00:00</time>
      </trkpt>
      <trkpt lat="48.4531" lon="2.69439">
        <ele>92</ele>
        <time>2026-02-11T13:22:58.317+00:00</time>
      </trkpt>
      <trkpt lat="48.45316" lon="2.69438">
        <ele>92</ele>
        <time>2026-02-11T13:23:02.591+00:00</time>
      </trkpt>
      <trkpt lat="48.45322" lon="2.69439">
        <ele>92</ele>
        <time>2026-02-11T13:23:07.215+00:00</time>
      </trkpt>
      <trkpt lat="48.45327" lon="2.69441">
        <ele>92</ele>
        <time>2026-02-11T13:23:11.317+00:00</time>
      </trkpt>
      <trkpt lat="48.45333" lon="2.69443">
        <ele>92</ele>
        <time>2026-02-11T13:23:15.574+00:00</time>
      </trkpt>
      <trkpt lat="48.45339" lon="2.69445">
        <ele>92</ele>
        <time>2026-02-11T13:23:19.686+00:00</time>
      </trkpt>
      <trkpt lat="48.45345" lon="2.69446">
        <ele>92</ele>
        <time>2026-02-11T13:23:23.866+00:00</time>
      </trkpt>
      <trkpt lat="48.45351" lon="2.69447">
        <ele>91</ele>
        <time>2026-02-11T13:23:28.003+00:00</time>
      </trkpt>
      <trkpt lat="48.45357" lon="2.69447">
        <ele>91</ele>
        <time>2026-02-11T13:23:32.286+00:00</time>
      </trkpt>
      <trkpt lat="48.45363" lon="2.69447">
        <ele>91</ele>
        <time>2026-02-11T13:23:36.620+00:00</time>
      </trkpt>
      <trkpt lat="48.45367" lon="2.6945">
        <ele>91</ele>
        <time>2026-02-11T13:23:40.808+00:00</time>
      </trkpt>
      <trkpt lat="48.45371" lon="2.69452">
        <ele>91</ele>
        <time>2026-02-11T13:23:45.317+00:00</time>
      </trkpt>
      <trkpt lat="48.45375" lon="2.69453">
        <ele>91</ele>
        <time>2026-02-11T13:23:49.467+00:00</time>
      </trkpt>
      <trkpt lat="48.4538" lon="2.69453">
        <ele>91</ele>
        <time>2026-02-11T13:23:53.679+00:00</time>
      </trkpt>
      <trkpt lat="48.45383" lon="2.6945">
        <ele>91</ele>
        <time>2026-02-11T13:23:57.979+00:00</time>
      </trkpt>
      <trkpt lat="48.45388" lon="2.6945">
        <ele>91</ele>
        <time>2026-02-11T13:24:02.320+00:00</time>
      </trkpt>
      <trkpt lat="48.45393" lon="2.69451">
        <ele>91</ele>
        <time>2026-02-11T13:24:06.587+00:00</time>
      </trkpt>
      <trkpt lat="48.45397" lon="2.69452">
        <ele>91</ele>
        <time>2026-02-11T13:24:10.826+00:00</time>
      </trkpt>
      <trkpt lat="48.45402" lon="2.69455">
        <ele>91</ele>
        <time>2026-02-11T13:24:15.185+00:00</time>
      </trkpt>
      <trkpt lat="48.45407" lon="2.69457">
        <ele>92</ele>
        <time>2026-02-11T13:24:19.425+00:00</time>
      </trkpt>
      <trkpt lat="48.45411" lon="2.6946">
        <ele>91</ele>
        <time>2026-02-11T13:24:23.886+00:00</time>
      </trkpt>
      <trkpt lat="48.45416" lon="2.69462">
        <ele>91</ele>
        <time>2026-02-11T13:24:28.317+00:00</time>
      </trkpt>
      <trkpt lat="48.45422" lon="2.69465">
        <ele>91</ele>
        <time>2026-02-11T13:24:32.887+00:00</time>
      </trkpt>
      <trkpt lat="48.45428" lon="2.69467">
        <ele>91</ele>
        <time>2026-02-11T13:24:37.317+00:00</time>
      </trkpt>
      <trkpt lat="48.45435" lon="2.69468">
        <ele>94</ele>
        <time>2026-02-11T13:24:41.772+00:00</time>
      </trkpt>
      <trkpt lat="48.45439" lon="2.69463">
        <ele>94</ele>
        <time>2026-02-11T13:24:45.845+00:00</time>
      </trkpt>
      <trkpt lat="48.45443" lon="2.69458">
        <ele>95</ele>
        <time>2026-02-11T13:24:49.905+00:00</time>
      </trkpt>
      <trkpt lat="48.45447" lon="2.69454">
        <ele>95</ele>
        <time>2026-02-11T13:24:54.317+00:00</time>
      </trkpt>
      <trkpt lat="48.45451" lon="2.69449">
        <ele>95</ele>
        <time>2026-02-11T13:24:58.845+00:00</time>
      </trkpt>
      <trkpt lat="48.45454" lon="2.69442">
        <ele>95</ele>
        <time>2026-02-11T13:25:03.144+00:00</time>
      </trkpt>
      <trkpt lat="48.45458" lon="2.69437">
        <ele>95</ele>
        <time>2026-02-11T13:25:07.786+00:00</time>
      </trkpt>
      <trkpt lat="48.45459" lon="2.69433">
        <ele>95</ele>
        <time>2026-02-11T13:25:12.317+00:00</time>
      </trkpt>
      <trkpt lat="48.45458" lon="2.69434">
        <ele>95</ele>
        <time>2026-02-11T13:25:17.007+00:00</time>
      </trkpt>
      <trkpt lat="48.45464" lon="2.6943">
        <ele>95</ele>
        <time>2026-02-11T13:25:21.161+00:00</time>
      </trkpt>
      <trkpt lat="48.45469" lon="2.69425">
        <ele>95</ele>
        <time>2026-02-11T13:25:25.504+00:00</time>
      </trkpt>
      <trkpt lat="48.45474" lon="2.69422">
        <ele>95</ele>
        <time>2026-02-11T13:25:29.965+00:00</time>
      </trkpt>
      <trkpt lat="48.4548" lon="2.69418">
        <ele>95</ele>
        <time>2026-02-11T13:25:34.282+00:00</time>
      </trkpt>
      <trkpt lat="48.45484" lon="2.69412">
        <ele>95</ele>
        <time>2026-02-11T13:25:38.317+00:00</time>
      </trkpt>
      <trkpt lat="48.45489" lon="2.69408">
        <ele>94</ele>
        <time>2026-02-11T13:25:42.862+00:00</time>
      </trkpt>
      <trkpt lat="48.45492" lon="2.69404">
        <ele>94</ele>
        <time>2026-02-11T13:25:47.240+00:00</time>
      </trkpt>
      <trkpt lat="48.45497" lon="2.69402">
        <ele>95</ele>
        <time>2026-02-11T13:25:51.317+00:00</time>
      </trkpt>
      <trkpt lat="48.45504" lon="2.69397">
        <ele>95</ele>
        <time>2026-02-11T13:25:55.624+00:00</time>
      </trkpt>
      <trkpt lat="48.4551" lon="2.69391">
        <ele>95</ele>
        <time>2026-02-11T13:25:59.864+00:00</time>
      </trkpt>
      <trkpt lat="48.45516" lon="2.69385">
        <ele>95</ele>
        <time>2026-02-11T13:26:04.019+00:00</time>
      </trkpt>
      <trkpt lat="48.45523" lon="2.6938">
        <ele>95</ele>
        <time>2026-02-11T13:26:08.539+00:00</time>
      </trkpt>
      <trkpt lat="48.45528" lon="2.69375">
        <ele>96</ele>
        <time>2026-02-11T13:26:13.326+00:00</time>
      </trkpt>
      <trkpt lat="48.45534" lon="2.6937">
        <ele>96</ele>
        <time>2026-02-11T13:26:17.566+00:00</time>
      </trkpt>
      <trkpt lat="48.45538" lon="2.69364">
        <ele>96</ele>
        <time>2026-02-11T13:26:21.817+00:00</time>
      </trkpt>
      <trkpt lat="48.45542" lon="2.69358">
        <ele>96</ele>
        <time>2026-02-11T13:26:25.867+00:00</time>
      </trkpt>
      <trkpt lat="48.45547" lon="2.69353">
        <ele>94</ele>
        <time>2026-02-11T13:26:29.851+00:00</time>
      </trkpt>
      <trkpt lat="48.45552" lon="2.69347">
        <ele>94</ele>
        <time>2026-02-11T13:26:34.143+00:00</time>
      </trkpt>
      <trkpt lat="48.45557" lon="2.69342">
        <ele>95</ele>
        <time>2026-02-11T13:26:38.466+00:00</time>
      </trkpt>
      <trkpt lat="48.45562" lon="2.69338">
        <ele>95</ele>
        <time>2026-02-11T13:26:42.707+00:00</time>
      </trkpt>
      <trkpt lat="48.45567" lon="2.69334">
        <ele>95</ele>
        <time>2026-02-11T13:26:46.964+00:00</time>
      </trkpt>
      <trkpt lat="48.45572" lon="2.69329">
        <ele>95</ele>
        <time>2026-02-11T13:26:51.100+00:00</time>
      </trkpt>
      <trkpt lat="48.45577" lon="2.69324">
        <ele>95</ele>
        <time>2026-02-11T13:26:55.317+00:00</time>
      </trkpt>
      <trkpt lat="48.45582" lon="2.69318">
        <ele>95</ele>
        <time>2026-02-11T13:26:59.547+00:00</time>
      </trkpt>
      <trkpt lat="48.45587" lon="2.69313">
        <ele>95</ele>
        <time>2026-02-11T13:27:03.941+00:00</time>
      </trkpt>
      <trkpt lat="48.45592" lon="2.69309">
        <ele>95</ele>
        <time>2026-02-11T13:27:08.061+00:00</time>
      </trkpt>
      <trkpt lat="48.45597" lon="2.69303">
        <ele>95</ele>
        <time>2026-02-11T13:27:12.326+00:00</time>
      </trkpt>
      <trkpt lat="48.45602" lon="2.69298">
        <ele>96</ele>
        <time>2026-02-11T13:27:16.599+00:00</time>
      </trkpt>
      <trkpt lat="48.45609" lon="2.69294">
        <ele>96</ele>
        <time>2026-02-11T13:27:21.087+00:00</time>
      </trkpt>
      <trkpt lat="48.45616" lon="2.69292">
        <ele>96</ele>
        <time>2026-02-11T13:27:25.300+00:00</time>
      </trkpt>
      <trkpt lat="48.45621" lon="2.69288">
        <ele>96</ele>
        <time>2026-02-11T13:27:29.703+00:00</time>
      </trkpt>
      <trkpt lat="48.45626" lon="2.69283">
        <ele>96</ele>
        <time>2026-02-11T13:27:34.104+00:00</time>
      </trkpt>
      <trkpt lat="48.45631" lon="2.69277">
        <ele>96</ele>
        <time>2026-02-11T13:27:38.425+00:00</time>
      </trkpt>
      <trkpt lat="48.45636" lon="2.69271">
        <ele>96</ele>
        <time>2026-02-11T13:27:43.165+00:00</time>
      </trkpt>
      <trkpt lat="48.45641" lon="2.69266">
        <ele>96</ele>
        <time>2026-02-11T13:27:47.439+00:00</time>
      </trkpt>
      <trkpt lat="48.45646" lon="2.6926">
        <ele>96</ele>
        <time>2026-02-11T13:27:51.704+00:00</time>
      </trkpt>
      <trkpt lat="48.45651" lon="2.69255">
        <ele>96</ele>
        <time>2026-02-11T13:27:56.064+00:00</time>
      </trkpt>
      <trkpt lat="48.45656" lon="2.6925">
        <ele>98</ele>
        <time>2026-02-11T13:28:00.406+00:00</time>
      </trkpt>
      <trkpt lat="48.45661" lon="2.69245">
        <ele>98</ele>
        <time>2026-02-11T13:28:04.740+00:00</time>
      </trkpt>
      <trkpt lat="48.45666" lon="2.69241">
        <ele>98</ele>
        <time>2026-02-11T13:28:09.124+00:00</time>
      </trkpt>
      <trkpt lat="48.4567" lon="2.69236">
        <ele>99</ele>
        <time>2026-02-11T13:28:13.317+00:00</time>
      </trkpt>
      <trkpt lat="48.45675" lon="2.69229">
        <ele>99</ele>
        <time>2026-02-11T13:28:18.317+00:00</time>
      </trkpt>
      <trkpt lat="48.4568" lon="2.69222">
        <ele>99</ele>
        <time>2026-02-11T13:28:23.063+00:00</time>
      </trkpt>
      <trkpt lat="48.45686" lon="2.69217">
        <ele>101</ele>
        <time>2026-02-11T13:28:28.317+00:00</time>
      </trkpt>
      <trkpt lat="48.45691" lon="2.69213">
        <ele>101</ele>
        <time>2026-02-11T13:28:32.746+00:00</time>
      </trkpt>
      <trkpt lat="48.45697" lon="2.6921">
        <ele>101</ele>
        <time>2026-02-11T13:28:37.045+00:00</time>
      </trkpt>
      <trkpt lat="48.45703" lon="2.69205">
        <ele>101</ele>
        <time>2026-02-11T13:28:41.925+00:00</time>
      </trkpt>
      <trkpt lat="48.45708" lon="2.692">
        <ele>101</ele>
        <time>2026-02-11T13:28:45.960+00:00</time>
      </trkpt>
      <trkpt lat="48.45713" lon="2.69196">
        <ele>103</ele>
        <time>2026-02-11T13:28:50.182+00:00</time>
      </trkpt>
      <trkpt lat="48.45719" lon="2.69193">
        <ele>103</ele>
        <time>2026-02-11T13:28:54.528+00:00</time>
      </trkpt>
      <trkpt lat="48.45725" lon="2.69189">
        <ele>103</ele>
        <time>2026-02-11T13:28:58.841+00:00</time>
      </trkpt>
      <trkpt lat="48.45729" lon="2.69186">
        <ele>103</ele>
        <time>2026-02-11T13:29:03.026+00:00</time>
      </trkpt>
      <trkpt lat="48.45735" lon="2.69183">
        <ele>103</ele>
        <time>2026-02-11T13:29:07.426+00:00</time>
      </trkpt>
      <trkpt lat="48.45739" lon="2.69178">
        <ele>105</ele>
        <time>2026-02-11T13:29:11.979+00:00</time>
      </trkpt>
      <trkpt lat="48.45744" lon="2.69173">
        <ele>105</ele>
        <time>2026-02-11T13:29:16.317+00:00</time>
      </trkpt>
      <trkpt lat="48.45749" lon="2.69168">
        <ele>105</ele>
        <time>2026-02-11T13:29:21.317+00:00</time>
      </trkpt>
      <trkpt lat="48.45754" lon="2.69163">
        <ele>105</ele>
        <time>2026-02-11T13:29:25.499+00:00</time>
      </trkpt>
      <trkpt lat="48.45759" lon="2.69157">
        <ele>105</ele>
        <time>2026-02-11T13:29:30.167+00:00</time>
      </trkpt>
      <trkpt lat="48.45764" lon="2.69152">
        <ele>104</ele>
        <time>2026-02-11T13:29:34.227+00:00</time>
      </trkpt>
      <trkpt lat="48.45769" lon="2.69147">
        <ele>105</ele>
        <time>2026-02-11T13:29:38.424+00:00</time>
      </trkpt>
      <trkpt lat="48.45775" lon="2.69142">
        <ele>105</ele>
        <time>2026-02-11T13:29:42.501+00:00</time>
      </trkpt>
      <trkpt lat="48.4578" lon="2.69136">
        <ele>105</ele>
        <time>2026-02-11T13:29:47.126+00:00</time>
      </trkpt>
      <trkpt lat="48.45785" lon="2.6913">
        <ele>105</ele>
        <time>2026-02-11T13:29:51.246+00:00</time>
      </trkpt>
      <trkpt lat="48.4579" lon="2.69123">
        <ele>104</ele>
        <time>2026-02-11T13:29:55.288+00:00</time>
      </trkpt>
      <trkpt lat="48.45794" lon="2.69117">
        <ele>103</ele>
        <time>2026-02-11T13:29:59.429+00:00</time>
      </trkpt>
      <trkpt lat="48.45796" lon="2.69108">
        <ele>103</ele>
        <time>2026-02-11T13:30:03.504+00:00</time>
      </trkpt>
      <trkpt lat="48.45791" lon="2.69101">
        <ele>104</ele>
        <time>2026-02-11T13:30:07.816+00:00</time>
      </trkpt>
      <trkpt lat="48.45788" lon="2.69094">
        <ele>101</ele>
        <time>2026-02-11T13:30:12.329+00:00</time>
      </trkpt>
      <trkpt lat="48.45787" lon="2.69086">
        <ele>101</ele>
        <time>2026-02-11T13:30:16.803+00:00</time>
      </trkpt>
      <trkpt lat="48.45785" lon="2.69081">
        <ele>101</ele>
        <time>2026-02-11T13:30:21.317+00:00</time>
      </trkpt>
      <trkpt lat="48.45783" lon="2.69076">
        <ele>101</ele>
        <time>2026-02-11T13:30:25.790+00:00</time>
      </trkpt>
      <trkpt lat="48.45781" lon="2.6907">
        <ele>101</ele>
        <time>2026-02-11T13:30:30.240+00:00</time>
      </trkpt>
      <trkpt lat="48.45777" lon="2.69062">
        <ele>99</ele>
        <time>2026-02-11T13:30:34.745+00:00</time>
      </trkpt>
      <trkpt lat="48.45775" lon="2.69054">
        <ele>99</ele>
        <time>2026-02-11T13:30:39.026+00:00</time>
      </trkpt>
      <trkpt lat="48.45773" lon="2.69046">
        <ele>99</ele>
        <time>2026-02-11T13:30:43.564+00:00</time>
      </trkpt>
      <trkpt lat="48.4577" lon="2.69039">
        <ele>98</ele>
        <time>2026-02-11T13:30:48.162+00:00</time>
      </trkpt>
      <trkpt lat="48.45766" lon="2.69032">
        <ele>98</ele>
        <time>2026-02-11T13:30:52.968+00:00</time>
      </trkpt>
      <trkpt lat="48.45761" lon="2.69027">
        <ele>98</ele>
        <time>2026-02-11T13:30:57.317+00:00</time>
      </trkpt>
      <trkpt lat="48.45757" lon="2.69021">
        <ele>98</ele>
        <time>2026-02-11T13:31:01.683+00:00</time>
      </trkpt>
      <trkpt lat="48.45752" lon="2.69015">
        <ele>98</ele>
        <time>2026-02-11T13:31:05.803+00:00</time>
      </trkpt>
      <trkpt lat="48.45749" lon="2.69008">
        <ele>98</ele>
        <time>2026-02-11T13:31:10.265+00:00</time>
      </trkpt>
      <trkpt lat="48.4575" lon="2.69001">
        <ele>98</ele>
        <time>2026-02-11T13:31:14.317+00:00</time>
      </trkpt>
      <trkpt lat="48.45753" lon="2.68995">
        <ele>98</ele>
        <time>2026-02-11T13:31:18.539+00:00</time>
      </trkpt>
      <trkpt lat="48.45758" lon="2.68989">
        <ele>98</ele>
        <time>2026-02-11T13:31:23.103+00:00</time>
      </trkpt>
      <trkpt lat="48.45764" lon="2.68989">
        <ele>98</ele>
        <time>2026-02-11T13:31:27.317+00:00</time>
      </trkpt>
      <trkpt lat="48.45769" lon="2.68983">
        <ele>99</ele>
        <time>2026-02-11T13:31:31.805+00:00</time>
      </trkpt>
      <trkpt lat="48.45773" lon="2.68974">
        <ele>99</ele>
        <time>2026-02-11T13:31:36.121+00:00</time>
      </trkpt>
      <trkpt lat="48.45777" lon="2.68966">
        <ele>99</ele>
        <time>2026-02-11T13:31:40.539+00:00</time>
      </trkpt>
      <trkpt lat="48.45781" lon="2.68959">
        <ele>99</ele>
        <time>2026-02-11T13:31:44.883+00:00</time>
      </trkpt>
      <trkpt lat="48.45785" lon="2.68954">
        <ele>98</ele>
        <time>2026-02-11T13:31:49.241+00:00</time>
      </trkpt>
      <trkpt lat="48.4579" lon="2.68951">
        <ele>98</ele>
        <time>2026-02-11T13:31:53.541+00:00</time>
      </trkpt>
      <trkpt lat="48.45803" lon="2.68935">
        <ele>100</ele>
        <time>2026-02-11T13:32:36.317+00:00</time>
      </trkpt>
      <trkpt lat="48.45804" lon="2.68936">
        <ele>100</ele>
        <time>2026-02-11T13:32:40.317+00:00</time>
      </trkpt>
      <trkpt lat="48.45806" lon="2.68935">
        <ele>100</ele>
        <time>2026-02-11T13:32:45.317+00:00</time>
      </trkpt>
      <trkpt lat="48.45807" lon="2.68937">
        <ele>100</ele>
        <time>2026-02-11T13:32:49.317+00:00</time>
      </trkpt>
      <trkpt lat="48.45807" lon="2.68937">
        <ele>100</ele>
        <time>2026-02-11T13:32:54.317+00:00</time>
      </trkpt>
      <trkpt lat="48.45808" lon="2.6893">
        <ele>99</ele>
        <time>2026-02-11T13:45:23.625+00:00</time>
      </trkpt>
      <trkpt lat="48.45813" lon="2.68931">
        <ele>100</ele>
        <time>2026-02-11T13:45:28.071+00:00</time>
      </trkpt>
      <trkpt lat="48.45814" lon="2.68923">
        <ele>99</ele>
        <time>2026-02-11T13:45:32.317+00:00</time>
      </trkpt>
      <trkpt lat="48.45815" lon="2.68919">
        <ele>99</ele>
        <time>2026-02-11T13:45:36.713+00:00</time>
      </trkpt>
      <trkpt lat="48.45821" lon="2.6892">
        <ele>98</ele>
        <time>2026-02-11T13:45:41.150+00:00</time>
      </trkpt>
      <trkpt lat="48.45823" lon="2.68914">
        <ele>98</ele>
        <time>2026-02-11T13:45:45.317+00:00</time>
      </trkpt>
      <trkpt lat="48.45824" lon="2.68907">
        <ele>98</ele>
        <time>2026-02-11T13:45:49.567+00:00</time>
      </trkpt>
      <trkpt lat="48.45826" lon="2.68903">
        <ele>97</ele>
        <time>2026-02-11T13:45:54.191+00:00</time>
      </trkpt>
      <trkpt lat="48.45827" lon="2.68898">
        <ele>97</ele>
        <time>2026-02-11T13:45:58.652+00:00</time>
      </trkpt>
      <trkpt lat="48.4583" lon="2.6889">
        <ele>97</ele>
        <time>2026-02-11T13:46:03.251+00:00</time>
      </trkpt>
      <trkpt lat="48.4583" lon="2.68883">
        <ele>97</ele>
        <time>2026-02-11T13:46:07.286+00:00</time>
      </trkpt>
      <trkpt lat="48.45829" lon="2.68875">
        <ele>94</ele>
        <time>2026-02-11T13:46:11.670+00:00</time>
      </trkpt>
      <trkpt lat="48.45832" lon="2.68869">
        <ele>94</ele>
        <time>2026-02-11T13:46:15.672+00:00</time>
      </trkpt>
      <trkpt lat="48.45829" lon="2.68863">
        <ele>94</ele>
        <time>2026-02-11T13:46:19.988+00:00</time>
      </trkpt>
      <trkpt lat="48.45825" lon="2.68857">
        <ele>94</ele>
        <time>2026-02-11T13:46:24.151+00:00</time>
      </trkpt>
      <trkpt lat="48.45819" lon="2.68854">
        <ele>94</ele>
        <time>2026-02-11T13:46:29.210+00:00</time>
      </trkpt>
      <trkpt lat="48.45814" lon="2.68854">
        <ele>96</ele>
        <time>2026-02-11T13:46:34.151+00:00</time>
      </trkpt>
      <trkpt lat="48.45809" lon="2.6885">
        <ele>96</ele>
        <time>2026-02-11T13:46:38.688+00:00</time>
      </trkpt>
      <trkpt lat="48.45804" lon="2.68848">
        <ele>96</ele>
        <time>2026-02-11T13:46:43.073+00:00</time>
      </trkpt>
      <trkpt lat="48.45798" lon="2.68845">
        <ele>94</ele>
        <time>2026-02-11T13:46:47.329+00:00</time>
      </trkpt>
      <trkpt lat="48.45791" lon="2.68845">
        <ele>95</ele>
        <time>2026-02-11T13:46:51.813+00:00</time>
      </trkpt>
      <trkpt lat="48.45787" lon="2.68848">
        <ele>96</ele>
        <time>2026-02-11T13:46:56.227+00:00</time>
      </trkpt>
      <trkpt lat="48.45782" lon="2.6885">
        <ele>96</ele>
        <time>2026-02-11T13:47:00.493+00:00</time>
      </trkpt>
      <trkpt lat="48.45776" lon="2.68852">
        <ele>96</ele>
        <time>2026-02-11T13:47:04.673+00:00</time>
      </trkpt>
      <trkpt lat="48.45771" lon="2.68854">
        <ele>96</ele>
        <time>2026-02-11T13:47:08.989+00:00</time>
      </trkpt>
      <trkpt lat="48.45765" lon="2.68858">
        <ele>96</ele>
        <time>2026-02-11T13:47:13.172+00:00</time>
      </trkpt>
      <trkpt lat="48.45761" lon="2.68862">
        <ele>97</ele>
        <time>2026-02-11T13:47:17.606+00:00</time>
      </trkpt>
      <trkpt lat="48.45756" lon="2.68867">
        <ele>97</ele>
        <time>2026-02-11T13:47:21.828+00:00</time>
      </trkpt>
      <trkpt lat="48.45751" lon="2.68873">
        <ele>97</ele>
        <time>2026-02-11T13:47:26.317+00:00</time>
      </trkpt>
      <trkpt lat="48.45747" lon="2.68877">
        <ele>97</ele>
        <time>2026-02-11T13:47:30.590+00:00</time>
      </trkpt>
      <trkpt lat="48.45742" lon="2.6888">
        <ele>97</ele>
        <time>2026-02-11T13:47:35.138+00:00</time>
      </trkpt>
      <trkpt lat="48.45737" lon="2.68885">
        <ele>97</ele>
        <time>2026-02-11T13:47:39.317+00:00</time>
      </trkpt>
      <trkpt lat="48.45732" lon="2.68887">
        <ele>98</ele>
        <time>2026-02-11T13:47:43.327+00:00</time>
      </trkpt>
      <trkpt lat="48.45727" lon="2.68891">
        <ele>98</ele>
        <time>2026-02-11T13:47:48.309+00:00</time>
      </trkpt>
      <trkpt lat="48.45722" lon="2.68896">
        <ele>98</ele>
        <time>2026-02-11T13:47:53.171+00:00</time>
      </trkpt>
      <trkpt lat="48.45716" lon="2.68901">
        <ele>98</ele>
        <time>2026-02-11T13:47:57.275+00:00</time>
      </trkpt>
      <trkpt lat="48.45712" lon="2.68907">
        <ele>96</ele>
        <time>2026-02-11T13:48:01.712+00:00</time>
      </trkpt>
      <trkpt lat="48.45708" lon="2.68912">
        <ele>96</ele>
        <time>2026-02-11T13:48:05.849+00:00</time>
      </trkpt>
      <trkpt lat="48.45705" lon="2.68919">
        <ele>98</ele>
        <time>2026-02-11T13:48:09.995+00:00</time>
      </trkpt>
      <trkpt lat="48.45701" lon="2.68926">
        <ele>98</ele>
        <time>2026-02-11T13:48:14.317+00:00</time>
      </trkpt>
      <trkpt lat="48.45697" lon="2.68933">
        <ele>98</ele>
        <time>2026-02-11T13:48:18.998+00:00</time>
      </trkpt>
      <trkpt lat="48.45694" lon="2.68938">
        <ele>98</ele>
        <time>2026-02-11T13:48:23.317+00:00</time>
      </trkpt>
      <trkpt lat="48.45688" lon="2.68944">
        <ele>98</ele>
        <time>2026-02-11T13:48:28.317+00:00</time>
      </trkpt>
      <trkpt lat="48.45685" lon="2.6895">
        <ele>98</ele>
        <time>2026-02-11T13:48:32.653+00:00</time>
      </trkpt>
      <trkpt lat="48.45681" lon="2.68957">
        <ele>98</ele>
        <time>2026-02-11T13:48:37.317+00:00</time>
      </trkpt>
      <trkpt lat="48.45676" lon="2.68964">
        <ele>98</ele>
        <time>2026-02-11T13:48:42.030+00:00</time>
      </trkpt>
      <trkpt lat="48.45672" lon="2.6897">
        <ele>98</ele>
        <time>2026-02-11T13:48:46.317+00:00</time>
      </trkpt>
      <trkpt lat="48.45668" lon="2.68976">
        <ele>98</ele>
        <time>2026-02-11T13:48:50.317+00:00</time>
      </trkpt>
      <trkpt lat="48.45661" lon="2.68981">
        <ele>98</ele>
        <time>2026-02-11T13:48:54.317+00:00</time>
      </trkpt>
      <trkpt lat="48.45654" lon="2.68981">
        <ele>98</ele>
        <time>2026-02-11T13:48:58.339+00:00</time>
      </trkpt>
      <trkpt lat="48.45648" lon="2.6898">
        <ele>98</ele>
        <time>2026-02-11T13:49:03.033+00:00</time>
      </trkpt>
      <trkpt lat="48.45644" lon="2.68986">
        <ele>98</ele>
        <time>2026-02-11T13:49:07.317+00:00</time>
      </trkpt>
      <trkpt lat="48.45639" lon="2.68989">
        <ele>98</ele>
        <time>2026-02-11T13:49:11.317+00:00</time>
      </trkpt>
      <trkpt lat="48.45634" lon="2.68993">
        <ele>98</ele>
        <time>2026-02-11T13:49:15.710+00:00</time>
      </trkpt>
      <trkpt lat="48.45629" lon="2.68996">
        <ele>98</ele>
        <time>2026-02-11T13:49:19.797+00:00</time>
      </trkpt>
      <trkpt lat="48.45623" lon="2.68999">
        <ele>98</ele>
        <time>2026-02-11T13:49:24.309+00:00</time>
      </trkpt>
      <trkpt lat="48.45618" lon="2.69003">
        <ele>98</ele>
        <time>2026-02-11T13:49:28.847+00:00</time>
      </trkpt>
      <trkpt lat="48.45612" lon="2.69008">
        <ele>98</ele>
        <time>2026-02-11T13:49:33.189+00:00</time>
      </trkpt>
      <trkpt lat="48.45607" lon="2.69012">
        <ele>98</ele>
        <time>2026-02-11T13:49:37.317+00:00</time>
      </trkpt>
      <trkpt lat="48.45601" lon="2.69015">
        <ele>98</ele>
        <time>2026-02-11T13:49:41.789+00:00</time>
      </trkpt>
      <trkpt lat="48.45595" lon="2.69018">
        <ele>99</ele>
        <time>2026-02-11T13:49:46.278+00:00</time>
      </trkpt>
      <trkpt lat="48.45589" lon="2.6902">
        <ele>99</ele>
        <time>2026-02-11T13:49:51.053+00:00</time>
      </trkpt>
      <trkpt lat="48.45585" lon="2.69027">
        <ele>99</ele>
        <time>2026-02-11T13:49:55.490+00:00</time>
      </trkpt>
      <trkpt lat="48.45583" lon="2.69035">
        <ele>99</ele>
        <time>2026-02-11T13:49:59.593+00:00</time>
      </trkpt>
      <trkpt lat="48.45582" lon="2.69043">
        <ele>98</ele>
        <time>2026-02-11T13:50:03.893+00:00</time>
      </trkpt>
      <trkpt lat="48.45579" lon="2.6905">
        <ele>98</ele>
        <time>2026-02-11T13:50:08.317+00:00</time>
      </trkpt>
      <trkpt lat="48.45577" lon="2.69058">
        <ele>98</ele>
        <time>2026-02-11T13:50:12.731+00:00</time>
      </trkpt>
      <trkpt lat="48.45575" lon="2.69068">
        <ele>98</ele>
        <time>2026-02-11T13:50:17.317+00:00</time>
      </trkpt>
      <trkpt lat="48.4557" lon="2.69076">
        <ele>98</ele>
        <time>2026-02-11T13:50:21.773+00:00</time>
      </trkpt>
      <trkpt lat="48.45568" lon="2.69085">
        <ele>98</ele>
        <time>2026-02-11T13:50:26.317+00:00</time>
      </trkpt>
      <trkpt lat="48.45564" lon="2.69095">
        <ele>98</ele>
        <time>2026-02-11T13:50:31.317+00:00</time>
      </trkpt>
      <trkpt lat="48.4556" lon="2.69103">
        <ele>97</ele>
        <time>2026-02-11T13:50:35.593+00:00</time>
      </trkpt>
      <trkpt lat="48.45557" lon="2.6911">
        <ele>97</ele>
        <time>2026-02-11T13:50:39.937+00:00</time>
      </trkpt>
      <trkpt lat="48.45551" lon="2.69112">
        <ele>97</ele>
        <time>2026-02-11T13:50:44.270+00:00</time>
      </trkpt>
      <trkpt lat="48.45546" lon="2.69111">
        <ele>97</ele>
        <time>2026-02-11T13:50:48.552+00:00</time>
      </trkpt>
      <trkpt lat="48.4554" lon="2.69115">
        <ele>98</ele>
        <time>2026-02-11T13:50:52.852+00:00</time>
      </trkpt>
      <trkpt lat="48.45534" lon="2.69118">
        <ele>98</ele>
        <time>2026-02-11T13:50:57.270+00:00</time>
      </trkpt>
      <trkpt lat="48.4553" lon="2.69116">
        <ele>98</ele>
        <time>2026-02-11T13:51:01.317+00:00</time>
      </trkpt>
      <trkpt lat="48.45524" lon="2.69114">
        <ele>98</ele>
        <time>2026-02-11T13:51:05.714+00:00</time>
      </trkpt>
      <trkpt lat="48.45519" lon="2.69113">
        <ele>98</ele>
        <time>2026-02-11T13:51:09.953+00:00</time>
      </trkpt>
      <trkpt lat="48.45513" lon="2.69108">
        <ele>101</ele>
        <time>2026-02-11T13:51:14.235+00:00</time>
      </trkpt>
      <trkpt lat="48.45507" lon="2.69103">
        <ele>101</ele>
        <time>2026-02-11T13:51:18.698+00:00</time>
      </trkpt>
      <trkpt lat="48.45502" lon="2.69098">
        <ele>101</ele>
        <time>2026-02-11T13:51:23.057+00:00</time>
      </trkpt>
      <trkpt lat="48.45498" lon="2.69097">
        <ele>101</ele>
        <time>2026-02-11T13:51:27.317+00:00</time>
      </trkpt>
      <trkpt lat="48.45492" lon="2.69094">
        <ele>101</ele>
        <time>2026-02-11T13:51:31.775+00:00</time>
      </trkpt>
      <trkpt lat="48.45486" lon="2.69091">
        <ele>101</ele>
        <time>2026-02-11T13:51:36.211+00:00</time>
      </trkpt>
      <trkpt lat="48.45481" lon="2.6909">
        <ele>103</ele>
        <time>2026-02-11T13:51:40.317+00:00</time>
      </trkpt>
      <trkpt lat="48.45476" lon="2.69089">
        <ele>103</ele>
        <time>2026-02-11T13:51:44.317+00:00</time>
      </trkpt>
      <trkpt lat="48.45472" lon="2.69088">
        <ele>103</ele>
        <time>2026-02-11T13:51:49.317+00:00</time>
      </trkpt>
      <trkpt lat="48.45473" lon="2.6909">
        <ele>103</ele>
        <time>2026-02-11T13:51:55.317+00:00</time>
      </trkpt>
      <trkpt lat="48.45472" lon="2.69085">
        <ele>103</ele>
        <time>2026-02-11T13:51:59.879+00:00</time>
      </trkpt>
      <trkpt lat="48.45468" lon="2.6908">
        <ele>103</ele>
        <time>2026-02-11T13:52:04.058+00:00</time>
      </trkpt>
      <trkpt lat="48.45464" lon="2.69076">
        <ele>103</ele>
        <time>2026-02-11T13:52:08.119+00:00</time>
      </trkpt>
      <trkpt lat="48.45458" lon="2.69073">
        <ele>104</ele>
        <time>2026-02-11T13:52:13.317+00:00</time>
      </trkpt>
      <trkpt lat="48.45453" lon="2.69073">
        <ele>104</ele>
        <time>2026-02-11T13:52:18.030+00:00</time>
      </trkpt>
      <trkpt lat="48.45448" lon="2.69073">
        <ele>104</ele>
        <time>2026-02-11T13:52:22.317+00:00</time>
      </trkpt>
      <trkpt lat="48.45443" lon="2.69076">
        <ele>104</ele>
        <time>2026-02-11T13:52:26.774+00:00</time>
      </trkpt>
      <trkpt lat="48.45438" lon="2.69074">
        <ele>104</ele>
        <time>2026-02-11T13:52:31.317+00:00</time>
      </trkpt>
      <trkpt lat="48.45433" lon="2.69072">
        <ele>104</ele>
        <time>2026-02-11T13:52:35.910+00:00</time>
      </trkpt>
      <trkpt lat="48.4543" lon="2.6907">
        <ele>104</ele>
        <time>2026-02-11T13:52:40.610+00:00</time>
      </trkpt>
      <trkpt lat="48.4543" lon="2.69068">
        <ele>103</ele>
        <time>2026-02-11T13:52:45.118+00:00</time>
      </trkpt>
      <trkpt lat="48.45425" lon="2.69068">
        <ele>103</ele>
        <time>2026-02-11T13:52:49.317+00:00</time>
      </trkpt>
      <trkpt lat="48.45423" lon="2.69066">
        <ele>103</ele>
        <time>2026-02-11T13:52:53.677+00:00</time>
      </trkpt>
      <trkpt lat="48.4542" lon="2.69063">
        <ele>103</ele>
        <time>2026-02-11T13:52:58.198+00:00</time>
      </trkpt>
      <trkpt lat="48.45418" lon="2.69059">
        <ele>103</ele>
        <time>2026-02-11T13:53:02.617+00:00</time>
      </trkpt>
      <trkpt lat="48.45415" lon="2.69056">
        <ele>103</ele>
        <time>2026-02-11T13:53:06.755+00:00</time>
      </trkpt>
      <trkpt lat="48.45412" lon="2.69055">
        <ele>103</ele>
        <time>2026-02-11T13:53:10.793+00:00</time>
      </trkpt>
      <trkpt lat="48.4541" lon="2.69047">
        <ele>103</ele>
        <time>2026-02-11T13:53:15.317+00:00</time>
      </trkpt>
      <trkpt lat="48.45408" lon="2.69039">
        <ele>102</ele>
        <time>2026-02-11T13:53:19.723+00:00</time>
      </trkpt>
      <trkpt lat="48.45405" lon="2.69033">
        <ele>102</ele>
        <time>2026-02-11T13:53:24.051+00:00</time>
      </trkpt>
      <trkpt lat="48.45399" lon="2.69033">
        <ele>101</ele>
        <time>2026-02-11T13:53:28.246+00:00</time>
      </trkpt>
      <trkpt lat="48.45395" lon="2.69037">
        <ele>101</ele>
        <time>2026-02-11T13:53:32.665+00:00</time>
      </trkpt>
      <trkpt lat="48.4539" lon="2.69042">
        <ele>102</ele>
        <time>2026-02-11T13:53:37.317+00:00</time>
      </trkpt>
      <trkpt lat="48.45387" lon="2.69046">
        <ele>102</ele>
        <time>2026-02-11T13:53:41.317+00:00</time>
      </trkpt>
      <trkpt lat="48.45383" lon="2.69045">
        <ele>102</ele>
        <time>2026-02-11T13:53:46.050+00:00</time>
      </trkpt>
      <trkpt lat="48.4538" lon="2.69046">
        <ele>102</ele>
        <time>2026-02-11T13:53:50.291+00:00</time>
      </trkpt>
      <trkpt lat="48.45377" lon="2.6904">
        <ele>101</ele>
        <time>2026-02-11T13:53:54.846+00:00</time>
      </trkpt>
      <trkpt lat="48.45374" lon="2.69037">
        <ele>101</ele>
        <time>2026-02-11T13:53:58.890+00:00</time>
      </trkpt>
      <trkpt lat="48.45369" lon="2.69035">
        <ele>101</ele>
        <time>2026-02-11T13:54:03.317+00:00</time>
      </trkpt>
      <trkpt lat="48.45365" lon="2.69032">
        <ele>101</ele>
        <time>2026-02-11T13:54:07.317+00:00</time>
      </trkpt>
      <trkpt lat="48.4536" lon="2.69031">
        <ele>101</ele>
        <time>2026-02-11T13:54:11.728+00:00</time>
      </trkpt>
      <trkpt lat="48.45354" lon="2.69028">
        <ele>101</ele>
        <time>2026-02-11T13:54:16.003+00:00</time>
      </trkpt>
      <trkpt lat="48.45348" lon="2.69026">
        <ele>101</ele>
        <time>2026-02-11T13:54:20.317+00:00</time>
      </trkpt>
      <trkpt lat="48.45342" lon="2.69021">
        <ele>101</ele>
        <time>2026-02-11T13:54:25.317+00:00</time>
      </trkpt>
      <trkpt lat="48.45336" lon="2.6902">
        <ele>101</ele>
        <time>2026-02-11T13:54:29.750+00:00</time>
      </trkpt>
      <trkpt lat="48.4533" lon="2.6902">
        <ele>101</ele>
        <time>2026-02-11T13:54:34.092+00:00</time>
      </trkpt>
      <trkpt lat="48.45324" lon="2.69017">
        <ele>101</ele>
        <time>2026-02-11T13:54:38.493+00:00</time>
      </trkpt>
      <trkpt lat="48.45319" lon="2.69013">
        <ele>100</ele>
        <time>2026-02-11T13:54:42.767+00:00</time>
      </trkpt>
      <trkpt lat="48.45316" lon="2.69007">
        <ele>100</ele>
        <time>2026-02-11T13:54:46.990+00:00</time>
      </trkpt>
      <trkpt lat="48.45311" lon="2.69004">
        <ele>100</ele>
        <time>2026-02-11T13:54:51.317+00:00</time>
      </trkpt>
      <trkpt lat="48.45308" lon="2.68996">
        <ele>100</ele>
        <time>2026-02-11T13:54:55.972+00:00</time>
      </trkpt>
      <trkpt lat="48.45306" lon="2.68987">
        <ele>100</ele>
        <time>2026-02-11T13:55:00.289+00:00</time>
      </trkpt>
      <trkpt lat="48.45303" lon="2.68979">
        <ele>101</ele>
        <time>2026-02-11T13:55:04.317+00:00</time>
      </trkpt>
      <trkpt lat="48.45298" lon="2.68975">
        <ele>101</ele>
        <time>2026-02-11T13:55:08.931+00:00</time>
      </trkpt>
      <trkpt lat="48.45294" lon="2.68972">
        <ele>101</ele>
        <time>2026-02-11T13:55:12.974+00:00</time>
      </trkpt>
      <trkpt lat="48.4529" lon="2.68967">
        <ele>102</ele>
        <time>2026-02-11T13:55:17.453+00:00</time>
      </trkpt>
      <trkpt lat="48.45287" lon="2.68959">
        <ele>102</ele>
        <time>2026-02-11T13:55:22.317+00:00</time>
      </trkpt>
      <trkpt lat="48.45282" lon="2.68954">
        <ele>103</ele>
        <time>2026-02-11T13:55:26.674+00:00</time>
      </trkpt>
      <trkpt lat="48.45277" lon="2.68949">
        <ele>103</ele>
        <time>2026-02-11T13:55:30.769+00:00</time>
      </trkpt>
      <trkpt lat="48.45272" lon="2.68945">
        <ele>103</ele>
        <time>2026-02-11T13:55:35.067+00:00</time>
      </trkpt>
      <trkpt lat="48.45268" lon="2.6894">
        <ele>103</ele>
        <time>2026-02-11T13:55:39.334+00:00</time>
      </trkpt>
      <trkpt lat="48.45263" lon="2.68935">
        <ele>106</ele>
        <time>2026-02-11T13:55:43.752+00:00</time>
      </trkpt>
      <trkpt lat="48.45257" lon="2.68933">
        <ele>106</ele>
        <time>2026-02-11T13:55:48.171+00:00</time>
      </trkpt>
      <trkpt lat="48.45252" lon="2.68928">
        <ele>107</ele>
        <time>2026-02-11T13:55:52.333+00:00</time>
      </trkpt>
      <trkpt lat="48.45246" lon="2.68923">
        <ele>107</ele>
        <time>2026-02-11T13:55:56.317+00:00</time>
      </trkpt>
      <trkpt lat="48.45241" lon="2.68918">
        <ele>107</ele>
        <time>2026-02-11T13:56:00.650+00:00</time>
      </trkpt>
      <trkpt lat="48.45236" lon="2.68921">
        <ele>111</ele>
        <time>2026-02-11T13:56:04.828+00:00</time>
      </trkpt>
      <trkpt lat="48.45231" lon="2.6892">
        <ele>111</ele>
        <time>2026-02-11T13:56:09.317+00:00</time>
      </trkpt>
      <trkpt lat="48.45227" lon="2.68918">
        <ele>111</ele>
        <time>2026-02-11T13:56:13.317+00:00</time>
      </trkpt>
      <trkpt lat="48.45222" lon="2.68917">
        <ele>111</ele>
        <time>2026-02-11T13:56:18.317+00:00</time>
      </trkpt>
      <trkpt lat="48.45217" lon="2.6892">
        <ele>111</ele>
        <time>2026-02-11T13:56:23.037+00:00</time>
      </trkpt>
      <trkpt lat="48.45212" lon="2.68921">
        <ele>111</ele>
        <time>2026-02-11T13:56:27.273+00:00</time>
      </trkpt>
      <trkpt lat="48.45209" lon="2.68915">
        <ele>111</ele>
        <time>2026-02-11T13:56:31.317+00:00</time>
      </trkpt>
      <trkpt lat="48.45208" lon="2.68909">
        <ele>112</ele>
        <time>2026-02-11T13:56:35.974+00:00</time>
      </trkpt>
      <trkpt lat="48.45203" lon="2.68905">
        <ele>112</ele>
        <time>2026-02-11T13:57:26.702+00:00</time>
      </trkpt>
      <trkpt lat="48.45204" lon="2.68893">
        <ele>114</ele>
        <time>2026-02-11T13:57:31.223+00:00</time>
      </trkpt>
      <trkpt lat="48.45206" lon="2.68888">
        <ele>114</ele>
        <time>2026-02-11T13:57:35.224+00:00</time>
      </trkpt>
      <trkpt lat="48.45206" lon="2.68885">
        <ele>114</ele>
        <time>2026-02-11T13:57:39.259+00:00</time>
      </trkpt>
      <trkpt lat="48.45205" lon="2.68883">
        <ele>114</ele>
        <time>2026-02-11T13:57:43.317+00:00</time>
      </trkpt>
      <trkpt lat="48.45208" lon="2.68879">
        <ele>114</ele>
        <time>2026-02-11T13:57:47.601+00:00</time>
      </trkpt>
      <trkpt lat="48.45209" lon="2.68872">
        <ele>115</ele>
        <time>2026-02-11T13:57:52.303+00:00</time>
      </trkpt>
      <trkpt lat="48.45212" lon="2.68866">
        <ele>115</ele>
        <time>2026-02-11T13:57:56.317+00:00</time>
      </trkpt>
      <trkpt lat="48.45213" lon="2.68861">
        <ele>115</ele>
        <time>2026-02-11T13:58:00.960+00:00</time>
      </trkpt>
      <trkpt lat="48.45214" lon="2.68851">
        <ele>115</ele>
        <time>2026-02-11T13:58:10.044+00:00</time>
      </trkpt>
      <trkpt lat="48.45212" lon="2.68847">
        <ele>117</ele>
        <time>2026-02-11T13:58:14.581+00:00</time>
      </trkpt>
      <trkpt lat="48.45212" lon="2.68843">
        <ele>117</ele>
        <time>2026-02-11T13:58:18.744+00:00</time>
      </trkpt>
      <trkpt lat="48.45212" lon="2.68843">
        <ele>117</ele>
        <time>2026-02-11T13:58:23.317+00:00</time>
      </trkpt>
      <trkpt lat="48.45213" lon="2.68841">
        <ele>117</ele>
        <time>2026-02-11T13:58:27.982+00:00</time>
      </trkpt>
      <trkpt lat="48.45214" lon="2.68836">
        <ele>117</ele>
        <time>2026-02-11T13:58:33.323+00:00</time>
      </trkpt>
      <trkpt lat="48.45215" lon="2.68833">
        <ele>117</ele>
        <time>2026-02-11T13:58:38.317+00:00</time>
      </trkpt>
      <trkpt lat="48.45215" lon="2.68823">
        <ele>117</ele>
        <time>2026-02-11T13:58:42.903+00:00</time>
      </trkpt>
      <trkpt lat="48.45212" lon="2.68821">
        <ele>117</ele>
        <time>2026-02-11T13:58:47.140+00:00</time>
      </trkpt>
      <trkpt lat="48.45213" lon="2.68817">
        <ele>117</ele>
        <time>2026-02-11T13:58:51.946+00:00</time>
      </trkpt>
      <trkpt lat="48.4521" lon="2.68815">
        <ele>117</ele>
        <time>2026-02-11T13:58:56.285+00:00</time>
      </trkpt>
      <trkpt lat="48.45206" lon="2.68819">
        <ele>118</ele>
        <time>2026-02-11T13:59:00.899+00:00</time>
      </trkpt>
      <trkpt lat="48.45202" lon="2.68822">
        <ele>118</ele>
        <time>2026-02-11T13:59:05.317+00:00</time>
      </trkpt>
      <trkpt lat="48.45197" lon="2.68825">
        <ele>118</ele>
        <time>2026-02-11T13:59:10.163+00:00</time>
      </trkpt>
      <trkpt lat="48.45193" lon="2.68827">
        <ele>118</ele>
        <time>2026-02-11T13:59:14.223+00:00</time>
      </trkpt>
      <trkpt lat="48.45189" lon="2.68829">
        <ele>118</ele>
        <time>2026-02-11T13:59:18.803+00:00</time>
      </trkpt>
      <trkpt lat="48.45186" lon="2.68823">
        <ele>118</ele>
        <time>2026-02-11T13:59:23.282+00:00</time>
      </trkpt>
      <trkpt lat="48.45187" lon="2.68817">
        <ele>117</ele>
        <time>2026-02-11T13:59:27.344+00:00</time>
      </trkpt>
      <trkpt lat="48.45188" lon="2.6881">
        <ele>117</ele>
        <time>2026-02-11T13:59:32.103+00:00</time>
      </trkpt>
      <trkpt lat="48.45189" lon="2.68804">
        <ele>117</ele>
        <time>2026-02-11T13:59:36.246+00:00</time>
      </trkpt>
      <trkpt lat="48.4519" lon="2.688">
        <ele>117</ele>
        <time>2026-02-11T13:59:40.741+00:00</time>
      </trkpt>
      <trkpt lat="48.4519" lon="2.68795">
        <ele>117</ele>
        <time>2026-02-11T13:59:45.096+00:00</time>
      </trkpt>
      <trkpt lat="48.4519" lon="2.68792">
        <ele>117</ele>
        <time>2026-02-11T13:59:49.263+00:00</time>
      </trkpt>
      <trkpt lat="48.45191" lon="2.68786">
        <ele>115</ele>
        <time>2026-02-11T13:59:53.741+00:00</time>
      </trkpt>
      <trkpt lat="48.45192" lon="2.6878">
        <ele>115</ele>
        <time>2026-02-11T13:59:58.040+00:00</time>
      </trkpt>
      <trkpt lat="48.45197" lon="2.68781">
        <ele>115</ele>
        <time>2026-02-11T14:00:02.162+00:00</time>
      </trkpt>
      <trkpt lat="48.45202" lon="2.68782">
        <ele>115</ele>
        <time>2026-02-11T14:00:06.324+00:00</time>
      </trkpt>
      <trkpt lat="48.45205" lon="2.68783">
        <ele>115</ele>
        <time>2026-02-11T14:00:10.605+00:00</time>
      </trkpt>
      <trkpt lat="48.45208" lon="2.68781">
        <ele>115</ele>
        <time>2026-02-11T14:00:14.844+00:00</time>
      </trkpt>
      <trkpt lat="48.45208" lon="2.68773">
        <ele>115</ele>
        <time>2026-02-11T14:00:18.861+00:00</time>
      </trkpt>
      <trkpt lat="48.45209" lon="2.68766">
        <ele>116</ele>
        <time>2026-02-11T14:00:23.263+00:00</time>
      </trkpt>
      <trkpt lat="48.45211" lon="2.68759">
        <ele>114</ele>
        <time>2026-02-11T14:00:27.582+00:00</time>
      </trkpt>
      <trkpt lat="48.45212" lon="2.68754">
        <ele>114</ele>
        <time>2026-02-11T14:00:31.801+00:00</time>
      </trkpt>
      <trkpt lat="48.45211" lon="2.68749">
        <ele>114</ele>
        <time>2026-02-11T14:00:35.998+00:00</time>
      </trkpt>
      <trkpt lat="48.45208" lon="2.68745">
        <ele>113</ele>
        <time>2026-02-11T14:00:39.999+00:00</time>
      </trkpt>
      <trkpt lat="48.45203" lon="2.68743">
        <ele>113</ele>
        <time>2026-02-11T14:00:44.683+00:00</time>
      </trkpt>
      <trkpt lat="48.45199" lon="2.6874">
        <ele>113</ele>
        <time>2026-02-11T14:00:49.106+00:00</time>
      </trkpt>
      <trkpt lat="48.45194" lon="2.68741">
        <ele>113</ele>
        <time>2026-02-11T14:00:53.519+00:00</time>
      </trkpt>
      <trkpt lat="48.4519" lon="2.68742">
        <ele>113</ele>
        <time>2026-02-11T14:00:57.562+00:00</time>
      </trkpt>
      <trkpt lat="48.45186" lon="2.68745">
        <ele>113</ele>
        <time>2026-02-11T14:01:01.667+00:00</time>
      </trkpt>
      <trkpt lat="48.45183" lon="2.68748">
        <ele>113</ele>
        <time>2026-02-11T14:01:05.748+00:00</time>
      </trkpt>
      <trkpt lat="48.45178" lon="2.68747">
        <ele>110</ele>
        <time>2026-02-11T14:01:10.322+00:00</time>
      </trkpt>
      <trkpt lat="48.45173" lon="2.68748">
        <ele>110</ele>
        <time>2026-02-11T14:01:15.218+00:00</time>
      </trkpt>
      <trkpt lat="48.45169" lon="2.68749">
        <ele>110</ele>
        <time>2026-02-11T14:01:19.655+00:00</time>
      </trkpt>
      <trkpt lat="48.45166" lon="2.6875">
        <ele>110</ele>
        <time>2026-02-11T14:01:24.141+00:00</time>
      </trkpt>
      <trkpt lat="48.45168" lon="2.68744">
        <ele>110</ele>
        <time>2026-02-11T14:01:33.882+00:00</time>
      </trkpt>
      <trkpt lat="48.45173" lon="2.68744">
        <ele>110</ele>
        <time>2026-02-11T14:01:38.317+00:00</time>
      </trkpt>
      <trkpt lat="48.45173" lon="2.68745">
        <ele>110</ele>
        <time>2026-02-11T14:01:43.317+00:00</time>
      </trkpt>
      <trkpt lat="48.45173" lon="2.68746">
        <ele>110</ele>
        <time>2026-02-11T14:01:47.461+00:00</time>
      </trkpt>
      <trkpt lat="48.45173" lon="2.68751">
        <ele>110</ele>
        <time>2026-02-11T14:01:52.317+00:00</time>
      </trkpt>
      <trkpt lat="48.45169" lon="2.68751">
        <ele>110</ele>
        <time>2026-02-11T14:01:56.904+00:00</time>
      </trkpt>
      <trkpt lat="48.45166" lon="2.68755">
        <ele>110</ele>
        <time>2026-02-11T14:02:01.317+00:00</time>
      </trkpt>
      <trkpt lat="48.45158" lon="2.68739">
        <ele>110</ele>
        <time>2026-02-11T14:02:06.317+00:00</time>
      </trkpt>
      <trkpt lat="48.45153" lon="2.68738">
        <ele>110</ele>
        <time>2026-02-11T14:02:11.123+00:00</time>
      </trkpt>
      <trkpt lat="48.4515" lon="2.68737">
        <ele>106</ele>
        <time>2026-02-11T14:02:15.286+00:00</time>
      </trkpt>
      <trkpt lat="48.45146" lon="2.68734">
        <ele>105</ele>
        <time>2026-02-11T14:02:19.721+00:00</time>
      </trkpt>
      <trkpt lat="48.45141" lon="2.68734">
        <ele>105</ele>
        <time>2026-02-11T14:02:24.317+00:00</time>
      </trkpt>
      <trkpt lat="48.45137" lon="2.68735">
        <ele>105</ele>
        <time>2026-02-11T14:02:28.317+00:00</time>
      </trkpt>
      <trkpt lat="48.45134" lon="2.68739">
        <ele>106</ele>
        <time>2026-02-11T14:02:33.317+00:00</time>
      </trkpt>
      <trkpt lat="48.45131" lon="2.68736">
        <ele>106</ele>
        <time>2026-02-11T14:02:37.565+00:00</time>
      </trkpt>
      <trkpt lat="48.45128" lon="2.68734">
        <ele>105</ele>
        <time>2026-02-11T14:02:41.942+00:00</time>
      </trkpt>
      <trkpt lat="48.45125" lon="2.68736">
        <ele>106</ele>
        <time>2026-02-11T14:02:46.317+00:00</time>
      </trkpt>
      <trkpt lat="48.45123" lon="2.68742">
        <ele>102</ele>
        <time>2026-02-11T14:02:50.804+00:00</time>
      </trkpt>
      <trkpt lat="48.45119" lon="2.68743">
        <ele>102</ele>
        <time>2026-02-11T14:02:55.284+00:00</time>
      </trkpt>
      <trkpt lat="48.45115" lon="2.68745">
        <ele>102</ele>
        <time>2026-02-11T14:02:59.445+00:00</time>
      </trkpt>
      <trkpt lat="48.4511" lon="2.68745">
        <ele>102</ele>
        <time>2026-02-11T14:03:03.539+00:00</time>
      </trkpt>
      <trkpt lat="48.45105" lon="2.68744">
        <ele>102</ele>
        <time>2026-02-11T14:03:07.982+00:00</time>
      </trkpt>
      <trkpt lat="48.45101" lon="2.68743">
        <ele>102</ele>
        <time>2026-02-11T14:03:12.162+00:00</time>
      </trkpt>
      <trkpt lat="48.45096" lon="2.6874">
        <ele>99</ele>
        <time>2026-02-11T14:03:16.683+00:00</time>
      </trkpt>
      <trkpt lat="48.45091" lon="2.68738">
        <ele>99</ele>
        <time>2026-02-11T14:03:21.084+00:00</time>
      </trkpt>
      <trkpt lat="48.45087" lon="2.6874">
        <ele>99</ele>
        <time>2026-02-11T14:03:25.605+00:00</time>
      </trkpt>
      <trkpt lat="48.45081" lon="2.6874">
        <ele>99</ele>
        <time>2026-02-11T14:03:30.007+00:00</time>
      </trkpt>
      <trkpt lat="48.45076" lon="2.68741">
        <ele>99</ele>
        <time>2026-02-11T14:03:34.317+00:00</time>
      </trkpt>
      <trkpt lat="48.45071" lon="2.68742">
        <ele>99</ele>
        <time>2026-02-11T14:03:38.888+00:00</time>
      </trkpt>
      <trkpt lat="48.45065" lon="2.68742">
        <ele>99</ele>
        <time>2026-02-11T14:03:43.279+00:00</time>
      </trkpt>
      <trkpt lat="48.45059" lon="2.6874">
        <ele>99</ele>
        <time>2026-02-11T14:03:47.663+00:00</time>
      </trkpt>
      <trkpt lat="48.45053" lon="2.68739">
        <ele>99</ele>
        <time>2026-02-11T14:03:52.082+00:00</time>
      </trkpt>
      <trkpt lat="48.45047" lon="2.68738">
        <ele>99</ele>
        <time>2026-02-11T14:03:56.483+00:00</time>
      </trkpt>
      <trkpt lat="48.45041" lon="2.68738">
        <ele>98</ele>
        <time>2026-02-11T14:04:00.902+00:00</time>
      </trkpt>
      <trkpt lat="48.45036" lon="2.68736">
        <ele>98</ele>
        <time>2026-02-11T14:04:05.264+00:00</time>
      </trkpt>
      <trkpt lat="48.4503" lon="2.68735">
        <ele>98</ele>
        <time>2026-02-11T14:04:09.321+00:00</time>
      </trkpt>
      <trkpt lat="48.45024" lon="2.68735">
        <ele>98</ele>
        <time>2026-02-11T14:04:13.278+00:00</time>
      </trkpt>
      <trkpt lat="48.45018" lon="2.68734">
        <ele>98</ele>
        <time>2026-02-11T14:04:18.317+00:00</time>
      </trkpt>
      <trkpt lat="48.45012" lon="2.68735">
        <ele>98</ele>
        <time>2026-02-11T14:04:22.664+00:00</time>
      </trkpt>
      <trkpt lat="48.45008" lon="2.68735">
        <ele>98</ele>
        <time>2026-02-11T14:04:27.020+00:00</time>
      </trkpt>
      <trkpt lat="48.45005" lon="2.68732">
        <ele>98</ele>
        <time>2026-02-11T14:04:31.317+00:00</time>
      </trkpt>
      <trkpt lat="48.45004" lon="2.68722">
        <ele>98</ele>
        <time>2026-02-11T14:04:40.317+00:00</time>
      </trkpt>
      <trkpt lat="48.45004" lon="2.68721">
        <ele>98</ele>
        <time>2026-02-11T14:04:44.317+00:00</time>
      </trkpt>
      <trkpt lat="48.45004" lon="2.68721">
        <ele>98</ele>
        <time>2026-02-11T14:04:49.317+00:00</time>
      </trkpt>
      <trkpt lat="48.45" lon="2.68714">
        <ele>98</ele>
        <time>2026-02-11T14:04:53.864+00:00</time>
      </trkpt>
      <trkpt lat="48.44994" lon="2.68711">
        <ele>98</ele>
        <time>2026-02-11T14:04:58.086+00:00</time>
      </trkpt>
      <trkpt lat="48.44989" lon="2.6871">
        <ele>98</ele>
        <time>2026-02-11T14:05:02.522+00:00</time>
      </trkpt>
      <trkpt lat="48.44986" lon="2.68707">
        <ele>98</ele>
        <time>2026-02-11T14:05:06.583+00:00</time>
      </trkpt>
      <trkpt lat="48.44983" lon="2.68703">
        <ele>98</ele>
        <time>2026-02-11T14:05:10.583+00:00</time>
      </trkpt>
      <trkpt lat="48.44978" lon="2.68699">
        <ele>98</ele>
        <time>2026-02-11T14:05:14.925+00:00</time>
      </trkpt>
      <trkpt lat="48.44974" lon="2.68699">
        <ele>98</ele>
        <time>2026-02-11T14:05:19.317+00:00</time>
      </trkpt>
      <trkpt lat="48.44969" lon="2.68702">
        <ele>98</ele>
        <time>2026-02-11T14:05:23.924+00:00</time>
      </trkpt>
      <trkpt lat="48.44964" lon="2.68702">
        <ele>98</ele>
        <time>2026-02-11T14:05:28.317+00:00</time>
      </trkpt>
      <trkpt lat="48.44962" lon="2.68696">
        <ele>98</ele>
        <time>2026-02-11T14:05:32.744+00:00</time>
      </trkpt>
      <trkpt lat="48.44959" lon="2.6869">
        <ele>98</ele>
        <time>2026-02-11T14:05:37.102+00:00</time>
      </trkpt>
      <trkpt lat="48.44956" lon="2.68686">
        <ele>100</ele>
        <time>2026-02-11T14:05:41.181+00:00</time>
      </trkpt>
      <trkpt lat="48.44953" lon="2.6868">
        <ele>101</ele>
        <time>2026-02-11T14:05:45.539+00:00</time>
      </trkpt>
      <trkpt lat="48.44949" lon="2.68677">
        <ele>101</ele>
        <time>2026-02-11T14:05:49.881+00:00</time>
      </trkpt>
      <trkpt lat="48.44945" lon="2.68674">
        <ele>101</ele>
        <time>2026-02-11T14:05:54.317+00:00</time>
      </trkpt>
      <trkpt lat="48.44939" lon="2.68671">
        <ele>101</ele>
        <time>2026-02-11T14:05:58.761+00:00</time>
      </trkpt>
      <trkpt lat="48.44935" lon="2.68668">
        <ele>101</ele>
        <time>2026-02-11T14:06:02.882+00:00</time>
      </trkpt>
      <trkpt lat="48.4493" lon="2.68662">
        <ele>104</ele>
        <time>2026-02-11T14:06:07.212+00:00</time>
      </trkpt>
      <trkpt lat="48.44927" lon="2.68656">
        <ele>104</ele>
        <time>2026-02-11T14:06:11.283+00:00</time>
      </trkpt>
      <trkpt lat="48.44923" lon="2.68653">
        <ele>103</ele>
        <time>2026-02-11T14:06:15.317+00:00</time>
      </trkpt>
      <trkpt lat="48.4492" lon="2.68649">
        <ele>103</ele>
        <time>2026-02-11T14:06:19.541+00:00</time>
      </trkpt>
      <trkpt lat="48.44916" lon="2.68644">
        <ele>103</ele>
        <time>2026-02-11T14:06:24.240+00:00</time>
      </trkpt>
      <trkpt lat="48.44915" lon="2.68638">
        <ele>103</ele>
        <time>2026-02-11T14:06:28.643+00:00</time>
      </trkpt>
      <trkpt lat="48.44911" lon="2.68633">
        <ele>103</ele>
        <time>2026-02-11T14:06:32.805+00:00</time>
      </trkpt>
      <trkpt lat="48.44907" lon="2.6863">
        <ele>103</ele>
        <time>2026-02-11T14:06:36.925+00:00</time>
      </trkpt>
      <trkpt lat="48.44903" lon="2.68627">
        <ele>103</ele>
        <time>2026-02-11T14:06:41.403+00:00</time>
      </trkpt>
      <trkpt lat="48.44898" lon="2.68626">
        <ele>105</ele>
        <time>2026-02-11T14:06:46.317+00:00</time>
      </trkpt>
      <trkpt lat="48.44894" lon="2.68625">
        <ele>105</ele>
        <time>2026-02-11T14:06:50.744+00:00</time>
      </trkpt>
      <trkpt lat="48.4489" lon="2.68617">
        <ele>105</ele>
        <time>2026-02-11T14:06:55.264+00:00</time>
      </trkpt>
      <trkpt lat="48.44889" lon="2.68608">
        <ele>105</ele>
        <time>2026-02-11T14:06:59.265+00:00</time>
      </trkpt>
      <trkpt lat="48.4489" lon="2.68598">
        <ele>105</ele>
        <time>2026-02-11T14:07:04.281+00:00</time>
      </trkpt>
      <trkpt lat="48.44891" lon="2.68591">
        <ele>106</ele>
        <time>2026-02-11T14:07:08.317+00:00</time>
      </trkpt>
      <trkpt lat="48.44893" lon="2.68583">
        <ele>106</ele>
        <time>2026-02-11T14:07:12.862+00:00</time>
      </trkpt>
      <trkpt lat="48.44893" lon="2.68576">
        <ele>106</ele>
        <time>2026-02-11T14:07:17.281+00:00</time>
      </trkpt>
      <trkpt lat="48.44892" lon="2.6857">
        <ele>106</ele>
        <time>2026-02-11T14:07:21.299+00:00</time>
      </trkpt>
      <trkpt lat="48.4489" lon="2.68564">
        <ele>106</ele>
        <time>2026-02-11T14:07:25.564+00:00</time>
      </trkpt>
      <trkpt lat="48.44885" lon="2.6856">
        <ele>106</ele>
        <time>2026-02-11T14:07:30.144+00:00</time>
      </trkpt>
      <trkpt lat="48.44882" lon="2.68556">
        <ele>106</ele>
        <time>2026-02-11T14:07:34.317+00:00</time>
      </trkpt>
      <trkpt lat="48.44877" lon="2.68552">
        <ele>106</ele>
        <time>2026-02-11T14:07:38.384+00:00</time>
      </trkpt>
      <trkpt lat="48.44873" lon="2.68548">
        <ele>110</ele>
        <time>2026-02-11T14:07:42.804+00:00</time>
      </trkpt>
      <trkpt lat="48.44868" lon="2.68543">
        <ele>110</ele>
        <time>2026-02-11T14:07:47.102+00:00</time>
      </trkpt>
      <trkpt lat="48.44865" lon="2.68536">
        <ele>112</ele>
        <time>2026-02-11T14:07:51.700+00:00</time>
      </trkpt>
      <trkpt lat="48.44862" lon="2.6853">
        <ele>112</ele>
        <time>2026-02-11T14:07:55.967+00:00</time>
      </trkpt>
      <trkpt lat="48.4486" lon="2.68526">
        <ele>112</ele>
        <time>2026-02-11T14:08:00.163+00:00</time>
      </trkpt>
      <trkpt lat="48.44858" lon="2.68523">
        <ele>112</ele>
        <time>2026-02-11T14:08:04.223+00:00</time>
      </trkpt>
      <trkpt lat="48.44857" lon="2.6852">
        <ele>112</ele>
        <time>2026-02-11T14:08:08.317+00:00</time>
      </trkpt>
      <trkpt lat="48.44853" lon="2.68518">
        <ele>112</ele>
        <time>2026-02-11T14:08:13.317+00:00</time>
      </trkpt>
      <trkpt lat="48.44849" lon="2.68517">
        <ele>112</ele>
        <time>2026-02-11T14:08:17.504+00:00</time>
      </trkpt>
      <trkpt lat="48.44845" lon="2.68517">
        <ele>115</ele>
        <time>2026-02-11T14:08:21.677+00:00</time>
      </trkpt>
      <trkpt lat="48.44843" lon="2.6851">
        <ele>120</ele>
        <time>2026-02-11T14:08:26.317+00:00</time>
      </trkpt>
      <trkpt lat="48.4484" lon="2.68504">
        <ele>120</ele>
        <time>2026-02-11T14:08:30.479+00:00</time>
      </trkpt>
      <trkpt lat="48.44837" lon="2.68498">
        <ele>120</ele>
        <time>2026-02-11T14:08:34.642+00:00</time>
      </trkpt>
      <trkpt lat="48.44832" lon="2.68493">
        <ele>120</ele>
        <time>2026-02-11T14:08:38.984+00:00</time>
      </trkpt>
      <trkpt lat="48.44829" lon="2.68487">
        <ele>120</ele>
        <time>2026-02-11T14:08:43.317+00:00</time>
      </trkpt>
      <trkpt lat="48.44823" lon="2.68484">
        <ele>126</ele>
        <time>2026-02-11T14:08:47.377+00:00</time>
      </trkpt>
      <trkpt lat="48.44819" lon="2.68483">
        <ele>126</ele>
        <time>2026-02-11T14:08:51.539+00:00</time>
      </trkpt>
      <trkpt lat="48.44814" lon="2.68482">
        <ele>126</ele>
        <time>2026-02-11T14:08:55.859+00:00</time>
      </trkpt>
      <trkpt lat="48.44809" lon="2.68484">
        <ele>126</ele>
        <time>2026-02-11T14:08:59.943+00:00</time>
      </trkpt>
      <trkpt lat="48.44805" lon="2.68485">
        <ele>126</ele>
        <time>2026-02-11T14:09:04.378+00:00</time>
      </trkpt>
      <trkpt lat="48.448" lon="2.68483">
        <ele>126</ele>
        <time>2026-02-11T14:09:08.397+00:00</time>
      </trkpt>
      <trkpt lat="48.44796" lon="2.68481">
        <ele>126</ele>
        <time>2026-02-11T14:09:12.485+00:00</time>
      </trkpt>
      <trkpt lat="48.4479" lon="2.68481">
        <ele>125</ele>
        <time>2026-02-11T14:09:17.124+00:00</time>
      </trkpt>
      <trkpt lat="48.44785" lon="2.6848">
        <ele>125</ele>
        <time>2026-02-11T14:09:21.600+00:00</time>
      </trkpt>
      <trkpt lat="48.44779" lon="2.68477">
        <ele>125</ele>
        <time>2026-02-11T14:09:26.039+00:00</time>
      </trkpt>
      <trkpt lat="48.44774" lon="2.68474">
        <ele>125</ele>
        <time>2026-02-11T14:09:30.539+00:00</time>
      </trkpt>
      <trkpt lat="48.44768" lon="2.6847">
        <ele>125</ele>
        <time>2026-02-11T14:09:35.156+00:00</time>
      </trkpt>
      <trkpt lat="48.44764" lon="2.68465">
        <ele>125</ele>
        <time>2026-02-11T14:09:39.702+00:00</time>
      </trkpt>
      <trkpt lat="48.4476" lon="2.6846">
        <ele>122</ele>
        <time>2026-02-11T14:09:44.060+00:00</time>
      </trkpt>
      <trkpt lat="48.44756" lon="2.68454">
        <ele>125</ele>
        <time>2026-02-11T14:09:48.180+00:00</time>
      </trkpt>
      <trkpt lat="48.44753" lon="2.68449">
        <ele>125</ele>
        <time>2026-02-11T14:09:52.275+00:00</time>
      </trkpt>
      <trkpt lat="48.44751" lon="2.68442">
        <ele>125</ele>
        <time>2026-02-11T14:09:56.762+00:00</time>
      </trkpt>
      <trkpt lat="48.44748" lon="2.68435">
        <ele>125</ele>
        <time>2026-02-11T14:10:01.180+00:00</time>
      </trkpt>
      <trkpt lat="48.44746" lon="2.68428">
        <ele>127</ele>
        <time>2026-02-11T14:10:05.438+00:00</time>
      </trkpt>
      <trkpt lat="48.44743" lon="2.6842">
        <ele>127</ele>
        <time>2026-02-11T14:10:10.035+00:00</time>
      </trkpt>
      <trkpt lat="48.4474" lon="2.68414">
        <ele>127</ele>
        <time>2026-02-11T14:10:14.317+00:00</time>
      </trkpt>
      <trkpt lat="48.44745" lon="2.68401">
        <ele>131</ele>
        <time>2026-02-11T14:10:42.317+00:00</time>
      </trkpt>
      <trkpt lat="48.44747" lon="2.68408">
        <ele>127</ele>
        <time>2026-02-11T14:10:46.843+00:00</time>
      </trkpt>
      <trkpt lat="48.44753" lon="2.68412">
        <ele>127</ele>
        <time>2026-02-11T14:10:51.317+00:00</time>
      </trkpt>
      <trkpt lat="48.44757" lon="2.68417">
        <ele>127</ele>
        <time>2026-02-11T14:10:55.842+00:00</time>
      </trkpt>
      <trkpt lat="48.44761" lon="2.68422">
        <ele>127</ele>
        <time>2026-02-11T14:11:00.340+00:00</time>
      </trkpt>
      <trkpt lat="48.44764" lon="2.68429">
        <ele>127</ele>
        <time>2026-02-11T14:11:04.918+00:00</time>
      </trkpt>
      <trkpt lat="48.44766" lon="2.68435">
        <ele>129</ele>
        <time>2026-02-11T14:11:09.057+00:00</time>
      </trkpt>
      <trkpt lat="48.44769" lon="2.68443">
        <ele>129</ele>
        <time>2026-02-11T14:11:13.542+00:00</time>
      </trkpt>
      <trkpt lat="48.44774" lon="2.68447">
        <ele>129</ele>
        <time>2026-02-11T14:11:18.317+00:00</time>
      </trkpt>
      <trkpt lat="48.44778" lon="2.68453">
        <ele>129</ele>
        <time>2026-02-11T14:11:22.484+00:00</time>
      </trkpt>
      <trkpt lat="48.44783" lon="2.68455">
        <ele>129</ele>
        <time>2026-02-11T14:11:26.782+00:00</time>
      </trkpt>
      <trkpt lat="48.44789" lon="2.68452">
        <ele>129</ele>
        <time>2026-02-11T14:11:31.200+00:00</time>
      </trkpt>
      <trkpt lat="48.44794" lon="2.68447">
        <ele>131</ele>
        <time>2026-02-11T14:11:35.541+00:00</time>
      </trkpt>
      <trkpt lat="48.44806" lon="2.68439">
        <ele>131</ele>
        <time>2026-02-11T14:11:58.898+00:00</time>
      </trkpt>
      <trkpt lat="48.44807" lon="2.68437">
        <ele>131</ele>
        <time>2026-02-11T14:12:03.281+00:00</time>
      </trkpt>
      <trkpt lat="48.44813" lon="2.68434">
        <ele>131</ele>
        <time>2026-02-11T14:12:07.317+00:00</time>
      </trkpt>
      <trkpt lat="48.44817" lon="2.68429">
        <ele>135</ele>
        <time>2026-02-11T14:12:11.719+00:00</time>
      </trkpt>
      <trkpt lat="48.4482" lon="2.68425">
        <ele>134</ele>
        <time>2026-02-11T14:12:16.060+00:00</time>
      </trkpt>
      <trkpt lat="48.44823" lon="2.6842">
        <ele>134</ele>
        <time>2026-02-11T14:12:20.616+00:00</time>
      </trkpt>
      <trkpt lat="48.44826" lon="2.68414">
        <ele>134</ele>
        <time>2026-02-11T14:12:25.162+00:00</time>
      </trkpt>
      <trkpt lat="48.4483" lon="2.68409">
        <ele>134</ele>
        <time>2026-02-11T14:12:29.317+00:00</time>
      </trkpt>
      <trkpt lat="48.44833" lon="2.68405">
        <ele>134</ele>
        <time>2026-02-11T14:12:33.641+00:00</time>
      </trkpt>
      <trkpt lat="48.44833" lon="2.68396">
        <ele>135</ele>
        <time>2026-02-11T14:14:46.317+00:00</time>
      </trkpt>
      <trkpt lat="48.44834" lon="2.68395">
        <ele>135</ele>
        <time>2026-02-11T14:14:50.317+00:00</time>
      </trkpt>
      <trkpt lat="48.44838" lon="2.68395">
        <ele>135</ele>
        <time>2026-02-11T14:14:55.039+00:00</time>
      </trkpt>
      <trkpt lat="48.44844" lon="2.684">
        <ele>135</ele>
        <time>2026-02-11T14:14:59.058+00:00</time>
      </trkpt>
      <trkpt lat="48.4485" lon="2.68402">
        <ele>130</ele>
        <time>2026-02-11T14:15:03.059+00:00</time>
      </trkpt>
      <trkpt lat="48.44855" lon="2.68402">
        <ele>130</ele>
        <time>2026-02-11T14:15:07.280+00:00</time>
      </trkpt>
      <trkpt lat="48.44859" lon="2.684">
        <ele>130</ele>
        <time>2026-02-11T14:15:11.579+00:00</time>
      </trkpt>
      <trkpt lat="48.44863" lon="2.68395">
        <ele>130</ele>
        <time>2026-02-11T14:15:16.083+00:00</time>
      </trkpt>
      <trkpt lat="48.44867" lon="2.68391">
        <ele>130</ele>
        <time>2026-02-11T14:15:20.324+00:00</time>
      </trkpt>
      <trkpt lat="48.44871" lon="2.68387">
        <ele>130</ele>
        <time>2026-02-11T14:15:24.317+00:00</time>
      </trkpt>
      <trkpt lat="48.44876" lon="2.68385">
        <ele>123</ele>
        <time>2026-02-11T14:15:28.658+00:00</time>
      </trkpt>
      <trkpt lat="48.44881" lon="2.68383">
        <ele>123</ele>
        <time>2026-02-11T14:15:33.317+00:00</time>
      </trkpt>
      <trkpt lat="48.44886" lon="2.6838">
        <ele>123</ele>
        <time>2026-02-11T14:15:38.278+00:00</time>
      </trkpt>
      <trkpt lat="48.44891" lon="2.68374">
        <ele>124</ele>
        <time>2026-02-11T14:15:42.578+00:00</time>
      </trkpt>
      <trkpt lat="48.4489" lon="2.68364">
        <ele>124</ele>
        <time>2026-02-11T14:15:47.178+00:00</time>
      </trkpt>
      <trkpt lat="48.44888" lon="2.68357">
        <ele>124</ele>
        <time>2026-02-11T14:15:51.317+00:00</time>
      </trkpt>
      <trkpt lat="48.44886" lon="2.68351">
        <ele>124</ele>
        <time>2026-02-11T14:15:55.681+00:00</time>
      </trkpt>
      <trkpt lat="48.44884" lon="2.68346">
        <ele>123</ele>
        <time>2026-02-11T14:15:59.843+00:00</time>
      </trkpt>
      <trkpt lat="48.44881" lon="2.68341">
        <ele>123</ele>
        <time>2026-02-11T14:16:03.861+00:00</time>
      </trkpt>
      <trkpt lat="48.44878" lon="2.68337">
        <ele>123</ele>
        <time>2026-02-11T14:16:07.922+00:00</time>
      </trkpt>
      <trkpt lat="48.44874" lon="2.68333">
        <ele>130</ele>
        <time>2026-02-11T14:16:12.382+00:00</time>
      </trkpt>
      <trkpt lat="48.4487" lon="2.68332">
        <ele>130</ele>
        <time>2026-02-11T14:16:16.478+00:00</time>
      </trkpt>
      <trkpt lat="48.44865" lon="2.68332">
        <ele>130</ele>
        <time>2026-02-11T14:16:21.203+00:00</time>
      </trkpt>
      <trkpt lat="48.44861" lon="2.68331">
        <ele>130</ele>
        <time>2026-02-11T14:16:25.317+00:00</time>
      </trkpt>
      <trkpt lat="48.44858" lon="2.68329">
        <ele>130</ele>
        <time>2026-02-11T14:16:29.598+00:00</time>
      </trkpt>
      <trkpt lat="48.44854" lon="2.68327">
        <ele>130</ele>
        <time>2026-02-11T14:16:34.076+00:00</time>
      </trkpt>
      <trkpt lat="48.4485" lon="2.68324">
        <ele>130</ele>
        <time>2026-02-11T14:16:38.264+00:00</time>
      </trkpt>
      <trkpt lat="48.44848" lon="2.68319">
        <ele>129</ele>
        <time>2026-02-11T14:16:42.521+00:00</time>
      </trkpt>
      <trkpt lat="48.44844" lon="2.68317">
        <ele>133</ele>
        <time>2026-02-11T14:16:46.537+00:00</time>
      </trkpt>
      <trkpt lat="48.44839" lon="2.68312">
        <ele>133</ele>
        <time>2026-02-11T14:16:50.958+00:00</time>
      </trkpt>
      <trkpt lat="48.44835" lon="2.68307">
        <ele>133</ele>
        <time>2026-02-11T14:16:55.317+00:00</time>
      </trkpt>
      <trkpt lat="48.44829" lon="2.68304">
        <ele>133</ele>
        <time>2026-02-11T14:16:59.778+00:00</time>
      </trkpt>
      <trkpt lat="48.44825" lon="2.68297">
        <ele>133</ele>
        <time>2026-02-11T14:17:04.317+00:00</time>
      </trkpt>
      <trkpt lat="48.4482" lon="2.68292">
        <ele>133</ele>
        <time>2026-02-11T14:17:08.640+00:00</time>
      </trkpt>
      <trkpt lat="48.44819" lon="2.68284">
        <ele>136</ele>
        <time>2026-02-11T14:17:12.880+00:00</time>
      </trkpt>
      <trkpt lat="48.44819" lon="2.68275">
        <ele>136</ele>
        <time>2026-02-11T14:17:17.299+00:00</time>
      </trkpt>
      <trkpt lat="48.44818" lon="2.68267">
        <ele>136</ele>
        <time>2026-02-11T14:17:21.683+00:00</time>
      </trkpt>
      <trkpt lat="48.44816" lon="2.6826">
        <ele>136</ele>
        <time>2026-02-11T14:17:26.119+00:00</time>
      </trkpt>
      <trkpt lat="48.44811" lon="2.68256">
        <ele>136</ele>
        <time>2026-02-11T14:17:30.162+00:00</time>
      </trkpt>
      <trkpt lat="48.44807" lon="2.68252">
        <ele>136</ele>
        <time>2026-02-11T14:17:34.317+00:00</time>
      </trkpt>
      <trkpt lat="48.44803" lon="2.68248">
        <ele>136</ele>
        <time>2026-02-11T14:17:38.403+00:00</time>
      </trkpt>
      <trkpt lat="48.44797" lon="2.68245">
        <ele>136</ele>
        <time>2026-02-11T14:17:42.843+00:00</time>
      </trkpt>
      <trkpt lat="48.44793" lon="2.6824">
        <ele>136</ele>
        <time>2026-02-11T14:17:46.898+00:00</time>
      </trkpt>
      <trkpt lat="48.44788" lon="2.68235">
        <ele>137</ele>
        <time>2026-02-11T14:17:51.317+00:00</time>
      </trkpt>
      <trkpt lat="48.44785" lon="2.68229">
        <ele>137</ele>
        <time>2026-02-11T14:17:55.958+00:00</time>
      </trkpt>
      <trkpt lat="48.44781" lon="2.68223">
        <ele>137</ele>
        <time>2026-02-11T14:18:00.223+00:00</time>
      </trkpt>
      <trkpt lat="48.44779" lon="2.68216">
        <ele>137</ele>
        <time>2026-02-11T14:18:04.679+00:00</time>
      </trkpt>
      <trkpt lat="48.44776" lon="2.68209">
        <ele>137</ele>
        <time>2026-02-11T14:18:08.779+00:00</time>
      </trkpt>
      <trkpt lat="48.44772" lon="2.68203">
        <ele>135</ele>
        <time>2026-02-11T14:18:13.138+00:00</time>
      </trkpt>
      <trkpt lat="48.44766" lon="2.68201">
        <ele>135</ele>
        <time>2026-02-11T14:18:17.317+00:00</time>
      </trkpt>
      <trkpt lat="48.44761" lon="2.68197">
        <ele>135</ele>
        <time>2026-02-11T14:18:22.059+00:00</time>
      </trkpt>
      <trkpt lat="48.44756" lon="2.68192">
        <ele>135</ele>
        <time>2026-02-11T14:18:26.478+00:00</time>
      </trkpt>
      <trkpt lat="48.44752" lon="2.68185">
        <ele>135</ele>
        <time>2026-02-11T14:18:30.841+00:00</time>
      </trkpt>
      <trkpt lat="48.44748" lon="2.68178">
        <ele>133</ele>
        <time>2026-02-11T14:18:35.001+00:00</time>
      </trkpt>
      <trkpt lat="48.44743" lon="2.68174">
        <ele>133</ele>
        <time>2026-02-11T14:18:39.223+00:00</time>
      </trkpt>
      <trkpt lat="48.44738" lon="2.68169">
        <ele>133</ele>
        <time>2026-02-11T14:18:43.498+00:00</time>
      </trkpt>
      <trkpt lat="48.44734" lon="2.68161">
        <ele>136</ele>
        <time>2026-02-11T14:18:48.222+00:00</time>
      </trkpt>
      <trkpt lat="48.4473" lon="2.68156">
        <ele>136</ele>
        <time>2026-02-11T14:18:52.300+00:00</time>
      </trkpt>
      <trkpt lat="48.44726" lon="2.68149">
        <ele>135</ele>
        <time>2026-02-11T14:18:56.317+00:00</time>
      </trkpt>
      <trkpt lat="48.44723" lon="2.68141">
        <ele>135</ele>
        <time>2026-02-11T14:19:00.779+00:00</time>
      </trkpt>
      <trkpt lat="48.44718" lon="2.68139">
        <ele>135</ele>
        <time>2026-02-11T14:19:05.063+00:00</time>
      </trkpt>
      <trkpt lat="48.44712" lon="2.68143">
        <ele>135</ele>
        <time>2026-02-11T14:19:09.839+00:00</time>
      </trkpt>
      <trkpt lat="48.44708" lon="2.68145">
        <ele>137</ele>
        <time>2026-02-11T14:19:14.180+00:00</time>
      </trkpt>
      <trkpt lat="48.44704" lon="2.6815">
        <ele>137</ele>
        <time>2026-02-11T14:19:18.318+00:00</time>
      </trkpt>
      <trkpt lat="48.447" lon="2.68157">
        <ele>137</ele>
        <time>2026-02-11T14:19:22.317+00:00</time>
      </trkpt>
      <trkpt lat="48.44691" lon="2.68145">
        <ele>137</ele>
        <time>2026-02-11T14:19:37.317+00:00</time>
      </trkpt>
      <trkpt lat="48.44691" lon="2.68145">
        <ele>137</ele>
        <time>2026-02-11T14:19:42.317+00:00</time>
      </trkpt>
      <trkpt lat="48.44691" lon="2.68145">
        <ele>137</ele>
        <time>2026-02-11T14:19:48.317+00:00</time>
      </trkpt>
      <trkpt lat="48.4469" lon="2.68145">
        <ele>137</ele>
        <time>2026-02-11T14:19:53.317+00:00</time>
      </trkpt>
      <trkpt lat="48.44686" lon="2.68142">
        <ele>137</ele>
        <time>2026-02-11T14:19:57.763+00:00</time>
      </trkpt>
      <trkpt lat="48.44681" lon="2.68136">
        <ele>137</ele>
        <time>2026-02-11T14:20:02.121+00:00</time>
      </trkpt>
      <trkpt lat="48.44678" lon="2.6813">
        <ele>138</ele>
        <time>2026-02-11T14:20:06.523+00:00</time>
      </trkpt>
      <trkpt lat="48.44674" lon="2.68124">
        <ele>139</ele>
        <time>2026-02-11T14:20:10.858+00:00</time>
      </trkpt>
      <trkpt lat="48.44671" lon="2.68119">
        <ele>139</ele>
        <time>2026-02-11T14:20:14.900+00:00</time>
      </trkpt>
      <trkpt lat="48.44667" lon="2.68114">
        <ele>139</ele>
        <time>2026-02-11T14:20:19.301+00:00</time>
      </trkpt>
      <trkpt lat="48.44663" lon="2.68109">
        <ele>139</ele>
        <time>2026-02-11T14:20:23.833+00:00</time>
      </trkpt>
      <trkpt lat="48.44661" lon="2.68105">
        <ele>139</ele>
        <time>2026-02-11T14:20:28.020+00:00</time>
      </trkpt>
      <trkpt lat="48.44661" lon="2.68105">
        <ele>139</ele>
        <time>2026-02-11T14:20:32.182+00:00</time>
      </trkpt>
      <trkpt lat="48.44657" lon="2.68096">
        <ele>139</ele>
        <time>2026-02-11T14:20:36.317+00:00</time>
      </trkpt>
      <trkpt lat="48.4466" lon="2.68089">
        <ele>139</ele>
        <time>2026-02-11T14:20:40.560+00:00</time>
      </trkpt>
      <trkpt lat="48.44658" lon="2.6808">
        <ele>139</ele>
        <time>2026-02-11T14:20:45.200+00:00</time>
      </trkpt>
      <trkpt lat="48.44654" lon="2.68072">
        <ele>139</ele>
        <time>2026-02-11T14:20:49.347+00:00</time>
      </trkpt>
      <trkpt lat="48.4465" lon="2.68066">
        <ele>142</ele>
        <time>2026-02-11T14:20:53.781+00:00</time>
      </trkpt>
      <trkpt lat="48.44644" lon="2.68065">
        <ele>142</ele>
        <time>2026-02-11T14:20:57.901+00:00</time>
      </trkpt>
      <trkpt lat="48.44639" lon="2.68062">
        <ele>142</ele>
        <time>2026-02-11T14:21:02.039+00:00</time>
      </trkpt>
      <trkpt lat="48.44636" lon="2.68055">
        <ele>142</ele>
        <time>2026-02-11T14:21:06.483+00:00</time>
      </trkpt>
      <trkpt lat="48.44633" lon="2.6805">
        <ele>142</ele>
        <time>2026-02-11T14:21:10.782+00:00</time>
      </trkpt>
      <trkpt lat="48.44628" lon="2.68046">
        <ele>142</ele>
        <time>2026-02-11T14:21:14.937+00:00</time>
      </trkpt>
      <trkpt lat="48.44623" lon="2.68042">
        <ele>142</ele>
        <time>2026-02-11T14:21:19.264+00:00</time>
      </trkpt>
      <trkpt lat="48.44617" lon="2.68037">
        <ele>142</ele>
        <time>2026-02-11T14:21:23.502+00:00</time>
      </trkpt>
      <trkpt lat="48.44612" lon="2.68034">
        <ele>142</ele>
        <time>2026-02-11T14:21:27.837+00:00</time>
      </trkpt>
      <trkpt lat="48.44607" lon="2.6803">
        <ele>142</ele>
        <time>2026-02-11T14:21:32.101+00:00</time>
      </trkpt>
      <trkpt lat="48.44601" lon="2.68025">
        <ele>142</ele>
        <time>2026-02-11T14:21:36.317+00:00</time>
      </trkpt>
      <trkpt lat="48.44598" lon="2.68016">
        <ele>142</ele>
        <time>2026-02-11T14:21:40.838+00:00</time>
      </trkpt>
      <trkpt lat="48.44596" lon="2.68008">
        <ele>141</ele>
        <time>2026-02-11T14:21:44.880+00:00</time>
      </trkpt>
      <trkpt lat="48.44593" lon="2.68001">
        <ele>141</ele>
        <time>2026-02-11T14:21:49.222+00:00</time>
      </trkpt>
      <trkpt lat="48.4459" lon="2.67995">
        <ele>141</ele>
        <time>2026-02-11T14:21:53.701+00:00</time>
      </trkpt>
      <trkpt lat="48.44588" lon="2.67987">
        <ele>141</ele>
        <time>2026-02-11T14:21:58.137+00:00</time>
      </trkpt>
      <trkpt lat="48.44585" lon="2.67979">
        <ele>141</ele>
        <time>2026-02-11T14:22:02.521+00:00</time>
      </trkpt>
      <trkpt lat="48.44583" lon="2.6797">
        <ele>141</ele>
        <time>2026-02-11T14:22:06.880+00:00</time>
      </trkpt>
      <trkpt lat="48.44583" lon="2.6796">
        <ele>141</ele>
        <time>2026-02-11T14:22:11.138+00:00</time>
      </trkpt>
      <trkpt lat="48.44583" lon="2.67951">
        <ele>141</ele>
        <time>2026-02-11T14:22:15.581+00:00</time>
      </trkpt>
      <trkpt lat="48.44585" lon="2.67942">
        <ele>141</ele>
        <time>2026-02-11T14:22:19.821+00:00</time>
      </trkpt>
      <trkpt lat="48.44582" lon="2.67937">
        <ele>141</ele>
        <time>2026-02-11T14:22:24.097+00:00</time>
      </trkpt>
      <trkpt lat="48.44579" lon="2.6793">
        <ele>140</ele>
        <time>2026-02-11T14:22:28.317+00:00</time>
      </trkpt>
      <trkpt lat="48.44579" lon="2.67922">
        <ele>140</ele>
        <time>2026-02-11T14:22:32.941+00:00</time>
      </trkpt>
      <trkpt lat="48.44579" lon="2.67915">
        <ele>140</ele>
        <time>2026-02-11T14:22:37.138+00:00</time>
      </trkpt>
      <trkpt lat="48.44577" lon="2.67908">
        <ele>140</ele>
        <time>2026-02-11T14:22:41.540+00:00</time>
      </trkpt>
      <trkpt lat="48.44577" lon="2.67903">
        <ele>140</ele>
        <time>2026-02-11T14:22:45.840+00:00</time>
      </trkpt>
      <trkpt lat="48.44576" lon="2.67897">
        <ele>138</ele>
        <time>2026-02-11T14:22:49.900+00:00</time>
      </trkpt>
      <trkpt lat="48.44574" lon="2.67891">
        <ele>138</ele>
        <time>2026-02-11T14:22:54.140+00:00</time>
      </trkpt>
      <trkpt lat="48.4457" lon="2.67887">
        <ele>138</ele>
        <time>2026-02-11T14:22:58.261+00:00</time>
      </trkpt>
      <trkpt lat="48.44567" lon="2.67882">
        <ele>141</ele>
        <time>2026-02-11T14:23:02.317+00:00</time>
      </trkpt>
      <trkpt lat="48.44563" lon="2.67876">
        <ele>141</ele>
        <time>2026-02-11T14:23:06.782+00:00</time>
      </trkpt>
      <trkpt lat="48.44562" lon="2.67869">
        <ele>141</ele>
        <time>2026-02-11T14:23:11.039+00:00</time>
      </trkpt>
      <trkpt lat="48.44563" lon="2.67863">
        <ele>141</ele>
        <time>2026-02-11T14:23:15.317+00:00</time>
      </trkpt>
      <trkpt lat="48.44562" lon="2.67855">
        <ele>141</ele>
        <time>2026-02-11T14:23:20.141+00:00</time>
      </trkpt>
      <trkpt lat="48.4456" lon="2.67848">
        <ele>141</ele>
        <time>2026-02-11T14:23:24.527+00:00</time>
      </trkpt>
      <trkpt lat="48.4456" lon="2.67841">
        <ele>141</ele>
        <time>2026-02-11T14:23:28.604+00:00</time>
      </trkpt>
      <trkpt lat="48.44562" lon="2.67834">
        <ele>141</ele>
        <time>2026-02-11T14:23:32.660+00:00</time>
      </trkpt>
      <trkpt lat="48.44564" lon="2.67826">
        <ele>141</ele>
        <time>2026-02-11T14:23:37.185+00:00</time>
      </trkpt>
      <trkpt lat="48.44565" lon="2.67819">
        <ele>141</ele>
        <time>2026-02-11T14:23:41.317+00:00</time>
      </trkpt>
      <trkpt lat="48.44564" lon="2.67814">
        <ele>141</ele>
        <time>2026-02-11T14:23:45.317+00:00</time>
      </trkpt>
      <trkpt lat="48.44564" lon="2.67809">
        <ele>141</ele>
        <time>2026-02-11T14:23:50.259+00:00</time>
      </trkpt>
      <trkpt lat="48.44565" lon="2.67802">
        <ele>141</ele>
        <time>2026-02-11T14:23:54.317+00:00</time>
      </trkpt>
      <trkpt lat="48.44565" lon="2.67794">
        <ele>141</ele>
        <time>2026-02-11T14:23:58.825+00:00</time>
      </trkpt>
      <trkpt lat="48.44567" lon="2.67789">
        <ele>142</ele>
        <time>2026-02-11T14:24:02.867+00:00</time>
      </trkpt>
      <trkpt lat="48.44567" lon="2.67784">
        <ele>142</ele>
        <time>2026-02-11T14:24:07.317+00:00</time>
      </trkpt>
      <trkpt lat="48.44565" lon="2.67792">
        <ele>141</ele>
        <time>2026-02-11T14:24:12.317+00:00</time>
      </trkpt>
      <trkpt lat="48.44564" lon="2.67797">
        <ele>141</ele>
        <time>2026-02-11T14:24:17.317+00:00</time>
      </trkpt>
      <trkpt lat="48.44564" lon="2.67798">
        <ele>141</ele>
        <time>2026-02-11T14:24:22.317+00:00</time>
      </trkpt>
      <trkpt lat="48.44566" lon="2.67795">
        <ele>141</ele>
        <time>2026-02-11T14:24:55.317+00:00</time>
      </trkpt>
      <trkpt lat="48.44566" lon="2.67794">
        <ele>141</ele>
        <time>2026-02-11T14:24:59.317+00:00</time>
      </trkpt>
      <trkpt lat="48.44566" lon="2.67792">
        <ele>141</ele>
        <time>2026-02-11T14:25:06.317+00:00</time>
      </trkpt>
      <trkpt lat="48.44566" lon="2.67789">
        <ele>142</ele>
        <time>2026-02-11T14:25:10.317+00:00</time>
      </trkpt>
      <trkpt lat="48.44564" lon="2.67784">
        <ele>142</ele>
        <time>2026-02-11T14:25:14.317+00:00</time>
      </trkpt>
      <trkpt lat="48.44563" lon="2.67776">
        <ele>142</ele>
        <time>2026-02-11T14:25:24.317+00:00</time>
      </trkpt>
      <trkpt lat="48.44563" lon="2.67776">
        <ele>142</ele>
        <time>2026-02-11T14:25:30.317+00:00</time>
      </trkpt>
      <trkpt lat="48.44563" lon="2.67775">
        <ele>142</ele>
        <time>2026-02-11T14:25:34.317+00:00</time>
      </trkpt>
      <trkpt lat="48.44559" lon="2.6777">
        <ele>142</ele>
        <time>2026-02-11T14:25:39.317+00:00</time>
      </trkpt>
      <trkpt lat="48.44554" lon="2.67769">
        <ele>142</ele>
        <time>2026-02-11T14:25:44.260+00:00</time>
      </trkpt>
      <trkpt lat="48.44551" lon="2.67769">
        <ele>142</ele>
        <time>2026-02-11T14:26:01.317+00:00</time>
      </trkpt>
      <trkpt lat="48.44551" lon="2.67769">
        <ele>142</ele>
        <time>2026-02-11T14:26:05.317+00:00</time>
      </trkpt>
      <trkpt lat="48.44549" lon="2.6777">
        <ele>142</ele>
        <time>2026-02-11T14:26:10.317+00:00</time>
      </trkpt>
      <trkpt lat="48.44545" lon="2.67772">
        <ele>142</ele>
        <time>2026-02-11T14:26:14.317+00:00</time>
      </trkpt>
      <trkpt lat="48.44542" lon="2.67778">
        <ele>142</ele>
        <time>2026-02-11T14:26:18.639+00:00</time>
      </trkpt>
      <trkpt lat="48.4453" lon="2.67774">
        <ele>147</ele>
        <time>2026-02-11T14:26:37.317+00:00</time>
      </trkpt>
      <trkpt lat="48.44526" lon="2.67769">
        <ele>147</ele>
        <time>2026-02-11T14:26:41.885+00:00</time>
      </trkpt>
      <trkpt lat="48.4452" lon="2.67768">
        <ele>147</ele>
        <time>2026-02-11T14:26:45.949+00:00</time>
      </trkpt>
      <trkpt lat="48.44515" lon="2.67767">
        <ele>147</ele>
        <time>2026-02-11T14:26:50.160+00:00</time>
      </trkpt>
      <trkpt lat="48.44509" lon="2.67767">
        <ele>147</ele>
        <time>2026-02-11T14:26:54.280+00:00</time>
      </trkpt>
      <trkpt lat="48.44501" lon="2.67768">
        <ele>147</ele>
        <time>2026-02-11T14:26:59.317+00:00</time>
      </trkpt>
      <trkpt lat="48.44494" lon="2.67768">
        <ele>147</ele>
        <time>2026-02-11T14:27:03.604+00:00</time>
      </trkpt>
      <trkpt lat="48.44487" lon="2.67766">
        <ele>147</ele>
        <time>2026-02-11T14:27:07.826+00:00</time>
      </trkpt>
      <trkpt lat="48.44481" lon="2.67767">
        <ele>146</ele>
        <time>2026-02-11T14:27:11.963+00:00</time>
      </trkpt>
      <trkpt lat="48.44475" lon="2.67764">
        <ele>146</ele>
        <time>2026-02-11T14:27:16.825+00:00</time>
      </trkpt>
      <trkpt lat="48.44472" lon="2.6776">
        <ele>146</ele>
        <time>2026-02-11T14:27:21.099+00:00</time>
      </trkpt>
      <trkpt lat="48.44468" lon="2.67753">
        <ele>146</ele>
        <time>2026-02-11T14:27:25.317+00:00</time>
      </trkpt>
      <trkpt lat="48.44469" lon="2.67744">
        <ele>146</ele>
        <time>2026-02-11T14:27:29.664+00:00</time>
      </trkpt>
      <trkpt lat="48.44472" lon="2.67738">
        <ele>146</ele>
        <time>2026-02-11T14:27:33.963+00:00</time>
      </trkpt>
      <trkpt lat="48.44474" lon="2.6773">
        <ele>146</ele>
        <time>2026-02-11T14:27:38.305+00:00</time>
      </trkpt>
      <trkpt lat="48.44475" lon="2.67722">
        <ele>146</ele>
        <time>2026-02-11T14:27:42.460+00:00</time>
      </trkpt>
      <trkpt lat="48.44477" lon="2.67714">
        <ele>146</ele>
        <time>2026-02-11T14:27:46.845+00:00</time>
      </trkpt>
      <trkpt lat="48.44479" lon="2.67707">
        <ele>145</ele>
        <time>2026-02-11T14:27:51.307+00:00</time>
      </trkpt>
      <trkpt lat="48.4448" lon="2.67699">
        <ele>145</ele>
        <time>2026-02-11T14:27:55.317+00:00</time>
      </trkpt>
      <trkpt lat="48.44481" lon="2.67691">
        <ele>145</ele>
        <time>2026-02-11T14:27:59.479+00:00</time>
      </trkpt>
      <trkpt lat="48.44482" lon="2.67684">
        <ele>145</ele>
        <time>2026-02-11T14:28:03.539+00:00</time>
      </trkpt>
      <trkpt lat="48.44482" lon="2.67677">
        <ele>146</ele>
        <time>2026-02-11T14:28:07.864+00:00</time>
      </trkpt>
      <trkpt lat="48.44479" lon="2.6767">
        <ele>146</ele>
        <time>2026-02-11T14:28:12.266+00:00</time>
      </trkpt>
      <trkpt lat="48.44477" lon="2.67662">
        <ele>146</ele>
        <time>2026-02-11T14:28:16.566+00:00</time>
      </trkpt>
      <trkpt lat="48.44477" lon="2.67655">
        <ele>146</ele>
        <time>2026-02-11T14:28:21.061+00:00</time>
      </trkpt>
      <trkpt lat="48.44478" lon="2.67646">
        <ele>147</ele>
        <time>2026-02-11T14:28:25.140+00:00</time>
      </trkpt>
      <trkpt lat="48.4448" lon="2.67639">
        <ele>147</ele>
        <time>2026-02-11T14:28:29.140+00:00</time>
      </trkpt>
      <trkpt lat="48.44484" lon="2.67631">
        <ele>147</ele>
        <time>2026-02-11T14:28:33.422+00:00</time>
      </trkpt>
      <trkpt lat="48.44488" lon="2.67624">
        <ele>147</ele>
        <time>2026-02-11T14:28:37.764+00:00</time>
      </trkpt>
      <trkpt lat="48.44494" lon="2.67623">
        <ele>147</ele>
        <time>2026-02-11T14:28:41.885+00:00</time>
      </trkpt>
      <trkpt lat="48.44499" lon="2.67621">
        <ele>147</ele>
        <time>2026-02-11T14:28:46.317+00:00</time>
      </trkpt>
      <trkpt lat="48.44501" lon="2.67618">
        <ele>147</ele>
        <time>2026-02-11T14:28:50.620+00:00</time>
      </trkpt>
      <trkpt lat="48.445" lon="2.67611">
        <ele>147</ele>
        <time>2026-02-11T14:28:54.946+00:00</time>
      </trkpt>
      <trkpt lat="48.44496" lon="2.67604">
        <ele>147</ele>
        <time>2026-02-11T14:28:59.381+00:00</time>
      </trkpt>
      <trkpt lat="48.44492" lon="2.676">
        <ele>147</ele>
        <time>2026-02-11T14:29:03.604+00:00</time>
      </trkpt>
      <trkpt lat="48.44489" lon="2.67592">
        <ele>147</ele>
        <time>2026-02-11T14:29:08.069+00:00</time>
      </trkpt>
      <trkpt lat="48.44492" lon="2.67585">
        <ele>147</ele>
        <time>2026-02-11T14:29:12.502+00:00</time>
      </trkpt>
      <trkpt lat="48.44491" lon="2.67577">
        <ele>147</ele>
        <time>2026-02-11T14:29:17.006+00:00</time>
      </trkpt>
      <trkpt lat="48.4449" lon="2.6757">
        <ele>147</ele>
        <time>2026-02-11T14:29:21.346+00:00</time>
      </trkpt>
      <trkpt lat="48.44492" lon="2.67562">
        <ele>147</ele>
        <time>2026-02-11T14:29:25.740+00:00</time>
      </trkpt>
      <trkpt lat="48.44496" lon="2.67556">
        <ele>147</ele>
        <time>2026-02-11T14:29:30.219+00:00</time>
      </trkpt>
      <trkpt lat="48.445" lon="2.67551">
        <ele>147</ele>
        <time>2026-02-11T14:29:34.639+00:00</time>
      </trkpt>
      <trkpt lat="48.44505" lon="2.67551">
        <ele>147</ele>
        <time>2026-02-11T14:29:38.921+00:00</time>
      </trkpt>
      <trkpt lat="48.44511" lon="2.67554">
        <ele>147</ele>
        <time>2026-02-11T14:29:43.280+00:00</time>
      </trkpt>
      <trkpt lat="48.44516" lon="2.67556">
        <ele>144</ele>
        <time>2026-02-11T14:29:47.317+00:00</time>
      </trkpt>
      <trkpt lat="48.44521" lon="2.6756">
        <ele>144</ele>
        <time>2026-02-11T14:29:51.982+00:00</time>
      </trkpt>
      <trkpt lat="48.44525" lon="2.67563">
        <ele>144</ele>
        <time>2026-02-11T14:29:55.999+00:00</time>
      </trkpt>
      <trkpt lat="48.4453" lon="2.67565">
        <ele>144</ele>
        <time>2026-02-11T14:30:00.317+00:00</time>
      </trkpt>
      <trkpt lat="48.44534" lon="2.67568">
        <ele>144</ele>
        <time>2026-02-11T14:30:04.544+00:00</time>
      </trkpt>
      <trkpt lat="48.4454" lon="2.67571">
        <ele>143</ele>
        <time>2026-02-11T14:30:08.943+00:00</time>
      </trkpt>
      <trkpt lat="48.44544" lon="2.67572">
        <ele>139</ele>
        <time>2026-02-11T14:30:12.983+00:00</time>
      </trkpt>
      <trkpt lat="48.4455" lon="2.67574">
        <ele>139</ele>
        <time>2026-02-11T14:30:17.300+00:00</time>
      </trkpt>
      <trkpt lat="48.44553" lon="2.67572">
        <ele>139</ele>
        <time>2026-02-11T14:30:22.317+00:00</time>
      </trkpt>
      <trkpt lat="48.44553" lon="2.6757">
        <ele>139</ele>
        <time>2026-02-11T14:30:26.803+00:00</time>
      </trkpt>
      <trkpt lat="48.44553" lon="2.67569">
        <ele>141</ele>
        <time>2026-02-11T14:30:31.317+00:00</time>
      </trkpt>
      <trkpt lat="48.44554" lon="2.67568">
        <ele>141</ele>
        <time>2026-02-11T14:30:36.317+00:00</time>
      </trkpt>
      <trkpt lat="48.44557" lon="2.67565">
        <ele>141</ele>
        <time>2026-02-11T14:30:40.862+00:00</time>
      </trkpt>
      <trkpt lat="48.44561" lon="2.67559">
        <ele>141</ele>
        <time>2026-02-11T14:30:45.204+00:00</time>
      </trkpt>
      <trkpt lat="48.44565" lon="2.67555">
        <ele>141</ele>
        <time>2026-02-11T14:30:49.222+00:00</time>
      </trkpt>
      <trkpt lat="48.44569" lon="2.67551">
        <ele>141</ele>
        <time>2026-02-11T14:30:53.462+00:00</time>
      </trkpt>
      <trkpt lat="48.44573" lon="2.67546">
        <ele>139</ele>
        <time>2026-02-11T14:30:57.857+00:00</time>
      </trkpt>
      <trkpt lat="48.44576" lon="2.67542">
        <ele>139</ele>
        <time>2026-02-11T14:31:02.103+00:00</time>
      </trkpt>
      <trkpt lat="48.44579" lon="2.67536">
        <ele>142</ele>
        <time>2026-02-11T14:31:06.463+00:00</time>
      </trkpt>
      <trkpt lat="48.44581" lon="2.6753">
        <ele>142</ele>
        <time>2026-02-11T14:31:10.859+00:00</time>
      </trkpt>
      <trkpt lat="48.44584" lon="2.67525">
        <ele>142</ele>
        <time>2026-02-11T14:31:15.317+00:00</time>
      </trkpt>
      <trkpt lat="48.44589" lon="2.67523">
        <ele>142</ele>
        <time>2026-02-11T14:31:19.600+00:00</time>
      </trkpt>
      <trkpt lat="48.44593" lon="2.67525">
        <ele>142</ele>
        <time>2026-02-11T14:31:24.180+00:00</time>
      </trkpt>
      <trkpt lat="48.44599" lon="2.67526">
        <ele>139</ele>
        <time>2026-02-11T14:31:28.763+00:00</time>
      </trkpt>
      <trkpt lat="48.44605" lon="2.67525">
        <ele>139</ele>
        <time>2026-02-11T14:31:33.121+00:00</time>
      </trkpt>
      <trkpt lat="48.4461" lon="2.67527">
        <ele>139</ele>
        <time>2026-02-11T14:31:37.678+00:00</time>
      </trkpt>
      <trkpt lat="48.44615" lon="2.67529">
        <ele>139</ele>
        <time>2026-02-11T14:31:41.942+00:00</time>
      </trkpt>
      <trkpt lat="48.44619" lon="2.67528">
        <ele>139</ele>
        <time>2026-02-11T14:31:46.762+00:00</time>
      </trkpt>
      <trkpt lat="48.44623" lon="2.67531">
        <ele>139</ele>
        <time>2026-02-11T14:31:50.918+00:00</time>
      </trkpt>
      <trkpt lat="48.44627" lon="2.67535">
        <ele>134</ele>
        <time>2026-02-11T14:31:54.943+00:00</time>
      </trkpt>
      <trkpt lat="48.44634" lon="2.67531">
        <ele>134</ele>
        <time>2026-02-11T14:35:11.317+00:00</time>
      </trkpt>
      <trkpt lat="48.44635" lon="2.67534">
        <ele>134</ele>
        <time>2026-02-11T14:35:15.317+00:00</time>
      </trkpt>
      <trkpt lat="48.4464" lon="2.67537">
        <ele>134</ele>
        <time>2026-02-11T14:35:19.845+00:00</time>
      </trkpt>
      <trkpt lat="48.44646" lon="2.6754">
        <ele>134</ele>
        <time>2026-02-11T14:35:24.133+00:00</time>
      </trkpt>
      <trkpt lat="48.44649" lon="2.67545">
        <ele>133</ele>
        <time>2026-02-11T14:35:28.317+00:00</time>
      </trkpt>
      <trkpt lat="48.44653" lon="2.67549">
        <ele>135</ele>
        <time>2026-02-11T14:35:33.018+00:00</time>
      </trkpt>
      <trkpt lat="48.44654" lon="2.67556">
        <ele>135</ele>
        <time>2026-02-11T14:35:38.180+00:00</time>
      </trkpt>
      <trkpt lat="48.44654" lon="2.67562">
        <ele>135</ele>
        <time>2026-02-11T14:35:42.317+00:00</time>
      </trkpt>
      <trkpt lat="48.44654" lon="2.67567">
        <ele>135</ele>
        <time>2026-02-11T14:35:46.317+00:00</time>
      </trkpt>
      <trkpt lat="48.44654" lon="2.67576">
        <ele>135</ele>
        <time>2026-02-11T14:35:56.317+00:00</time>
      </trkpt>
      <trkpt lat="48.44653" lon="2.67576">
        <ele>135</ele>
        <time>2026-02-11T14:36:02.317+00:00</time>
      </trkpt>
      <trkpt lat="48.44653" lon="2.67579">
        <ele>135</ele>
        <time>2026-02-11T14:36:06.915+00:00</time>
      </trkpt>
      <trkpt lat="48.44655" lon="2.67587">
        <ele>135</ele>
        <time>2026-02-11T14:36:11.117+00:00</time>
      </trkpt>
      <trkpt lat="48.44657" lon="2.67591">
        <ele>135</ele>
        <time>2026-02-11T14:36:15.538+00:00</time>
      </trkpt>
      <trkpt lat="48.44662" lon="2.67592">
        <ele>135</ele>
        <time>2026-02-11T14:36:19.841+00:00</time>
      </trkpt>
      <trkpt lat="48.44665" lon="2.67597">
        <ele>135</ele>
        <time>2026-02-11T14:36:24.029+00:00</time>
      </trkpt>
      <trkpt lat="48.44668" lon="2.67595">
        <ele>135</ele>
        <time>2026-02-11T14:36:28.295+00:00</time>
      </trkpt>
      <trkpt lat="48.44672" lon="2.6759">
        <ele>135</ele>
        <time>2026-02-11T14:36:32.317+00:00</time>
      </trkpt>
      <trkpt lat="48.44675" lon="2.67595">
        <ele>135</ele>
        <time>2026-02-11T14:36:36.451+00:00</time>
      </trkpt>
      <trkpt lat="48.4468" lon="2.67596">
        <ele>135</ele>
        <time>2026-02-11T14:36:41.317+00:00</time>
      </trkpt>
      <trkpt lat="48.44683" lon="2.67595">
        <ele>137</ele>
        <time>2026-02-11T14:36:45.750+00:00</time>
      </trkpt>
      <trkpt lat="48.44688" lon="2.67596">
        <ele>137</ele>
        <time>2026-02-11T14:36:50.317+00:00</time>
      </trkpt>
      <trkpt lat="48.44688" lon="2.67586">
        <ele>137</ele>
        <time>2026-02-11T14:36:54.317+00:00</time>
      </trkpt>
      <trkpt lat="48.44693" lon="2.67591">
        <ele>137</ele>
        <time>2026-02-11T14:36:58.578+00:00</time>
      </trkpt>
      <trkpt lat="48.44696" lon="2.67596">
        <ele>137</ele>
        <time>2026-02-11T14:37:02.639+00:00</time>
      </trkpt>
      <trkpt lat="48.44701" lon="2.676">
        <ele>134</ele>
        <time>2026-02-11T14:37:07.278+00:00</time>
      </trkpt>
      <trkpt lat="48.44703" lon="2.67606">
        <ele>134</ele>
        <time>2026-02-11T14:37:11.578+00:00</time>
      </trkpt>
      <trkpt lat="48.44707" lon="2.6761">
        <ele>134</ele>
        <time>2026-02-11T14:37:16.317+00:00</time>
      </trkpt>
      <trkpt lat="48.44707" lon="2.6761">
        <ele>134</ele>
        <time>2026-02-11T14:37:21.989+00:00</time>
      </trkpt>
      <trkpt lat="48.4471" lon="2.67616">
        <ele>135</ele>
        <time>2026-02-11T14:37:26.469+00:00</time>
      </trkpt>
      <trkpt lat="48.44714" lon="2.67622">
        <ele>135</ele>
        <time>2026-02-11T14:37:30.856+00:00</time>
      </trkpt>
      <trkpt lat="48.4472" lon="2.67627">
        <ele>133</ele>
        <time>2026-02-11T14:37:35.155+00:00</time>
      </trkpt>
      <trkpt lat="48.44725" lon="2.67631">
        <ele>133</ele>
        <time>2026-02-11T14:37:39.154+00:00</time>
      </trkpt>
      <trkpt lat="48.4473" lon="2.67638">
        <ele>133</ele>
        <time>2026-02-11T14:37:43.514+00:00</time>
      </trkpt>
      <trkpt lat="48.44732" lon="2.67645">
        <ele>133</ele>
        <time>2026-02-11T14:37:47.894+00:00</time>
      </trkpt>
      <trkpt lat="48.44737" lon="2.6765">
        <ele>137</ele>
        <time>2026-02-11T14:37:52.317+00:00</time>
      </trkpt>
      <trkpt lat="48.44741" lon="2.67654">
        <ele>135</ele>
        <time>2026-02-11T14:37:56.317+00:00</time>
      </trkpt>
      <trkpt lat="48.44746" lon="2.67657">
        <ele>135</ele>
        <time>2026-02-11T14:38:00.669+00:00</time>
      </trkpt>
      <trkpt lat="48.44751" lon="2.67658">
        <ele>135</ele>
        <time>2026-02-11T14:38:05.058+00:00</time>
      </trkpt>
      <trkpt lat="48.44754" lon="2.67663">
        <ele>135</ele>
        <time>2026-02-11T14:38:09.198+00:00</time>
      </trkpt>
      <trkpt lat="48.44757" lon="2.67666">
        <ele>135</ele>
        <time>2026-02-11T14:38:13.658+00:00</time>
      </trkpt>
      <trkpt lat="48.44762" lon="2.67667">
        <ele>135</ele>
        <time>2026-02-11T14:38:18.294+00:00</time>
      </trkpt>
      <trkpt lat="48.44764" lon="2.6767">
        <ele>138</ele>
        <time>2026-02-11T14:38:22.995+00:00</time>
      </trkpt>
      <trkpt lat="48.44767" lon="2.67677">
        <ele>138</ele>
        <time>2026-02-11T14:38:27.317+00:00</time>
      </trkpt>
      <trkpt lat="48.4477" lon="2.67682">
        <ele>137</ele>
        <time>2026-02-11T14:38:31.901+00:00</time>
      </trkpt>
      <trkpt lat="48.44768" lon="2.67688">
        <ele>137</ele>
        <time>2026-02-11T14:38:36.423+00:00</time>
      </trkpt>
      <trkpt lat="48.44773" lon="2.67694">
        <ele>137</ele>
        <time>2026-02-11T14:38:40.935+00:00</time>
      </trkpt>
      <trkpt lat="48.44778" lon="2.67697">
        <ele>137</ele>
        <time>2026-02-11T14:38:45.317+00:00</time>
      </trkpt>
      <trkpt lat="48.44782" lon="2.67703">
        <ele>137</ele>
        <time>2026-02-11T14:38:49.960+00:00</time>
      </trkpt>
      <trkpt lat="48.44786" lon="2.67709">
        <ele>133</ele>
        <time>2026-02-11T14:38:54.862+00:00</time>
      </trkpt>
      <trkpt lat="48.4479" lon="2.67716">
        <ele>133</ele>
        <time>2026-02-11T14:38:59.264+00:00</time>
      </trkpt>
      <trkpt lat="48.44794" lon="2.67722">
        <ele>138</ele>
        <time>2026-02-11T14:39:03.580+00:00</time>
      </trkpt>
      <trkpt lat="48.44798" lon="2.67729">
        <ele>138</ele>
        <time>2026-02-11T14:39:08.080+00:00</time>
      </trkpt>
      <trkpt lat="48.44802" lon="2.67736">
        <ele>138</ele>
        <time>2026-02-11T14:39:12.317+00:00</time>
      </trkpt>
      <trkpt lat="48.44807" lon="2.6774">
        <ele>134</ele>
        <time>2026-02-11T14:39:16.880+00:00</time>
      </trkpt>
      <trkpt lat="48.44813" lon="2.67742">
        <ele>134</ele>
        <time>2026-02-11T14:39:21.283+00:00</time>
      </trkpt>
      <trkpt lat="48.44819" lon="2.67744">
        <ele>134</ele>
        <time>2026-02-11T14:39:25.837+00:00</time>
      </trkpt>
      <trkpt lat="48.44824" lon="2.67747">
        <ele>136</ele>
        <time>2026-02-11T14:39:30.099+00:00</time>
      </trkpt>
      <trkpt lat="48.44829" lon="2.67745">
        <ele>136</ele>
        <time>2026-02-11T14:39:34.143+00:00</time>
      </trkpt>
      <trkpt lat="48.44833" lon="2.67744">
        <ele>136</ele>
        <time>2026-02-11T14:39:38.478+00:00</time>
      </trkpt>
      <trkpt lat="48.44837" lon="2.67745">
        <ele>136</ele>
        <time>2026-02-11T14:39:42.579+00:00</time>
      </trkpt>
      <trkpt lat="48.44841" lon="2.67742">
        <ele>136</ele>
        <time>2026-02-11T14:39:46.658+00:00</time>
      </trkpt>
      <trkpt lat="48.44844" lon="2.67735">
        <ele>140</ele>
        <time>2026-02-11T14:39:51.161+00:00</time>
      </trkpt>
      <trkpt lat="48.44845" lon="2.67729">
        <ele>140</ele>
        <time>2026-02-11T14:39:55.718+00:00</time>
      </trkpt>
      <trkpt lat="48.44848" lon="2.67722">
        <ele>137</ele>
        <time>2026-02-11T14:40:00.317+00:00</time>
      </trkpt>
      <trkpt lat="48.44849" lon="2.67714">
        <ele>137</ele>
        <time>2026-02-11T14:40:04.833+00:00</time>
      </trkpt>
      <trkpt lat="48.44851" lon="2.67705">
        <ele>140</ele>
        <time>2026-02-11T14:40:09.317+00:00</time>
      </trkpt>
      <trkpt lat="48.44853" lon="2.67698">
        <ele>140</ele>
        <time>2026-02-11T14:40:13.781+00:00</time>
      </trkpt>
      <trkpt lat="48.44855" lon="2.67693">
        <ele>140</ele>
        <time>2026-02-11T14:40:17.897+00:00</time>
      </trkpt>
      <trkpt lat="48.44858" lon="2.67688">
        <ele>140</ele>
        <time>2026-02-11T14:40:22.317+00:00</time>
      </trkpt>
      <trkpt lat="48.44859" lon="2.67682">
        <ele>140</ele>
        <time>2026-02-11T14:40:26.440+00:00</time>
      </trkpt>
      <trkpt lat="48.44862" lon="2.67676">
        <ele>141</ele>
        <time>2026-02-11T14:40:31.065+00:00</time>
      </trkpt>
      <trkpt lat="48.44864" lon="2.67668">
        <ele>141</ele>
        <time>2026-02-11T14:40:35.407+00:00</time>
      </trkpt>
      <trkpt lat="48.44868" lon="2.67663">
        <ele>141</ele>
        <time>2026-02-11T14:40:39.919+00:00</time>
      </trkpt>
      <trkpt lat="48.44872" lon="2.67658">
        <ele>141</ele>
        <time>2026-02-11T14:40:44.022+00:00</time>
      </trkpt>
      <trkpt lat="48.44875" lon="2.67655">
        <ele>141</ele>
        <time>2026-02-11T14:40:48.096+00:00</time>
      </trkpt>
      <trkpt lat="48.44879" lon="2.67649">
        <ele>141</ele>
        <time>2026-02-11T14:40:52.485+00:00</time>
      </trkpt>
      <trkpt lat="48.44881" lon="2.67642">
        <ele>141</ele>
        <time>2026-02-11T14:40:56.979+00:00</time>
      </trkpt>
      <trkpt lat="48.44883" lon="2.67635">
        <ele>141</ele>
        <time>2026-02-11T14:41:01.055+00:00</time>
      </trkpt>
      <trkpt lat="48.44887" lon="2.6763">
        <ele>141</ele>
        <time>2026-02-11T14:41:05.158+00:00</time>
      </trkpt>
      <trkpt lat="48.44891" lon="2.67627">
        <ele>141</ele>
        <time>2026-02-11T14:41:09.339+00:00</time>
      </trkpt>
      <trkpt lat="48.44895" lon="2.67624">
        <ele>143</ele>
        <time>2026-02-11T14:41:13.859+00:00</time>
      </trkpt>
      <trkpt lat="48.44904" lon="2.67619">
        <ele>141</ele>
        <time>2026-02-11T14:41:27.163+00:00</time>
      </trkpt>
      <trkpt lat="48.44907" lon="2.67616">
        <ele>141</ele>
        <time>2026-02-11T14:41:31.317+00:00</time>
      </trkpt>
      <trkpt lat="48.44911" lon="2.67612">
        <ele>141</ele>
        <time>2026-02-11T14:41:35.745+00:00</time>
      </trkpt>
      <trkpt lat="48.44917" lon="2.67608">
        <ele>141</ele>
        <time>2026-02-11T14:41:40.222+00:00</time>
      </trkpt>
      <trkpt lat="48.44922" lon="2.67606">
        <ele>141</ele>
        <time>2026-02-11T14:41:44.317+00:00</time>
      </trkpt>
      <trkpt lat="48.4493" lon="2.67597">
        <ele>143</ele>
        <time>2026-02-11T14:42:16.075+00:00</time>
      </trkpt>
      <trkpt lat="48.44933" lon="2.67604">
        <ele>139</ele>
        <time>2026-02-11T14:42:20.317+00:00</time>
      </trkpt>
      <trkpt lat="48.44935" lon="2.67608">
        <ele>139</ele>
        <time>2026-02-11T14:42:25.317+00:00</time>
      </trkpt>
      <trkpt lat="48.44935" lon="2.67608">
        <ele>139</ele>
        <time>2026-02-11T14:42:29.317+00:00</time>
      </trkpt>
      <trkpt lat="48.44935" lon="2.67608">
        <ele>139</ele>
        <time>2026-02-11T14:42:34.317+00:00</time>
      </trkpt>
      <trkpt lat="48.44936" lon="2.67608">
        <ele>139</ele>
        <time>2026-02-11T14:43:02.317+00:00</time>
      </trkpt>
      <trkpt lat="48.44937" lon="2.67607">
        <ele>139</ele>
        <time>2026-02-11T14:43:10.317+00:00</time>
      </trkpt>
      <trkpt lat="48.44938" lon="2.67608">
        <ele>139</ele>
        <time>2026-02-11T14:43:15.317+00:00</time>
      </trkpt>
      <trkpt lat="48.44942" lon="2.67609">
        <ele>139</ele>
        <time>2026-02-11T14:43:19.452+00:00</time>
      </trkpt>
      <trkpt lat="48.4495" lon="2.67612">
        <ele>139</ele>
        <time>2026-02-11T14:43:23.843+00:00</time>
      </trkpt>
      <trkpt lat="48.44957" lon="2.67615">
        <ele>139</ele>
        <time>2026-02-11T14:43:28.188+00:00</time>
      </trkpt>
      <trkpt lat="48.44962" lon="2.67614">
        <ele>138</ele>
        <time>2026-02-11T14:43:33.154+00:00</time>
      </trkpt>
      <trkpt lat="48.44968" lon="2.67612">
        <ele>138</ele>
        <time>2026-02-11T14:43:37.293+00:00</time>
      </trkpt>
      <trkpt lat="48.44973" lon="2.67607">
        <ele>138</ele>
        <time>2026-02-11T14:43:41.618+00:00</time>
      </trkpt>
      <trkpt lat="48.44977" lon="2.67602">
        <ele>138</ele>
        <time>2026-02-11T14:43:45.829+00:00</time>
      </trkpt>
      <trkpt lat="48.44982" lon="2.67601">
        <ele>138</ele>
        <time>2026-02-11T14:43:49.907+00:00</time>
      </trkpt>
      <trkpt lat="48.44987" lon="2.67598">
        <ele>138</ele>
        <time>2026-02-11T14:43:53.994+00:00</time>
      </trkpt>
      <trkpt lat="48.44992" lon="2.67597">
        <ele>140</ele>
        <time>2026-02-11T14:43:58.317+00:00</time>
      </trkpt>
      <trkpt lat="48.44998" lon="2.67612">
        <ele>138</ele>
        <time>2026-02-11T14:44:11.317+00:00</time>
      </trkpt>
      <trkpt lat="48.44999" lon="2.67612">
        <ele>138</ele>
        <time>2026-02-11T14:44:16.317+00:00</time>
      </trkpt>
      <trkpt lat="48.44999" lon="2.67612">
        <ele>138</ele>
        <time>2026-02-11T14:44:22.317+00:00</time>
      </trkpt>
      <trkpt lat="48.45" lon="2.67612">
        <ele>138</ele>
        <time>2026-02-11T14:44:28.317+00:00</time>
      </trkpt>
      <trkpt lat="48.45002" lon="2.67614">
        <ele>138</ele>
        <time>2026-02-11T14:44:33.049+00:00</time>
      </trkpt>
      <trkpt lat="48.45005" lon="2.67618">
        <ele>138</ele>
        <time>2026-02-11T14:44:37.317+00:00</time>
      </trkpt>
      <trkpt lat="48.45009" lon="2.67623">
        <ele>138</ele>
        <time>2026-02-11T14:44:41.912+00:00</time>
      </trkpt>
      <trkpt lat="48.45011" lon="2.67628">
        <ele>135</ele>
        <time>2026-02-11T14:44:46.468+00:00</time>
      </trkpt>
      <trkpt lat="48.45013" lon="2.67632">
        <ele>135</ele>
        <time>2026-02-11T14:44:50.870+00:00</time>
      </trkpt>
      <trkpt lat="48.45016" lon="2.67637">
        <ele>138</ele>
        <time>2026-02-11T14:44:55.317+00:00</time>
      </trkpt>
      <trkpt lat="48.4502" lon="2.67638">
        <ele>138</ele>
        <time>2026-02-11T14:44:59.673+00:00</time>
      </trkpt>
      <trkpt lat="48.45022" lon="2.67645">
        <ele>138</ele>
        <time>2026-02-11T14:45:04.255+00:00</time>
      </trkpt>
      <trkpt lat="48.45026" lon="2.67648">
        <ele>138</ele>
        <time>2026-02-11T14:45:08.835+00:00</time>
      </trkpt>
      <trkpt lat="48.4503" lon="2.67652">
        <ele>138</ele>
        <time>2026-02-11T14:45:13.034+00:00</time>
      </trkpt>
      <trkpt lat="48.45032" lon="2.67658">
        <ele>136</ele>
        <time>2026-02-11T14:45:17.034+00:00</time>
      </trkpt>
      <trkpt lat="48.45033" lon="2.67664">
        <ele>136</ele>
        <time>2026-02-11T14:45:21.512+00:00</time>
      </trkpt>
      <trkpt lat="48.45036" lon="2.6767">
        <ele>136</ele>
        <time>2026-02-11T14:45:25.590+00:00</time>
      </trkpt>
      <trkpt lat="48.45039" lon="2.67674">
        <ele>136</ele>
        <time>2026-02-11T14:45:29.651+00:00</time>
      </trkpt>
      <trkpt lat="48.45042" lon="2.67682">
        <ele>137</ele>
        <time>2026-02-11T14:45:34.155+00:00</time>
      </trkpt>
      <trkpt lat="48.45046" lon="2.67689">
        <ele>137</ele>
        <time>2026-02-11T14:45:38.652+00:00</time>
      </trkpt>
      <trkpt lat="48.4505" lon="2.67694">
        <ele>137</ele>
        <time>2026-02-11T14:45:43.037+00:00</time>
      </trkpt>
      <trkpt lat="48.45055" lon="2.67699">
        <ele>137</ele>
        <time>2026-02-11T14:45:47.317+00:00</time>
      </trkpt>
      <trkpt lat="48.45059" lon="2.67705">
        <ele>137</ele>
        <time>2026-02-11T14:45:51.771+00:00</time>
      </trkpt>
      <trkpt lat="48.45063" lon="2.67709">
        <ele>133</ele>
        <time>2026-02-11T14:45:55.789+00:00</time>
      </trkpt>
      <trkpt lat="48.45067" lon="2.67716">
        <ele>133</ele>
        <time>2026-02-11T14:46:00.132+00:00</time>
      </trkpt>
      <trkpt lat="48.45071" lon="2.6772">
        <ele>133</ele>
        <time>2026-02-11T14:46:04.431+00:00</time>
      </trkpt>
      <trkpt lat="48.45077" lon="2.67723">
        <ele>133</ele>
        <time>2026-02-11T14:46:08.829+00:00</time>
      </trkpt>
      <trkpt lat="48.45082" lon="2.67725">
        <ele>133</ele>
        <time>2026-02-11T14:46:13.317+00:00</time>
      </trkpt>
      <trkpt lat="48.45088" lon="2.67727">
        <ele>133</ele>
        <time>2026-02-11T14:46:17.670+00:00</time>
      </trkpt>
      <trkpt lat="48.45092" lon="2.67727">
        <ele>133</ele>
        <time>2026-02-11T14:46:21.732+00:00</time>
      </trkpt>
      <trkpt lat="48.45096" lon="2.67728">
        <ele>133</ele>
        <time>2026-02-11T14:46:25.989+00:00</time>
      </trkpt>
      <trkpt lat="48.451" lon="2.67733">
        <ele>132</ele>
        <time>2026-02-11T14:46:30.075+00:00</time>
      </trkpt>
      <trkpt lat="48.45104" lon="2.67735">
        <ele>132</ele>
        <time>2026-02-11T14:46:34.317+00:00</time>
      </trkpt>
      <trkpt lat="48.45109" lon="2.67737">
        <ele>130</ele>
        <time>2026-02-11T14:46:38.614+00:00</time>
      </trkpt>
      <trkpt lat="48.45113" lon="2.67732">
        <ele>132</ele>
        <time>2026-02-11T14:46:42.793+00:00</time>
      </trkpt>
      <trkpt lat="48.45117" lon="2.67729">
        <ele>132</ele>
        <time>2026-02-11T14:46:47.050+00:00</time>
      </trkpt>
      <trkpt lat="48.4512" lon="2.6773">
        <ele>132</ele>
        <time>2026-02-11T14:46:50.650+00:00</time>
      </trkpt>
      <trkpt lat="48.45125" lon="2.67724">
        <ele>132</ele>
        <time>2026-02-11T14:46:56.093+00:00</time>
      </trkpt>
      <trkpt lat="48.45126" lon="2.67717">
        <ele>129</ele>
        <time>2026-02-11T14:47:00.213+00:00</time>
      </trkpt>
      <trkpt lat="48.4513" lon="2.67712">
        <ele>129</ele>
        <time>2026-02-11T14:47:04.471+00:00</time>
      </trkpt>
      <trkpt lat="48.4513" lon="2.67705">
        <ele>130</ele>
        <time>2026-02-11T14:47:08.951+00:00</time>
      </trkpt>
      <trkpt lat="48.45131" lon="2.67699">
        <ele>130</ele>
        <time>2026-02-11T14:47:13.317+00:00</time>
      </trkpt>
      <trkpt lat="48.45134" lon="2.67693">
        <ele>130</ele>
        <time>2026-02-11T14:47:17.856+00:00</time>
      </trkpt>
      <trkpt lat="48.45134" lon="2.67685">
        <ele>130</ele>
        <time>2026-02-11T14:47:22.317+00:00</time>
      </trkpt>
      <trkpt lat="48.45133" lon="2.67678">
        <ele>130</ele>
        <time>2026-02-11T14:47:26.317+00:00</time>
      </trkpt>
      <trkpt lat="48.4513" lon="2.67672">
        <ele>130</ele>
        <time>2026-02-11T14:47:30.934+00:00</time>
      </trkpt>
      <trkpt lat="48.45126" lon="2.67666">
        <ele>130</ele>
        <time>2026-02-11T14:47:35.317+00:00</time>
      </trkpt>
      <trkpt lat="48.45124" lon="2.67658">
        <ele>135</ele>
        <time>2026-02-11T14:47:39.772+00:00</time>
      </trkpt>
      <trkpt lat="48.45121" lon="2.6765">
        <ele>135</ele>
        <time>2026-02-11T14:47:44.317+00:00</time>
      </trkpt>
      <trkpt lat="48.45117" lon="2.67643">
        <ele>135</ele>
        <time>2026-02-11T14:47:48.695+00:00</time>
      </trkpt>
      <trkpt lat="48.45115" lon="2.67636">
        <ele>135</ele>
        <time>2026-02-11T14:47:53.317+00:00</time>
      </trkpt>
      <trkpt lat="48.45114" lon="2.67628">
        <ele>135</ele>
        <time>2026-02-11T14:47:57.533+00:00</time>
      </trkpt>
      <trkpt lat="48.45113" lon="2.67619">
        <ele>135</ele>
        <time>2026-02-11T14:48:02.317+00:00</time>
      </trkpt>
      <trkpt lat="48.45113" lon="2.67608">
        <ele>135</ele>
        <time>2026-02-11T14:48:07.317+00:00</time>
      </trkpt>
      <trkpt lat="48.45112" lon="2.67601">
        <ele>135</ele>
        <time>2026-02-11T14:48:11.516+00:00</time>
      </trkpt>
      <trkpt lat="48.45112" lon="2.67594">
        <ele>135</ele>
        <time>2026-02-11T14:48:15.824+00:00</time>
      </trkpt>
      <trkpt lat="48.45113" lon="2.67587">
        <ele>135</ele>
        <time>2026-02-11T14:48:20.029+00:00</time>
      </trkpt>
      <trkpt lat="48.45115" lon="2.67582">
        <ele>135</ele>
        <time>2026-02-11T14:48:24.209+00:00</time>
      </trkpt>
      <trkpt lat="48.45116" lon="2.67577">
        <ele>135</ele>
        <time>2026-02-11T14:48:28.317+00:00</time>
      </trkpt>
      <trkpt lat="48.45116" lon="2.6757">
        <ele>135</ele>
        <time>2026-02-11T14:48:32.373+00:00</time>
      </trkpt>
      <trkpt lat="48.45115" lon="2.67562">
        <ele>135</ele>
        <time>2026-02-11T14:48:36.452+00:00</time>
      </trkpt>
      <trkpt lat="48.45112" lon="2.67557">
        <ele>135</ele>
        <time>2026-02-11T14:48:40.571+00:00</time>
      </trkpt>
      <trkpt lat="48.45108" lon="2.67551">
        <ele>135</ele>
        <time>2026-02-11T14:48:45.093+00:00</time>
      </trkpt>
      <trkpt lat="48.45107" lon="2.67542">
        <ele>135</ele>
        <time>2026-02-11T14:48:49.631+00:00</time>
      </trkpt>
      <trkpt lat="48.45106" lon="2.67535">
        <ele>135</ele>
        <time>2026-02-11T14:48:53.676+00:00</time>
      </trkpt>
      <trkpt lat="48.45104" lon="2.67526">
        <ele>135</ele>
        <time>2026-02-11T14:48:58.195+00:00</time>
      </trkpt>
      <trkpt lat="48.45102" lon="2.67517">
        <ele>135</ele>
        <time>2026-02-11T14:49:02.676+00:00</time>
      </trkpt>
      <trkpt lat="48.451" lon="2.67512">
        <ele>134</ele>
        <time>2026-02-11T14:49:06.888+00:00</time>
      </trkpt>
      <trkpt lat="48.45099" lon="2.67505">
        <ele>134</ele>
        <time>2026-02-11T14:49:10.916+00:00</time>
      </trkpt>
      <trkpt lat="48.45095" lon="2.67499">
        <ele>137</ele>
        <time>2026-02-11T14:49:15.317+00:00</time>
      </trkpt>
      <trkpt lat="48.45088" lon="2.67497">
        <ele>137</ele>
        <time>2026-02-11T14:49:19.796+00:00</time>
      </trkpt>
      <trkpt lat="48.45083" lon="2.67496">
        <ele>137</ele>
        <time>2026-02-11T14:49:24.096+00:00</time>
      </trkpt>
      <trkpt lat="48.45081" lon="2.6749">
        <ele>137</ele>
        <time>2026-02-11T14:49:28.317+00:00</time>
      </trkpt>
      <trkpt lat="48.4508" lon="2.67484">
        <ele>136</ele>
        <time>2026-02-11T14:49:32.796+00:00</time>
      </trkpt>
      <trkpt lat="48.4508" lon="2.67478">
        <ele>136</ele>
        <time>2026-02-11T14:49:36.933+00:00</time>
      </trkpt>
      <trkpt lat="48.45081" lon="2.6747">
        <ele>136</ele>
        <time>2026-02-11T14:49:41.157+00:00</time>
      </trkpt>
      <trkpt lat="48.4508" lon="2.67464">
        <ele>136</ele>
        <time>2026-02-11T14:49:45.219+00:00</time>
      </trkpt>
      <trkpt lat="48.4508" lon="2.67458">
        <ele>135</ele>
        <time>2026-02-11T14:49:49.310+00:00</time>
      </trkpt>
      <trkpt lat="48.45079" lon="2.6745">
        <ele>135</ele>
        <time>2026-02-11T14:49:53.456+00:00</time>
      </trkpt>
      <trkpt lat="48.45078" lon="2.67443">
        <ele>135</ele>
        <time>2026-02-11T14:49:57.834+00:00</time>
      </trkpt>
      <trkpt lat="48.45075" lon="2.67439">
        <ele>135</ele>
        <time>2026-02-11T14:50:01.876+00:00</time>
      </trkpt>
      <trkpt lat="48.45071" lon="2.67434">
        <ele>135</ele>
        <time>2026-02-11T14:50:06.311+00:00</time>
      </trkpt>
      <trkpt lat="48.4507" lon="2.67426">
        <ele>136</ele>
        <time>2026-02-11T14:50:10.772+00:00</time>
      </trkpt>
      <trkpt lat="48.4507" lon="2.6742">
        <ele>136</ele>
        <time>2026-02-11T14:50:15.317+00:00</time>
      </trkpt>
      <trkpt lat="48.4507" lon="2.67418">
        <ele>136</ele>
        <time>2026-02-11T14:50:20.252+00:00</time>
      </trkpt>
      <trkpt lat="48.45069" lon="2.67413">
        <ele>139</ele>
        <time>2026-02-11T14:50:24.317+00:00</time>
      </trkpt>
      <trkpt lat="48.4507" lon="2.67407">
        <ele>136</ele>
        <time>2026-02-11T14:50:28.696+00:00</time>
      </trkpt>
      <trkpt lat="48.45072" lon="2.67401">
        <ele>138</ele>
        <time>2026-02-11T14:50:33.156+00:00</time>
      </trkpt>
      <trkpt lat="48.45074" lon="2.67398">
        <ele>138</ele>
        <time>2026-02-11T14:50:37.317+00:00</time>
      </trkpt>
      <trkpt lat="48.45077" lon="2.67394">
        <ele>138</ele>
        <time>2026-02-11T14:50:41.317+00:00</time>
      </trkpt>
      <trkpt lat="48.4508" lon="2.6739">
        <ele>138</ele>
        <time>2026-02-11T14:50:45.757+00:00</time>
      </trkpt>
      <trkpt lat="48.45082" lon="2.67384">
        <ele>138</ele>
        <time>2026-02-11T14:50:49.995+00:00</time>
      </trkpt>
      <trkpt lat="48.45082" lon="2.67377">
        <ele>138</ele>
        <time>2026-02-11T14:50:54.116+00:00</time>
      </trkpt>
      <trkpt lat="48.45081" lon="2.6737">
        <ele>140</ele>
        <time>2026-02-11T14:50:58.175+00:00</time>
      </trkpt>
      <trkpt lat="48.45079" lon="2.67364">
        <ele>140</ele>
        <time>2026-02-11T14:51:02.317+00:00</time>
      </trkpt>
      <trkpt lat="48.45082" lon="2.67359">
        <ele>140</ele>
        <time>2026-02-11T14:51:06.317+00:00</time>
      </trkpt>
      <trkpt lat="48.45085" lon="2.67354">
        <ele>140</ele>
        <time>2026-02-11T14:51:10.569+00:00</time>
      </trkpt>
      <trkpt lat="48.45088" lon="2.67349">
        <ele>140</ele>
        <time>2026-02-11T14:51:15.329+00:00</time>
      </trkpt>
      <trkpt lat="48.45091" lon="2.67347">
        <ele>142</ele>
        <time>2026-02-11T14:51:19.317+00:00</time>
      </trkpt>
      <trkpt lat="48.45094" lon="2.67342">
        <ele>142</ele>
        <time>2026-02-11T14:51:24.072+00:00</time>
      </trkpt>
      <trkpt lat="48.45096" lon="2.67338">
        <ele>142</ele>
        <time>2026-02-11T14:51:28.317+00:00</time>
      </trkpt>
      <trkpt lat="48.45099" lon="2.67333">
        <ele>140</ele>
        <time>2026-02-11T14:51:32.696+00:00</time>
      </trkpt>
      <trkpt lat="48.45101" lon="2.67327">
        <ele>140</ele>
        <time>2026-02-11T14:51:37.317+00:00</time>
      </trkpt>
      <trkpt lat="48.45104" lon="2.67322">
        <ele>140</ele>
        <time>2026-02-11T14:51:41.731+00:00</time>
      </trkpt>
      <trkpt lat="48.45109" lon="2.67318">
        <ele>141</ele>
        <time>2026-02-11T14:51:45.772+00:00</time>
      </trkpt>
      <trkpt lat="48.45112" lon="2.67315">
        <ele>141</ele>
        <time>2026-02-11T14:51:49.850+00:00</time>
      </trkpt>
      <trkpt lat="48.45116" lon="2.67313">
        <ele>141</ele>
        <time>2026-02-11T14:51:54.056+00:00</time>
      </trkpt>
      <trkpt lat="48.45121" lon="2.6731">
        <ele>141</ele>
        <time>2026-02-11T14:51:58.132+00:00</time>
      </trkpt>
      <trkpt lat="48.45126" lon="2.6731">
        <ele>138</ele>
        <time>2026-02-11T14:52:02.236+00:00</time>
      </trkpt>
      <trkpt lat="48.4513" lon="2.67309">
        <ele>138</ele>
        <time>2026-02-11T14:52:06.696+00:00</time>
      </trkpt>
      <trkpt lat="48.45134" lon="2.67304">
        <ele>138</ele>
        <time>2026-02-11T14:52:10.909+00:00</time>
      </trkpt>
      <trkpt lat="48.45137" lon="2.67298">
        <ele>138</ele>
        <time>2026-02-11T14:52:14.998+00:00</time>
      </trkpt>
      <trkpt lat="48.45139" lon="2.67292">
        <ele>138</ele>
        <time>2026-02-11T14:52:19.091+00:00</time>
      </trkpt>
      <trkpt lat="48.45141" lon="2.67285">
        <ele>139</ele>
        <time>2026-02-11T14:52:23.568+00:00</time>
      </trkpt>
      <trkpt lat="48.45143" lon="2.67277">
        <ele>139</ele>
        <time>2026-02-11T14:52:28.294+00:00</time>
      </trkpt>
      <trkpt lat="48.45147" lon="2.6727">
        <ele>139</ele>
        <time>2026-02-11T14:52:32.696+00:00</time>
      </trkpt>
      <trkpt lat="48.45151" lon="2.67267">
        <ele>139</ele>
        <time>2026-02-11T14:52:36.757+00:00</time>
      </trkpt>
      <trkpt lat="48.45155" lon="2.67265">
        <ele>137</ele>
        <time>2026-02-11T14:52:40.849+00:00</time>
      </trkpt>
      <trkpt lat="48.45159" lon="2.67261">
        <ele>139</ele>
        <time>2026-02-11T14:52:45.317+00:00</time>
      </trkpt>
      <trkpt lat="48.45164" lon="2.67257">
        <ele>139</ele>
        <time>2026-02-11T14:52:50.173+00:00</time>
      </trkpt>
      <trkpt lat="48.45168" lon="2.67253">
        <ele>139</ele>
        <time>2026-02-11T14:52:55.051+00:00</time>
      </trkpt>
      <trkpt lat="48.45173" lon="2.67251">
        <ele>139</ele>
        <time>2026-02-11T14:52:59.317+00:00</time>
      </trkpt>
      <trkpt lat="48.45177" lon="2.6725">
        <ele>139</ele>
        <time>2026-02-11T14:53:04.050+00:00</time>
      </trkpt>
      <trkpt lat="48.45181" lon="2.6725">
        <ele>139</ele>
        <time>2026-02-11T14:53:08.317+00:00</time>
      </trkpt>
      <trkpt lat="48.45185" lon="2.67249">
        <ele>139</ele>
        <time>2026-02-11T14:53:12.393+00:00</time>
      </trkpt>
      <trkpt lat="48.45189" lon="2.67248">
        <ele>139</ele>
        <time>2026-02-11T14:53:17.076+00:00</time>
      </trkpt>
      <trkpt lat="48.45192" lon="2.67242">
        <ele>139</ele>
        <time>2026-02-11T14:53:21.317+00:00</time>
      </trkpt>
      <trkpt lat="48.45198" lon="2.6724">
        <ele>139</ele>
        <time>2026-02-11T14:53:25.852+00:00</time>
      </trkpt>
      <trkpt lat="48.45202" lon="2.67234">
        <ele>140</ele>
        <time>2026-02-11T14:53:29.913+00:00</time>
      </trkpt>
      <trkpt lat="48.45207" lon="2.67232">
        <ele>140</ele>
        <time>2026-02-11T14:53:33.916+00:00</time>
      </trkpt>
      <trkpt lat="48.45212" lon="2.67229">
        <ele>139</ele>
        <time>2026-02-11T14:53:38.033+00:00</time>
      </trkpt>
      <trkpt lat="48.45216" lon="2.67223">
        <ele>139</ele>
        <time>2026-02-11T14:53:42.690+00:00</time>
      </trkpt>
      <trkpt lat="48.45221" lon="2.67222">
        <ele>139</ele>
        <time>2026-02-11T14:53:47.195+00:00</time>
      </trkpt>
      <trkpt lat="48.45226" lon="2.67218">
        <ele>139</ele>
        <time>2026-02-11T14:53:51.830+00:00</time>
      </trkpt>
      <trkpt lat="48.45229" lon="2.67218">
        <ele>139</ele>
        <time>2026-02-11T14:53:55.997+00:00</time>
      </trkpt>
      <trkpt lat="48.45235" lon="2.67212">
        <ele>139</ele>
        <time>2026-02-11T14:54:01.057+00:00</time>
      </trkpt>
      <trkpt lat="48.4524" lon="2.67204">
        <ele>139</ele>
        <time>2026-02-11T14:54:05.557+00:00</time>
      </trkpt>
      <trkpt lat="48.45245" lon="2.67203">
        <ele>139</ele>
        <time>2026-02-11T14:54:09.616+00:00</time>
      </trkpt>
      <trkpt lat="48.45249" lon="2.67198">
        <ele>139</ele>
        <time>2026-02-11T14:54:14.317+00:00</time>
      </trkpt>
      <trkpt lat="48.45254" lon="2.67195">
        <ele>139</ele>
        <time>2026-02-11T14:54:19.317+00:00</time>
      </trkpt>
      <trkpt lat="48.45259" lon="2.67193">
        <ele>139</ele>
        <time>2026-02-11T14:54:23.317+00:00</time>
      </trkpt>
      <trkpt lat="48.45263" lon="2.67184">
        <ele>139</ele>
        <time>2026-02-11T14:54:28.236+00:00</time>
      </trkpt>
      <trkpt lat="48.45264" lon="2.67175">
        <ele>139</ele>
        <time>2026-02-11T14:54:32.317+00:00</time>
      </trkpt>
      <trkpt lat="48.45269" lon="2.67174">
        <ele>138</ele>
        <time>2026-02-11T14:54:36.317+00:00</time>
      </trkpt>
      <trkpt lat="48.45273" lon="2.67167">
        <ele>138</ele>
        <time>2026-02-11T14:54:40.824+00:00</time>
      </trkpt>
      <trkpt lat="48.45275" lon="2.67158">
        <ele>138</ele>
        <time>2026-02-11T14:54:45.296+00:00</time>
      </trkpt>
      <trkpt lat="48.4528" lon="2.67154">
        <ele>138</ele>
        <time>2026-02-11T14:54:49.612+00:00</time>
      </trkpt>
      <trkpt lat="48.45284" lon="2.67157">
        <ele>138</ele>
        <time>2026-02-11T14:54:53.629+00:00</time>
      </trkpt>
      <trkpt lat="48.45288" lon="2.67158">
        <ele>138</ele>
        <time>2026-02-11T14:54:57.674+00:00</time>
      </trkpt>
      <trkpt lat="48.45294" lon="2.67159">
        <ele>137</ele>
        <time>2026-02-11T14:55:02.317+00:00</time>
      </trkpt>
      <trkpt lat="48.45299" lon="2.67162">
        <ele>137</ele>
        <time>2026-02-11T14:55:07.210+00:00</time>
      </trkpt>
      <trkpt lat="48.45304" lon="2.67163">
        <ele>137</ele>
        <time>2026-02-11T14:55:11.317+00:00</time>
      </trkpt>
      <trkpt lat="48.45309" lon="2.67165">
        <ele>137</ele>
        <time>2026-02-11T14:55:16.317+00:00</time>
      </trkpt>
      <trkpt lat="48.4531" lon="2.67163">
        <ele>137</ele>
        <time>2026-02-11T15:04:50.886+00:00</time>
      </trkpt>
      <trkpt lat="48.45304" lon="2.67162">
        <ele>137</ele>
        <time>2026-02-11T15:04:55.228+00:00</time>
      </trkpt>
      <trkpt lat="48.45297" lon="2.67159">
        <ele>137</ele>
        <time>2026-02-11T15:04:59.665+00:00</time>
      </trkpt>
      <trkpt lat="48.45291" lon="2.67156">
        <ele>138</ele>
        <time>2026-02-11T15:05:03.887+00:00</time>
      </trkpt>
      <trkpt lat="48.45285" lon="2.67155">
        <ele>138</ele>
        <time>2026-02-11T15:05:08.317+00:00</time>
      </trkpt>
      <trkpt lat="48.45291" lon="2.67158">
        <ele>138</ele>
        <time>2026-02-11T15:05:49.943+00:00</time>
      </trkpt>
      <trkpt lat="48.45291" lon="2.67156">
        <ele>138</ele>
        <time>2026-02-11T15:05:54.317+00:00</time>
      </trkpt>
      <trkpt lat="48.45297" lon="2.67156">
        <ele>137</ele>
        <time>2026-02-11T15:05:58.867+00:00</time>
      </trkpt>
      <trkpt lat="48.45302" lon="2.67159">
        <ele>137</ele>
        <time>2026-02-11T15:06:03.050+00:00</time>
      </trkpt>
      <trkpt lat="48.45306" lon="2.67162">
        <ele>137</ele>
        <time>2026-02-11T15:06:07.243+00:00</time>
      </trkpt>
      <trkpt lat="48.45312" lon="2.67166">
        <ele>137</ele>
        <time>2026-02-11T15:08:40.317+00:00</time>
      </trkpt>
      <trkpt lat="48.45312" lon="2.67167">
        <ele>137</ele>
        <time>2026-02-11T15:08:47.317+00:00</time>
      </trkpt>
      <trkpt lat="48.45316" lon="2.67166">
        <ele>137</ele>
        <time>2026-02-11T15:08:52.317+00:00</time>
      </trkpt>
      <trkpt lat="48.45321" lon="2.67171">
        <ele>135</ele>
        <time>2026-02-11T15:08:56.852+00:00</time>
      </trkpt>
      <trkpt lat="48.45322" lon="2.67182">
        <ele>137</ele>
        <time>2026-02-11T15:09:01+00:00</time>
      </trkpt>
      <trkpt lat="48.45323" lon="2.67192">
        <ele>137</ele>
        <time>2026-02-11T15:09:05.076+00:00</time>
      </trkpt>
      <trkpt lat="48.45325" lon="2.67201">
        <ele>137</ele>
        <time>2026-02-11T15:09:09.178+00:00</time>
      </trkpt>
      <trkpt lat="48.45327" lon="2.6721">
        <ele>138</ele>
        <time>2026-02-11T15:09:13.275+00:00</time>
      </trkpt>
      <trkpt lat="48.45329" lon="2.6722">
        <ele>138</ele>
        <time>2026-02-11T15:09:17.796+00:00</time>
      </trkpt>
      <trkpt lat="48.45331" lon="2.6723">
        <ele>138</ele>
        <time>2026-02-11T15:09:21.992+00:00</time>
      </trkpt>
      <trkpt lat="48.45333" lon="2.67238">
        <ele>137</ele>
        <time>2026-02-11T15:09:26.172+00:00</time>
      </trkpt>
      <trkpt lat="48.45335" lon="2.67246">
        <ele>137</ele>
        <time>2026-02-11T15:09:30.278+00:00</time>
      </trkpt>
      <trkpt lat="48.45336" lon="2.67255">
        <ele>137</ele>
        <time>2026-02-11T15:09:34.456+00:00</time>
      </trkpt>
      <trkpt lat="48.45339" lon="2.67264">
        <ele>136</ele>
        <time>2026-02-11T15:09:38.679+00:00</time>
      </trkpt>
      <trkpt lat="48.45341" lon="2.67273">
        <ele>136</ele>
        <time>2026-02-11T15:09:42.876+00:00</time>
      </trkpt>
      <trkpt lat="48.45344" lon="2.67282">
        <ele>136</ele>
        <time>2026-02-11T15:09:47.118+00:00</time>
      </trkpt>
      <trkpt lat="48.45348" lon="2.67287">
        <ele>137</ele>
        <time>2026-02-11T15:09:51.317+00:00</time>
      </trkpt>
      <trkpt lat="48.45353" lon="2.67295">
        <ele>135</ele>
        <time>2026-02-11T15:09:56.192+00:00</time>
      </trkpt>
      <trkpt lat="48.45357" lon="2.67301">
        <ele>135</ele>
        <time>2026-02-11T15:10:00.278+00:00</time>
      </trkpt>
      <trkpt lat="48.45361" lon="2.67306">
        <ele>135</ele>
        <time>2026-02-11T15:10:04.578+00:00</time>
      </trkpt>
      <trkpt lat="48.45363" lon="2.67317">
        <ele>135</ele>
        <time>2026-02-11T15:10:09.317+00:00</time>
      </trkpt>
      <trkpt lat="48.45366" lon="2.67326">
        <ele>133</ele>
        <time>2026-02-11T15:10:13.536+00:00</time>
      </trkpt>
      <trkpt lat="48.4537" lon="2.67333">
        <ele>133</ele>
        <time>2026-02-11T15:10:18.236+00:00</time>
      </trkpt>
      <trkpt lat="48.45374" lon="2.67341">
        <ele>133</ele>
        <time>2026-02-11T15:10:22.399+00:00</time>
      </trkpt>
      <trkpt lat="48.45378" lon="2.67348">
        <ele>131</ele>
        <time>2026-02-11T15:10:26.699+00:00</time>
      </trkpt>
      <trkpt lat="48.45381" lon="2.67355">
        <ele>131</ele>
        <time>2026-02-11T15:10:30.853+00:00</time>
      </trkpt>
      <trkpt lat="48.45384" lon="2.67362">
        <ele>131</ele>
        <time>2026-02-11T15:10:34.956+00:00</time>
      </trkpt>
      <trkpt lat="48.45387" lon="2.6737">
        <ele>131</ele>
        <time>2026-02-11T15:10:39.160+00:00</time>
      </trkpt>
      <trkpt lat="48.45391" lon="2.67377">
        <ele>129</ele>
        <time>2026-02-11T15:10:43.556+00:00</time>
      </trkpt>
      <trkpt lat="48.45394" lon="2.67385">
        <ele>129</ele>
        <time>2026-02-11T15:10:47.772+00:00</time>
      </trkpt>
      <trkpt lat="48.45398" lon="2.67394">
        <ele>129</ele>
        <time>2026-02-11T15:10:52.317+00:00</time>
      </trkpt>
      <trkpt lat="48.45402" lon="2.67402">
        <ele>129</ele>
        <time>2026-02-11T15:10:56.659+00:00</time>
      </trkpt>
      <trkpt lat="48.45406" lon="2.67408">
        <ele>128</ele>
        <time>2026-02-11T15:11:00.916+00:00</time>
      </trkpt>
      <trkpt lat="48.45409" lon="2.67415">
        <ele>128</ele>
        <time>2026-02-11T15:11:05.096+00:00</time>
      </trkpt>
      <trkpt lat="48.45412" lon="2.67423">
        <ele>128</ele>
        <time>2026-02-11T15:11:09.317+00:00</time>
      </trkpt>
      <trkpt lat="48.45416" lon="2.6743">
        <ele>128</ele>
        <time>2026-02-11T15:11:13.456+00:00</time>
      </trkpt>
      <trkpt lat="48.45419" lon="2.67437">
        <ele>126</ele>
        <time>2026-02-11T15:11:17.756+00:00</time>
      </trkpt>
      <trkpt lat="48.45423" lon="2.67444">
        <ele>126</ele>
        <time>2026-02-11T15:11:21.893+00:00</time>
      </trkpt>
      <trkpt lat="48.45426" lon="2.67451">
        <ele>126</ele>
        <time>2026-02-11T15:11:26.039+00:00</time>
      </trkpt>
      <trkpt lat="48.4543" lon="2.67457">
        <ele>126</ele>
        <time>2026-02-11T15:11:30.317+00:00</time>
      </trkpt>
      <trkpt lat="48.45434" lon="2.67462">
        <ele>124</ele>
        <time>2026-02-11T15:11:34.459+00:00</time>
      </trkpt>
      <trkpt lat="48.4544" lon="2.67469">
        <ele>124</ele>
        <time>2026-02-11T15:11:38.957+00:00</time>
      </trkpt>
      <trkpt lat="48.45445" lon="2.67473">
        <ele>124</ele>
        <time>2026-02-11T15:11:43.127+00:00</time>
      </trkpt>
      <trkpt lat="48.45451" lon="2.67475">
        <ele>124</ele>
        <time>2026-02-11T15:11:47.317+00:00</time>
      </trkpt>
      <trkpt lat="48.45457" lon="2.67477">
        <ele>124</ele>
        <time>2026-02-11T15:11:51.853+00:00</time>
      </trkpt>
      <trkpt lat="48.45462" lon="2.6748">
        <ele>123</ele>
        <time>2026-02-11T15:11:56.258+00:00</time>
      </trkpt>
      <trkpt lat="48.45466" lon="2.67484">
        <ele>123</ele>
        <time>2026-02-11T15:12:00.538+00:00</time>
      </trkpt>
      <trkpt lat="48.45471" lon="2.67486">
        <ele>121</ele>
        <time>2026-02-11T15:12:04.837+00:00</time>
      </trkpt>
      <trkpt lat="48.45476" lon="2.67489">
        <ele>121</ele>
        <time>2026-02-11T15:12:09.273+00:00</time>
      </trkpt>
      <trkpt lat="48.45481" lon="2.67491">
        <ele>121</ele>
        <time>2026-02-11T15:12:13.598+00:00</time>
      </trkpt>
      <trkpt lat="48.45485" lon="2.67497">
        <ele>121</ele>
        <time>2026-02-11T15:12:17.756+00:00</time>
      </trkpt>
      <trkpt lat="48.45489" lon="2.67503">
        <ele>116</ele>
        <time>2026-02-11T15:12:22.197+00:00</time>
      </trkpt>
      <trkpt lat="48.45491" lon="2.6751">
        <ele>116</ele>
        <time>2026-02-11T15:12:26.634+00:00</time>
      </trkpt>
      <trkpt lat="48.45499" lon="2.67515">
        <ele>114</ele>
        <time>2026-02-11T15:12:43.317+00:00</time>
      </trkpt>
      <trkpt lat="48.45499" lon="2.67516">
        <ele>114</ele>
        <time>2026-02-11T15:12:48.317+00:00</time>
      </trkpt>
      <trkpt lat="48.45501" lon="2.67516">
        <ele>114</ele>
        <time>2026-02-11T15:12:52.821+00:00</time>
      </trkpt>
      <trkpt lat="48.45506" lon="2.67518">
        <ele>114</ele>
        <time>2026-02-11T15:12:57.012+00:00</time>
      </trkpt>
      <trkpt lat="48.4551" lon="2.67523">
        <ele>114</ele>
        <time>2026-02-11T15:13:01.317+00:00</time>
      </trkpt>
      <trkpt lat="48.45513" lon="2.67522">
        <ele>114</ele>
        <time>2026-02-11T15:13:05.858+00:00</time>
      </trkpt>
      <trkpt lat="48.45516" lon="2.67526">
        <ele>109</ele>
        <time>2026-02-11T15:13:09.936+00:00</time>
      </trkpt>
      <trkpt lat="48.45519" lon="2.6753">
        <ele>109</ele>
        <time>2026-02-11T15:13:14.317+00:00</time>
      </trkpt>
      <trkpt lat="48.45524" lon="2.6753">
        <ele>109</ele>
        <time>2026-02-11T15:13:18.536+00:00</time>
      </trkpt>
      <trkpt lat="48.45529" lon="2.67532">
        <ele>109</ele>
        <time>2026-02-11T15:13:22.826+00:00</time>
      </trkpt>
      <trkpt lat="48.45533" lon="2.67537">
        <ele>109</ele>
        <time>2026-02-11T15:13:27.151+00:00</time>
      </trkpt>
      <trkpt lat="48.45537" lon="2.6754">
        <ele>109</ele>
        <time>2026-02-11T15:13:31.137+00:00</time>
      </trkpt>
      <trkpt lat="48.4554" lon="2.67544">
        <ele>109</ele>
        <time>2026-02-11T15:13:35.317+00:00</time>
      </trkpt>
      <trkpt lat="48.45545" lon="2.67544">
        <ele>107</ele>
        <time>2026-02-11T15:13:39.436+00:00</time>
      </trkpt>
      <trkpt lat="48.4555" lon="2.67547">
        <ele>107</ele>
        <time>2026-02-11T15:13:44.017+00:00</time>
      </trkpt>
      <trkpt lat="48.45554" lon="2.67551">
        <ele>107</ele>
        <time>2026-02-11T15:13:48.317+00:00</time>
      </trkpt>
      <trkpt lat="48.45558" lon="2.67554">
        <ele>107</ele>
        <time>2026-02-11T15:13:52.591+00:00</time>
      </trkpt>
      <trkpt lat="48.45562" lon="2.67559">
        <ele>107</ele>
        <time>2026-02-11T15:13:56.992+00:00</time>
      </trkpt>
      <trkpt lat="48.45566" lon="2.67562">
        <ele>107</ele>
        <time>2026-02-11T15:14:01.225+00:00</time>
      </trkpt>
      <trkpt lat="48.45571" lon="2.67566">
        <ele>106</ele>
        <time>2026-02-11T15:14:05.592+00:00</time>
      </trkpt>
      <trkpt lat="48.45576" lon="2.6757">
        <ele>106</ele>
        <time>2026-02-11T15:14:10.057+00:00</time>
      </trkpt>
      <trkpt lat="48.45581" lon="2.67575">
        <ele>106</ele>
        <time>2026-02-11T15:14:14.310+00:00</time>
      </trkpt>
      <trkpt lat="48.45586" lon="2.67577">
        <ele>106</ele>
        <time>2026-02-11T15:14:18.697+00:00</time>
      </trkpt>
      <trkpt lat="48.45592" lon="2.67583">
        <ele>106</ele>
        <time>2026-02-11T15:14:23.072+00:00</time>
      </trkpt>
      <trkpt lat="48.45596" lon="2.67591">
        <ele>106</ele>
        <time>2026-02-11T15:14:27.551+00:00</time>
      </trkpt>
      <trkpt lat="48.45602" lon="2.67595">
        <ele>104</ele>
        <time>2026-02-11T15:14:31.919+00:00</time>
      </trkpt>
      <trkpt lat="48.45607" lon="2.67601">
        <ele>104</ele>
        <time>2026-02-11T15:14:36.317+00:00</time>
      </trkpt>
      <trkpt lat="48.45612" lon="2.67606">
        <ele>104</ele>
        <time>2026-02-11T15:14:40.757+00:00</time>
      </trkpt>
      <trkpt lat="48.45617" lon="2.67604">
        <ele>104</ele>
        <time>2026-02-11T15:14:45.317+00:00</time>
      </trkpt>
      <trkpt lat="48.45623" lon="2.676">
        <ele>104</ele>
        <time>2026-02-11T15:14:49.828+00:00</time>
      </trkpt>
      <trkpt lat="48.45628" lon="2.67604">
        <ele>102</ele>
        <time>2026-02-11T15:14:54.057+00:00</time>
      </trkpt>
      <trkpt lat="48.45633" lon="2.67609">
        <ele>102</ele>
        <time>2026-02-11T15:14:58.434+00:00</time>
      </trkpt>
      <trkpt lat="48.45637" lon="2.67615">
        <ele>102</ele>
        <time>2026-02-11T15:15:02.476+00:00</time>
      </trkpt>
      <trkpt lat="48.45643" lon="2.6762">
        <ele>102</ele>
        <time>2026-02-11T15:15:07.016+00:00</time>
      </trkpt>
      <trkpt lat="48.45649" lon="2.67625">
        <ele>102</ele>
        <time>2026-02-11T15:15:11.452+00:00</time>
      </trkpt>
      <trkpt lat="48.45654" lon="2.6763">
        <ele>100</ele>
        <time>2026-02-11T15:15:15.856+00:00</time>
      </trkpt>
      <trkpt lat="48.45658" lon="2.67635">
        <ele>100</ele>
        <time>2026-02-11T15:15:20.213+00:00</time>
      </trkpt>
      <trkpt lat="48.45663" lon="2.67639">
        <ele>100</ele>
        <time>2026-02-11T15:15:24.658+00:00</time>
      </trkpt>
      <trkpt lat="48.45668" lon="2.67645">
        <ele>100</ele>
        <time>2026-02-11T15:15:29.036+00:00</time>
      </trkpt>
      <trkpt lat="48.45673" lon="2.67651">
        <ele>100</ele>
        <time>2026-02-11T15:15:33.317+00:00</time>
      </trkpt>
      <trkpt lat="48.45678" lon="2.67655">
        <ele>102</ele>
        <time>2026-02-11T15:15:37.736+00:00</time>
      </trkpt>
      <trkpt lat="48.45683" lon="2.67659">
        <ele>99</ele>
        <time>2026-02-11T15:15:41.737+00:00</time>
      </trkpt>
      <trkpt lat="48.45687" lon="2.67661">
        <ele>99</ele>
        <time>2026-02-11T15:15:45.738+00:00</time>
      </trkpt>
      <trkpt lat="48.45691" lon="2.67668">
        <ele>99</ele>
        <time>2026-02-11T15:15:50.317+00:00</time>
      </trkpt>
      <trkpt lat="48.45697" lon="2.67672">
        <ele>99</ele>
        <time>2026-02-11T15:15:54.996+00:00</time>
      </trkpt>
      <trkpt lat="48.45702" lon="2.67676">
        <ele>99</ele>
        <time>2026-02-11T15:15:59.317+00:00</time>
      </trkpt>
      <trkpt lat="48.45707" lon="2.67679">
        <ele>99</ele>
        <time>2026-02-11T15:16:03.952+00:00</time>
      </trkpt>
      <trkpt lat="48.45712" lon="2.67684">
        <ele>99</ele>
        <time>2026-02-11T15:16:08.216+00:00</time>
      </trkpt>
      <trkpt lat="48.45716" lon="2.67688">
        <ele>99</ele>
        <time>2026-02-11T15:16:12.636+00:00</time>
      </trkpt>
      <trkpt lat="48.45721" lon="2.67692">
        <ele>99</ele>
        <time>2026-02-11T15:16:16.638+00:00</time>
      </trkpt>
      <trkpt lat="48.45725" lon="2.67696">
        <ele>99</ele>
        <time>2026-02-11T15:16:20.656+00:00</time>
      </trkpt>
      <trkpt lat="48.4573" lon="2.67699">
        <ele>99</ele>
        <time>2026-02-11T15:16:24.657+00:00</time>
      </trkpt>
      <trkpt lat="48.45735" lon="2.67703">
        <ele>99</ele>
        <time>2026-02-11T15:16:29.119+00:00</time>
      </trkpt>
      <trkpt lat="48.4574" lon="2.67705">
        <ele>102</ele>
        <time>2026-02-11T15:16:33.137+00:00</time>
      </trkpt>
      <trkpt lat="48.45745" lon="2.6771">
        <ele>101</ele>
        <time>2026-02-11T15:16:37.717+00:00</time>
      </trkpt>
      <trkpt lat="48.4575" lon="2.67715">
        <ele>101</ele>
        <time>2026-02-11T15:16:41.958+00:00</time>
      </trkpt>
      <trkpt lat="48.45754" lon="2.67719">
        <ele>101</ele>
        <time>2026-02-11T15:16:46.197+00:00</time>
      </trkpt>
      <trkpt lat="48.45759" lon="2.67724">
        <ele>101</ele>
        <time>2026-02-11T15:16:50.557+00:00</time>
      </trkpt>
      <trkpt lat="48.45764" lon="2.6773">
        <ele>104</ele>
        <time>2026-02-11T15:16:54.993+00:00</time>
      </trkpt>
      <trkpt lat="48.4577" lon="2.67736">
        <ele>104</ele>
        <time>2026-02-11T15:16:59.898+00:00</time>
      </trkpt>
      <trkpt lat="48.45775" lon="2.67741">
        <ele>103</ele>
        <time>2026-02-11T15:17:04.317+00:00</time>
      </trkpt>
      <trkpt lat="48.45781" lon="2.67743">
        <ele>103</ele>
        <time>2026-02-11T15:17:09.257+00:00</time>
      </trkpt>
      <trkpt lat="48.45786" lon="2.67748">
        <ele>103</ele>
        <time>2026-02-11T15:17:13.693+00:00</time>
      </trkpt>
      <trkpt lat="48.45792" lon="2.67751">
        <ele>104</ele>
        <time>2026-02-11T15:17:18.156+00:00</time>
      </trkpt>
      <trkpt lat="48.45797" lon="2.67754">
        <ele>104</ele>
        <time>2026-02-11T15:17:22.317+00:00</time>
      </trkpt>
      <trkpt lat="48.45802" lon="2.67759">
        <ele>104</ele>
        <time>2026-02-11T15:17:26.618+00:00</time>
      </trkpt>
      <trkpt lat="48.45807" lon="2.67764">
        <ele>104</ele>
        <time>2026-02-11T15:17:30.844+00:00</time>
      </trkpt>
      <trkpt lat="48.45813" lon="2.67769">
        <ele>103</ele>
        <time>2026-02-11T15:17:35.220+00:00</time>
      </trkpt>
      <trkpt lat="48.45818" lon="2.67774">
        <ele>103</ele>
        <time>2026-02-11T15:17:39.459+00:00</time>
      </trkpt>
      <trkpt lat="48.45824" lon="2.67778">
        <ele>102</ele>
        <time>2026-02-11T15:17:43.936+00:00</time>
      </trkpt>
      <trkpt lat="48.4583" lon="2.67782">
        <ele>102</ele>
        <time>2026-02-11T15:17:48.252+00:00</time>
      </trkpt>
      <trkpt lat="48.45835" lon="2.67785">
        <ele>102</ele>
        <time>2026-02-11T15:17:52.135+00:00</time>
      </trkpt>
      <trkpt lat="48.4584" lon="2.67789">
        <ele>102</ele>
        <time>2026-02-11T15:17:56.519+00:00</time>
      </trkpt>
      <trkpt lat="48.45846" lon="2.67794">
        <ele>100</ele>
        <time>2026-02-11T15:18:00.878+00:00</time>
      </trkpt>
      <trkpt lat="48.45852" lon="2.67798">
        <ele>99</ele>
        <time>2026-02-11T15:18:05.237+00:00</time>
      </trkpt>
      <trkpt lat="48.45858" lon="2.67802">
        <ele>99</ele>
        <time>2026-02-11T15:18:09.317+00:00</time>
      </trkpt>
      <trkpt lat="48.45863" lon="2.67806">
        <ele>99</ele>
        <time>2026-02-11T15:18:13.838+00:00</time>
      </trkpt>
      <trkpt lat="48.45868" lon="2.67809">
        <ele>99</ele>
        <time>2026-02-11T15:18:18.216+00:00</time>
      </trkpt>
      <trkpt lat="48.45874" lon="2.6781">
        <ele>99</ele>
        <time>2026-02-11T15:18:22.317+00:00</time>
      </trkpt>
      <trkpt lat="48.45881" lon="2.6781">
        <ele>98</ele>
        <time>2026-02-11T15:18:27.172+00:00</time>
      </trkpt>
      <trkpt lat="48.45886" lon="2.6781">
        <ele>98</ele>
        <time>2026-02-11T15:18:31.199+00:00</time>
      </trkpt>
      <trkpt lat="48.45891" lon="2.67809">
        <ele>98</ele>
        <time>2026-02-11T15:18:35.317+00:00</time>
      </trkpt>
      <trkpt lat="48.45879" lon="2.67801">
        <ele>98</ele>
        <time>2026-02-11T15:18:40.317+00:00</time>
      </trkpt>
      <trkpt lat="48.45872" lon="2.678">
        <ele>99</ele>
        <time>2026-02-11T15:18:45.079+00:00</time>
      </trkpt>
      <trkpt lat="48.45868" lon="2.67797">
        <ele>99</ele>
        <time>2026-02-11T15:18:49.116+00:00</time>
      </trkpt>
      <trkpt lat="48.45872" lon="2.67793">
        <ele>99</ele>
        <time>2026-02-11T15:18:53.317+00:00</time>
      </trkpt>
      <trkpt lat="48.45874" lon="2.67794">
        <ele>99</ele>
        <time>2026-02-11T15:18:57.317+00:00</time>
      </trkpt>
      <trkpt lat="48.45876" lon="2.6779">
        <ele>100</ele>
        <time>2026-02-11T15:19:02.073+00:00</time>
      </trkpt>
      <trkpt lat="48.45876" lon="2.67783">
        <ele>100</ele>
        <time>2026-02-11T15:19:06.639+00:00</time>
      </trkpt>
      <trkpt lat="48.45872" lon="2.67776">
        <ele>101</ele>
        <time>2026-02-11T15:19:11.278+00:00</time>
      </trkpt>
      <trkpt lat="48.45868" lon="2.67773">
        <ele>101</ele>
        <time>2026-02-11T15:19:15.317+00:00</time>
      </trkpt>
      <trkpt lat="48.45865" lon="2.6777">
        <ele>101</ele>
        <time>2026-02-11T15:19:19.317+00:00</time>
      </trkpt>
      <trkpt lat="48.45863" lon="2.67765">
        <ele>101</ele>
        <time>2026-02-11T15:19:24.015+00:00</time>
      </trkpt>
      <trkpt lat="48.45862" lon="2.67759">
        <ele>103</ele>
        <time>2026-02-11T15:19:28.317+00:00</time>
      </trkpt>
      <trkpt lat="48.45858" lon="2.67755">
        <ele>103</ele>
        <time>2026-02-11T15:19:32.896+00:00</time>
      </trkpt>
      <trkpt lat="48.45856" lon="2.6775">
        <ele>103</ele>
        <time>2026-02-11T15:19:37.317+00:00</time>
      </trkpt>
      <trkpt lat="48.45854" lon="2.67742">
        <ele>103</ele>
        <time>2026-02-11T15:19:41.854+00:00</time>
      </trkpt>
      <trkpt lat="48.45855" lon="2.67733">
        <ele>104</ele>
        <time>2026-02-11T15:19:46.298+00:00</time>
      </trkpt>
      <trkpt lat="48.45861" lon="2.67732">
        <ele>104</ele>
        <time>2026-02-11T15:19:50.659+00:00</time>
      </trkpt>
      <trkpt lat="48.45867" lon="2.67731">
        <ele>104</ele>
        <time>2026-02-11T15:19:55.239+00:00</time>
      </trkpt>
      <trkpt lat="48.45872" lon="2.67728">
        <ele>104</ele>
        <time>2026-02-11T15:19:59.616+00:00</time>
      </trkpt>
      <trkpt lat="48.45876" lon="2.67721">
        <ele>104</ele>
        <time>2026-02-11T15:20:04.016+00:00</time>
      </trkpt>
      <trkpt lat="48.4588" lon="2.67713">
        <ele>104</ele>
        <time>2026-02-11T15:20:08.317+00:00</time>
      </trkpt>
      <trkpt lat="48.45884" lon="2.67708">
        <ele>105</ele>
        <time>2026-02-11T15:20:12.573+00:00</time>
      </trkpt>
      <trkpt lat="48.45886" lon="2.677">
        <ele>105</ele>
        <time>2026-02-11T15:20:17.317+00:00</time>
      </trkpt>
      <trkpt lat="48.45881" lon="2.67691">
        <ele>105</ele>
        <time>2026-02-11T15:20:21.737+00:00</time>
      </trkpt>
      <trkpt lat="48.45877" lon="2.67686">
        <ele>105</ele>
        <time>2026-02-11T15:20:26.019+00:00</time>
      </trkpt>
      <trkpt lat="48.45872" lon="2.67683">
        <ele>104</ele>
        <time>2026-02-11T15:20:30.317+00:00</time>
      </trkpt>
      <trkpt lat="48.45868" lon="2.67679">
        <ele>104</ele>
        <time>2026-02-11T15:20:34.652+00:00</time>
      </trkpt>
      <trkpt lat="48.45864" lon="2.67671">
        <ele>104</ele>
        <time>2026-02-11T15:20:38.891+00:00</time>
      </trkpt>
      <trkpt lat="48.45863" lon="2.67662">
        <ele>104</ele>
        <time>2026-02-11T15:20:43.234+00:00</time>
      </trkpt>
      <trkpt lat="48.45862" lon="2.67653">
        <ele>103</ele>
        <time>2026-02-11T15:20:47.636+00:00</time>
      </trkpt>
      <trkpt lat="48.45858" lon="2.67644">
        <ele>103</ele>
        <time>2026-02-11T15:20:52.039+00:00</time>
      </trkpt>
      <trkpt lat="48.45856" lon="2.67639">
        <ele>103</ele>
        <time>2026-02-11T15:20:56.317+00:00</time>
      </trkpt>
      <trkpt lat="48.45858" lon="2.67632">
        <ele>103</ele>
        <time>2026-02-11T15:21:00.895+00:00</time>
      </trkpt>
      <trkpt lat="48.45859" lon="2.67624">
        <ele>103</ele>
        <time>2026-02-11T15:21:05.218+00:00</time>
      </trkpt>
      <trkpt lat="48.45861" lon="2.67616">
        <ele>103</ele>
        <time>2026-02-11T15:21:09.492+00:00</time>
      </trkpt>
      <trkpt lat="48.45863" lon="2.67609">
        <ele>103</ele>
        <time>2026-02-11T15:21:13.838+00:00</time>
      </trkpt>
      <trkpt lat="48.45865" lon="2.67602">
        <ele>103</ele>
        <time>2026-02-11T15:21:18.073+00:00</time>
      </trkpt>
      <trkpt lat="48.45867" lon="2.67595">
        <ele>102</ele>
        <time>2026-02-11T15:21:22.317+00:00</time>
      </trkpt>
      <trkpt lat="48.45869" lon="2.67586">
        <ele>102</ele>
        <time>2026-02-11T15:21:26.797+00:00</time>
      </trkpt>
      <trkpt lat="48.45869" lon="2.67578">
        <ele>102</ele>
        <time>2026-02-11T15:21:31.177+00:00</time>
      </trkpt>
      <trkpt lat="48.45869" lon="2.6757">
        <ele>102</ele>
        <time>2026-02-11T15:21:35.451+00:00</time>
      </trkpt>
      <trkpt lat="48.45872" lon="2.67564">
        <ele>102</ele>
        <time>2026-02-11T15:21:39.759+00:00</time>
      </trkpt>
      <trkpt lat="48.45874" lon="2.67557">
        <ele>102</ele>
        <time>2026-02-11T15:21:44.093+00:00</time>
      </trkpt>
      <trkpt lat="48.45876" lon="2.6755">
        <ele>101</ele>
        <time>2026-02-11T15:21:48.556+00:00</time>
      </trkpt>
      <trkpt lat="48.45879" lon="2.67544">
        <ele>101</ele>
        <time>2026-02-11T15:21:52.831+00:00</time>
      </trkpt>
      <trkpt lat="48.45882" lon="2.67536">
        <ele>102</ele>
        <time>2026-02-11T15:21:56.897+00:00</time>
      </trkpt>
      <trkpt lat="48.45883" lon="2.67528">
        <ele>102</ele>
        <time>2026-02-11T15:22:01.214+00:00</time>
      </trkpt>
      <trkpt lat="48.45884" lon="2.67519">
        <ele>102</ele>
        <time>2026-02-11T15:22:05.991+00:00</time>
      </trkpt>
      <trkpt lat="48.45886" lon="2.67511">
        <ele>103</ele>
        <time>2026-02-11T15:22:10.317+00:00</time>
      </trkpt>
      <trkpt lat="48.45891" lon="2.67504">
        <ele>103</ele>
        <time>2026-02-11T15:22:14.896+00:00</time>
      </trkpt>
      <trkpt lat="48.45895" lon="2.67497">
        <ele>103</ele>
        <time>2026-02-11T15:22:19.036+00:00</time>
      </trkpt>
      <trkpt lat="48.45896" lon="2.67491">
        <ele>103</ele>
        <time>2026-02-11T15:22:23.317+00:00</time>
      </trkpt>
      <trkpt lat="48.459" lon="2.67484">
        <ele>103</ele>
        <time>2026-02-11T15:22:27.590+00:00</time>
      </trkpt>
      <trkpt lat="48.45905" lon="2.67481">
        <ele>101</ele>
        <time>2026-02-11T15:22:32.096+00:00</time>
      </trkpt>
      <trkpt lat="48.45909" lon="2.67478">
        <ele>101</ele>
        <time>2026-02-11T15:22:36.113+00:00</time>
      </trkpt>
      <trkpt lat="48.45914" lon="2.67474">
        <ele>101</ele>
        <time>2026-02-11T15:22:40.317+00:00</time>
      </trkpt>
      <trkpt lat="48.45916" lon="2.67466">
        <ele>101</ele>
        <time>2026-02-11T15:22:44.652+00:00</time>
      </trkpt>
      <trkpt lat="48.45919" lon="2.67459">
        <ele>101</ele>
        <time>2026-02-11T15:22:48.917+00:00</time>
      </trkpt>
      <trkpt lat="48.45924" lon="2.67453">
        <ele>101</ele>
        <time>2026-02-11T15:22:53.158+00:00</time>
      </trkpt>
      <trkpt lat="48.45927" lon="2.67447">
        <ele>101</ele>
        <time>2026-02-11T15:22:57.315+00:00</time>
      </trkpt>
      <trkpt lat="48.45932" lon="2.6744">
        <ele>100</ele>
        <time>2026-02-11T15:23:01.654+00:00</time>
      </trkpt>
      <trkpt lat="48.45937" lon="2.67437">
        <ele>100</ele>
        <time>2026-02-11T15:23:05.775+00:00</time>
      </trkpt>
      <trkpt lat="48.45942" lon="2.67432">
        <ele>100</ele>
        <time>2026-02-11T15:23:10.176+00:00</time>
      </trkpt>
      <trkpt lat="48.45946" lon="2.67427">
        <ele>99</ele>
        <time>2026-02-11T15:23:14.194+00:00</time>
      </trkpt>
      <trkpt lat="48.4595" lon="2.67422">
        <ele>99</ele>
        <time>2026-02-11T15:23:18.536+00:00</time>
      </trkpt>
      <trkpt lat="48.45954" lon="2.67418">
        <ele>99</ele>
        <time>2026-02-11T15:23:22.579+00:00</time>
      </trkpt>
      <trkpt lat="48.45958" lon="2.67414">
        <ele>99</ele>
        <time>2026-02-11T15:23:27.100+00:00</time>
      </trkpt>
      <trkpt lat="48.4596" lon="2.67406">
        <ele>100</ele>
        <time>2026-02-11T15:23:31.317+00:00</time>
      </trkpt>
      <trkpt lat="48.45959" lon="2.67397">
        <ele>100</ele>
        <time>2026-02-11T15:23:35.742+00:00</time>
      </trkpt>
      <trkpt lat="48.4596" lon="2.67391">
        <ele>100</ele>
        <time>2026-02-11T15:23:39.922+00:00</time>
      </trkpt>
      <trkpt lat="48.45963" lon="2.67383">
        <ele>100</ele>
        <time>2026-02-11T15:23:44.222+00:00</time>
      </trkpt>
      <trkpt lat="48.45968" lon="2.67379">
        <ele>100</ele>
        <time>2026-02-11T15:23:48.760+00:00</time>
      </trkpt>
      <trkpt lat="48.45976" lon="2.67367">
        <ele>100</ele>
        <time>2026-02-11T15:24:15.878+00:00</time>
      </trkpt>
      <trkpt lat="48.45976" lon="2.67366">
        <ele>100</ele>
        <time>2026-02-11T15:24:20.317+00:00</time>
      </trkpt>
      <trkpt lat="48.45974" lon="2.67363">
        <ele>100</ele>
        <time>2026-02-11T15:24:25.317+00:00</time>
      </trkpt>
      <trkpt lat="48.45974" lon="2.6736">
        <ele>100</ele>
        <time>2026-02-11T15:24:29.680+00:00</time>
      </trkpt>
      <trkpt lat="48.45977" lon="2.67352">
        <ele>100</ele>
        <time>2026-02-11T15:24:34.081+00:00</time>
      </trkpt>
      <trkpt lat="48.45981" lon="2.67346">
        <ele>101</ele>
        <time>2026-02-11T15:24:38.317+00:00</time>
      </trkpt>
      <trkpt lat="48.45981" lon="2.6734">
        <ele>101</ele>
        <time>2026-02-11T15:24:43.317+00:00</time>
      </trkpt>
      <trkpt lat="48.4598" lon="2.67334">
        <ele>101</ele>
        <time>2026-02-11T15:24:47.740+00:00</time>
      </trkpt>
      <trkpt lat="48.45977" lon="2.67329">
        <ele>101</ele>
        <time>2026-02-11T15:24:51.978+00:00</time>
      </trkpt>
      <trkpt lat="48.45973" lon="2.67317">
        <ele>103</ele>
        <time>2026-02-11T15:26:41.317+00:00</time>
      </trkpt>
      <trkpt lat="48.45973" lon="2.67317">
        <ele>103</ele>
        <time>2026-02-11T15:27:00.317+00:00</time>
      </trkpt>
      <trkpt lat="48.45973" lon="2.67317">
        <ele>103</ele>
        <time>2026-02-11T15:27:04.317+00:00</time>
      </trkpt>
      <trkpt lat="48.45975" lon="2.67314">
        <ele>103</ele>
        <time>2026-02-11T15:27:08.317+00:00</time>
      </trkpt>
      <trkpt lat="48.45976" lon="2.67308">
        <ele>103</ele>
        <time>2026-02-11T15:27:12.963+00:00</time>
      </trkpt>
      <trkpt lat="48.45976" lon="2.67302">
        <ele>103</ele>
        <time>2026-02-11T15:27:17.030+00:00</time>
      </trkpt>
      <trkpt lat="48.45978" lon="2.67295">
        <ele>103</ele>
        <time>2026-02-11T15:27:21.099+00:00</time>
      </trkpt>
      <trkpt lat="48.45983" lon="2.67293">
        <ele>103</ele>
        <time>2026-02-11T15:27:25.279+00:00</time>
      </trkpt>
      <trkpt lat="48.45988" lon="2.67296">
        <ele>103</ele>
        <time>2026-02-11T15:27:29.620+00:00</time>
      </trkpt>
      <trkpt lat="48.45991" lon="2.67303">
        <ele>103</ele>
        <time>2026-02-11T15:27:33.903+00:00</time>
      </trkpt>
      <trkpt lat="48.45996" lon="2.67306">
        <ele>103</ele>
        <time>2026-02-11T15:27:38.322+00:00</time>
      </trkpt>
      <trkpt lat="48.46001" lon="2.6731">
        <ele>103</ele>
        <time>2026-02-11T15:27:42.317+00:00</time>
      </trkpt>
      <trkpt lat="48.46007" lon="2.67312">
        <ele>103</ele>
        <time>2026-02-11T15:27:46.682+00:00</time>
      </trkpt>
      <trkpt lat="48.46014" lon="2.67312">
        <ele>103</ele>
        <time>2026-02-11T15:27:50.821+00:00</time>
      </trkpt>
      <trkpt lat="48.46019" lon="2.67311">
        <ele>104</ele>
        <time>2026-02-11T15:27:55.204+00:00</time>
      </trkpt>
      <trkpt lat="48.46024" lon="2.67309">
        <ele>104</ele>
        <time>2026-02-11T15:28:00.322+00:00</time>
      </trkpt>
      <trkpt lat="48.46029" lon="2.6731">
        <ele>104</ele>
        <time>2026-02-11T15:28:04.799+00:00</time>
      </trkpt>
      <trkpt lat="48.46033" lon="2.67312">
        <ele>104</ele>
        <time>2026-02-11T15:28:09.317+00:00</time>
      </trkpt>
      <trkpt lat="48.46035" lon="2.67319">
        <ele>104</ele>
        <time>2026-02-11T15:28:13.901+00:00</time>
      </trkpt>
      <trkpt lat="48.46038" lon="2.67323">
        <ele>104</ele>
        <time>2026-02-11T15:28:18.457+00:00</time>
      </trkpt>
      <trkpt lat="48.46038" lon="2.67331">
        <ele>104</ele>
        <time>2026-02-11T15:28:22.919+00:00</time>
      </trkpt>
      <trkpt lat="48.46041" lon="2.67337">
        <ele>104</ele>
        <time>2026-02-11T15:28:32.105+00:00</time>
      </trkpt>
      <trkpt lat="48.46041" lon="2.67337">
        <ele>104</ele>
        <time>2026-02-11T15:28:37.317+00:00</time>
      </trkpt>
      <trkpt lat="48.46041" lon="2.67338">
        <ele>104</ele>
        <time>2026-02-11T15:28:41.120+00:00</time>
      </trkpt>
      <trkpt lat="48.46046" lon="2.67344">
        <ele>105</ele>
        <time>2026-02-11T15:28:49.956+00:00</time>
      </trkpt>
      <trkpt lat="48.46049" lon="2.67349">
        <ele>105</ele>
        <time>2026-02-11T15:28:54.052+00:00</time>
      </trkpt>
      <trkpt lat="48.46053" lon="2.67354">
        <ele>105</ele>
        <time>2026-02-11T15:28:58.337+00:00</time>
      </trkpt>
      <trkpt lat="48.46058" lon="2.67356">
        <ele>105</ele>
        <time>2026-02-11T15:29:02.569+00:00</time>
      </trkpt>
      <trkpt lat="48.46064" lon="2.67357">
        <ele>105</ele>
        <time>2026-02-11T15:29:06.956+00:00</time>
      </trkpt>
      <trkpt lat="48.46068" lon="2.67351">
        <ele>105</ele>
        <time>2026-02-11T15:29:11.317+00:00</time>
      </trkpt>
      <trkpt lat="48.4607" lon="2.67355">
        <ele>106</ele>
        <time>2026-02-11T15:29:25.257+00:00</time>
      </trkpt>
      <trkpt lat="48.46074" lon="2.6736">
        <ele>106</ele>
        <time>2026-02-11T15:29:29.317+00:00</time>
      </trkpt>
      <trkpt lat="48.46077" lon="2.67355">
        <ele>106</ele>
        <time>2026-02-11T15:29:33.874+00:00</time>
      </trkpt>
      <trkpt lat="48.46078" lon="2.67348">
        <ele>106</ele>
        <time>2026-02-11T15:29:38.317+00:00</time>
      </trkpt>
      <trkpt lat="48.46083" lon="2.67349">
        <ele>106</ele>
        <time>2026-02-11T15:29:42.915+00:00</time>
      </trkpt>
      <trkpt lat="48.4609" lon="2.6735">
        <ele>106</ele>
        <time>2026-02-11T15:29:47.113+00:00</time>
      </trkpt>
      <trkpt lat="48.46093" lon="2.67343">
        <ele>105</ele>
        <time>2026-02-11T15:29:51.730+00:00</time>
      </trkpt>
      <trkpt lat="48.46096" lon="2.67335">
        <ele>105</ele>
        <time>2026-02-11T15:29:56.193+00:00</time>
      </trkpt>
      <trkpt lat="48.46101" lon="2.67331">
        <ele>105</ele>
        <time>2026-02-11T15:30:00.317+00:00</time>
      </trkpt>
      <trkpt lat="48.46106" lon="2.67328">
        <ele>105</ele>
        <time>2026-02-11T15:30:04.833+00:00</time>
      </trkpt>
      <trkpt lat="48.4611" lon="2.67328">
        <ele>105</ele>
        <time>2026-02-11T15:30:09.317+00:00</time>
      </trkpt>
      <trkpt lat="48.4611" lon="2.67323">
        <ele>105</ele>
        <time>2026-02-11T15:30:13.697+00:00</time>
      </trkpt>
      <trkpt lat="48.46109" lon="2.67313">
        <ele>104</ele>
        <time>2026-02-11T15:30:18.317+00:00</time>
      </trkpt>
      <trkpt lat="48.46113" lon="2.67308">
        <ele>104</ele>
        <time>2026-02-11T15:30:23.317+00:00</time>
      </trkpt>
      <trkpt lat="48.46115" lon="2.67303">
        <ele>104</ele>
        <time>2026-02-11T15:30:27.976+00:00</time>
      </trkpt>
      <trkpt lat="48.46116" lon="2.67298">
        <ele>104</ele>
        <time>2026-02-11T15:30:32.216+00:00</time>
      </trkpt>
      <trkpt lat="48.46115" lon="2.67293">
        <ele>104</ele>
        <time>2026-02-11T15:30:36.711+00:00</time>
      </trkpt>
      <trkpt lat="48.46109" lon="2.6729">
        <ele>104</ele>
        <time>2026-02-11T15:30:41.193+00:00</time>
      </trkpt>
      <trkpt lat="48.46104" lon="2.67287">
        <ele>104</ele>
        <time>2026-02-11T15:30:45.317+00:00</time>
      </trkpt>
      <trkpt lat="48.46099" lon="2.67283">
        <ele>104</ele>
        <time>2026-02-11T15:30:49.909+00:00</time>
      </trkpt>
      <trkpt lat="48.46092" lon="2.67278">
        <ele>103</ele>
        <time>2026-02-11T15:30:54.150+00:00</time>
      </trkpt>
      <trkpt lat="48.46086" lon="2.67273">
        <ele>103</ele>
        <time>2026-02-11T15:30:58.317+00:00</time>
      </trkpt>
      <trkpt lat="48.46081" lon="2.67271">
        <ele>103</ele>
        <time>2026-02-11T15:31:02.655+00:00</time>
      </trkpt>
      <trkpt lat="48.46075" lon="2.67265">
        <ele>103</ele>
        <time>2026-02-11T15:31:07.252+00:00</time>
      </trkpt>
      <trkpt lat="48.4607" lon="2.67259">
        <ele>103</ele>
        <time>2026-02-11T15:31:11.952+00:00</time>
      </trkpt>
      <trkpt lat="48.46064" lon="2.67256">
        <ele>103</ele>
        <time>2026-02-11T15:31:16.592+00:00</time>
      </trkpt>
      <trkpt lat="48.4606" lon="2.67253">
        <ele>103</ele>
        <time>2026-02-11T15:31:20.756+00:00</time>
      </trkpt>
      <trkpt lat="48.46055" lon="2.67251">
        <ele>103</ele>
        <time>2026-02-11T15:31:24.936+00:00</time>
      </trkpt>
      <trkpt lat="48.46051" lon="2.67248">
        <ele>103</ele>
        <time>2026-02-11T15:31:29.013+00:00</time>
      </trkpt>
      <trkpt lat="48.46046" lon="2.67245">
        <ele>103</ele>
        <time>2026-02-11T15:31:33.317+00:00</time>
      </trkpt>
      <trkpt lat="48.46041" lon="2.67242">
        <ele>102</ele>
        <time>2026-02-11T15:31:37.569+00:00</time>
      </trkpt>
      <trkpt lat="48.46036" lon="2.67238">
        <ele>102</ele>
        <time>2026-02-11T15:31:42.013+00:00</time>
      </trkpt>
      <trkpt lat="48.46031" lon="2.67233">
        <ele>102</ele>
        <time>2026-02-11T15:31:46.317+00:00</time>
      </trkpt>
      <trkpt lat="48.46026" lon="2.6723">
        <ele>102</ele>
        <time>2026-02-11T15:31:50.791+00:00</time>
      </trkpt>
      <trkpt lat="48.46021" lon="2.67225">
        <ele>102</ele>
        <time>2026-02-11T15:31:55.252+00:00</time>
      </trkpt>
      <trkpt lat="48.46015" lon="2.67222">
        <ele>102</ele>
        <time>2026-02-11T15:31:59.731+00:00</time>
      </trkpt>
      <trkpt lat="48.4601" lon="2.67218">
        <ele>103</ele>
        <time>2026-02-11T15:32:04.073+00:00</time>
      </trkpt>
      <trkpt lat="48.46005" lon="2.67216">
        <ele>103</ele>
        <time>2026-02-11T15:32:08.317+00:00</time>
      </trkpt>
      <trkpt lat="48.46" lon="2.67212">
        <ele>103</ele>
        <time>2026-02-11T15:32:12.893+00:00</time>
      </trkpt>
      <trkpt lat="48.45995" lon="2.67207">
        <ele>102</ele>
        <time>2026-02-11T15:32:17.255+00:00</time>
      </trkpt>
      <trkpt lat="48.45989" lon="2.67205">
        <ele>102</ele>
        <time>2026-02-11T15:32:21.317+00:00</time>
      </trkpt>
      <trkpt lat="48.45984" lon="2.67204">
        <ele>103</ele>
        <time>2026-02-11T15:32:25.895+00:00</time>
      </trkpt>
      <trkpt lat="48.4598" lon="2.67198">
        <ele>103</ele>
        <time>2026-02-11T15:32:29.956+00:00</time>
      </trkpt>
      <trkpt lat="48.45976" lon="2.67192">
        <ele>103</ele>
        <time>2026-02-11T15:32:34.296+00:00</time>
      </trkpt>
      <trkpt lat="48.4597" lon="2.67188">
        <ele>103</ele>
        <time>2026-02-11T15:32:38.630+00:00</time>
      </trkpt>
      <trkpt lat="48.4597" lon="2.67186">
        <ele>103</ele>
        <time>2026-02-11T15:32:43.018+00:00</time>
      </trkpt>
      <trkpt lat="48.45974" lon="2.67182">
        <ele>103</ele>
        <time>2026-02-11T15:32:47.317+00:00</time>
      </trkpt>
      <trkpt lat="48.45974" lon="2.67181">
        <ele>103</ele>
        <time>2026-02-11T15:32:52.628+00:00</time>
      </trkpt>
      <trkpt lat="48.45975" lon="2.67173">
        <ele>103</ele>
        <time>2026-02-11T15:32:56.976+00:00</time>
      </trkpt>
      <trkpt lat="48.45969" lon="2.67168">
        <ele>103</ele>
        <time>2026-02-11T15:33:01.056+00:00</time>
      </trkpt>
      <trkpt lat="48.45969" lon="2.67162">
        <ele>103</ele>
        <time>2026-02-11T15:33:05.162+00:00</time>
      </trkpt>
      <trkpt lat="48.45971" lon="2.67156">
        <ele>103</ele>
        <time>2026-02-11T15:33:09.638+00:00</time>
      </trkpt>
      <trkpt lat="48.45971" lon="2.67149">
        <ele>103</ele>
        <time>2026-02-11T15:33:14.040+00:00</time>
      </trkpt>
      <trkpt lat="48.45972" lon="2.67141">
        <ele>103</ele>
        <time>2026-02-11T15:33:18.317+00:00</time>
      </trkpt>
      <trkpt lat="48.45975" lon="2.67135">
        <ele>103</ele>
        <time>2026-02-11T15:33:22.622+00:00</time>
      </trkpt>
      <trkpt lat="48.45977" lon="2.67128">
        <ele>103</ele>
        <time>2026-02-11T15:33:26.998+00:00</time>
      </trkpt>
      <trkpt lat="48.45974" lon="2.67121">
        <ele>104</ele>
        <time>2026-02-11T15:33:31.741+00:00</time>
      </trkpt>
      <trkpt lat="48.4597" lon="2.67117">
        <ele>104</ele>
        <time>2026-02-11T15:33:35.989+00:00</time>
      </trkpt>
      <trkpt lat="48.45965" lon="2.67115">
        <ele>104</ele>
        <time>2026-02-11T15:33:40.317+00:00</time>
      </trkpt>
      <trkpt lat="48.45962" lon="2.67108">
        <ele>104</ele>
        <time>2026-02-11T15:33:44.800+00:00</time>
      </trkpt>
      <trkpt lat="48.45962" lon="2.67101">
        <ele>104</ele>
        <time>2026-02-11T15:33:49.152+00:00</time>
      </trkpt>
      <trkpt lat="48.4596" lon="2.67095">
        <ele>105</ele>
        <time>2026-02-11T15:33:53.280+00:00</time>
      </trkpt>
      <trkpt lat="48.45957" lon="2.67091">
        <ele>105</ele>
        <time>2026-02-11T15:33:57.317+00:00</time>
      </trkpt>
      <trkpt lat="48.45953" lon="2.67095">
        <ele>105</ele>
        <time>2026-02-11T15:34:01.616+00:00</time>
      </trkpt>
      <trkpt lat="48.45948" lon="2.67093">
        <ele>105</ele>
        <time>2026-02-11T15:34:05.845+00:00</time>
      </trkpt>
      <trkpt lat="48.45943" lon="2.67094">
        <ele>105</ele>
        <time>2026-02-11T15:34:10.317+00:00</time>
      </trkpt>
      <trkpt lat="48.45939" lon="2.67092">
        <ele>105</ele>
        <time>2026-02-11T15:34:15.118+00:00</time>
      </trkpt>
      <trkpt lat="48.45937" lon="2.67085">
        <ele>105</ele>
        <time>2026-02-11T15:34:19.418+00:00</time>
      </trkpt>
      <trkpt lat="48.45933" lon="2.67083">
        <ele>105</ele>
        <time>2026-02-11T15:34:23.761+00:00</time>
      </trkpt>
      <trkpt lat="48.45921" lon="2.67085">
        <ele>105</ele>
        <time>2026-02-11T15:34:45.640+00:00</time>
      </trkpt>
      <trkpt lat="48.45917" lon="2.67079">
        <ele>105</ele>
        <time>2026-02-11T15:34:50.179+00:00</time>
      </trkpt>
      <trkpt lat="48.45913" lon="2.67074">
        <ele>105</ele>
        <time>2026-02-11T15:34:54.478+00:00</time>
      </trkpt>
      <trkpt lat="48.45907" lon="2.67073">
        <ele>105</ele>
        <time>2026-02-11T15:34:59.317+00:00</time>
      </trkpt>
      <trkpt lat="48.45906" lon="2.67065">
        <ele>106</ele>
        <time>2026-02-11T15:35:04.059+00:00</time>
      </trkpt>
      <trkpt lat="48.45902" lon="2.67059">
        <ele>107</ele>
        <time>2026-02-11T15:35:08.317+00:00</time>
      </trkpt>
      <trkpt lat="48.45898" lon="2.67052">
        <ele>107</ele>
        <time>2026-02-11T15:35:12.862+00:00</time>
      </trkpt>
      <trkpt lat="48.45894" lon="2.67046">
        <ele>107</ele>
        <time>2026-02-11T15:35:17.221+00:00</time>
      </trkpt>
      <trkpt lat="48.45892" lon="2.67041">
        <ele>107</ele>
        <time>2026-02-11T15:35:21.317+00:00</time>
      </trkpt>
      <trkpt lat="48.45887" lon="2.67034">
        <ele>107</ele>
        <time>2026-02-11T15:35:26.120+00:00</time>
      </trkpt>
      <trkpt lat="48.45884" lon="2.67028">
        <ele>107</ele>
        <time>2026-02-11T15:35:30.317+00:00</time>
      </trkpt>
      <trkpt lat="48.45881" lon="2.67021">
        <ele>107</ele>
        <time>2026-02-11T15:35:34.418+00:00</time>
      </trkpt>
      <trkpt lat="48.45877" lon="2.67016">
        <ele>107</ele>
        <time>2026-02-11T15:35:38.616+00:00</time>
      </trkpt>
      <trkpt lat="48.45878" lon="2.67007">
        <ele>107</ele>
        <time>2026-02-11T15:35:43.137+00:00</time>
      </trkpt>
      <trkpt lat="48.45877" lon="2.66998">
        <ele>107</ele>
        <time>2026-02-11T15:35:48.317+00:00</time>
      </trkpt>
      <trkpt lat="48.45872" lon="2.66999">
        <ele>107</ele>
        <time>2026-02-11T15:35:52.941+00:00</time>
      </trkpt>
      <trkpt lat="48.45868" lon="2.66994">
        <ele>107</ele>
        <time>2026-02-11T15:35:57.357+00:00</time>
      </trkpt>
      <trkpt lat="48.45872" lon="2.66986">
        <ele>107</ele>
        <time>2026-02-11T15:36:01.801+00:00</time>
      </trkpt>
      <trkpt lat="48.45874" lon="2.66979">
        <ele>107</ele>
        <time>2026-02-11T15:36:06.196+00:00</time>
      </trkpt>
      <trkpt lat="48.45872" lon="2.66971">
        <ele>107</ele>
        <time>2026-02-11T15:36:10.639+00:00</time>
      </trkpt>
      <trkpt lat="48.45871" lon="2.66962">
        <ele>107</ele>
        <time>2026-02-11T15:36:15.323+00:00</time>
      </trkpt>
      <trkpt lat="48.45872" lon="2.66954">
        <ele>106</ele>
        <time>2026-02-11T15:36:20.263+00:00</time>
      </trkpt>
      <trkpt lat="48.4587" lon="2.66948">
        <ele>106</ele>
        <time>2026-02-11T15:36:24.681+00:00</time>
      </trkpt>
      <trkpt lat="48.4587" lon="2.66942">
        <ele>106</ele>
        <time>2026-02-11T15:36:28.981+00:00</time>
      </trkpt>
      <trkpt lat="48.4587" lon="2.6694">
        <ele>106</ele>
        <time>2026-02-11T15:36:33.317+00:00</time>
      </trkpt>
      <trkpt lat="48.45871" lon="2.66938">
        <ele>106</ele>
        <time>2026-02-11T15:36:57.317+00:00</time>
      </trkpt>
      <trkpt lat="48.45872" lon="2.66938">
        <ele>106</ele>
        <time>2026-02-11T15:37:12.317+00:00</time>
      </trkpt>
      <trkpt lat="48.45872" lon="2.66937">
        <ele>106</ele>
        <time>2026-02-11T15:37:17.317+00:00</time>
      </trkpt>
      <trkpt lat="48.45871" lon="2.66931">
        <ele>106</ele>
        <time>2026-02-11T15:37:21.317+00:00</time>
      </trkpt>
      <trkpt lat="48.45869" lon="2.66922">
        <ele>105</ele>
        <time>2026-02-11T15:37:25.617+00:00</time>
      </trkpt>
      <trkpt lat="48.4587" lon="2.66915">
        <ele>105</ele>
        <time>2026-02-11T15:37:30.298+00:00</time>
      </trkpt>
      <trkpt lat="48.45869" lon="2.66908">
        <ele>105</ele>
        <time>2026-02-11T15:37:34.317+00:00</time>
      </trkpt>
      <trkpt lat="48.45874" lon="2.66904">
        <ele>105</ele>
        <time>2026-02-11T15:37:38.642+00:00</time>
      </trkpt>
      <trkpt lat="48.45877" lon="2.66897">
        <ele>104</ele>
        <time>2026-02-11T15:37:43.003+00:00</time>
      </trkpt>
      <trkpt lat="48.45878" lon="2.66889">
        <ele>104</ele>
        <time>2026-02-11T15:37:47.540+00:00</time>
      </trkpt>
      <trkpt lat="48.45878" lon="2.66882">
        <ele>104</ele>
        <time>2026-02-11T15:37:51.661+00:00</time>
      </trkpt>
      <trkpt lat="48.45877" lon="2.66875">
        <ele>104</ele>
        <time>2026-02-11T15:37:55.839+00:00</time>
      </trkpt>
      <trkpt lat="48.4588" lon="2.66868">
        <ele>104</ele>
        <time>2026-02-11T15:38:00.020+00:00</time>
      </trkpt>
      <trkpt lat="48.45884" lon="2.66862">
        <ele>104</ele>
        <time>2026-02-11T15:38:04.317+00:00</time>
      </trkpt>
      <trkpt lat="48.45885" lon="2.66856">
        <ele>104</ele>
        <time>2026-02-11T15:38:08.679+00:00</time>
      </trkpt>
      <trkpt lat="48.45887" lon="2.66851">
        <ele>104</ele>
        <time>2026-02-11T15:38:12.782+00:00</time>
      </trkpt>
      <trkpt lat="48.45889" lon="2.66844">
        <ele>106</ele>
        <time>2026-02-11T15:38:17.317+00:00</time>
      </trkpt>
      <trkpt lat="48.45888" lon="2.66837">
        <ele>106</ele>
        <time>2026-02-11T15:38:21.500+00:00</time>
      </trkpt>
      <trkpt lat="48.45886" lon="2.66832">
        <ele>106</ele>
        <time>2026-02-11T15:38:25.663+00:00</time>
      </trkpt>
      <trkpt lat="48.45888" lon="2.66825">
        <ele>106</ele>
        <time>2026-02-11T15:38:29.785+00:00</time>
      </trkpt>
      <trkpt lat="48.45889" lon="2.66818">
        <ele>107</ele>
        <time>2026-02-11T15:38:34.317+00:00</time>
      </trkpt>
      <trkpt lat="48.4589" lon="2.66811">
        <ele>107</ele>
        <time>2026-02-11T15:38:38.317+00:00</time>
      </trkpt>
      <trkpt lat="48.45895" lon="2.66805">
        <ele>107</ele>
        <time>2026-02-11T15:38:43.317+00:00</time>
      </trkpt>
      <trkpt lat="48.45898" lon="2.66799">
        <ele>107</ele>
        <time>2026-02-11T15:38:48.317+00:00</time>
      </trkpt>
      <trkpt lat="48.45899" lon="2.66792">
        <ele>107</ele>
        <time>2026-02-11T15:38:53.142+00:00</time>
      </trkpt>
      <trkpt lat="48.459" lon="2.66785">
        <ele>109</ele>
        <time>2026-02-11T15:38:57.317+00:00</time>
      </trkpt>
      <trkpt lat="48.45904" lon="2.6678">
        <ele>106</ele>
        <time>2026-02-11T15:39:01.561+00:00</time>
      </trkpt>
      <trkpt lat="48.45909" lon="2.66779">
        <ele>106</ele>
        <time>2026-02-11T15:39:05.885+00:00</time>
      </trkpt>
      <trkpt lat="48.45913" lon="2.66779">
        <ele>106</ele>
        <time>2026-02-11T15:39:10.262+00:00</time>
      </trkpt>
      <trkpt lat="48.45918" lon="2.66777">
        <ele>106</ele>
        <time>2026-02-11T15:39:14.280+00:00</time>
      </trkpt>
      <trkpt lat="48.45923" lon="2.66776">
        <ele>106</ele>
        <time>2026-02-11T15:39:18.667+00:00</time>
      </trkpt>
      <trkpt lat="48.45927" lon="2.66774">
        <ele>106</ele>
        <time>2026-02-11T15:39:22.846+00:00</time>
      </trkpt>
      <trkpt lat="48.45929" lon="2.66765">
        <ele>106</ele>
        <time>2026-02-11T15:39:27.317+00:00</time>
      </trkpt>
      <trkpt lat="48.45924" lon="2.66757">
        <ele>107</ele>
        <time>2026-02-11T15:39:31.582+00:00</time>
      </trkpt>
      <trkpt lat="48.45922" lon="2.6675">
        <ele>107</ele>
        <time>2026-02-11T15:39:36.205+00:00</time>
      </trkpt>
      <trkpt lat="48.45924" lon="2.66742">
        <ele>107</ele>
        <time>2026-02-11T15:39:40.317+00:00</time>
      </trkpt>
      <trkpt lat="48.45925" lon="2.66734">
        <ele>107</ele>
        <time>2026-02-11T15:39:44.685+00:00</time>
      </trkpt>
      <trkpt lat="48.45926" lon="2.66726">
        <ele>107</ele>
        <time>2026-02-11T15:39:48.825+00:00</time>
      </trkpt>
      <trkpt lat="48.45925" lon="2.66717">
        <ele>107</ele>
        <time>2026-02-11T15:39:53.165+00:00</time>
      </trkpt>
      <trkpt lat="48.45925" lon="2.66709">
        <ele>107</ele>
        <time>2026-02-11T15:39:57.317+00:00</time>
      </trkpt>
      <trkpt lat="48.45926" lon="2.66701">
        <ele>107</ele>
        <time>2026-02-11T15:40:01.585+00:00</time>
      </trkpt>
      <trkpt lat="48.45928" lon="2.66692">
        <ele>107</ele>
        <time>2026-02-11T15:40:06.317+00:00</time>
      </trkpt>
      <trkpt lat="48.45928" lon="2.66685">
        <ele>107</ele>
        <time>2026-02-11T15:40:10.626+00:00</time>
      </trkpt>
      <trkpt lat="48.45928" lon="2.66678">
        <ele>107</ele>
        <time>2026-02-11T15:40:15.045+00:00</time>
      </trkpt>
      <trkpt lat="48.45928" lon="2.66673">
        <ele>107</ele>
        <time>2026-02-11T15:40:19.242+00:00</time>
      </trkpt>
      <trkpt lat="48.45929" lon="2.66668">
        <ele>107</ele>
        <time>2026-02-11T15:40:23.317+00:00</time>
      </trkpt>
      <trkpt lat="48.45931" lon="2.66661">
        <ele>107</ele>
        <time>2026-02-11T15:40:28.317+00:00</time>
      </trkpt>
      <trkpt lat="48.45932" lon="2.66654">
        <ele>102</ele>
        <time>2026-02-11T15:40:32.747+00:00</time>
      </trkpt>
      <trkpt lat="48.45932" lon="2.66647">
        <ele>102</ele>
        <time>2026-02-11T15:40:36.986+00:00</time>
      </trkpt>
      <trkpt lat="48.45932" lon="2.66641">
        <ele>102</ele>
        <time>2026-02-11T15:40:41.317+00:00</time>
      </trkpt>
      <trkpt lat="48.45933" lon="2.66634">
        <ele>102</ele>
        <time>2026-02-11T15:40:45.317+00:00</time>
      </trkpt>
      <trkpt lat="48.45934" lon="2.66626">
        <ele>102</ele>
        <time>2026-02-11T15:40:49.986+00:00</time>
      </trkpt>
      <trkpt lat="48.45935" lon="2.66619">
        <ele>103</ele>
        <time>2026-02-11T15:40:54.317+00:00</time>
      </trkpt>
      <trkpt lat="48.45934" lon="2.66613">
        <ele>103</ele>
        <time>2026-02-11T15:40:58.867+00:00</time>
      </trkpt>
      <trkpt lat="48.45935" lon="2.66607">
        <ele>103</ele>
        <time>2026-02-11T15:41:03.021+00:00</time>
      </trkpt>
      <trkpt lat="48.45936" lon="2.666">
        <ele>103</ele>
        <time>2026-02-11T15:41:07.317+00:00</time>
      </trkpt>
      <trkpt lat="48.4594" lon="2.66596">
        <ele>104</ele>
        <time>2026-02-11T15:41:12.317+00:00</time>
      </trkpt>
      <trkpt lat="48.45938" lon="2.66586">
        <ele>104</ele>
        <time>2026-02-11T15:41:17.327+00:00</time>
      </trkpt>
      <trkpt lat="48.45936" lon="2.66577">
        <ele>104</ele>
        <time>2026-02-11T15:41:22.317+00:00</time>
      </trkpt>
      <trkpt lat="48.45935" lon="2.66568">
        <ele>104</ele>
        <time>2026-02-11T15:41:26.984+00:00</time>
      </trkpt>
      <trkpt lat="48.45935" lon="2.66559">
        <ele>104</ele>
        <time>2026-02-11T15:41:32.104+00:00</time>
      </trkpt>
      <trkpt lat="48.45934" lon="2.66552">
        <ele>104</ele>
        <time>2026-02-11T15:41:36.171+00:00</time>
      </trkpt>
      <trkpt lat="48.45936" lon="2.66544">
        <ele>104</ele>
        <time>2026-02-11T15:41:40.307+00:00</time>
      </trkpt>
      <trkpt lat="48.45939" lon="2.66539">
        <ele>103</ele>
        <time>2026-02-11T15:41:44.317+00:00</time>
      </trkpt>
      <trkpt lat="48.4594" lon="2.6653">
        <ele>103</ele>
        <time>2026-02-11T15:41:49.247+00:00</time>
      </trkpt>
      <trkpt lat="48.45937" lon="2.66523">
        <ele>103</ele>
        <time>2026-02-11T15:41:53.887+00:00</time>
      </trkpt>
      <trkpt lat="48.45936" lon="2.66516">
        <ele>103</ele>
        <time>2026-02-11T15:41:58.317+00:00</time>
      </trkpt>
      <trkpt lat="48.45936" lon="2.66508">
        <ele>102</ele>
        <time>2026-02-11T15:42:02.844+00:00</time>
      </trkpt>
      <trkpt lat="48.45941" lon="2.66504">
        <ele>102</ele>
        <time>2026-02-11T15:42:07.103+00:00</time>
      </trkpt>
      <trkpt lat="48.45942" lon="2.66496">
        <ele>102</ele>
        <time>2026-02-11T15:42:11.317+00:00</time>
      </trkpt>
      <trkpt lat="48.45942" lon="2.66486">
        <ele>101</ele>
        <time>2026-02-11T15:42:15.661+00:00</time>
      </trkpt>
      <trkpt lat="48.45946" lon="2.66478">
        <ele>101</ele>
        <time>2026-02-11T15:42:20.224+00:00</time>
      </trkpt>
      <trkpt lat="48.4595" lon="2.66471">
        <ele>101</ele>
        <time>2026-02-11T15:42:24.626+00:00</time>
      </trkpt>
      <trkpt lat="48.45952" lon="2.66464">
        <ele>101</ele>
        <time>2026-02-11T15:42:28.746+00:00</time>
      </trkpt>
      <trkpt lat="48.45956" lon="2.66458">
        <ele>101</ele>
        <time>2026-02-11T15:42:33.241+00:00</time>
      </trkpt>
      <trkpt lat="48.45961" lon="2.66456">
        <ele>101</ele>
        <time>2026-02-11T15:42:37.284+00:00</time>
      </trkpt>
      <trkpt lat="48.45965" lon="2.66455">
        <ele>101</ele>
        <time>2026-02-11T15:42:41.565+00:00</time>
      </trkpt>
      <trkpt lat="48.4597" lon="2.66451">
        <ele>101</ele>
        <time>2026-02-11T15:42:45.844+00:00</time>
      </trkpt>
      <trkpt lat="48.45974" lon="2.66444">
        <ele>101</ele>
        <time>2026-02-11T15:42:50.317+00:00</time>
      </trkpt>
      <trkpt lat="48.4598" lon="2.6644">
        <ele>101</ele>
        <time>2026-02-11T15:42:55.180+00:00</time>
      </trkpt>
      <trkpt lat="48.45985" lon="2.6644">
        <ele>101</ele>
        <time>2026-02-11T15:42:59.317+00:00</time>
      </trkpt>
      <trkpt lat="48.45991" lon="2.66437">
        <ele>101</ele>
        <time>2026-02-11T15:43:22.084+00:00</time>
      </trkpt>
      <trkpt lat="48.45996" lon="2.66441">
        <ele>101</ele>
        <time>2026-02-11T15:43:26.562+00:00</time>
      </trkpt>
      <trkpt lat="48.46002" lon="2.66444">
        <ele>101</ele>
        <time>2026-02-11T15:43:31.288+00:00</time>
      </trkpt>
      <trkpt lat="48.46009" lon="2.66445">
        <ele>101</ele>
        <time>2026-02-11T15:43:35.680+00:00</time>
      </trkpt>
      <trkpt lat="48.46015" lon="2.66449">
        <ele>101</ele>
        <time>2026-02-11T15:43:39.783+00:00</time>
      </trkpt>
      <trkpt lat="48.46021" lon="2.66451">
        <ele>101</ele>
        <time>2026-02-11T15:43:43.784+00:00</time>
      </trkpt>
      <trkpt lat="48.46024" lon="2.66455">
        <ele>101</ele>
        <time>2026-02-11T15:43:47.862+00:00</time>
      </trkpt>
      <trkpt lat="48.46031" lon="2.66455">
        <ele>101</ele>
        <time>2026-02-11T15:43:52.126+00:00</time>
      </trkpt>
      <trkpt lat="48.46033" lon="2.66455">
        <ele>101</ele>
        <time>2026-02-11T15:43:56.317+00:00</time>
      </trkpt>
      <trkpt lat="48.46034" lon="2.66455">
        <ele>101</ele>
        <time>2026-02-11T15:44:01.186+00:00</time>
      </trkpt>
      <trkpt lat="48.46038" lon="2.66455">
        <ele>101</ele>
        <time>2026-02-11T15:44:05.317+00:00</time>
      </trkpt>
      <trkpt lat="48.46039" lon="2.66457">
        <ele>101</ele>
        <time>2026-02-11T15:44:10.317+00:00</time>
      </trkpt>
      <trkpt lat="48.4604" lon="2.66457">
        <ele>101</ele>
        <time>2026-02-11T15:44:14.322+00:00</time>
      </trkpt>
      <trkpt lat="48.46046" lon="2.66464">
        <ele>99</ele>
        <time>2026-02-11T15:44:19.108+00:00</time>
      </trkpt>
      <trkpt lat="48.46048" lon="2.66471">
        <ele>99</ele>
        <time>2026-02-11T15:44:23.125+00:00</time>
      </trkpt>
      <trkpt lat="48.46051" lon="2.66477">
        <ele>99</ele>
        <time>2026-02-11T15:44:27.317+00:00</time>
      </trkpt>
      <trkpt lat="48.46054" lon="2.66482">
        <ele>99</ele>
        <time>2026-02-11T15:44:32.286+00:00</time>
      </trkpt>
      <trkpt lat="48.46057" lon="2.66488">
        <ele>98</ele>
        <time>2026-02-11T15:44:36.543+00:00</time>
      </trkpt>
      <trkpt lat="48.46062" lon="2.66492">
        <ele>98</ele>
        <time>2026-02-11T15:44:40.901+00:00</time>
      </trkpt>
      <trkpt lat="48.46066" lon="2.665">
        <ele>98</ele>
        <time>2026-02-11T15:44:45.046+00:00</time>
      </trkpt>
      <trkpt lat="48.46071" lon="2.66505">
        <ele>97</ele>
        <time>2026-02-11T15:44:49.317+00:00</time>
      </trkpt>
      <trkpt lat="48.46076" lon="2.66507">
        <ele>97</ele>
        <time>2026-02-11T15:44:53.525+00:00</time>
      </trkpt>
      <trkpt lat="48.46081" lon="2.66509">
        <ele>97</ele>
        <time>2026-02-11T15:44:57.825+00:00</time>
      </trkpt>
      <trkpt lat="48.46087" lon="2.66509">
        <ele>97</ele>
        <time>2026-02-11T15:45:02.317+00:00</time>
      </trkpt>
      <trkpt lat="48.46093" lon="2.66511">
        <ele>97</ele>
        <time>2026-02-11T15:45:06.483+00:00</time>
      </trkpt>
      <trkpt lat="48.46098" lon="2.66512">
        <ele>96</ele>
        <time>2026-02-11T15:45:10.842+00:00</time>
      </trkpt>
      <trkpt lat="48.46103" lon="2.66511">
        <ele>96</ele>
        <time>2026-02-11T15:45:14.987+00:00</time>
      </trkpt>
      <trkpt lat="48.46108" lon="2.66508">
        <ele>96</ele>
        <time>2026-02-11T15:45:19.317+00:00</time>
      </trkpt>
      <trkpt lat="48.46112" lon="2.66507">
        <ele>96</ele>
        <time>2026-02-11T15:45:23.836+00:00</time>
      </trkpt>
      <trkpt lat="48.46116" lon="2.665">
        <ele>96</ele>
        <time>2026-02-11T15:45:27.961+00:00</time>
      </trkpt>
      <trkpt lat="48.46119" lon="2.66492">
        <ele>96</ele>
        <time>2026-02-11T15:45:32.123+00:00</time>
      </trkpt>
      <trkpt lat="48.46123" lon="2.66484">
        <ele>97</ele>
        <time>2026-02-11T15:45:36.543+00:00</time>
      </trkpt>
      <trkpt lat="48.46123" lon="2.66476">
        <ele>97</ele>
        <time>2026-02-11T15:45:41.105+00:00</time>
      </trkpt>
      <trkpt lat="48.46124" lon="2.66469">
        <ele>97</ele>
        <time>2026-02-11T15:45:45.319+00:00</time>
      </trkpt>
      <trkpt lat="48.46125" lon="2.66463">
        <ele>97</ele>
        <time>2026-02-11T15:45:49.524+00:00</time>
      </trkpt>
      <trkpt lat="48.46128" lon="2.66457">
        <ele>96</ele>
        <time>2026-02-11T15:45:53.721+00:00</time>
      </trkpt>
      <trkpt lat="48.46131" lon="2.66451">
        <ele>96</ele>
        <time>2026-02-11T15:45:58.027+00:00</time>
      </trkpt>
      <trkpt lat="48.46134" lon="2.66445">
        <ele>96</ele>
        <time>2026-02-11T15:46:02.317+00:00</time>
      </trkpt>
      <trkpt lat="48.46134" lon="2.66446">
        <ele>96</ele>
        <time>2026-02-11T15:46:06.917+00:00</time>
      </trkpt>
      <trkpt lat="48.46135" lon="2.66446">
        <ele>96</ele>
        <time>2026-02-11T15:46:11.317+00:00</time>
      </trkpt>
      <trkpt lat="48.46141" lon="2.66451">
        <ele>96</ele>
        <time>2026-02-11T15:46:16.145+00:00</time>
      </trkpt>
      <trkpt lat="48.46144" lon="2.66457">
        <ele>96</ele>
        <time>2026-02-11T15:46:20.223+00:00</time>
      </trkpt>
      <trkpt lat="48.4615" lon="2.66463">
        <ele>96</ele>
        <time>2026-02-11T15:46:24.549+00:00</time>
      </trkpt>
      <trkpt lat="48.46155" lon="2.6647">
        <ele>97</ele>
        <time>2026-02-11T15:46:28.965+00:00</time>
      </trkpt>
      <trkpt lat="48.46159" lon="2.66475">
        <ele>97</ele>
        <time>2026-02-11T15:46:33.317+00:00</time>
      </trkpt>
      <trkpt lat="48.46162" lon="2.66479">
        <ele>97</ele>
        <time>2026-02-11T15:46:37.606+00:00</time>
      </trkpt>
      <trkpt lat="48.46168" lon="2.66481">
        <ele>97</ele>
        <time>2026-02-11T15:46:41.982+00:00</time>
      </trkpt>
      <trkpt lat="48.46174" lon="2.66484">
        <ele>97</ele>
        <time>2026-02-11T15:46:46.317+00:00</time>
      </trkpt>
      <trkpt lat="48.46179" lon="2.66485">
        <ele>97</ele>
        <time>2026-02-11T15:46:50.832+00:00</time>
      </trkpt>
      <trkpt lat="48.46185" lon="2.66486">
        <ele>99</ele>
        <time>2026-02-11T15:46:55.127+00:00</time>
      </trkpt>
      <trkpt lat="48.4619" lon="2.66485">
        <ele>99</ele>
        <time>2026-02-11T15:46:59.468+00:00</time>
      </trkpt>
      <trkpt lat="48.46195" lon="2.66485">
        <ele>99</ele>
        <time>2026-02-11T15:47:04.040+00:00</time>
      </trkpt>
      <trkpt lat="48.46201" lon="2.66488">
        <ele>98</ele>
        <time>2026-02-11T15:47:08.317+00:00</time>
      </trkpt>
      <trkpt lat="48.46207" lon="2.66491">
        <ele>98</ele>
        <time>2026-02-11T15:47:13.142+00:00</time>
      </trkpt>
      <trkpt lat="48.4621" lon="2.665">
        <ele>98</ele>
        <time>2026-02-11T15:47:18.302+00:00</time>
      </trkpt>
      <trkpt lat="48.46213" lon="2.66506">
        <ele>98</ele>
        <time>2026-02-11T15:47:23.087+00:00</time>
      </trkpt>
      <trkpt lat="48.4622" lon="2.66507">
        <ele>98</ele>
        <time>2026-02-11T15:47:28.317+00:00</time>
      </trkpt>
      <trkpt lat="48.46224" lon="2.66503">
        <ele>98</ele>
        <time>2026-02-11T15:47:33.317+00:00</time>
      </trkpt>
      <trkpt lat="48.46229" lon="2.66506">
        <ele>98</ele>
        <time>2026-02-11T15:47:37.460+00:00</time>
      </trkpt>
      <trkpt lat="48.46234" lon="2.6651">
        <ele>98</ele>
        <time>2026-02-11T15:47:41.921+00:00</time>
      </trkpt>
      <trkpt lat="48.46237" lon="2.66512">
        <ele>97</ele>
        <time>2026-02-11T15:47:44.317+00:00</time>
      </trkpt>
      <trkpt lat="48.46245" lon="2.66515">
        <ele>96</ele>
        <time>2026-02-11T15:47:53.317+00:00</time>
      </trkpt>
      <trkpt lat="48.46251" lon="2.66517">
        <ele>96</ele>
        <time>2026-02-11T15:47:57.645+00:00</time>
      </trkpt>
      <trkpt lat="48.46255" lon="2.66515">
        <ele>96</ele>
        <time>2026-02-11T15:48:02.027+00:00</time>
      </trkpt>
      <trkpt lat="48.46261" lon="2.66511">
        <ele>97</ele>
        <time>2026-02-11T15:48:06.570+00:00</time>
      </trkpt>
      <trkpt lat="48.46268" lon="2.66511">
        <ele>95</ele>
        <time>2026-02-11T15:48:11.009+00:00</time>
      </trkpt>
      <trkpt lat="48.46274" lon="2.66516">
        <ele>93</ele>
        <time>2026-02-11T15:48:15.317+00:00</time>
      </trkpt>
      <trkpt lat="48.46279" lon="2.66519">
        <ele>93</ele>
        <time>2026-02-11T15:48:19.809+00:00</time>
      </trkpt>
      <trkpt lat="48.46285" lon="2.6652">
        <ele>93</ele>
        <time>2026-02-11T15:48:24.148+00:00</time>
      </trkpt>
      <trkpt lat="48.46285" lon="2.66528">
        <ele>93</ele>
        <time>2026-02-11T15:48:28.202+00:00</time>
      </trkpt>
      <trkpt lat="48.46287" lon="2.66538">
        <ele>93</ele>
        <time>2026-02-11T15:48:32.446+00:00</time>
      </trkpt>
      <trkpt lat="48.46288" lon="2.66548">
        <ele>92</ele>
        <time>2026-02-11T15:48:37.309+00:00</time>
      </trkpt>
      <trkpt lat="48.46292" lon="2.66556">
        <ele>92</ele>
        <time>2026-02-11T15:48:41.566+00:00</time>
      </trkpt>
      <trkpt lat="48.46297" lon="2.66559">
        <ele>90</ele>
        <time>2026-02-11T15:48:45.908+00:00</time>
      </trkpt>
      <trkpt lat="48.46301" lon="2.6656">
        <ele>90</ele>
        <time>2026-02-11T15:48:50.025+00:00</time>
      </trkpt>
      <trkpt lat="48.46306" lon="2.66554">
        <ele>90</ele>
        <time>2026-02-11T15:48:54.292+00:00</time>
      </trkpt>
      <trkpt lat="48.4631" lon="2.66548">
        <ele>90</ele>
        <time>2026-02-11T15:48:58.707+00:00</time>
      </trkpt>
      <trkpt lat="48.46317" lon="2.66549">
        <ele>90</ele>
        <time>2026-02-11T15:49:03.131+00:00</time>
      </trkpt>
      <trkpt lat="48.46324" lon="2.66547">
        <ele>91</ele>
        <time>2026-02-11T15:49:25.001+00:00</time>
      </trkpt>
      <trkpt lat="48.4633" lon="2.66549">
        <ele>91</ele>
        <time>2026-02-11T15:49:29.208+00:00</time>
      </trkpt>
      <trkpt lat="48.46332" lon="2.66545">
        <ele>91</ele>
        <time>2026-02-11T15:49:33.317+00:00</time>
      </trkpt>
      <trkpt lat="48.46337" lon="2.6654">
        <ele>93</ele>
        <time>2026-02-11T15:49:38.317+00:00</time>
      </trkpt>
      <trkpt lat="48.46342" lon="2.6654">
        <ele>93</ele>
        <time>2026-02-11T15:49:42.841+00:00</time>
      </trkpt>
    </trkseg>
  </trk>
</gpx>